<?xml version="1.0" encoding="UTF-8" standalone="no" ?>
<gpx xmlns="http://www.topografix.com/GPX/1/1" xmlns:xsi="http://www.w3.org/2001/XMLSchema-instance" xsi:schemaLocation="http://www.topografix.com/GPX/1/1 http://www.topografix.com/GPX/1/1/gpx.xsd" version="1.1" creator="VisuGPX - https://www.visugpx.com">
  <metadata>
    <name>2018-09-26 Bike ride VTT-Amberieux Les Cheres O v22k</name>
    <desc><![CDATA[2018-09-26 Bike ride VTT-Amberieux Les Cheres O v22k]]></desc>
  </metadata>
  <wpt lat="45.92454" lon="4.73726">
    <ele>174</ele>
    <name><![CDATA[2018-09-26 10:43 (Start)]]></name>
  </wpt>
  <wpt lat="45.92463" lon="4.73711">
    <ele>174</ele>
    <name><![CDATA[2018-09-26 10:43 (End)]]></name>
  </wpt>
  <trk>
    <name><![CDATA[2018-09-26 10:43]]></name>
    <trkseg>
      <trkpt lat="45.92454" lon="4.73726">
        <ele>174</ele>
        <time>2018-09-26T08:43:18.119Z</time>
      </trkpt>
      <trkpt lat="45.92453" lon="4.73717">
        <ele>174</ele>
        <time>2018-09-26T08:43:27Z</time>
      </trkpt>
      <trkpt lat="45.92456" lon="4.73712">
        <ele>174</ele>
        <time>2018-09-26T08:43:28Z</time>
      </trkpt>
      <trkpt lat="45.92462" lon="4.73705">
        <ele>174</ele>
        <time>2018-09-26T08:43:43Z</time>
      </trkpt>
      <trkpt lat="45.92463" lon="4.73703">
        <ele>174</ele>
        <time>2018-09-26T08:43:44Z</time>
      </trkpt>
      <trkpt lat="45.92465" lon="4.73692">
        <ele>174</ele>
        <time>2018-09-26T08:43:48Z</time>
      </trkpt>
      <trkpt lat="45.92466" lon="4.73688">
        <ele>174</ele>
        <time>2018-09-26T08:43:49Z</time>
      </trkpt>
      <trkpt lat="45.92467" lon="4.73676">
        <ele>174</ele>
        <time>2018-09-26T08:43:52Z</time>
      </trkpt>
      <trkpt lat="45.92467" lon="4.73671">
        <ele>174</ele>
        <time>2018-09-26T08:43:53Z</time>
      </trkpt>
      <trkpt lat="45.92468" lon="4.73658">
        <ele>174</ele>
        <time>2018-09-26T08:43:56Z</time>
      </trkpt>
      <trkpt lat="45.92468" lon="4.73655">
        <ele>174</ele>
        <time>2018-09-26T08:43:57Z</time>
      </trkpt>
      <trkpt lat="45.92472" lon="4.73644">
        <ele>174</ele>
        <time>2018-09-26T08:44:00Z</time>
      </trkpt>
      <trkpt lat="45.92474" lon="4.73641">
        <ele>174</ele>
        <time>2018-09-26T08:44:01Z</time>
      </trkpt>
      <trkpt lat="45.92476" lon="4.7364">
        <ele>174</ele>
        <time>2018-09-26T08:44:02Z</time>
      </trkpt>
      <trkpt lat="45.92485" lon="4.73637">
        <ele>174</ele>
        <time>2018-09-26T08:44:03Z</time>
      </trkpt>
      <trkpt lat="45.92493" lon="4.73638">
        <ele>174</ele>
        <time>2018-09-26T08:44:05Z</time>
      </trkpt>
      <trkpt lat="45.92497" lon="4.73638">
        <ele>174</ele>
        <time>2018-09-26T08:44:06Z</time>
      </trkpt>
      <trkpt lat="45.92505" lon="4.73637">
        <ele>174</ele>
        <time>2018-09-26T08:44:08Z</time>
      </trkpt>
      <trkpt lat="45.92511" lon="4.73637">
        <ele>174</ele>
        <time>2018-09-26T08:44:09Z</time>
      </trkpt>
      <trkpt lat="45.92516" lon="4.73637">
        <ele>173</ele>
        <time>2018-09-26T08:44:10Z</time>
      </trkpt>
      <trkpt lat="45.9252" lon="4.73636">
        <ele>173</ele>
        <time>2018-09-26T08:44:11Z</time>
      </trkpt>
      <trkpt lat="45.92529" lon="4.73637">
        <ele>173</ele>
        <time>2018-09-26T08:44:13.292Z</time>
      </trkpt>
      <trkpt lat="45.92533" lon="4.73637">
        <ele>173</ele>
        <time>2018-09-26T08:44:14Z</time>
      </trkpt>
      <trkpt lat="45.92541" lon="4.73635">
        <ele>173</ele>
        <time>2018-09-26T08:44:16Z</time>
      </trkpt>
      <trkpt lat="45.92544" lon="4.73634">
        <ele>173</ele>
        <time>2018-09-26T08:44:17Z</time>
      </trkpt>
      <trkpt lat="45.92551" lon="4.73631">
        <ele>173</ele>
        <time>2018-09-26T08:44:19Z</time>
      </trkpt>
      <trkpt lat="45.92555" lon="4.73629">
        <ele>173</ele>
        <time>2018-09-26T08:44:20Z</time>
      </trkpt>
      <trkpt lat="45.92561" lon="4.73626">
        <ele>173</ele>
        <time>2018-09-26T08:44:22Z</time>
      </trkpt>
      <trkpt lat="45.92566" lon="4.73625">
        <ele>173</ele>
        <time>2018-09-26T08:44:23Z</time>
      </trkpt>
      <trkpt lat="45.9257" lon="4.73623">
        <ele>173</ele>
        <time>2018-09-26T08:44:25Z</time>
      </trkpt>
      <trkpt lat="45.92578" lon="4.73623">
        <ele>173</ele>
        <time>2018-09-26T08:44:26Z</time>
      </trkpt>
      <trkpt lat="45.92582" lon="4.73623">
        <ele>173</ele>
        <time>2018-09-26T08:44:27Z</time>
      </trkpt>
      <trkpt lat="45.92587" lon="4.73621">
        <ele>173</ele>
        <time>2018-09-26T08:44:28Z</time>
      </trkpt>
      <trkpt lat="45.92593" lon="4.73621">
        <ele>173</ele>
        <time>2018-09-26T08:44:30Z</time>
      </trkpt>
      <trkpt lat="45.92597" lon="4.73621">
        <ele>173</ele>
        <time>2018-09-26T08:44:31Z</time>
      </trkpt>
      <trkpt lat="45.92601" lon="4.73624">
        <ele>173</ele>
        <time>2018-09-26T08:44:32Z</time>
      </trkpt>
      <trkpt lat="45.92606" lon="4.73628">
        <ele>173</ele>
        <time>2018-09-26T08:44:33Z</time>
      </trkpt>
      <trkpt lat="45.92611" lon="4.73632">
        <ele>173</ele>
        <time>2018-09-26T08:44:34Z</time>
      </trkpt>
      <trkpt lat="45.92616" lon="4.73636">
        <ele>173</ele>
        <time>2018-09-26T08:44:35Z</time>
      </trkpt>
      <trkpt lat="45.92619" lon="4.73644">
        <ele>173</ele>
        <time>2018-09-26T08:44:36Z</time>
      </trkpt>
      <trkpt lat="45.92622" lon="4.7365">
        <ele>173</ele>
        <time>2018-09-26T08:44:37Z</time>
      </trkpt>
      <trkpt lat="45.92624" lon="4.73657">
        <ele>173</ele>
        <time>2018-09-26T08:44:38Z</time>
      </trkpt>
      <trkpt lat="45.92628" lon="4.73665">
        <ele>173</ele>
        <time>2018-09-26T08:44:39Z</time>
      </trkpt>
      <trkpt lat="45.92632" lon="4.73675">
        <ele>173</ele>
        <time>2018-09-26T08:44:40Z</time>
      </trkpt>
      <trkpt lat="45.92635" lon="4.73681">
        <ele>173</ele>
        <time>2018-09-26T08:44:41Z</time>
      </trkpt>
      <trkpt lat="45.9264" lon="4.73686">
        <ele>173</ele>
        <time>2018-09-26T08:44:42Z</time>
      </trkpt>
      <trkpt lat="45.92644" lon="4.73692">
        <ele>173</ele>
        <time>2018-09-26T08:44:43Z</time>
      </trkpt>
      <trkpt lat="45.92648" lon="4.73697">
        <ele>173</ele>
        <time>2018-09-26T08:44:44Z</time>
      </trkpt>
      <trkpt lat="45.92652" lon="4.737">
        <ele>173</ele>
        <time>2018-09-26T08:44:45Z</time>
      </trkpt>
      <trkpt lat="45.92657" lon="4.73704">
        <ele>173</ele>
        <time>2018-09-26T08:44:46Z</time>
      </trkpt>
      <trkpt lat="45.9266" lon="4.73707">
        <ele>173</ele>
        <time>2018-09-26T08:44:47Z</time>
      </trkpt>
      <trkpt lat="45.92668" lon="4.73712">
        <ele>174</ele>
        <time>2018-09-26T08:44:49Z</time>
      </trkpt>
      <trkpt lat="45.92672" lon="4.73714">
        <ele>174</ele>
        <time>2018-09-26T08:44:50Z</time>
      </trkpt>
      <trkpt lat="45.92678" lon="4.73718">
        <ele>174</ele>
        <time>2018-09-26T08:44:52Z</time>
      </trkpt>
      <trkpt lat="45.92682" lon="4.73719">
        <ele>173</ele>
        <time>2018-09-26T08:44:53Z</time>
      </trkpt>
      <trkpt lat="45.92687" lon="4.73721">
        <ele>173</ele>
        <time>2018-09-26T08:44:54Z</time>
      </trkpt>
      <trkpt lat="45.92692" lon="4.7372">
        <ele>173</ele>
        <time>2018-09-26T08:44:55Z</time>
      </trkpt>
      <trkpt lat="45.92695" lon="4.7372">
        <ele>173</ele>
        <time>2018-09-26T08:44:56Z</time>
      </trkpt>
      <trkpt lat="45.92703" lon="4.7372">
        <ele>173</ele>
        <time>2018-09-26T08:44:57Z</time>
      </trkpt>
      <trkpt lat="45.92708" lon="4.73722">
        <ele>173</ele>
        <time>2018-09-26T08:44:58Z</time>
      </trkpt>
      <trkpt lat="45.92714" lon="4.73723">
        <ele>173</ele>
        <time>2018-09-26T08:44:59Z</time>
      </trkpt>
      <trkpt lat="45.92719" lon="4.73722">
        <ele>173</ele>
        <time>2018-09-26T08:45:00Z</time>
      </trkpt>
      <trkpt lat="45.92725" lon="4.73723">
        <ele>173</ele>
        <time>2018-09-26T08:45:01Z</time>
      </trkpt>
      <trkpt lat="45.9273" lon="4.73725">
        <ele>173</ele>
        <time>2018-09-26T08:45:02Z</time>
      </trkpt>
      <trkpt lat="45.92736" lon="4.73725">
        <ele>173</ele>
        <time>2018-09-26T08:45:03Z</time>
      </trkpt>
      <trkpt lat="45.92741" lon="4.73728">
        <ele>173</ele>
        <time>2018-09-26T08:45:04Z</time>
      </trkpt>
      <trkpt lat="45.92746" lon="4.7373">
        <ele>173</ele>
        <time>2018-09-26T08:45:05Z</time>
      </trkpt>
      <trkpt lat="45.92751" lon="4.73732">
        <ele>173</ele>
        <time>2018-09-26T08:45:06Z</time>
      </trkpt>
      <trkpt lat="45.92755" lon="4.73734">
        <ele>173</ele>
        <time>2018-09-26T08:45:07Z</time>
      </trkpt>
      <trkpt lat="45.92763" lon="4.73738">
        <ele>172</ele>
        <time>2018-09-26T08:45:10Z</time>
      </trkpt>
      <trkpt lat="45.92769" lon="4.73742">
        <ele>172</ele>
        <time>2018-09-26T08:45:11Z</time>
      </trkpt>
      <trkpt lat="45.92776" lon="4.73746">
        <ele>172</ele>
        <time>2018-09-26T08:45:15Z</time>
      </trkpt>
      <trkpt lat="45.92782" lon="4.73753">
        <ele>173</ele>
        <time>2018-09-26T08:45:16Z</time>
      </trkpt>
      <trkpt lat="45.92788" lon="4.73758">
        <ele>173</ele>
        <time>2018-09-26T08:45:18Z</time>
      </trkpt>
      <trkpt lat="45.92793" lon="4.7376">
        <ele>173</ele>
        <time>2018-09-26T08:45:19Z</time>
      </trkpt>
      <trkpt lat="45.92798" lon="4.73763">
        <ele>173</ele>
        <time>2018-09-26T08:45:20Z</time>
      </trkpt>
      <trkpt lat="45.92802" lon="4.73765">
        <ele>173</ele>
        <time>2018-09-26T08:45:21Z</time>
      </trkpt>
      <trkpt lat="45.92807" lon="4.73768">
        <ele>173</ele>
        <time>2018-09-26T08:45:22Z</time>
      </trkpt>
      <trkpt lat="45.92812" lon="4.7377">
        <ele>173</ele>
        <time>2018-09-26T08:45:23Z</time>
      </trkpt>
      <trkpt lat="45.92816" lon="4.73773">
        <ele>173</ele>
        <time>2018-09-26T08:45:24Z</time>
      </trkpt>
      <trkpt lat="45.92821" lon="4.73777">
        <ele>173</ele>
        <time>2018-09-26T08:45:25Z</time>
      </trkpt>
      <trkpt lat="45.92825" lon="4.7378">
        <ele>173</ele>
        <time>2018-09-26T08:45:26Z</time>
      </trkpt>
      <trkpt lat="45.9283" lon="4.73784">
        <ele>173</ele>
        <time>2018-09-26T08:45:27Z</time>
      </trkpt>
      <trkpt lat="45.92833" lon="4.73787">
        <ele>173</ele>
        <time>2018-09-26T08:45:28Z</time>
      </trkpt>
      <trkpt lat="45.92837" lon="4.73791">
        <ele>173</ele>
        <time>2018-09-26T08:45:29Z</time>
      </trkpt>
      <trkpt lat="45.9284" lon="4.73797">
        <ele>173</ele>
        <time>2018-09-26T08:45:30Z</time>
      </trkpt>
      <trkpt lat="45.92844" lon="4.73801">
        <ele>173</ele>
        <time>2018-09-26T08:45:31Z</time>
      </trkpt>
      <trkpt lat="45.92849" lon="4.73811">
        <ele>173</ele>
        <time>2018-09-26T08:45:33Z</time>
      </trkpt>
      <trkpt lat="45.92852" lon="4.73817">
        <ele>173</ele>
        <time>2018-09-26T08:45:34Z</time>
      </trkpt>
      <trkpt lat="45.92855" lon="4.73823">
        <ele>173</ele>
        <time>2018-09-26T08:45:35Z</time>
      </trkpt>
      <trkpt lat="45.92858" lon="4.73832">
        <ele>173</ele>
        <time>2018-09-26T08:45:36Z</time>
      </trkpt>
      <trkpt lat="45.92859" lon="4.73839">
        <ele>173</ele>
        <time>2018-09-26T08:45:37Z</time>
      </trkpt>
      <trkpt lat="45.92862" lon="4.73846">
        <ele>173</ele>
        <time>2018-09-26T08:45:38Z</time>
      </trkpt>
      <trkpt lat="45.92864" lon="4.73853">
        <ele>173</ele>
        <time>2018-09-26T08:45:39Z</time>
      </trkpt>
      <trkpt lat="45.92866" lon="4.7386">
        <ele>173</ele>
        <time>2018-09-26T08:45:40Z</time>
      </trkpt>
      <trkpt lat="45.92868" lon="4.73867">
        <ele>173</ele>
        <time>2018-09-26T08:45:41Z</time>
      </trkpt>
      <trkpt lat="45.92869" lon="4.73875">
        <ele>173</ele>
        <time>2018-09-26T08:45:42Z</time>
      </trkpt>
      <trkpt lat="45.92873" lon="4.73882">
        <ele>173</ele>
        <time>2018-09-26T08:45:43Z</time>
      </trkpt>
      <trkpt lat="45.92876" lon="4.7389">
        <ele>173</ele>
        <time>2018-09-26T08:45:44Z</time>
      </trkpt>
      <trkpt lat="45.92878" lon="4.73897">
        <ele>173</ele>
        <time>2018-09-26T08:45:45Z</time>
      </trkpt>
      <trkpt lat="45.92879" lon="4.73904">
        <ele>173</ele>
        <time>2018-09-26T08:45:46Z</time>
      </trkpt>
      <trkpt lat="45.9288" lon="4.73912">
        <ele>173</ele>
        <time>2018-09-26T08:45:47Z</time>
      </trkpt>
      <trkpt lat="45.92881" lon="4.73918">
        <ele>172</ele>
        <time>2018-09-26T08:45:48Z</time>
      </trkpt>
      <trkpt lat="45.92882" lon="4.73924">
        <ele>172</ele>
        <time>2018-09-26T08:45:49Z</time>
      </trkpt>
      <trkpt lat="45.92884" lon="4.73932">
        <ele>172</ele>
        <time>2018-09-26T08:45:50Z</time>
      </trkpt>
      <trkpt lat="45.92886" lon="4.73944">
        <ele>172</ele>
        <time>2018-09-26T08:45:52Z</time>
      </trkpt>
      <trkpt lat="45.92887" lon="4.73951">
        <ele>172</ele>
        <time>2018-09-26T08:45:53Z</time>
      </trkpt>
      <trkpt lat="45.92887" lon="4.73957">
        <ele>172</ele>
        <time>2018-09-26T08:45:54Z</time>
      </trkpt>
      <trkpt lat="45.92885" lon="4.73964">
        <ele>172</ele>
        <time>2018-09-26T08:45:55Z</time>
      </trkpt>
      <trkpt lat="45.92884" lon="4.73971">
        <ele>172</ele>
        <time>2018-09-26T08:45:56Z</time>
      </trkpt>
      <trkpt lat="45.92884" lon="4.73978">
        <ele>172</ele>
        <time>2018-09-26T08:45:57Z</time>
      </trkpt>
      <trkpt lat="45.92883" lon="4.73985">
        <ele>172</ele>
        <time>2018-09-26T08:45:58Z</time>
      </trkpt>
      <trkpt lat="45.92885" lon="4.73992">
        <ele>172</ele>
        <time>2018-09-26T08:45:59Z</time>
      </trkpt>
      <trkpt lat="45.92884" lon="4.74004">
        <ele>172</ele>
        <time>2018-09-26T08:46:01Z</time>
      </trkpt>
      <trkpt lat="45.92883" lon="4.7401">
        <ele>172</ele>
        <time>2018-09-26T08:46:02Z</time>
      </trkpt>
      <trkpt lat="45.92885" lon="4.74019">
        <ele>172</ele>
        <time>2018-09-26T08:46:03Z</time>
      </trkpt>
      <trkpt lat="45.92885" lon="4.74025">
        <ele>172</ele>
        <time>2018-09-26T08:46:04Z</time>
      </trkpt>
      <trkpt lat="45.92886" lon="4.74032">
        <ele>172</ele>
        <time>2018-09-26T08:46:05Z</time>
      </trkpt>
      <trkpt lat="45.92888" lon="4.74038">
        <ele>172</ele>
        <time>2018-09-26T08:46:06Z</time>
      </trkpt>
      <trkpt lat="45.92894" lon="4.74047">
        <ele>172</ele>
        <time>2018-09-26T08:46:08Z</time>
      </trkpt>
      <trkpt lat="45.92898" lon="4.74051">
        <ele>172</ele>
        <time>2018-09-26T08:46:09Z</time>
      </trkpt>
      <trkpt lat="45.92902" lon="4.74056">
        <ele>172</ele>
        <time>2018-09-26T08:46:10Z</time>
      </trkpt>
      <trkpt lat="45.92906" lon="4.74059">
        <ele>172</ele>
        <time>2018-09-26T08:46:11Z</time>
      </trkpt>
      <trkpt lat="45.92912" lon="4.74065">
        <ele>173</ele>
        <time>2018-09-26T08:46:13Z</time>
      </trkpt>
      <trkpt lat="45.92915" lon="4.74071">
        <ele>173</ele>
        <time>2018-09-26T08:46:14Z</time>
      </trkpt>
      <trkpt lat="45.92917" lon="4.74081">
        <ele>173</ele>
        <time>2018-09-26T08:46:16Z</time>
      </trkpt>
      <trkpt lat="45.92917" lon="4.74085">
        <ele>173</ele>
        <time>2018-09-26T08:46:17Z</time>
      </trkpt>
      <trkpt lat="45.92913" lon="4.74095">
        <ele>173</ele>
        <time>2018-09-26T08:46:21Z</time>
      </trkpt>
      <trkpt lat="45.92912" lon="4.74098">
        <ele>172</ele>
        <time>2018-09-26T08:46:22Z</time>
      </trkpt>
      <trkpt lat="45.92906" lon="4.74107">
        <ele>172</ele>
        <time>2018-09-26T08:46:25Z</time>
      </trkpt>
      <trkpt lat="45.92904" lon="4.74109">
        <ele>172</ele>
        <time>2018-09-26T08:46:26Z</time>
      </trkpt>
      <trkpt lat="45.92897" lon="4.74117">
        <ele>172</ele>
        <time>2018-09-26T08:46:29Z</time>
      </trkpt>
      <trkpt lat="45.92895" lon="4.7412">
        <ele>172</ele>
        <time>2018-09-26T08:46:30Z</time>
      </trkpt>
      <trkpt lat="45.92889" lon="4.74128">
        <ele>172</ele>
        <time>2018-09-26T08:46:33Z</time>
      </trkpt>
      <trkpt lat="45.92888" lon="4.74131">
        <ele>172</ele>
        <time>2018-09-26T08:46:34Z</time>
      </trkpt>
      <trkpt lat="45.92884" lon="4.74142">
        <ele>172</ele>
        <time>2018-09-26T08:46:37Z</time>
      </trkpt>
      <trkpt lat="45.92884" lon="4.74146">
        <ele>172</ele>
        <time>2018-09-26T08:46:38Z</time>
      </trkpt>
      <trkpt lat="45.92884" lon="4.74158">
        <ele>172</ele>
        <time>2018-09-26T08:46:41Z</time>
      </trkpt>
      <trkpt lat="45.92886" lon="4.74163">
        <ele>172</ele>
        <time>2018-09-26T08:46:42Z</time>
      </trkpt>
      <trkpt lat="45.92889" lon="4.7417">
        <ele>171</ele>
        <time>2018-09-26T08:46:44Z</time>
      </trkpt>
      <trkpt lat="45.92891" lon="4.74173">
        <ele>171</ele>
        <time>2018-09-26T08:46:45Z</time>
      </trkpt>
      <trkpt lat="45.92896" lon="4.74178">
        <ele>171</ele>
        <time>2018-09-26T08:46:47Z</time>
      </trkpt>
      <trkpt lat="45.92899" lon="4.7418">
        <ele>171</ele>
        <time>2018-09-26T08:46:48Z</time>
      </trkpt>
      <trkpt lat="45.92905" lon="4.74183">
        <ele>172</ele>
        <time>2018-09-26T08:46:50Z</time>
      </trkpt>
      <trkpt lat="45.92908" lon="4.74185">
        <ele>172</ele>
        <time>2018-09-26T08:46:51Z</time>
      </trkpt>
      <trkpt lat="45.92915" lon="4.74188">
        <ele>171</ele>
        <time>2018-09-26T08:46:53Z</time>
      </trkpt>
      <trkpt lat="45.92918" lon="4.7419">
        <ele>171</ele>
        <time>2018-09-26T08:46:54Z</time>
      </trkpt>
      <trkpt lat="45.92921" lon="4.74192">
        <ele>171</ele>
        <time>2018-09-26T08:46:55Z</time>
      </trkpt>
      <trkpt lat="45.92929" lon="4.74196">
        <ele>170</ele>
        <time>2018-09-26T08:46:56Z</time>
      </trkpt>
      <trkpt lat="45.92936" lon="4.74201">
        <ele>170</ele>
        <time>2018-09-26T08:46:58Z</time>
      </trkpt>
      <trkpt lat="45.92938" lon="4.74203">
        <ele>170</ele>
        <time>2018-09-26T08:46:59Z</time>
      </trkpt>
      <trkpt lat="45.92944" lon="4.74207">
        <ele>170</ele>
        <time>2018-09-26T08:47:02Z</time>
      </trkpt>
      <trkpt lat="45.92947" lon="4.74208">
        <ele>170</ele>
        <time>2018-09-26T08:47:03Z</time>
      </trkpt>
      <trkpt lat="45.92955" lon="4.74211">
        <ele>170</ele>
        <time>2018-09-26T08:47:04Z</time>
      </trkpt>
      <trkpt lat="45.92956" lon="4.7421">
        <ele>170</ele>
        <time>2018-09-26T08:47:05Z</time>
      </trkpt>
      <trkpt lat="45.92962" lon="4.74209">
        <ele>170</ele>
        <time>2018-09-26T08:47:06Z</time>
      </trkpt>
      <trkpt lat="45.92965" lon="4.74206">
        <ele>170</ele>
        <time>2018-09-26T08:47:07Z</time>
      </trkpt>
      <trkpt lat="45.92968" lon="4.74197">
        <ele>170</ele>
        <time>2018-09-26T08:47:08Z</time>
      </trkpt>
      <trkpt lat="45.92972" lon="4.74191">
        <ele>170</ele>
        <time>2018-09-26T08:47:09Z</time>
      </trkpt>
      <trkpt lat="45.92974" lon="4.74185">
        <ele>170</ele>
        <time>2018-09-26T08:47:10Z</time>
      </trkpt>
      <trkpt lat="45.92976" lon="4.74177">
        <ele>170</ele>
        <time>2018-09-26T08:47:11Z</time>
      </trkpt>
      <trkpt lat="45.92979" lon="4.74171">
        <ele>170</ele>
        <time>2018-09-26T08:47:12Z</time>
      </trkpt>
      <trkpt lat="45.92981" lon="4.74164">
        <ele>170</ele>
        <time>2018-09-26T08:47:13Z</time>
      </trkpt>
      <trkpt lat="45.92983" lon="4.74156">
        <ele>170</ele>
        <time>2018-09-26T08:47:14Z</time>
      </trkpt>
      <trkpt lat="45.92985" lon="4.74146">
        <ele>170</ele>
        <time>2018-09-26T08:47:15Z</time>
      </trkpt>
      <trkpt lat="45.92987" lon="4.74137">
        <ele>171</ele>
        <time>2018-09-26T08:47:16Z</time>
      </trkpt>
      <trkpt lat="45.92989" lon="4.74128">
        <ele>171</ele>
        <time>2018-09-26T08:47:17Z</time>
      </trkpt>
      <trkpt lat="45.92991" lon="4.74118">
        <ele>171</ele>
        <time>2018-09-26T08:47:18Z</time>
      </trkpt>
      <trkpt lat="45.92993" lon="4.74109">
        <ele>171</ele>
        <time>2018-09-26T08:47:19Z</time>
      </trkpt>
      <trkpt lat="45.92995" lon="4.74099">
        <ele>171</ele>
        <time>2018-09-26T08:47:20Z</time>
      </trkpt>
      <trkpt lat="45.92995" lon="4.74089">
        <ele>171</ele>
        <time>2018-09-26T08:47:21Z</time>
      </trkpt>
      <trkpt lat="45.92996" lon="4.7408">
        <ele>171</ele>
        <time>2018-09-26T08:47:22Z</time>
      </trkpt>
      <trkpt lat="45.92996" lon="4.74071">
        <ele>171</ele>
        <time>2018-09-26T08:47:23Z</time>
      </trkpt>
      <trkpt lat="45.92996" lon="4.74061">
        <ele>171</ele>
        <time>2018-09-26T08:47:24Z</time>
      </trkpt>
      <trkpt lat="45.92995" lon="4.74052">
        <ele>171</ele>
        <time>2018-09-26T08:47:25Z</time>
      </trkpt>
      <trkpt lat="45.92996" lon="4.74044">
        <ele>171</ele>
        <time>2018-09-26T08:47:26Z</time>
      </trkpt>
      <trkpt lat="45.92998" lon="4.74037">
        <ele>171</ele>
        <time>2018-09-26T08:47:27Z</time>
      </trkpt>
      <trkpt lat="45.92998" lon="4.74029">
        <ele>171</ele>
        <time>2018-09-26T08:47:28Z</time>
      </trkpt>
      <trkpt lat="45.92999" lon="4.74022">
        <ele>171</ele>
        <time>2018-09-26T08:47:29Z</time>
      </trkpt>
      <trkpt lat="45.93001" lon="4.74015">
        <ele>170</ele>
        <time>2018-09-26T08:47:30Z</time>
      </trkpt>
      <trkpt lat="45.93004" lon="4.74009">
        <ele>170</ele>
        <time>2018-09-26T08:47:31Z</time>
      </trkpt>
      <trkpt lat="45.93011" lon="4.74001">
        <ele>170</ele>
        <time>2018-09-26T08:47:33Z</time>
      </trkpt>
      <trkpt lat="45.93015" lon="4.73998">
        <ele>170</ele>
        <time>2018-09-26T08:47:34Z</time>
      </trkpt>
      <trkpt lat="45.93023" lon="4.73995">
        <ele>169</ele>
        <time>2018-09-26T08:47:36Z</time>
      </trkpt>
      <trkpt lat="45.93028" lon="4.73996">
        <ele>169</ele>
        <time>2018-09-26T08:47:37Z</time>
      </trkpt>
      <trkpt lat="45.93033" lon="4.73998">
        <ele>169</ele>
        <time>2018-09-26T08:47:38Z</time>
      </trkpt>
      <trkpt lat="45.93037" lon="4.74">
        <ele>169</ele>
        <time>2018-09-26T08:47:39Z</time>
      </trkpt>
      <trkpt lat="45.93041" lon="4.74002">
        <ele>169</ele>
        <time>2018-09-26T08:47:40Z</time>
      </trkpt>
      <trkpt lat="45.93045" lon="4.74005">
        <ele>169</ele>
        <time>2018-09-26T08:47:41Z</time>
      </trkpt>
      <trkpt lat="45.93052" lon="4.74008">
        <ele>169</ele>
        <time>2018-09-26T08:47:43Z</time>
      </trkpt>
      <trkpt lat="45.93057" lon="4.74009">
        <ele>169</ele>
        <time>2018-09-26T08:47:44Z</time>
      </trkpt>
      <trkpt lat="45.93065" lon="4.74011">
        <ele>169</ele>
        <time>2018-09-26T08:47:46Z</time>
      </trkpt>
      <trkpt lat="45.93069" lon="4.74011">
        <ele>169</ele>
        <time>2018-09-26T08:47:47Z</time>
      </trkpt>
      <trkpt lat="45.93074" lon="4.74013">
        <ele>169</ele>
        <time>2018-09-26T08:47:48Z</time>
      </trkpt>
      <trkpt lat="45.93079" lon="4.74012">
        <ele>169</ele>
        <time>2018-09-26T08:47:49Z</time>
      </trkpt>
      <trkpt lat="45.93083" lon="4.74013">
        <ele>169</ele>
        <time>2018-09-26T08:47:50Z</time>
      </trkpt>
      <trkpt lat="45.93088" lon="4.74015">
        <ele>168</ele>
        <time>2018-09-26T08:47:51Z</time>
      </trkpt>
      <trkpt lat="45.93093" lon="4.74016">
        <ele>168</ele>
        <time>2018-09-26T08:47:52Z</time>
      </trkpt>
      <trkpt lat="45.93098" lon="4.74017">
        <ele>168</ele>
        <time>2018-09-26T08:47:53Z</time>
      </trkpt>
      <trkpt lat="45.93103" lon="4.74017">
        <ele>168</ele>
        <time>2018-09-26T08:47:54Z</time>
      </trkpt>
      <trkpt lat="45.93107" lon="4.74018">
        <ele>168</ele>
        <time>2018-09-26T08:47:55Z</time>
      </trkpt>
      <trkpt lat="45.93112" lon="4.7402">
        <ele>168</ele>
        <time>2018-09-26T08:47:56Z</time>
      </trkpt>
      <trkpt lat="45.93116" lon="4.74021">
        <ele>168</ele>
        <time>2018-09-26T08:47:57Z</time>
      </trkpt>
      <trkpt lat="45.93123" lon="4.74024">
        <ele>168</ele>
        <time>2018-09-26T08:47:59Z</time>
      </trkpt>
      <trkpt lat="45.93127" lon="4.74026">
        <ele>168</ele>
        <time>2018-09-26T08:48:00Z</time>
      </trkpt>
      <trkpt lat="45.93134" lon="4.74032">
        <ele>168</ele>
        <time>2018-09-26T08:48:02Z</time>
      </trkpt>
      <trkpt lat="45.93138" lon="4.74033">
        <ele>168</ele>
        <time>2018-09-26T08:48:03Z</time>
      </trkpt>
      <trkpt lat="45.93142" lon="4.74036">
        <ele>168</ele>
        <time>2018-09-26T08:48:04Z</time>
      </trkpt>
      <trkpt lat="45.93146" lon="4.7404">
        <ele>168</ele>
        <time>2018-09-26T08:48:05Z</time>
      </trkpt>
      <trkpt lat="45.9315" lon="4.74044">
        <ele>168</ele>
        <time>2018-09-26T08:48:06Z</time>
      </trkpt>
      <trkpt lat="45.93154" lon="4.74048">
        <ele>168</ele>
        <time>2018-09-26T08:48:07Z</time>
      </trkpt>
      <trkpt lat="45.93158" lon="4.74052">
        <ele>168</ele>
        <time>2018-09-26T08:48:08Z</time>
      </trkpt>
      <trkpt lat="45.93162" lon="4.74056">
        <ele>168</ele>
        <time>2018-09-26T08:48:09Z</time>
      </trkpt>
      <trkpt lat="45.93166" lon="4.74061">
        <ele>168</ele>
        <time>2018-09-26T08:48:10Z</time>
      </trkpt>
      <trkpt lat="45.9317" lon="4.74065">
        <ele>168</ele>
        <time>2018-09-26T08:48:11Z</time>
      </trkpt>
      <trkpt lat="45.93175" lon="4.7407">
        <ele>168</ele>
        <time>2018-09-26T08:48:12Z</time>
      </trkpt>
      <trkpt lat="45.93178" lon="4.74075">
        <ele>168</ele>
        <time>2018-09-26T08:48:13Z</time>
      </trkpt>
      <trkpt lat="45.93183" lon="4.74078">
        <ele>168</ele>
        <time>2018-09-26T08:48:14Z</time>
      </trkpt>
      <trkpt lat="45.93187" lon="4.74082">
        <ele>168</ele>
        <time>2018-09-26T08:48:15Z</time>
      </trkpt>
      <trkpt lat="45.93193" lon="4.74089">
        <ele>167</ele>
        <time>2018-09-26T08:48:17Z</time>
      </trkpt>
      <trkpt lat="45.93198" lon="4.74093">
        <ele>167</ele>
        <time>2018-09-26T08:48:18Z</time>
      </trkpt>
      <trkpt lat="45.93202" lon="4.74098">
        <ele>167</ele>
        <time>2018-09-26T08:48:19Z</time>
      </trkpt>
      <trkpt lat="45.93206" lon="4.74101">
        <ele>167</ele>
        <time>2018-09-26T08:48:20Z</time>
      </trkpt>
      <trkpt lat="45.9321" lon="4.74103">
        <ele>167</ele>
        <time>2018-09-26T08:48:21Z</time>
      </trkpt>
      <trkpt lat="45.93214" lon="4.74105">
        <ele>167</ele>
        <time>2018-09-26T08:48:22Z</time>
      </trkpt>
      <trkpt lat="45.93222" lon="4.74107">
        <ele>167</ele>
        <time>2018-09-26T08:48:24Z</time>
      </trkpt>
      <trkpt lat="45.93223" lon="4.74108">
        <ele>167</ele>
        <time>2018-09-26T08:48:25Z</time>
      </trkpt>
      <trkpt lat="45.93228" lon="4.74108">
        <ele>167</ele>
        <time>2018-09-26T08:48:27Z</time>
      </trkpt>
      <trkpt lat="45.93236" lon="4.74105">
        <ele>167</ele>
        <time>2018-09-26T08:48:28Z</time>
      </trkpt>
      <trkpt lat="45.93239" lon="4.74099">
        <ele>167</ele>
        <time>2018-09-26T08:48:30Z</time>
      </trkpt>
      <trkpt lat="45.93242" lon="4.74094">
        <ele>167</ele>
        <time>2018-09-26T08:48:31Z</time>
      </trkpt>
      <trkpt lat="45.93247" lon="4.74084">
        <ele>167</ele>
        <time>2018-09-26T08:48:33Z</time>
      </trkpt>
      <trkpt lat="45.93251" lon="4.74077">
        <ele>167</ele>
        <time>2018-09-26T08:48:34Z</time>
      </trkpt>
      <trkpt lat="45.93253" lon="4.74072">
        <ele>167</ele>
        <time>2018-09-26T08:48:35Z</time>
      </trkpt>
      <trkpt lat="45.93256" lon="4.74064">
        <ele>167</ele>
        <time>2018-09-26T08:48:36Z</time>
      </trkpt>
      <trkpt lat="45.9326" lon="4.74054">
        <ele>168</ele>
        <time>2018-09-26T08:48:38Z</time>
      </trkpt>
      <trkpt lat="45.93262" lon="4.74048">
        <ele>168</ele>
        <time>2018-09-26T08:48:39Z</time>
      </trkpt>
      <trkpt lat="45.93268" lon="4.74038">
        <ele>168</ele>
        <time>2018-09-26T08:48:42Z</time>
      </trkpt>
      <trkpt lat="45.9327" lon="4.74036">
        <ele>168</ele>
        <time>2018-09-26T08:48:43Z</time>
      </trkpt>
      <trkpt lat="45.93273" lon="4.74029">
        <ele>168</ele>
        <time>2018-09-26T08:48:45Z</time>
      </trkpt>
      <trkpt lat="45.93278" lon="4.74018">
        <ele>168</ele>
        <time>2018-09-26T08:48:46Z</time>
      </trkpt>
      <trkpt lat="45.93283" lon="4.74009">
        <ele>168</ele>
        <time>2018-09-26T08:48:48Z</time>
      </trkpt>
      <trkpt lat="45.93285" lon="4.74004">
        <ele>168</ele>
        <time>2018-09-26T08:48:49Z</time>
      </trkpt>
      <trkpt lat="45.93288" lon="4.73997">
        <ele>168</ele>
        <time>2018-09-26T08:48:50Z</time>
      </trkpt>
      <trkpt lat="45.93291" lon="4.73992">
        <ele>168</ele>
        <time>2018-09-26T08:48:51Z</time>
      </trkpt>
      <trkpt lat="45.93294" lon="4.73986">
        <ele>168</ele>
        <time>2018-09-26T08:48:52Z</time>
      </trkpt>
      <trkpt lat="45.93296" lon="4.7398">
        <ele>168</ele>
        <time>2018-09-26T08:48:53Z</time>
      </trkpt>
      <trkpt lat="45.93302" lon="4.73971">
        <ele>168</ele>
        <time>2018-09-26T08:48:55Z</time>
      </trkpt>
      <trkpt lat="45.93305" lon="4.73966">
        <ele>168</ele>
        <time>2018-09-26T08:48:56Z</time>
      </trkpt>
      <trkpt lat="45.9331" lon="4.73956">
        <ele>168</ele>
        <time>2018-09-26T08:48:59Z</time>
      </trkpt>
      <trkpt lat="45.93314" lon="4.73948">
        <ele>168</ele>
        <time>2018-09-26T08:49:00Z</time>
      </trkpt>
      <trkpt lat="45.93319" lon="4.73939">
        <ele>168</ele>
        <time>2018-09-26T08:49:02Z</time>
      </trkpt>
      <trkpt lat="45.93322" lon="4.73935">
        <ele>168</ele>
        <time>2018-09-26T08:49:03Z</time>
      </trkpt>
      <trkpt lat="45.93324" lon="4.73932">
        <ele>168</ele>
        <time>2018-09-26T08:49:04Z</time>
      </trkpt>
      <trkpt lat="45.93327" lon="4.73924">
        <ele>168</ele>
        <time>2018-09-26T08:49:05Z</time>
      </trkpt>
      <trkpt lat="45.93332" lon="4.73914">
        <ele>168</ele>
        <time>2018-09-26T08:49:07Z</time>
      </trkpt>
      <trkpt lat="45.93335" lon="4.73908">
        <ele>168</ele>
        <time>2018-09-26T08:49:08Z</time>
      </trkpt>
      <trkpt lat="45.93339" lon="4.73903">
        <ele>168</ele>
        <time>2018-09-26T08:49:09Z</time>
      </trkpt>
      <trkpt lat="45.93342" lon="4.73898">
        <ele>168</ele>
        <time>2018-09-26T08:49:10Z</time>
      </trkpt>
      <trkpt lat="45.93345" lon="4.73893">
        <ele>168</ele>
        <time>2018-09-26T08:49:11Z</time>
      </trkpt>
      <trkpt lat="45.93348" lon="4.73888">
        <ele>168</ele>
        <time>2018-09-26T08:49:12Z</time>
      </trkpt>
      <trkpt lat="45.93355" lon="4.73881">
        <ele>168</ele>
        <time>2018-09-26T08:49:14Z</time>
      </trkpt>
      <trkpt lat="45.93358" lon="4.73877">
        <ele>168</ele>
        <time>2018-09-26T08:49:15Z</time>
      </trkpt>
      <trkpt lat="45.93362" lon="4.73874">
        <ele>169</ele>
        <time>2018-09-26T08:49:16Z</time>
      </trkpt>
      <trkpt lat="45.93366" lon="4.7387">
        <ele>169</ele>
        <time>2018-09-26T08:49:17Z</time>
      </trkpt>
      <trkpt lat="45.93373" lon="4.73862">
        <ele>169</ele>
        <time>2018-09-26T08:49:19Z</time>
      </trkpt>
      <trkpt lat="45.93377" lon="4.73859">
        <ele>169</ele>
        <time>2018-09-26T08:49:20Z</time>
      </trkpt>
      <trkpt lat="45.93381" lon="4.73856">
        <ele>169</ele>
        <time>2018-09-26T08:49:21Z</time>
      </trkpt>
      <trkpt lat="45.93385" lon="4.73854">
        <ele>169</ele>
        <time>2018-09-26T08:49:22Z</time>
      </trkpt>
      <trkpt lat="45.9339" lon="4.73851">
        <ele>169</ele>
        <time>2018-09-26T08:49:23Z</time>
      </trkpt>
      <trkpt lat="45.93396" lon="4.73849">
        <ele>169</ele>
        <time>2018-09-26T08:49:24Z</time>
      </trkpt>
      <trkpt lat="45.93403" lon="4.73844">
        <ele>169</ele>
        <time>2018-09-26T08:49:26Z</time>
      </trkpt>
      <trkpt lat="45.93407" lon="4.73842">
        <ele>169</ele>
        <time>2018-09-26T08:49:27Z</time>
      </trkpt>
      <trkpt lat="45.93414" lon="4.7384">
        <ele>169</ele>
        <time>2018-09-26T08:49:30Z</time>
      </trkpt>
      <trkpt lat="45.93416" lon="4.73839">
        <ele>169</ele>
        <time>2018-09-26T08:49:31Z</time>
      </trkpt>
      <trkpt lat="45.93423" lon="4.73836">
        <ele>169</ele>
        <time>2018-09-26T08:49:32Z</time>
      </trkpt>
      <trkpt lat="45.93427" lon="4.73834">
        <ele>169</ele>
        <time>2018-09-26T08:49:33Z</time>
      </trkpt>
      <trkpt lat="45.93435" lon="4.73831">
        <ele>169</ele>
        <time>2018-09-26T08:49:35Z</time>
      </trkpt>
      <trkpt lat="45.93439" lon="4.73828">
        <ele>169</ele>
        <time>2018-09-26T08:49:36Z</time>
      </trkpt>
      <trkpt lat="45.93444" lon="4.73825">
        <ele>169</ele>
        <time>2018-09-26T08:49:37Z</time>
      </trkpt>
      <trkpt lat="45.93449" lon="4.7382">
        <ele>169</ele>
        <time>2018-09-26T08:49:38Z</time>
      </trkpt>
      <trkpt lat="45.93454" lon="4.73818">
        <ele>169</ele>
        <time>2018-09-26T08:49:39Z</time>
      </trkpt>
      <trkpt lat="45.93458" lon="4.73816">
        <ele>169</ele>
        <time>2018-09-26T08:49:40Z</time>
      </trkpt>
      <trkpt lat="45.93466" lon="4.73813">
        <ele>169</ele>
        <time>2018-09-26T08:49:42Z</time>
      </trkpt>
      <trkpt lat="45.9347" lon="4.73811">
        <ele>169</ele>
        <time>2018-09-26T08:49:43Z</time>
      </trkpt>
      <trkpt lat="45.93478" lon="4.73808">
        <ele>169</ele>
        <time>2018-09-26T08:49:46Z</time>
      </trkpt>
      <trkpt lat="45.9348" lon="4.73806">
        <ele>169</ele>
        <time>2018-09-26T08:49:47Z</time>
      </trkpt>
      <trkpt lat="45.93487" lon="4.73801">
        <ele>169</ele>
        <time>2018-09-26T08:49:48Z</time>
      </trkpt>
      <trkpt lat="45.93491" lon="4.73799">
        <ele>169</ele>
        <time>2018-09-26T08:49:49Z</time>
      </trkpt>
      <trkpt lat="45.93498" lon="4.73794">
        <ele>169</ele>
        <time>2018-09-26T08:49:51Z</time>
      </trkpt>
      <trkpt lat="45.93501" lon="4.73791">
        <ele>169</ele>
        <time>2018-09-26T08:49:52Z</time>
      </trkpt>
      <trkpt lat="45.93508" lon="4.73783">
        <ele>169</ele>
        <time>2018-09-26T08:49:54Z</time>
      </trkpt>
      <trkpt lat="45.93512" lon="4.7378">
        <ele>169</ele>
        <time>2018-09-26T08:49:55Z</time>
      </trkpt>
      <trkpt lat="45.93519" lon="4.73773">
        <ele>169</ele>
        <time>2018-09-26T08:49:57Z</time>
      </trkpt>
      <trkpt lat="45.93523" lon="4.73769">
        <ele>169</ele>
        <time>2018-09-26T08:49:58Z</time>
      </trkpt>
      <trkpt lat="45.93529" lon="4.73762">
        <ele>169</ele>
        <time>2018-09-26T08:50:00Z</time>
      </trkpt>
      <trkpt lat="45.93532" lon="4.73757">
        <ele>169</ele>
        <time>2018-09-26T08:50:01Z</time>
      </trkpt>
      <trkpt lat="45.93536" lon="4.73754">
        <ele>169</ele>
        <time>2018-09-26T08:50:02Z</time>
      </trkpt>
      <trkpt lat="45.9354" lon="4.73749">
        <ele>169</ele>
        <time>2018-09-26T08:50:03Z</time>
      </trkpt>
      <trkpt lat="45.93545" lon="4.73745">
        <ele>169</ele>
        <time>2018-09-26T08:50:04Z</time>
      </trkpt>
      <trkpt lat="45.93549" lon="4.73742">
        <ele>169</ele>
        <time>2018-09-26T08:50:05Z</time>
      </trkpt>
      <trkpt lat="45.93554" lon="4.73736">
        <ele>169</ele>
        <time>2018-09-26T08:50:06Z</time>
      </trkpt>
      <trkpt lat="45.93559" lon="4.7373">
        <ele>169</ele>
        <time>2018-09-26T08:50:07Z</time>
      </trkpt>
      <trkpt lat="45.93563" lon="4.73725">
        <ele>169</ele>
        <time>2018-09-26T08:50:08Z</time>
      </trkpt>
      <trkpt lat="45.93567" lon="4.73721">
        <ele>169</ele>
        <time>2018-09-26T08:50:09Z</time>
      </trkpt>
      <trkpt lat="45.93571" lon="4.73717">
        <ele>169</ele>
        <time>2018-09-26T08:50:10Z</time>
      </trkpt>
      <trkpt lat="45.93577" lon="4.73712">
        <ele>169</ele>
        <time>2018-09-26T08:50:11Z</time>
      </trkpt>
      <trkpt lat="45.93581" lon="4.73707">
        <ele>169</ele>
        <time>2018-09-26T08:50:12Z</time>
      </trkpt>
      <trkpt lat="45.93584" lon="4.737">
        <ele>169</ele>
        <time>2018-09-26T08:50:13Z</time>
      </trkpt>
      <trkpt lat="45.93588" lon="4.73688">
        <ele>169</ele>
        <time>2018-09-26T08:50:15Z</time>
      </trkpt>
      <trkpt lat="45.9359" lon="4.73682">
        <ele>169</ele>
        <time>2018-09-26T08:50:16Z</time>
      </trkpt>
      <trkpt lat="45.93591" lon="4.73672">
        <ele>168</ele>
        <time>2018-09-26T08:50:18Z</time>
      </trkpt>
      <trkpt lat="45.93591" lon="4.73665">
        <ele>168</ele>
        <time>2018-09-26T08:50:19Z</time>
      </trkpt>
      <trkpt lat="45.93587" lon="4.73657">
        <ele>168</ele>
        <time>2018-09-26T08:50:20Z</time>
      </trkpt>
      <trkpt lat="45.93586" lon="4.73651">
        <ele>168</ele>
        <time>2018-09-26T08:50:21Z</time>
      </trkpt>
      <trkpt lat="45.93586" lon="4.73643">
        <ele>168</ele>
        <time>2018-09-26T08:50:22Z</time>
      </trkpt>
      <trkpt lat="45.93585" lon="4.73636">
        <ele>168</ele>
        <time>2018-09-26T08:50:23Z</time>
      </trkpt>
      <trkpt lat="45.93585" lon="4.7363">
        <ele>168</ele>
        <time>2018-09-26T08:50:24Z</time>
      </trkpt>
      <trkpt lat="45.93586" lon="4.73622">
        <ele>168</ele>
        <time>2018-09-26T08:50:25Z</time>
      </trkpt>
      <trkpt lat="45.93581" lon="4.73614">
        <ele>168</ele>
        <time>2018-09-26T08:50:26Z</time>
      </trkpt>
      <trkpt lat="45.93581" lon="4.73606">
        <ele>168</ele>
        <time>2018-09-26T08:50:27Z</time>
      </trkpt>
      <trkpt lat="45.93581" lon="4.73598">
        <ele>168</ele>
        <time>2018-09-26T08:50:28Z</time>
      </trkpt>
      <trkpt lat="45.93581" lon="4.73589">
        <ele>168</ele>
        <time>2018-09-26T08:50:29Z</time>
      </trkpt>
      <trkpt lat="45.93581" lon="4.73581">
        <ele>168</ele>
        <time>2018-09-26T08:50:30Z</time>
      </trkpt>
      <trkpt lat="45.9358" lon="4.73573">
        <ele>168</ele>
        <time>2018-09-26T08:50:31Z</time>
      </trkpt>
      <trkpt lat="45.93578" lon="4.73561">
        <ele>168</ele>
        <time>2018-09-26T08:50:33Z</time>
      </trkpt>
      <trkpt lat="45.93576" lon="4.73554">
        <ele>168</ele>
        <time>2018-09-26T08:50:34Z</time>
      </trkpt>
      <trkpt lat="45.93575" lon="4.73546">
        <ele>168</ele>
        <time>2018-09-26T08:50:35Z</time>
      </trkpt>
      <trkpt lat="45.93573" lon="4.7354">
        <ele>169</ele>
        <time>2018-09-26T08:50:36Z</time>
      </trkpt>
      <trkpt lat="45.93571" lon="4.73533">
        <ele>169</ele>
        <time>2018-09-26T08:50:37Z</time>
      </trkpt>
      <trkpt lat="45.93569" lon="4.73527">
        <ele>169</ele>
        <time>2018-09-26T08:50:38Z</time>
      </trkpt>
      <trkpt lat="45.93567" lon="4.73518">
        <ele>168</ele>
        <time>2018-09-26T08:50:39Z</time>
      </trkpt>
      <trkpt lat="45.93565" lon="4.73512">
        <ele>168</ele>
        <time>2018-09-26T08:50:40Z</time>
      </trkpt>
      <trkpt lat="45.93563" lon="4.73505">
        <ele>168</ele>
        <time>2018-09-26T08:50:41Z</time>
      </trkpt>
      <trkpt lat="45.9356" lon="4.73496">
        <ele>169</ele>
        <time>2018-09-26T08:50:42Z</time>
      </trkpt>
      <trkpt lat="45.93558" lon="4.73489">
        <ele>169</ele>
        <time>2018-09-26T08:50:43Z</time>
      </trkpt>
      <trkpt lat="45.93557" lon="4.73482">
        <ele>169</ele>
        <time>2018-09-26T08:50:44Z</time>
      </trkpt>
      <trkpt lat="45.93555" lon="4.73476">
        <ele>169</ele>
        <time>2018-09-26T08:50:45Z</time>
      </trkpt>
      <trkpt lat="45.93553" lon="4.7347">
        <ele>169</ele>
        <time>2018-09-26T08:50:46Z</time>
      </trkpt>
      <trkpt lat="45.93552" lon="4.73463">
        <ele>169</ele>
        <time>2018-09-26T08:50:47Z</time>
      </trkpt>
      <trkpt lat="45.93551" lon="4.73456">
        <ele>169</ele>
        <time>2018-09-26T08:50:48Z</time>
      </trkpt>
      <trkpt lat="45.93548" lon="4.73445">
        <ele>169</ele>
        <time>2018-09-26T08:50:50Z</time>
      </trkpt>
      <trkpt lat="45.93544" lon="4.7344">
        <ele>169</ele>
        <time>2018-09-26T08:50:51Z</time>
      </trkpt>
      <trkpt lat="45.93541" lon="4.73432">
        <ele>169</ele>
        <time>2018-09-26T08:50:52Z</time>
      </trkpt>
      <trkpt lat="45.93539" lon="4.73425">
        <ele>169</ele>
        <time>2018-09-26T08:50:53Z</time>
      </trkpt>
      <trkpt lat="45.93538" lon="4.73418">
        <ele>169</ele>
        <time>2018-09-26T08:50:54Z</time>
      </trkpt>
      <trkpt lat="45.93535" lon="4.7341">
        <ele>169</ele>
        <time>2018-09-26T08:50:55Z</time>
      </trkpt>
      <trkpt lat="45.93534" lon="4.73398">
        <ele>169</ele>
        <time>2018-09-26T08:50:57Z</time>
      </trkpt>
      <trkpt lat="45.93532" lon="4.73391">
        <ele>169</ele>
        <time>2018-09-26T08:50:58Z</time>
      </trkpt>
      <trkpt lat="45.9353" lon="4.73382">
        <ele>169</ele>
        <time>2018-09-26T08:50:59Z</time>
      </trkpt>
      <trkpt lat="45.9353" lon="4.73375">
        <ele>169</ele>
        <time>2018-09-26T08:51:00Z</time>
      </trkpt>
      <trkpt lat="45.9353" lon="4.73367">
        <ele>169</ele>
        <time>2018-09-26T08:51:01Z</time>
      </trkpt>
      <trkpt lat="45.93528" lon="4.7336">
        <ele>169</ele>
        <time>2018-09-26T08:51:02Z</time>
      </trkpt>
      <trkpt lat="45.93527" lon="4.73353">
        <ele>169</ele>
        <time>2018-09-26T08:51:03Z</time>
      </trkpt>
      <trkpt lat="45.93526" lon="4.73344">
        <ele>169</ele>
        <time>2018-09-26T08:51:04Z</time>
      </trkpt>
      <trkpt lat="45.93525" lon="4.73336">
        <ele>169</ele>
        <time>2018-09-26T08:51:05Z</time>
      </trkpt>
      <trkpt lat="45.93523" lon="4.7333">
        <ele>169</ele>
        <time>2018-09-26T08:51:06Z</time>
      </trkpt>
      <trkpt lat="45.93523" lon="4.73322">
        <ele>169</ele>
        <time>2018-09-26T08:51:07Z</time>
      </trkpt>
      <trkpt lat="45.9352" lon="4.73315">
        <ele>169</ele>
        <time>2018-09-26T08:51:08Z</time>
      </trkpt>
      <trkpt lat="45.93518" lon="4.73303">
        <ele>169</ele>
        <time>2018-09-26T08:51:10Z</time>
      </trkpt>
      <trkpt lat="45.93519" lon="4.73298">
        <ele>169</ele>
        <time>2018-09-26T08:51:11Z</time>
      </trkpt>
      <trkpt lat="45.93518" lon="4.73291">
        <ele>169</ele>
        <time>2018-09-26T08:51:12Z</time>
      </trkpt>
      <trkpt lat="45.93515" lon="4.73283">
        <ele>169</ele>
        <time>2018-09-26T08:51:13Z</time>
      </trkpt>
      <trkpt lat="45.93512" lon="4.73275">
        <ele>169</ele>
        <time>2018-09-26T08:51:14Z</time>
      </trkpt>
      <trkpt lat="45.9351" lon="4.73267">
        <ele>169</ele>
        <time>2018-09-26T08:51:15Z</time>
      </trkpt>
      <trkpt lat="45.93509" lon="4.7326">
        <ele>169</ele>
        <time>2018-09-26T08:51:16Z</time>
      </trkpt>
      <trkpt lat="45.93508" lon="4.73253">
        <ele>169</ele>
        <time>2018-09-26T08:51:17Z</time>
      </trkpt>
      <trkpt lat="45.93507" lon="4.73246">
        <ele>169</ele>
        <time>2018-09-26T08:51:18Z</time>
      </trkpt>
      <trkpt lat="45.93505" lon="4.73238">
        <ele>169</ele>
        <time>2018-09-26T08:51:19Z</time>
      </trkpt>
      <trkpt lat="45.93502" lon="4.7323">
        <ele>169</ele>
        <time>2018-09-26T08:51:20Z</time>
      </trkpt>
      <trkpt lat="45.935" lon="4.73222">
        <ele>169</ele>
        <time>2018-09-26T08:51:21Z</time>
      </trkpt>
      <trkpt lat="45.93499" lon="4.73214">
        <ele>169</ele>
        <time>2018-09-26T08:51:22Z</time>
      </trkpt>
      <trkpt lat="45.93498" lon="4.73204">
        <ele>169</ele>
        <time>2018-09-26T08:51:23Z</time>
      </trkpt>
      <trkpt lat="45.93496" lon="4.73197">
        <ele>169</ele>
        <time>2018-09-26T08:51:24Z</time>
      </trkpt>
      <trkpt lat="45.93495" lon="4.73191">
        <ele>169</ele>
        <time>2018-09-26T08:51:25Z</time>
      </trkpt>
      <trkpt lat="45.93492" lon="4.73185">
        <ele>169</ele>
        <time>2018-09-26T08:51:26Z</time>
      </trkpt>
      <trkpt lat="45.9349" lon="4.73178">
        <ele>169</ele>
        <time>2018-09-26T08:51:27Z</time>
      </trkpt>
      <trkpt lat="45.93488" lon="4.73167">
        <ele>169</ele>
        <time>2018-09-26T08:51:29Z</time>
      </trkpt>
      <trkpt lat="45.93483" lon="4.73162">
        <ele>170</ele>
        <time>2018-09-26T08:51:30Z</time>
      </trkpt>
      <trkpt lat="45.9348" lon="4.73155">
        <ele>170</ele>
        <time>2018-09-26T08:51:31Z</time>
      </trkpt>
      <trkpt lat="45.93479" lon="4.73148">
        <ele>170</ele>
        <time>2018-09-26T08:51:32Z</time>
      </trkpt>
      <trkpt lat="45.93479" lon="4.7314">
        <ele>170</ele>
        <time>2018-09-26T08:51:33Z</time>
      </trkpt>
      <trkpt lat="45.93477" lon="4.73134">
        <ele>170</ele>
        <time>2018-09-26T08:51:34Z</time>
      </trkpt>
      <trkpt lat="45.93476" lon="4.73127">
        <ele>170</ele>
        <time>2018-09-26T08:51:35Z</time>
      </trkpt>
      <trkpt lat="45.93476" lon="4.73118">
        <ele>170</ele>
        <time>2018-09-26T08:51:36Z</time>
      </trkpt>
      <trkpt lat="45.93478" lon="4.73109">
        <ele>170</ele>
        <time>2018-09-26T08:51:37Z</time>
      </trkpt>
      <trkpt lat="45.93475" lon="4.73099">
        <ele>170</ele>
        <time>2018-09-26T08:51:38Z</time>
      </trkpt>
      <trkpt lat="45.93477" lon="4.73093">
        <ele>170</ele>
        <time>2018-09-26T08:51:39Z</time>
      </trkpt>
      <trkpt lat="45.93477" lon="4.73085">
        <ele>170</ele>
        <time>2018-09-26T08:51:40Z</time>
      </trkpt>
      <trkpt lat="45.93477" lon="4.73077">
        <ele>170</ele>
        <time>2018-09-26T08:51:41Z</time>
      </trkpt>
      <trkpt lat="45.93479" lon="4.73068">
        <ele>170</ele>
        <time>2018-09-26T08:51:42Z</time>
      </trkpt>
      <trkpt lat="45.93479" lon="4.7306">
        <ele>170</ele>
        <time>2018-09-26T08:51:43Z</time>
      </trkpt>
      <trkpt lat="45.93478" lon="4.73052">
        <ele>170</ele>
        <time>2018-09-26T08:51:44Z</time>
      </trkpt>
      <trkpt lat="45.93478" lon="4.73043">
        <ele>170</ele>
        <time>2018-09-26T08:51:45Z</time>
      </trkpt>
      <trkpt lat="45.93478" lon="4.73035">
        <ele>170</ele>
        <time>2018-09-26T08:51:46Z</time>
      </trkpt>
      <trkpt lat="45.93479" lon="4.73026">
        <ele>170</ele>
        <time>2018-09-26T08:51:47Z</time>
      </trkpt>
      <trkpt lat="45.9348" lon="4.73018">
        <ele>170</ele>
        <time>2018-09-26T08:51:48Z</time>
      </trkpt>
      <trkpt lat="45.9348" lon="4.73011">
        <ele>170</ele>
        <time>2018-09-26T08:51:49Z</time>
      </trkpt>
      <trkpt lat="45.93481" lon="4.73003">
        <ele>170</ele>
        <time>2018-09-26T08:51:50Z</time>
      </trkpt>
      <trkpt lat="45.93482" lon="4.72992">
        <ele>170</ele>
        <time>2018-09-26T08:51:52Z</time>
      </trkpt>
      <trkpt lat="45.93483" lon="4.72985">
        <ele>171</ele>
        <time>2018-09-26T08:51:53Z</time>
      </trkpt>
      <trkpt lat="45.93484" lon="4.72977">
        <ele>171</ele>
        <time>2018-09-26T08:51:54Z</time>
      </trkpt>
      <trkpt lat="45.93486" lon="4.72968">
        <ele>171</ele>
        <time>2018-09-26T08:51:55Z</time>
      </trkpt>
      <trkpt lat="45.93486" lon="4.72961">
        <ele>171</ele>
        <time>2018-09-26T08:51:56Z</time>
      </trkpt>
      <trkpt lat="45.93489" lon="4.72955">
        <ele>171</ele>
        <time>2018-09-26T08:51:57Z</time>
      </trkpt>
      <trkpt lat="45.93491" lon="4.72947">
        <ele>171</ele>
        <time>2018-09-26T08:51:58Z</time>
      </trkpt>
      <trkpt lat="45.93492" lon="4.7294">
        <ele>172</ele>
        <time>2018-09-26T08:51:59Z</time>
      </trkpt>
      <trkpt lat="45.93493" lon="4.72933">
        <ele>172</ele>
        <time>2018-09-26T08:52:00Z</time>
      </trkpt>
      <trkpt lat="45.93495" lon="4.72928">
        <ele>172</ele>
        <time>2018-09-26T08:52:01Z</time>
      </trkpt>
      <trkpt lat="45.93498" lon="4.72922">
        <ele>172</ele>
        <time>2018-09-26T08:52:02Z</time>
      </trkpt>
      <trkpt lat="45.93501" lon="4.72917">
        <ele>172</ele>
        <time>2018-09-26T08:52:03Z</time>
      </trkpt>
      <trkpt lat="45.93505" lon="4.72913">
        <ele>172</ele>
        <time>2018-09-26T08:52:04Z</time>
      </trkpt>
      <trkpt lat="45.93509" lon="4.72908">
        <ele>172</ele>
        <time>2018-09-26T08:52:05Z</time>
      </trkpt>
      <trkpt lat="45.93514" lon="4.72904">
        <ele>172</ele>
        <time>2018-09-26T08:52:06Z</time>
      </trkpt>
      <trkpt lat="45.93518" lon="4.729">
        <ele>172</ele>
        <time>2018-09-26T08:52:07Z</time>
      </trkpt>
      <trkpt lat="45.93523" lon="4.72894">
        <ele>172</ele>
        <time>2018-09-26T08:52:08Z</time>
      </trkpt>
      <trkpt lat="45.93528" lon="4.72889">
        <ele>172</ele>
        <time>2018-09-26T08:52:09Z</time>
      </trkpt>
      <trkpt lat="45.93532" lon="4.72884">
        <ele>172</ele>
        <time>2018-09-26T08:52:10Z</time>
      </trkpt>
      <trkpt lat="45.93538" lon="4.72874">
        <ele>173</ele>
        <time>2018-09-26T08:52:11Z</time>
      </trkpt>
      <trkpt lat="45.93541" lon="4.72869">
        <ele>173</ele>
        <time>2018-09-26T08:52:12Z</time>
      </trkpt>
      <trkpt lat="45.93545" lon="4.72865">
        <ele>173</ele>
        <time>2018-09-26T08:52:13Z</time>
      </trkpt>
      <trkpt lat="45.9355" lon="4.72862">
        <ele>173</ele>
        <time>2018-09-26T08:52:14Z</time>
      </trkpt>
      <trkpt lat="45.93555" lon="4.72857">
        <ele>172</ele>
        <time>2018-09-26T08:52:15Z</time>
      </trkpt>
      <trkpt lat="45.93559" lon="4.72853">
        <ele>172</ele>
        <time>2018-09-26T08:52:16Z</time>
      </trkpt>
      <trkpt lat="45.93564" lon="4.7285">
        <ele>172</ele>
        <time>2018-09-26T08:52:17Z</time>
      </trkpt>
      <trkpt lat="45.9357" lon="4.72845">
        <ele>172</ele>
        <time>2018-09-26T08:52:18Z</time>
      </trkpt>
      <trkpt lat="45.93573" lon="4.72842">
        <ele>172</ele>
        <time>2018-09-26T08:52:19Z</time>
      </trkpt>
      <trkpt lat="45.93578" lon="4.72838">
        <ele>172</ele>
        <time>2018-09-26T08:52:20Z</time>
      </trkpt>
      <trkpt lat="45.93583" lon="4.72834">
        <ele>172</ele>
        <time>2018-09-26T08:52:21Z</time>
      </trkpt>
      <trkpt lat="45.93588" lon="4.72831">
        <ele>172</ele>
        <time>2018-09-26T08:52:22Z</time>
      </trkpt>
      <trkpt lat="45.93594" lon="4.72826">
        <ele>173</ele>
        <time>2018-09-26T08:52:23Z</time>
      </trkpt>
      <trkpt lat="45.93598" lon="4.72821">
        <ele>173</ele>
        <time>2018-09-26T08:52:24Z</time>
      </trkpt>
      <trkpt lat="45.93603" lon="4.72818">
        <ele>173</ele>
        <time>2018-09-26T08:52:25Z</time>
      </trkpt>
      <trkpt lat="45.93609" lon="4.72814">
        <ele>173</ele>
        <time>2018-09-26T08:52:26Z</time>
      </trkpt>
      <trkpt lat="45.93614" lon="4.72809">
        <ele>173</ele>
        <time>2018-09-26T08:52:27Z</time>
      </trkpt>
      <trkpt lat="45.93618" lon="4.72806">
        <ele>173</ele>
        <time>2018-09-26T08:52:28Z</time>
      </trkpt>
      <trkpt lat="45.93623" lon="4.72803">
        <ele>173</ele>
        <time>2018-09-26T08:52:29Z</time>
      </trkpt>
      <trkpt lat="45.93626" lon="4.72799">
        <ele>173</ele>
        <time>2018-09-26T08:52:30Z</time>
      </trkpt>
      <trkpt lat="45.93631" lon="4.72794">
        <ele>173</ele>
        <time>2018-09-26T08:52:31Z</time>
      </trkpt>
      <trkpt lat="45.93637" lon="4.72789">
        <ele>173</ele>
        <time>2018-09-26T08:52:32Z</time>
      </trkpt>
      <trkpt lat="45.93642" lon="4.72786">
        <ele>174</ele>
        <time>2018-09-26T08:52:33Z</time>
      </trkpt>
      <trkpt lat="45.93646" lon="4.72783">
        <ele>174</ele>
        <time>2018-09-26T08:52:34Z</time>
      </trkpt>
      <trkpt lat="45.9365" lon="4.72777">
        <ele>174</ele>
        <time>2018-09-26T08:52:35Z</time>
      </trkpt>
      <trkpt lat="45.93655" lon="4.72774">
        <ele>174</ele>
        <time>2018-09-26T08:52:36Z</time>
      </trkpt>
      <trkpt lat="45.9366" lon="4.7277">
        <ele>174</ele>
        <time>2018-09-26T08:52:37Z</time>
      </trkpt>
      <trkpt lat="45.93667" lon="4.72766">
        <ele>174</ele>
        <time>2018-09-26T08:52:38Z</time>
      </trkpt>
      <trkpt lat="45.93671" lon="4.72762">
        <ele>173</ele>
        <time>2018-09-26T08:52:39Z</time>
      </trkpt>
      <trkpt lat="45.93678" lon="4.72754">
        <ele>173</ele>
        <time>2018-09-26T08:52:41Z</time>
      </trkpt>
      <trkpt lat="45.93682" lon="4.7275">
        <ele>173</ele>
        <time>2018-09-26T08:52:42Z</time>
      </trkpt>
      <trkpt lat="45.93687" lon="4.72746">
        <ele>173</ele>
        <time>2018-09-26T08:52:43Z</time>
      </trkpt>
      <trkpt lat="45.93694" lon="4.72741">
        <ele>173</ele>
        <time>2018-09-26T08:52:44Z</time>
      </trkpt>
      <trkpt lat="45.93699" lon="4.72736">
        <ele>173</ele>
        <time>2018-09-26T08:52:45Z</time>
      </trkpt>
      <trkpt lat="45.93704" lon="4.72731">
        <ele>173</ele>
        <time>2018-09-26T08:52:46Z</time>
      </trkpt>
      <trkpt lat="45.93709" lon="4.72726">
        <ele>173</ele>
        <time>2018-09-26T08:52:47Z</time>
      </trkpt>
      <trkpt lat="45.93714" lon="4.72722">
        <ele>173</ele>
        <time>2018-09-26T08:52:48Z</time>
      </trkpt>
      <trkpt lat="45.93718" lon="4.72721">
        <ele>173</ele>
        <time>2018-09-26T08:52:49Z</time>
      </trkpt>
      <trkpt lat="45.93723" lon="4.72717">
        <ele>173</ele>
        <time>2018-09-26T08:52:50Z</time>
      </trkpt>
      <trkpt lat="45.93728" lon="4.72713">
        <ele>173</ele>
        <time>2018-09-26T08:52:51Z</time>
      </trkpt>
      <trkpt lat="45.93731" lon="4.72709">
        <ele>173</ele>
        <time>2018-09-26T08:52:52Z</time>
      </trkpt>
      <trkpt lat="45.93736" lon="4.72705">
        <ele>173</ele>
        <time>2018-09-26T08:52:53Z</time>
      </trkpt>
      <trkpt lat="45.93742" lon="4.72702">
        <ele>173</ele>
        <time>2018-09-26T08:52:54Z</time>
      </trkpt>
      <trkpt lat="45.93747" lon="4.72696">
        <ele>173</ele>
        <time>2018-09-26T08:52:55Z</time>
      </trkpt>
      <trkpt lat="45.93751" lon="4.72692">
        <ele>172</ele>
        <time>2018-09-26T08:52:56Z</time>
      </trkpt>
      <trkpt lat="45.93755" lon="4.72689">
        <ele>172</ele>
        <time>2018-09-26T08:52:57Z</time>
      </trkpt>
      <trkpt lat="45.93758" lon="4.72683">
        <ele>173</ele>
        <time>2018-09-26T08:52:58Z</time>
      </trkpt>
      <trkpt lat="45.93764" lon="4.72678">
        <ele>173</ele>
        <time>2018-09-26T08:52:59Z</time>
      </trkpt>
      <trkpt lat="45.93768" lon="4.72672">
        <ele>173</ele>
        <time>2018-09-26T08:53:00Z</time>
      </trkpt>
      <trkpt lat="45.93773" lon="4.72666">
        <ele>173</ele>
        <time>2018-09-26T08:53:01Z</time>
      </trkpt>
      <trkpt lat="45.93776" lon="4.72661">
        <ele>173</ele>
        <time>2018-09-26T08:53:02Z</time>
      </trkpt>
      <trkpt lat="45.9378" lon="4.72656">
        <ele>173</ele>
        <time>2018-09-26T08:53:03Z</time>
      </trkpt>
      <trkpt lat="45.93783" lon="4.7265">
        <ele>173</ele>
        <time>2018-09-26T08:53:04Z</time>
      </trkpt>
      <trkpt lat="45.93785" lon="4.72644">
        <ele>173</ele>
        <time>2018-09-26T08:53:05Z</time>
      </trkpt>
      <trkpt lat="45.93789" lon="4.72639">
        <ele>173</ele>
        <time>2018-09-26T08:53:06Z</time>
      </trkpt>
      <trkpt lat="45.93794" lon="4.72633">
        <ele>173</ele>
        <time>2018-09-26T08:53:07Z</time>
      </trkpt>
      <trkpt lat="45.93796" lon="4.72627">
        <ele>173</ele>
        <time>2018-09-26T08:53:08Z</time>
      </trkpt>
      <trkpt lat="45.93801" lon="4.72622">
        <ele>173</ele>
        <time>2018-09-26T08:53:09Z</time>
      </trkpt>
      <trkpt lat="45.93804" lon="4.72617">
        <ele>173</ele>
        <time>2018-09-26T08:53:10Z</time>
      </trkpt>
      <trkpt lat="45.93809" lon="4.72607">
        <ele>173</ele>
        <time>2018-09-26T08:53:12Z</time>
      </trkpt>
      <trkpt lat="45.93811" lon="4.72601">
        <ele>173</ele>
        <time>2018-09-26T08:53:13Z</time>
      </trkpt>
      <trkpt lat="45.9381" lon="4.72594">
        <ele>174</ele>
        <time>2018-09-26T08:53:15Z</time>
      </trkpt>
      <trkpt lat="45.93807" lon="4.72588">
        <ele>174</ele>
        <time>2018-09-26T08:53:16Z</time>
      </trkpt>
      <trkpt lat="45.93803" lon="4.72583">
        <ele>174</ele>
        <time>2018-09-26T08:53:17Z</time>
      </trkpt>
      <trkpt lat="45.93799" lon="4.72579">
        <ele>174</ele>
        <time>2018-09-26T08:53:18Z</time>
      </trkpt>
      <trkpt lat="45.93795" lon="4.72574">
        <ele>174</ele>
        <time>2018-09-26T08:53:19Z</time>
      </trkpt>
      <trkpt lat="45.93792" lon="4.7257">
        <ele>174</ele>
        <time>2018-09-26T08:53:20Z</time>
      </trkpt>
      <trkpt lat="45.93774" lon="4.72549">
        <ele>173</ele>
        <time>2018-09-26T08:53:25Z</time>
      </trkpt>
      <trkpt lat="45.93768" lon="4.72546">
        <ele>173</ele>
        <time>2018-09-26T08:53:26Z</time>
      </trkpt>
      <trkpt lat="45.93761" lon="4.72545">
        <ele>173</ele>
        <time>2018-09-26T08:53:27Z</time>
      </trkpt>
      <trkpt lat="45.93756" lon="4.72535">
        <ele>173</ele>
        <time>2018-09-26T08:53:29Z</time>
      </trkpt>
      <trkpt lat="45.93753" lon="4.72532">
        <ele>173</ele>
        <time>2018-09-26T08:53:30Z</time>
      </trkpt>
      <trkpt lat="45.93747" lon="4.72526">
        <ele>172</ele>
        <time>2018-09-26T08:53:31Z</time>
      </trkpt>
      <trkpt lat="45.93746" lon="4.7252">
        <ele>171</ele>
        <time>2018-09-26T08:53:32Z</time>
      </trkpt>
      <trkpt lat="45.93739" lon="4.72511">
        <ele>171</ele>
        <time>2018-09-26T08:53:34Z</time>
      </trkpt>
      <trkpt lat="45.93733" lon="4.72507">
        <ele>171</ele>
        <time>2018-09-26T08:53:35Z</time>
      </trkpt>
      <trkpt lat="45.93728" lon="4.72503">
        <ele>171</ele>
        <time>2018-09-26T08:53:36Z</time>
      </trkpt>
      <trkpt lat="45.93725" lon="4.72497">
        <ele>171</ele>
        <time>2018-09-26T08:53:37Z</time>
      </trkpt>
      <trkpt lat="45.9372" lon="4.72492">
        <ele>171</ele>
        <time>2018-09-26T08:53:38Z</time>
      </trkpt>
      <trkpt lat="45.93716" lon="4.72488">
        <ele>171</ele>
        <time>2018-09-26T08:53:39Z</time>
      </trkpt>
      <trkpt lat="45.9371" lon="4.72479">
        <ele>171</ele>
        <time>2018-09-26T08:53:41Z</time>
      </trkpt>
      <trkpt lat="45.93706" lon="4.72475">
        <ele>171</ele>
        <time>2018-09-26T08:53:42Z</time>
      </trkpt>
      <trkpt lat="45.93699" lon="4.72475">
        <ele>171</ele>
        <time>2018-09-26T08:53:43Z</time>
      </trkpt>
      <trkpt lat="45.93697" lon="4.7247">
        <ele>171</ele>
        <time>2018-09-26T08:53:44Z</time>
      </trkpt>
      <trkpt lat="45.93692" lon="4.72467">
        <ele>171</ele>
        <time>2018-09-26T08:53:46Z</time>
      </trkpt>
      <trkpt lat="45.93686" lon="4.72463">
        <ele>171</ele>
        <time>2018-09-26T08:53:47Z</time>
      </trkpt>
      <trkpt lat="45.93682" lon="4.72459">
        <ele>171</ele>
        <time>2018-09-26T08:53:48Z</time>
      </trkpt>
      <trkpt lat="45.93678" lon="4.72454">
        <ele>171</ele>
        <time>2018-09-26T08:53:49Z</time>
      </trkpt>
      <trkpt lat="45.93672" lon="4.72446">
        <ele>171</ele>
        <time>2018-09-26T08:53:51Z</time>
      </trkpt>
      <trkpt lat="45.93668" lon="4.72442">
        <ele>171</ele>
        <time>2018-09-26T08:53:52Z</time>
      </trkpt>
      <trkpt lat="45.93666" lon="4.72431">
        <ele>172</ele>
        <time>2018-09-26T08:53:54Z</time>
      </trkpt>
      <trkpt lat="45.93664" lon="4.72426">
        <ele>172</ele>
        <time>2018-09-26T08:53:55Z</time>
      </trkpt>
      <trkpt lat="45.93659" lon="4.72419">
        <ele>172</ele>
        <time>2018-09-26T08:53:57Z</time>
      </trkpt>
      <trkpt lat="45.93654" lon="4.72416">
        <ele>172</ele>
        <time>2018-09-26T08:53:58Z</time>
      </trkpt>
      <trkpt lat="45.93647" lon="4.72408">
        <ele>172</ele>
        <time>2018-09-26T08:54:01Z</time>
      </trkpt>
      <trkpt lat="45.93645" lon="4.72405">
        <ele>172</ele>
        <time>2018-09-26T08:54:02Z</time>
      </trkpt>
      <trkpt lat="45.93641" lon="4.72399">
        <ele>172</ele>
        <time>2018-09-26T08:54:04Z</time>
      </trkpt>
      <trkpt lat="45.93638" lon="4.72395">
        <ele>172</ele>
        <time>2018-09-26T08:54:05Z</time>
      </trkpt>
      <trkpt lat="45.93633" lon="4.72389">
        <ele>172</ele>
        <time>2018-09-26T08:54:07Z</time>
      </trkpt>
      <trkpt lat="45.93624" lon="4.72379">
        <ele>172</ele>
        <time>2018-09-26T08:54:08Z</time>
      </trkpt>
      <trkpt lat="45.93618" lon="4.72371">
        <ele>172</ele>
        <time>2018-09-26T08:54:10Z</time>
      </trkpt>
      <trkpt lat="45.93616" lon="4.7237">
        <ele>172</ele>
        <time>2018-09-26T08:54:11Z</time>
      </trkpt>
      <trkpt lat="45.9361" lon="4.72361">
        <ele>172</ele>
        <time>2018-09-26T08:54:13Z</time>
      </trkpt>
      <trkpt lat="45.93607" lon="4.72358">
        <ele>172</ele>
        <time>2018-09-26T08:54:14Z</time>
      </trkpt>
      <trkpt lat="45.936" lon="4.7235">
        <ele>172</ele>
        <time>2018-09-26T08:54:18Z</time>
      </trkpt>
      <trkpt lat="45.93598" lon="4.72348">
        <ele>172</ele>
        <time>2018-09-26T08:54:19Z</time>
      </trkpt>
      <trkpt lat="45.93592" lon="4.72343">
        <ele>173</ele>
        <time>2018-09-26T08:54:22Z</time>
      </trkpt>
      <trkpt lat="45.93589" lon="4.72341">
        <ele>173</ele>
        <time>2018-09-26T08:54:23Z</time>
      </trkpt>
      <trkpt lat="45.93583" lon="4.72336">
        <ele>173</ele>
        <time>2018-09-26T08:54:26Z</time>
      </trkpt>
      <trkpt lat="45.9358" lon="4.72334">
        <ele>173</ele>
        <time>2018-09-26T08:54:27Z</time>
      </trkpt>
      <trkpt lat="45.93573" lon="4.7233">
        <ele>173</ele>
        <time>2018-09-26T08:54:30Z</time>
      </trkpt>
      <trkpt lat="45.93571" lon="4.72328">
        <ele>173</ele>
        <time>2018-09-26T08:54:31Z</time>
      </trkpt>
      <trkpt lat="45.93562" lon="4.72323">
        <ele>173</ele>
        <time>2018-09-26T08:54:34Z</time>
      </trkpt>
      <trkpt lat="45.9356" lon="4.72322">
        <ele>173</ele>
        <time>2018-09-26T08:54:35Z</time>
      </trkpt>
      <trkpt lat="45.93554" lon="4.72319">
        <ele>173</ele>
        <time>2018-09-26T08:54:37Z</time>
      </trkpt>
      <trkpt lat="45.9355" lon="4.72318">
        <ele>173</ele>
        <time>2018-09-26T08:54:38Z</time>
      </trkpt>
      <trkpt lat="45.93541" lon="4.72317">
        <ele>173</ele>
        <time>2018-09-26T08:54:41Z</time>
      </trkpt>
      <trkpt lat="45.93539" lon="4.72317">
        <ele>173</ele>
        <time>2018-09-26T08:54:42Z</time>
      </trkpt>
      <trkpt lat="45.9353" lon="4.72318">
        <ele>173</ele>
        <time>2018-09-26T08:54:46Z</time>
      </trkpt>
      <trkpt lat="45.93529" lon="4.72319">
        <ele>173</ele>
        <time>2018-09-26T08:54:47Z</time>
      </trkpt>
      <trkpt lat="45.93522" lon="4.72325">
        <ele>173</ele>
        <time>2018-09-26T08:54:53Z</time>
      </trkpt>
      <trkpt lat="45.93521" lon="4.72326">
        <ele>173</ele>
        <time>2018-09-26T08:54:54Z</time>
      </trkpt>
      <trkpt lat="45.93512" lon="4.72324">
        <ele>173</ele>
        <time>2018-09-26T08:55:01Z</time>
      </trkpt>
      <trkpt lat="45.93512" lon="4.72322">
        <ele>173</ele>
        <time>2018-09-26T08:55:02Z</time>
      </trkpt>
      <trkpt lat="45.93516" lon="4.72313">
        <ele>173</ele>
        <time>2018-09-26T08:55:05Z</time>
      </trkpt>
      <trkpt lat="45.93517" lon="4.7231">
        <ele>173</ele>
        <time>2018-09-26T08:55:06Z</time>
      </trkpt>
      <trkpt lat="45.93522" lon="4.72299">
        <ele>172</ele>
        <time>2018-09-26T08:55:09Z</time>
      </trkpt>
      <trkpt lat="45.93524" lon="4.72295">
        <ele>172</ele>
        <time>2018-09-26T08:55:10Z</time>
      </trkpt>
      <trkpt lat="45.93528" lon="4.72285">
        <ele>172</ele>
        <time>2018-09-26T08:55:12Z</time>
      </trkpt>
      <trkpt lat="45.9353" lon="4.7228">
        <ele>172</ele>
        <time>2018-09-26T08:55:13Z</time>
      </trkpt>
      <trkpt lat="45.93533" lon="4.72272">
        <ele>172</ele>
        <time>2018-09-26T08:55:15Z</time>
      </trkpt>
      <trkpt lat="45.93535" lon="4.72268">
        <ele>172</ele>
        <time>2018-09-26T08:55:16Z</time>
      </trkpt>
      <trkpt lat="45.93539" lon="4.72256">
        <ele>172</ele>
        <time>2018-09-26T08:55:17Z</time>
      </trkpt>
      <trkpt lat="45.93542" lon="4.72245">
        <ele>172</ele>
        <time>2018-09-26T08:55:19Z</time>
      </trkpt>
      <trkpt lat="45.93543" lon="4.7224">
        <ele>172</ele>
        <time>2018-09-26T08:55:20Z</time>
      </trkpt>
      <trkpt lat="45.93546" lon="4.72231">
        <ele>172</ele>
        <time>2018-09-26T08:55:23Z</time>
      </trkpt>
      <trkpt lat="45.93547" lon="4.72228">
        <ele>172</ele>
        <time>2018-09-26T08:55:24Z</time>
      </trkpt>
      <trkpt lat="45.9355" lon="4.72217">
        <ele>173</ele>
        <time>2018-09-26T08:55:28Z</time>
      </trkpt>
      <trkpt lat="45.9355" lon="4.72215">
        <ele>173</ele>
        <time>2018-09-26T08:55:29Z</time>
      </trkpt>
      <trkpt lat="45.93549" lon="4.72204">
        <ele>173</ele>
        <time>2018-09-26T08:55:34Z</time>
      </trkpt>
      <trkpt lat="45.93547" lon="4.72202">
        <ele>173</ele>
        <time>2018-09-26T08:55:35Z</time>
      </trkpt>
      <trkpt lat="45.93539" lon="4.722">
        <ele>173</ele>
        <time>2018-09-26T08:55:36Z</time>
      </trkpt>
      <trkpt lat="45.93537" lon="4.722">
        <ele>173</ele>
        <time>2018-09-26T08:55:37Z</time>
      </trkpt>
      <trkpt lat="45.93531" lon="4.72201">
        <ele>173</ele>
        <time>2018-09-26T08:55:38Z</time>
      </trkpt>
      <trkpt lat="45.93528" lon="4.722">
        <ele>172</ele>
        <time>2018-09-26T08:55:39Z</time>
      </trkpt>
      <trkpt lat="45.93523" lon="4.72199">
        <ele>172</ele>
        <time>2018-09-26T08:55:40Z</time>
      </trkpt>
      <trkpt lat="45.93518" lon="4.72197">
        <ele>173</ele>
        <time>2018-09-26T08:55:41Z</time>
      </trkpt>
      <trkpt lat="45.93513" lon="4.72196">
        <ele>173</ele>
        <time>2018-09-26T08:55:42Z</time>
      </trkpt>
      <trkpt lat="45.9351" lon="4.72192">
        <ele>173</ele>
        <time>2018-09-26T08:55:43Z</time>
      </trkpt>
      <trkpt lat="45.93505" lon="4.7219">
        <ele>173</ele>
        <time>2018-09-26T08:55:44Z</time>
      </trkpt>
      <trkpt lat="45.93501" lon="4.72189">
        <ele>173</ele>
        <time>2018-09-26T08:55:45Z</time>
      </trkpt>
      <trkpt lat="45.93496" lon="4.72187">
        <ele>173</ele>
        <time>2018-09-26T08:55:46Z</time>
      </trkpt>
      <trkpt lat="45.93491" lon="4.72187">
        <ele>173</ele>
        <time>2018-09-26T08:55:47Z</time>
      </trkpt>
      <trkpt lat="45.93483" lon="4.72183">
        <ele>173</ele>
        <time>2018-09-26T08:55:49Z</time>
      </trkpt>
      <trkpt lat="45.93479" lon="4.72182">
        <ele>173</ele>
        <time>2018-09-26T08:55:50Z</time>
      </trkpt>
      <trkpt lat="45.93471" lon="4.7218">
        <ele>174</ele>
        <time>2018-09-26T08:55:52Z</time>
      </trkpt>
      <trkpt lat="45.93466" lon="4.7218">
        <ele>174</ele>
        <time>2018-09-26T08:55:53Z</time>
      </trkpt>
      <trkpt lat="45.93459" lon="4.72176">
        <ele>174</ele>
        <time>2018-09-26T08:55:55Z</time>
      </trkpt>
      <trkpt lat="45.93454" lon="4.72177">
        <ele>174</ele>
        <time>2018-09-26T08:55:56Z</time>
      </trkpt>
      <trkpt lat="45.93448" lon="4.72179">
        <ele>174</ele>
        <time>2018-09-26T08:55:57Z</time>
      </trkpt>
      <trkpt lat="45.93442" lon="4.72178">
        <ele>175</ele>
        <time>2018-09-26T08:55:58Z</time>
      </trkpt>
      <trkpt lat="45.93438" lon="4.72179">
        <ele>175</ele>
        <time>2018-09-26T08:55:59Z</time>
      </trkpt>
      <trkpt lat="45.93433" lon="4.72179">
        <ele>175</ele>
        <time>2018-09-26T08:56:00Z</time>
      </trkpt>
      <trkpt lat="45.93428" lon="4.72181">
        <ele>175</ele>
        <time>2018-09-26T08:56:01Z</time>
      </trkpt>
      <trkpt lat="45.93423" lon="4.72182">
        <ele>175</ele>
        <time>2018-09-26T08:56:02Z</time>
      </trkpt>
      <trkpt lat="45.93419" lon="4.72184">
        <ele>175</ele>
        <time>2018-09-26T08:56:03Z</time>
      </trkpt>
      <trkpt lat="45.93414" lon="4.72187">
        <ele>176</ele>
        <time>2018-09-26T08:56:04Z</time>
      </trkpt>
      <trkpt lat="45.93406" lon="4.72187">
        <ele>176</ele>
        <time>2018-09-26T08:56:07Z</time>
      </trkpt>
      <trkpt lat="45.93403" lon="4.72188">
        <ele>176</ele>
        <time>2018-09-26T08:56:08Z</time>
      </trkpt>
      <trkpt lat="45.93401" lon="4.72189">
        <ele>176</ele>
        <time>2018-09-26T08:56:09Z</time>
      </trkpt>
      <trkpt lat="45.9339" lon="4.72193">
        <ele>176</ele>
        <time>2018-09-26T08:56:10Z</time>
      </trkpt>
      <trkpt lat="45.93381" lon="4.72193">
        <ele>177</ele>
        <time>2018-09-26T08:56:12Z</time>
      </trkpt>
      <trkpt lat="45.93377" lon="4.72194">
        <ele>177</ele>
        <time>2018-09-26T08:56:13Z</time>
      </trkpt>
      <trkpt lat="45.93369" lon="4.72196">
        <ele>177</ele>
        <time>2018-09-26T08:56:15Z</time>
      </trkpt>
      <trkpt lat="45.93364" lon="4.72198">
        <ele>177</ele>
        <time>2018-09-26T08:56:16Z</time>
      </trkpt>
      <trkpt lat="45.93357" lon="4.72199">
        <ele>177</ele>
        <time>2018-09-26T08:56:19Z</time>
      </trkpt>
      <trkpt lat="45.93355" lon="4.722">
        <ele>177</ele>
        <time>2018-09-26T08:56:20Z</time>
      </trkpt>
      <trkpt lat="45.93344" lon="4.72202">
        <ele>177</ele>
        <time>2018-09-26T08:56:21Z</time>
      </trkpt>
      <trkpt lat="45.93339" lon="4.72203">
        <ele>177</ele>
        <time>2018-09-26T08:56:22Z</time>
      </trkpt>
      <trkpt lat="45.93335" lon="4.72204">
        <ele>177</ele>
        <time>2018-09-26T08:56:23Z</time>
      </trkpt>
      <trkpt lat="45.93327" lon="4.72205">
        <ele>176</ele>
        <time>2018-09-26T08:56:24Z</time>
      </trkpt>
      <trkpt lat="45.93325" lon="4.72206">
        <ele>176</ele>
        <time>2018-09-26T08:56:25Z</time>
      </trkpt>
      <trkpt lat="45.93316" lon="4.72205">
        <ele>176</ele>
        <time>2018-09-26T08:56:26Z</time>
      </trkpt>
      <trkpt lat="45.93307" lon="4.72206">
        <ele>175</ele>
        <time>2018-09-26T08:56:30Z</time>
      </trkpt>
      <trkpt lat="45.93302" lon="4.72209">
        <ele>175</ele>
        <time>2018-09-26T08:56:31Z</time>
      </trkpt>
      <trkpt lat="45.93295" lon="4.72208">
        <ele>175</ele>
        <time>2018-09-26T08:56:32Z</time>
      </trkpt>
      <trkpt lat="45.93288" lon="4.72209">
        <ele>175</ele>
        <time>2018-09-26T08:56:33Z</time>
      </trkpt>
      <trkpt lat="45.93283" lon="4.7221">
        <ele>174</ele>
        <time>2018-09-26T08:56:34Z</time>
      </trkpt>
      <trkpt lat="45.93278" lon="4.7221">
        <ele>174</ele>
        <time>2018-09-26T08:56:35Z</time>
      </trkpt>
      <trkpt lat="45.93272" lon="4.7221">
        <ele>174</ele>
        <time>2018-09-26T08:56:36Z</time>
      </trkpt>
      <trkpt lat="45.93267" lon="4.72209">
        <ele>174</ele>
        <time>2018-09-26T08:56:37Z</time>
      </trkpt>
      <trkpt lat="45.93262" lon="4.72209">
        <ele>174</ele>
        <time>2018-09-26T08:56:38Z</time>
      </trkpt>
      <trkpt lat="45.93258" lon="4.72208">
        <ele>174</ele>
        <time>2018-09-26T08:56:39Z</time>
      </trkpt>
      <trkpt lat="45.93252" lon="4.72207">
        <ele>174</ele>
        <time>2018-09-26T08:56:40Z</time>
      </trkpt>
      <trkpt lat="45.93248" lon="4.72207">
        <ele>171</ele>
        <time>2018-09-26T08:56:41Z</time>
      </trkpt>
      <trkpt lat="45.9324" lon="4.72209">
        <ele>171</ele>
        <time>2018-09-26T08:56:43Z</time>
      </trkpt>
      <trkpt lat="45.93237" lon="4.72214">
        <ele>171</ele>
        <time>2018-09-26T08:56:44Z</time>
      </trkpt>
      <trkpt lat="45.93232" lon="4.72214">
        <ele>171</ele>
        <time>2018-09-26T08:56:45Z</time>
      </trkpt>
      <trkpt lat="45.93228" lon="4.72214">
        <ele>171</ele>
        <time>2018-09-26T08:56:46Z</time>
      </trkpt>
      <trkpt lat="45.93222" lon="4.72215">
        <ele>171</ele>
        <time>2018-09-26T08:56:47Z</time>
      </trkpt>
      <trkpt lat="45.93217" lon="4.72215">
        <ele>171</ele>
        <time>2018-09-26T08:56:48Z</time>
      </trkpt>
      <trkpt lat="45.93212" lon="4.72216">
        <ele>171</ele>
        <time>2018-09-26T08:56:49Z</time>
      </trkpt>
      <trkpt lat="45.93208" lon="4.72217">
        <ele>171</ele>
        <time>2018-09-26T08:56:50Z</time>
      </trkpt>
      <trkpt lat="45.93202" lon="4.72218">
        <ele>171</ele>
        <time>2018-09-26T08:56:51Z</time>
      </trkpt>
      <trkpt lat="45.93196" lon="4.72221">
        <ele>171</ele>
        <time>2018-09-26T08:56:52Z</time>
      </trkpt>
      <trkpt lat="45.93188" lon="4.72223">
        <ele>171</ele>
        <time>2018-09-26T08:56:54Z</time>
      </trkpt>
      <trkpt lat="45.93184" lon="4.72224">
        <ele>170</ele>
        <time>2018-09-26T08:56:55Z</time>
      </trkpt>
      <trkpt lat="45.93177" lon="4.7223">
        <ele>170</ele>
        <time>2018-09-26T08:56:57Z</time>
      </trkpt>
      <trkpt lat="45.93173" lon="4.72229">
        <ele>170</ele>
        <time>2018-09-26T08:56:58Z</time>
      </trkpt>
      <trkpt lat="45.93167" lon="4.72219">
        <ele>170</ele>
        <time>2018-09-26T08:57:00Z</time>
      </trkpt>
      <trkpt lat="45.93165" lon="4.72213">
        <ele>170</ele>
        <time>2018-09-26T08:57:01Z</time>
      </trkpt>
      <trkpt lat="45.93164" lon="4.72206">
        <ele>170</ele>
        <time>2018-09-26T08:57:02Z</time>
      </trkpt>
      <trkpt lat="45.93164" lon="4.72199">
        <ele>170</ele>
        <time>2018-09-26T08:57:03Z</time>
      </trkpt>
      <trkpt lat="45.93165" lon="4.72191">
        <ele>170</ele>
        <time>2018-09-26T08:57:04Z</time>
      </trkpt>
      <trkpt lat="45.93166" lon="4.72183">
        <ele>169</ele>
        <time>2018-09-26T08:57:05Z</time>
      </trkpt>
      <trkpt lat="45.93166" lon="4.72173">
        <ele>169</ele>
        <time>2018-09-26T08:57:06Z</time>
      </trkpt>
      <trkpt lat="45.93167" lon="4.72166">
        <ele>169</ele>
        <time>2018-09-26T08:57:07Z</time>
      </trkpt>
      <trkpt lat="45.93168" lon="4.72158">
        <ele>169</ele>
        <time>2018-09-26T08:57:08Z</time>
      </trkpt>
      <trkpt lat="45.93166" lon="4.72152">
        <ele>169</ele>
        <time>2018-09-26T08:57:09Z</time>
      </trkpt>
      <trkpt lat="45.93168" lon="4.7214">
        <ele>170</ele>
        <time>2018-09-26T08:57:11Z</time>
      </trkpt>
      <trkpt lat="45.93169" lon="4.72133">
        <ele>170</ele>
        <time>2018-09-26T08:57:12Z</time>
      </trkpt>
      <trkpt lat="45.9317" lon="4.72126">
        <ele>170</ele>
        <time>2018-09-26T08:57:13Z</time>
      </trkpt>
      <trkpt lat="45.93171" lon="4.72119">
        <ele>170</ele>
        <time>2018-09-26T08:57:14Z</time>
      </trkpt>
      <trkpt lat="45.93171" lon="4.72113">
        <ele>170</ele>
        <time>2018-09-26T08:57:15Z</time>
      </trkpt>
      <trkpt lat="45.93172" lon="4.72105">
        <ele>170</ele>
        <time>2018-09-26T08:57:16Z</time>
      </trkpt>
      <trkpt lat="45.93172" lon="4.72099">
        <ele>169</ele>
        <time>2018-09-26T08:57:17Z</time>
      </trkpt>
      <trkpt lat="45.93173" lon="4.72091">
        <ele>169</ele>
        <time>2018-09-26T08:57:18Z</time>
      </trkpt>
      <trkpt lat="45.93173" lon="4.72085">
        <ele>169</ele>
        <time>2018-09-26T08:57:19Z</time>
      </trkpt>
      <trkpt lat="45.93176" lon="4.72075">
        <ele>169</ele>
        <time>2018-09-26T08:57:20Z</time>
      </trkpt>
      <trkpt lat="45.93179" lon="4.72063">
        <ele>170</ele>
        <time>2018-09-26T08:57:22Z</time>
      </trkpt>
      <trkpt lat="45.93179" lon="4.72055">
        <ele>170</ele>
        <time>2018-09-26T08:57:23Z</time>
      </trkpt>
      <trkpt lat="45.93179" lon="4.72042">
        <ele>170</ele>
        <time>2018-09-26T08:57:25Z</time>
      </trkpt>
      <trkpt lat="45.93177" lon="4.72037">
        <ele>170</ele>
        <time>2018-09-26T08:57:26Z</time>
      </trkpt>
      <trkpt lat="45.93173" lon="4.72027">
        <ele>170</ele>
        <time>2018-09-26T08:57:28Z</time>
      </trkpt>
      <trkpt lat="45.93169" lon="4.72026">
        <ele>170</ele>
        <time>2018-09-26T08:57:29Z</time>
      </trkpt>
      <trkpt lat="45.93162" lon="4.72024">
        <ele>169</ele>
        <time>2018-09-26T08:57:31Z</time>
      </trkpt>
      <trkpt lat="45.93157" lon="4.72023">
        <ele>169</ele>
        <time>2018-09-26T08:57:32Z</time>
      </trkpt>
      <trkpt lat="45.9315" lon="4.7202">
        <ele>169</ele>
        <time>2018-09-26T08:57:34Z</time>
      </trkpt>
      <trkpt lat="45.93146" lon="4.72019">
        <ele>169</ele>
        <time>2018-09-26T08:57:35Z</time>
      </trkpt>
      <trkpt lat="45.93138" lon="4.72016">
        <ele>169</ele>
        <time>2018-09-26T08:57:37Z</time>
      </trkpt>
      <trkpt lat="45.93133" lon="4.72015">
        <ele>169</ele>
        <time>2018-09-26T08:57:38Z</time>
      </trkpt>
      <trkpt lat="45.93125" lon="4.72012">
        <ele>169</ele>
        <time>2018-09-26T08:57:40Z</time>
      </trkpt>
      <trkpt lat="45.9312" lon="4.72011">
        <ele>169</ele>
        <time>2018-09-26T08:57:41Z</time>
      </trkpt>
      <trkpt lat="45.93112" lon="4.72009">
        <ele>169</ele>
        <time>2018-09-26T08:57:43Z</time>
      </trkpt>
      <trkpt lat="45.93108" lon="4.72008">
        <ele>169</ele>
        <time>2018-09-26T08:57:44Z</time>
      </trkpt>
      <trkpt lat="45.93101" lon="4.72006">
        <ele>169</ele>
        <time>2018-09-26T08:57:46Z</time>
      </trkpt>
      <trkpt lat="45.93098" lon="4.72005">
        <ele>169</ele>
        <time>2018-09-26T08:57:47Z</time>
      </trkpt>
      <trkpt lat="45.93093" lon="4.72004">
        <ele>169</ele>
        <time>2018-09-26T08:57:48Z</time>
      </trkpt>
      <trkpt lat="45.93089" lon="4.72002">
        <ele>169</ele>
        <time>2018-09-26T08:57:49Z</time>
      </trkpt>
      <trkpt lat="45.9308" lon="4.71998">
        <ele>169</ele>
        <time>2018-09-26T08:57:51Z</time>
      </trkpt>
      <trkpt lat="45.93076" lon="4.71998">
        <ele>169</ele>
        <time>2018-09-26T08:57:52Z</time>
      </trkpt>
      <trkpt lat="45.93067" lon="4.71996">
        <ele>169</ele>
        <time>2018-09-26T08:57:54Z</time>
      </trkpt>
      <trkpt lat="45.93063" lon="4.71995">
        <ele>169</ele>
        <time>2018-09-26T08:57:55Z</time>
      </trkpt>
      <trkpt lat="45.93055" lon="4.71991">
        <ele>169</ele>
        <time>2018-09-26T08:57:57Z</time>
      </trkpt>
      <trkpt lat="45.93051" lon="4.71989">
        <ele>169</ele>
        <time>2018-09-26T08:57:58Z</time>
      </trkpt>
      <trkpt lat="45.93044" lon="4.71986">
        <ele>169</ele>
        <time>2018-09-26T08:58:00Z</time>
      </trkpt>
      <trkpt lat="45.9304" lon="4.71985">
        <ele>169</ele>
        <time>2018-09-26T08:58:01Z</time>
      </trkpt>
      <trkpt lat="45.93032" lon="4.71981">
        <ele>169</ele>
        <time>2018-09-26T08:58:03Z</time>
      </trkpt>
      <trkpt lat="45.93027" lon="4.71979">
        <ele>169</ele>
        <time>2018-09-26T08:58:04Z</time>
      </trkpt>
      <trkpt lat="45.93019" lon="4.71976">
        <ele>169</ele>
        <time>2018-09-26T08:58:06Z</time>
      </trkpt>
      <trkpt lat="45.93014" lon="4.71974">
        <ele>169</ele>
        <time>2018-09-26T08:58:07Z</time>
      </trkpt>
      <trkpt lat="45.93009" lon="4.71972">
        <ele>169</ele>
        <time>2018-09-26T08:58:08Z</time>
      </trkpt>
      <trkpt lat="45.93005" lon="4.7197">
        <ele>169</ele>
        <time>2018-09-26T08:58:09Z</time>
      </trkpt>
      <trkpt lat="45.92998" lon="4.71966">
        <ele>169</ele>
        <time>2018-09-26T08:58:11Z</time>
      </trkpt>
      <trkpt lat="45.92995" lon="4.71964">
        <ele>169</ele>
        <time>2018-09-26T08:58:12Z</time>
      </trkpt>
      <trkpt lat="45.92987" lon="4.71959">
        <ele>169</ele>
        <time>2018-09-26T08:58:14Z</time>
      </trkpt>
      <trkpt lat="45.92983" lon="4.71958">
        <ele>169</ele>
        <time>2018-09-26T08:58:15Z</time>
      </trkpt>
      <trkpt lat="45.92978" lon="4.71956">
        <ele>169</ele>
        <time>2018-09-26T08:58:16Z</time>
      </trkpt>
      <trkpt lat="45.92973" lon="4.71955">
        <ele>169</ele>
        <time>2018-09-26T08:58:17Z</time>
      </trkpt>
      <trkpt lat="45.92968" lon="4.71954">
        <ele>169</ele>
        <time>2018-09-26T08:58:18Z</time>
      </trkpt>
      <trkpt lat="45.92964" lon="4.71954">
        <ele>169</ele>
        <time>2018-09-26T08:58:19Z</time>
      </trkpt>
      <trkpt lat="45.92959" lon="4.71953">
        <ele>169</ele>
        <time>2018-09-26T08:58:20Z</time>
      </trkpt>
      <trkpt lat="45.92955" lon="4.71951">
        <ele>169</ele>
        <time>2018-09-26T08:58:21Z</time>
      </trkpt>
      <trkpt lat="45.92947" lon="4.71949">
        <ele>169</ele>
        <time>2018-09-26T08:58:23Z</time>
      </trkpt>
      <trkpt lat="45.92943" lon="4.71948">
        <ele>169</ele>
        <time>2018-09-26T08:58:24Z</time>
      </trkpt>
      <trkpt lat="45.92938" lon="4.71946">
        <ele>170</ele>
        <time>2018-09-26T08:58:25Z</time>
      </trkpt>
      <trkpt lat="45.92934" lon="4.71945">
        <ele>170</ele>
        <time>2018-09-26T08:58:26Z</time>
      </trkpt>
      <trkpt lat="45.92929" lon="4.71944">
        <ele>170</ele>
        <time>2018-09-26T08:58:27Z</time>
      </trkpt>
      <trkpt lat="45.92925" lon="4.71942">
        <ele>170</ele>
        <time>2018-09-26T08:58:28Z</time>
      </trkpt>
      <trkpt lat="45.9292" lon="4.71941">
        <ele>170</ele>
        <time>2018-09-26T08:58:29Z</time>
      </trkpt>
      <trkpt lat="45.92914" lon="4.71938">
        <ele>170</ele>
        <time>2018-09-26T08:58:30Z</time>
      </trkpt>
      <trkpt lat="45.92909" lon="4.71936">
        <ele>170</ele>
        <time>2018-09-26T08:58:31Z</time>
      </trkpt>
      <trkpt lat="45.92904" lon="4.71935">
        <ele>170</ele>
        <time>2018-09-26T08:58:32Z</time>
      </trkpt>
      <trkpt lat="45.929" lon="4.71933">
        <ele>170</ele>
        <time>2018-09-26T08:58:33Z</time>
      </trkpt>
      <trkpt lat="45.92895" lon="4.71931">
        <ele>170</ele>
        <time>2018-09-26T08:58:34Z</time>
      </trkpt>
      <trkpt lat="45.92888" lon="4.71926">
        <ele>170</ele>
        <time>2018-09-26T08:58:36Z</time>
      </trkpt>
      <trkpt lat="45.92883" lon="4.71922">
        <ele>170</ele>
        <time>2018-09-26T08:58:37Z</time>
      </trkpt>
      <trkpt lat="45.92879" lon="4.7192">
        <ele>170</ele>
        <time>2018-09-26T08:58:38Z</time>
      </trkpt>
      <trkpt lat="45.92874" lon="4.71916">
        <ele>171</ele>
        <time>2018-09-26T08:58:39Z</time>
      </trkpt>
      <trkpt lat="45.9287" lon="4.71913">
        <ele>171</ele>
        <time>2018-09-26T08:58:40Z</time>
      </trkpt>
      <trkpt lat="45.92865" lon="4.71911">
        <ele>171</ele>
        <time>2018-09-26T08:58:41Z</time>
      </trkpt>
      <trkpt lat="45.92861" lon="4.71909">
        <ele>171</ele>
        <time>2018-09-26T08:58:42Z</time>
      </trkpt>
      <trkpt lat="45.92856" lon="4.71906">
        <ele>171</ele>
        <time>2018-09-26T08:58:43Z</time>
      </trkpt>
      <trkpt lat="45.92849" lon="4.71901">
        <ele>171</ele>
        <time>2018-09-26T08:58:45Z</time>
      </trkpt>
      <trkpt lat="45.92845" lon="4.71897">
        <ele>171</ele>
        <time>2018-09-26T08:58:46Z</time>
      </trkpt>
      <trkpt lat="45.9284" lon="4.71894">
        <ele>171</ele>
        <time>2018-09-26T08:58:47Z</time>
      </trkpt>
      <trkpt lat="45.92836" lon="4.71892">
        <ele>171</ele>
        <time>2018-09-26T08:58:48Z</time>
      </trkpt>
      <trkpt lat="45.92833" lon="4.71889">
        <ele>171</ele>
        <time>2018-09-26T08:58:49Z</time>
      </trkpt>
      <trkpt lat="45.92827" lon="4.71887">
        <ele>171</ele>
        <time>2018-09-26T08:58:50Z</time>
      </trkpt>
      <trkpt lat="45.9282" lon="4.71882">
        <ele>171</ele>
        <time>2018-09-26T08:58:52Z</time>
      </trkpt>
      <trkpt lat="45.92819" lon="4.7188">
        <ele>171</ele>
        <time>2018-09-26T08:58:53Z</time>
      </trkpt>
      <trkpt lat="45.92812" lon="4.71875">
        <ele>172</ele>
        <time>2018-09-26T08:58:55Z</time>
      </trkpt>
      <trkpt lat="45.92807" lon="4.71872">
        <ele>172</ele>
        <time>2018-09-26T08:58:56Z</time>
      </trkpt>
      <trkpt lat="45.928" lon="4.71868">
        <ele>172</ele>
        <time>2018-09-26T08:58:58Z</time>
      </trkpt>
      <trkpt lat="45.92793" lon="4.71864">
        <ele>172</ele>
        <time>2018-09-26T08:58:59Z</time>
      </trkpt>
      <trkpt lat="45.92789" lon="4.71861">
        <ele>172</ele>
        <time>2018-09-26T08:59:00Z</time>
      </trkpt>
      <trkpt lat="45.92784" lon="4.71859">
        <ele>172</ele>
        <time>2018-09-26T08:59:01Z</time>
      </trkpt>
      <trkpt lat="45.92776" lon="4.71853">
        <ele>172</ele>
        <time>2018-09-26T08:59:03Z</time>
      </trkpt>
      <trkpt lat="45.92773" lon="4.71851">
        <ele>172</ele>
        <time>2018-09-26T08:59:04Z</time>
      </trkpt>
      <trkpt lat="45.92769" lon="4.71848">
        <ele>172</ele>
        <time>2018-09-26T08:59:07Z</time>
      </trkpt>
      <trkpt lat="45.92762" lon="4.71842">
        <ele>172</ele>
        <time>2018-09-26T08:59:08Z</time>
      </trkpt>
      <trkpt lat="45.92755" lon="4.71837">
        <ele>173</ele>
        <time>2018-09-26T08:59:10Z</time>
      </trkpt>
      <trkpt lat="45.9275" lon="4.71834">
        <ele>173</ele>
        <time>2018-09-26T08:59:11Z</time>
      </trkpt>
      <trkpt lat="45.92746" lon="4.71831">
        <ele>173</ele>
        <time>2018-09-26T08:59:12Z</time>
      </trkpt>
      <trkpt lat="45.92739" lon="4.71828">
        <ele>173</ele>
        <time>2018-09-26T08:59:13Z</time>
      </trkpt>
      <trkpt lat="45.92732" lon="4.71821">
        <ele>174</ele>
        <time>2018-09-26T08:59:15Z</time>
      </trkpt>
      <trkpt lat="45.92729" lon="4.71818">
        <ele>174</ele>
        <time>2018-09-26T08:59:16Z</time>
      </trkpt>
      <trkpt lat="45.92722" lon="4.71814">
        <ele>174</ele>
        <time>2018-09-26T08:59:18Z</time>
      </trkpt>
      <trkpt lat="45.92718" lon="4.71812">
        <ele>174</ele>
        <time>2018-09-26T08:59:19Z</time>
      </trkpt>
      <trkpt lat="45.92711" lon="4.71806">
        <ele>174</ele>
        <time>2018-09-26T08:59:23Z</time>
      </trkpt>
      <trkpt lat="45.9271" lon="4.71803">
        <ele>174</ele>
        <time>2018-09-26T08:59:24Z</time>
      </trkpt>
      <trkpt lat="45.92709" lon="4.718">
        <ele>174</ele>
        <time>2018-09-26T08:59:25Z</time>
      </trkpt>
      <trkpt lat="45.92707" lon="4.71789">
        <ele>174</ele>
        <time>2018-09-26T08:59:26Z</time>
      </trkpt>
      <trkpt lat="45.92706" lon="4.71779">
        <ele>174</ele>
        <time>2018-09-26T08:59:28Z</time>
      </trkpt>
      <trkpt lat="45.92706" lon="4.71773">
        <ele>174</ele>
        <time>2018-09-26T08:59:29Z</time>
      </trkpt>
      <trkpt lat="45.92706" lon="4.71761">
        <ele>175</ele>
        <time>2018-09-26T08:59:31Z</time>
      </trkpt>
      <trkpt lat="45.92706" lon="4.71756">
        <ele>175</ele>
        <time>2018-09-26T08:59:32Z</time>
      </trkpt>
      <trkpt lat="45.92708" lon="4.7175">
        <ele>175</ele>
        <time>2018-09-26T08:59:33Z</time>
      </trkpt>
      <trkpt lat="45.92709" lon="4.71743">
        <ele>175</ele>
        <time>2018-09-26T08:59:34Z</time>
      </trkpt>
      <trkpt lat="45.92712" lon="4.71738">
        <ele>175</ele>
        <time>2018-09-26T08:59:36Z</time>
      </trkpt>
      <trkpt lat="45.92714" lon="4.71729">
        <ele>175</ele>
        <time>2018-09-26T08:59:37Z</time>
      </trkpt>
      <trkpt lat="45.92716" lon="4.71722">
        <ele>175</ele>
        <time>2018-09-26T08:59:40Z</time>
      </trkpt>
      <trkpt lat="45.92719" lon="4.71711">
        <ele>174</ele>
        <time>2018-09-26T08:59:41Z</time>
      </trkpt>
      <trkpt lat="45.92722" lon="4.71701">
        <ele>174</ele>
        <time>2018-09-26T08:59:43Z</time>
      </trkpt>
      <trkpt lat="45.92725" lon="4.71695">
        <ele>174</ele>
        <time>2018-09-26T08:59:44Z</time>
      </trkpt>
      <trkpt lat="45.92727" lon="4.71684">
        <ele>173</ele>
        <time>2018-09-26T08:59:47Z</time>
      </trkpt>
      <trkpt lat="45.92728" lon="4.71682">
        <ele>173</ele>
        <time>2018-09-26T08:59:48Z</time>
      </trkpt>
      <trkpt lat="45.92729" lon="4.71679">
        <ele>173</ele>
        <time>2018-09-26T08:59:49Z</time>
      </trkpt>
      <trkpt lat="45.92735" lon="4.71669">
        <ele>173</ele>
        <time>2018-09-26T08:59:50Z</time>
      </trkpt>
      <trkpt lat="45.9274" lon="4.7166">
        <ele>172</ele>
        <time>2018-09-26T08:59:52Z</time>
      </trkpt>
      <trkpt lat="45.92744" lon="4.71654">
        <ele>172</ele>
        <time>2018-09-26T08:59:53Z</time>
      </trkpt>
      <trkpt lat="45.92748" lon="4.71648">
        <ele>172</ele>
        <time>2018-09-26T08:59:54Z</time>
      </trkpt>
      <trkpt lat="45.9275" lon="4.71642">
        <ele>171</ele>
        <time>2018-09-26T08:59:55Z</time>
      </trkpt>
      <trkpt lat="45.92754" lon="4.71637">
        <ele>171</ele>
        <time>2018-09-26T08:59:56Z</time>
      </trkpt>
      <trkpt lat="45.92757" lon="4.71632">
        <ele>171</ele>
        <time>2018-09-26T08:59:57Z</time>
      </trkpt>
      <trkpt lat="45.9276" lon="4.71626">
        <ele>171</ele>
        <time>2018-09-26T08:59:58Z</time>
      </trkpt>
      <trkpt lat="45.92763" lon="4.71621">
        <ele>171</ele>
        <time>2018-09-26T08:59:59Z</time>
      </trkpt>
      <trkpt lat="45.92768" lon="4.71611">
        <ele>171</ele>
        <time>2018-09-26T09:00:00Z</time>
      </trkpt>
      <trkpt lat="45.92772" lon="4.71601">
        <ele>171</ele>
        <time>2018-09-26T09:00:02Z</time>
      </trkpt>
      <trkpt lat="45.92773" lon="4.71597">
        <ele>171</ele>
        <time>2018-09-26T09:00:03Z</time>
      </trkpt>
      <trkpt lat="45.92777" lon="4.7159">
        <ele>171</ele>
        <time>2018-09-26T09:00:05Z</time>
      </trkpt>
      <trkpt lat="45.92781" lon="4.71585">
        <ele>171</ele>
        <time>2018-09-26T09:00:06Z</time>
      </trkpt>
      <trkpt lat="45.92784" lon="4.7158">
        <ele>172</ele>
        <time>2018-09-26T09:00:07Z</time>
      </trkpt>
      <trkpt lat="45.92788" lon="4.71574">
        <ele>172</ele>
        <time>2018-09-26T09:00:08Z</time>
      </trkpt>
      <trkpt lat="45.92794" lon="4.71566">
        <ele>172</ele>
        <time>2018-09-26T09:00:10Z</time>
      </trkpt>
      <trkpt lat="45.92796" lon="4.71561">
        <ele>172</ele>
        <time>2018-09-26T09:00:11Z</time>
      </trkpt>
      <trkpt lat="45.92799" lon="4.71553">
        <ele>173</ele>
        <time>2018-09-26T09:00:14Z</time>
      </trkpt>
      <trkpt lat="45.92801" lon="4.7155">
        <ele>173</ele>
        <time>2018-09-26T09:00:15Z</time>
      </trkpt>
      <trkpt lat="45.92804" lon="4.71541">
        <ele>173</ele>
        <time>2018-09-26T09:00:18Z</time>
      </trkpt>
      <trkpt lat="45.92805" lon="4.71538">
        <ele>173</ele>
        <time>2018-09-26T09:00:19Z</time>
      </trkpt>
      <trkpt lat="45.92809" lon="4.71526">
        <ele>174</ele>
        <time>2018-09-26T09:00:23Z</time>
      </trkpt>
      <trkpt lat="45.92809" lon="4.71523">
        <ele>174</ele>
        <time>2018-09-26T09:00:24Z</time>
      </trkpt>
      <trkpt lat="45.92813" lon="4.71513">
        <ele>174</ele>
        <time>2018-09-26T09:00:28Z</time>
      </trkpt>
      <trkpt lat="45.92814" lon="4.71511">
        <ele>174</ele>
        <time>2018-09-26T09:00:29Z</time>
      </trkpt>
      <trkpt lat="45.92817" lon="4.715">
        <ele>175</ele>
        <time>2018-09-26T09:00:34Z</time>
      </trkpt>
      <trkpt lat="45.92818" lon="4.71498">
        <ele>178</ele>
        <time>2018-09-26T09:00:35Z</time>
      </trkpt>
      <trkpt lat="45.9282" lon="4.71487">
        <ele>178</ele>
        <time>2018-09-26T09:00:40Z</time>
      </trkpt>
      <trkpt lat="45.9282" lon="4.71485">
        <ele>178</ele>
        <time>2018-09-26T09:00:41Z</time>
      </trkpt>
      <trkpt lat="45.92821" lon="4.71474">
        <ele>179</ele>
        <time>2018-09-26T09:00:46Z</time>
      </trkpt>
      <trkpt lat="45.92821" lon="4.71472">
        <ele>179</ele>
        <time>2018-09-26T09:00:47Z</time>
      </trkpt>
      <trkpt lat="45.92825" lon="4.71462">
        <ele>180</ele>
        <time>2018-09-26T09:00:53Z</time>
      </trkpt>
      <trkpt lat="45.92826" lon="4.7146">
        <ele>180</ele>
        <time>2018-09-26T09:00:54Z</time>
      </trkpt>
      <trkpt lat="45.92832" lon="4.71452">
        <ele>181</ele>
        <time>2018-09-26T09:01:00Z</time>
      </trkpt>
      <trkpt lat="45.92833" lon="4.7145">
        <ele>181</ele>
        <time>2018-09-26T09:01:01Z</time>
      </trkpt>
      <trkpt lat="45.92837" lon="4.7144">
        <ele>183</ele>
        <time>2018-09-26T09:01:07Z</time>
      </trkpt>
      <trkpt lat="45.92837" lon="4.71438">
        <ele>183</ele>
        <time>2018-09-26T09:01:08Z</time>
      </trkpt>
      <trkpt lat="45.9284" lon="4.71427">
        <ele>184</ele>
        <time>2018-09-26T09:01:14Z</time>
      </trkpt>
      <trkpt lat="45.9284" lon="4.71425">
        <ele>185</ele>
        <time>2018-09-26T09:01:15Z</time>
      </trkpt>
      <trkpt lat="45.92842" lon="4.71413">
        <ele>187</ele>
        <time>2018-09-26T09:01:20Z</time>
      </trkpt>
      <trkpt lat="45.92843" lon="4.71411">
        <ele>187</ele>
        <time>2018-09-26T09:01:21Z</time>
      </trkpt>
      <trkpt lat="45.92846" lon="4.714">
        <ele>187</ele>
        <time>2018-09-26T09:01:26Z</time>
      </trkpt>
      <trkpt lat="45.92847" lon="4.71398">
        <ele>187</ele>
        <time>2018-09-26T09:01:27Z</time>
      </trkpt>
      <trkpt lat="45.92844" lon="4.71387">
        <ele>188</ele>
        <time>2018-09-26T09:01:32Z</time>
      </trkpt>
      <trkpt lat="45.92843" lon="4.71384">
        <ele>188</ele>
        <time>2018-09-26T09:01:33Z</time>
      </trkpt>
      <trkpt lat="45.92838" lon="4.71376">
        <ele>188</ele>
        <time>2018-09-26T09:01:36Z</time>
      </trkpt>
      <trkpt lat="45.92837" lon="4.71373">
        <ele>188</ele>
        <time>2018-09-26T09:01:37Z</time>
      </trkpt>
      <trkpt lat="45.92832" lon="4.71363">
        <ele>187</ele>
        <time>2018-09-26T09:01:40Z</time>
      </trkpt>
      <trkpt lat="45.92831" lon="4.71359">
        <ele>188</ele>
        <time>2018-09-26T09:01:41Z</time>
      </trkpt>
      <trkpt lat="45.9283" lon="4.71356">
        <ele>188</ele>
        <time>2018-09-26T09:01:42Z</time>
      </trkpt>
      <trkpt lat="45.92826" lon="4.71344">
        <ele>189</ele>
        <time>2018-09-26T09:01:43Z</time>
      </trkpt>
      <trkpt lat="45.92824" lon="4.71334">
        <ele>189</ele>
        <time>2018-09-26T09:01:47Z</time>
      </trkpt>
      <trkpt lat="45.92823" lon="4.71331">
        <ele>190</ele>
        <time>2018-09-26T09:01:48Z</time>
      </trkpt>
      <trkpt lat="45.92824" lon="4.71321">
        <ele>190</ele>
        <time>2018-09-26T09:01:51Z</time>
      </trkpt>
      <trkpt lat="45.92824" lon="4.71318">
        <ele>189</ele>
        <time>2018-09-26T09:01:52Z</time>
      </trkpt>
      <trkpt lat="45.92822" lon="4.71305">
        <ele>189</ele>
        <time>2018-09-26T09:01:56Z</time>
      </trkpt>
      <trkpt lat="45.92821" lon="4.71303">
        <ele>189</ele>
        <time>2018-09-26T09:01:57Z</time>
      </trkpt>
      <trkpt lat="45.92814" lon="4.71295">
        <ele>189</ele>
        <time>2018-09-26T09:02:01Z</time>
      </trkpt>
      <trkpt lat="45.92812" lon="4.71294">
        <ele>189</ele>
        <time>2018-09-26T09:02:02Z</time>
      </trkpt>
      <trkpt lat="45.92804" lon="4.7129">
        <ele>189</ele>
        <time>2018-09-26T09:02:06Z</time>
      </trkpt>
      <trkpt lat="45.92795" lon="4.71288">
        <ele>189</ele>
        <time>2018-09-26T09:02:07Z</time>
      </trkpt>
      <trkpt lat="45.92787" lon="4.71287">
        <ele>189</ele>
        <time>2018-09-26T09:02:11Z</time>
      </trkpt>
      <trkpt lat="45.92785" lon="4.71286">
        <ele>189</ele>
        <time>2018-09-26T09:02:12Z</time>
      </trkpt>
      <trkpt lat="45.92777" lon="4.71284">
        <ele>189</ele>
        <time>2018-09-26T09:02:15Z</time>
      </trkpt>
      <trkpt lat="45.92768" lon="4.71281">
        <ele>189</ele>
        <time>2018-09-26T09:02:16Z</time>
      </trkpt>
      <trkpt lat="45.92759" lon="4.71279">
        <ele>189</ele>
        <time>2018-09-26T09:02:18Z</time>
      </trkpt>
      <trkpt lat="45.92755" lon="4.71278">
        <ele>189</ele>
        <time>2018-09-26T09:02:19Z</time>
      </trkpt>
      <trkpt lat="45.92747" lon="4.71275">
        <ele>188</ele>
        <time>2018-09-26T09:02:21Z</time>
      </trkpt>
      <trkpt lat="45.92741" lon="4.71276">
        <ele>188</ele>
        <time>2018-09-26T09:02:22Z</time>
      </trkpt>
      <trkpt lat="45.92733" lon="4.71274">
        <ele>188</ele>
        <time>2018-09-26T09:02:24Z</time>
      </trkpt>
      <trkpt lat="45.92729" lon="4.71273">
        <ele>188</ele>
        <time>2018-09-26T09:02:25Z</time>
      </trkpt>
      <trkpt lat="45.9272" lon="4.71272">
        <ele>188</ele>
        <time>2018-09-26T09:02:27Z</time>
      </trkpt>
      <trkpt lat="45.92716" lon="4.71271">
        <ele>188</ele>
        <time>2018-09-26T09:02:28Z</time>
      </trkpt>
      <trkpt lat="45.92708" lon="4.71269">
        <ele>187</ele>
        <time>2018-09-26T09:02:30Z</time>
      </trkpt>
      <trkpt lat="45.92705" lon="4.71268">
        <ele>187</ele>
        <time>2018-09-26T09:02:31Z</time>
      </trkpt>
      <trkpt lat="45.92699" lon="4.71266">
        <ele>187</ele>
        <time>2018-09-26T09:02:33Z</time>
      </trkpt>
      <trkpt lat="45.92693" lon="4.71266">
        <ele>187</ele>
        <time>2018-09-26T09:02:34Z</time>
      </trkpt>
      <trkpt lat="45.92685" lon="4.71265">
        <ele>187</ele>
        <time>2018-09-26T09:02:36Z</time>
      </trkpt>
      <trkpt lat="45.92681" lon="4.71264">
        <ele>187</ele>
        <time>2018-09-26T09:02:37Z</time>
      </trkpt>
      <trkpt lat="45.92674" lon="4.71259">
        <ele>187</ele>
        <time>2018-09-26T09:02:40Z</time>
      </trkpt>
      <trkpt lat="45.92671" lon="4.71258">
        <ele>187</ele>
        <time>2018-09-26T09:02:41Z</time>
      </trkpt>
      <trkpt lat="45.92664" lon="4.71254">
        <ele>187</ele>
        <time>2018-09-26T09:02:42Z</time>
      </trkpt>
      <trkpt lat="45.92661" lon="4.71252">
        <ele>186</ele>
        <time>2018-09-26T09:02:43Z</time>
      </trkpt>
      <trkpt lat="45.92653" lon="4.71248">
        <ele>187</ele>
        <time>2018-09-26T09:02:46Z</time>
      </trkpt>
      <trkpt lat="45.92651" lon="4.71247">
        <ele>187</ele>
        <time>2018-09-26T09:02:47Z</time>
      </trkpt>
      <trkpt lat="45.92644" lon="4.71243">
        <ele>187</ele>
        <time>2018-09-26T09:02:50Z</time>
      </trkpt>
      <trkpt lat="45.92641" lon="4.71241">
        <ele>186</ele>
        <time>2018-09-26T09:02:51Z</time>
      </trkpt>
      <trkpt lat="45.92633" lon="4.71236">
        <ele>186</ele>
        <time>2018-09-26T09:02:54Z</time>
      </trkpt>
      <trkpt lat="45.92624" lon="4.71231">
        <ele>186</ele>
        <time>2018-09-26T09:02:55Z</time>
      </trkpt>
      <trkpt lat="45.92616" lon="4.71227">
        <ele>186</ele>
        <time>2018-09-26T09:02:57Z</time>
      </trkpt>
      <trkpt lat="45.92612" lon="4.71226">
        <ele>186</ele>
        <time>2018-09-26T09:02:58Z</time>
      </trkpt>
      <trkpt lat="45.92604" lon="4.71222">
        <ele>186</ele>
        <time>2018-09-26T09:03:00Z</time>
      </trkpt>
      <trkpt lat="45.92602" lon="4.71221">
        <ele>186</ele>
        <time>2018-09-26T09:03:01Z</time>
      </trkpt>
      <trkpt lat="45.92595" lon="4.71218">
        <ele>186</ele>
        <time>2018-09-26T09:03:03Z</time>
      </trkpt>
      <trkpt lat="45.92593" lon="4.71217">
        <ele>186</ele>
        <time>2018-09-26T09:03:04Z</time>
      </trkpt>
      <trkpt lat="45.92591" lon="4.71216">
        <ele>186</ele>
        <time>2018-09-26T09:03:05Z</time>
      </trkpt>
      <trkpt lat="45.92584" lon="4.71212">
        <ele>186</ele>
        <time>2018-09-26T09:03:06Z</time>
      </trkpt>
      <trkpt lat="45.92576" lon="4.71209">
        <ele>185</ele>
        <time>2018-09-26T09:03:08Z</time>
      </trkpt>
      <trkpt lat="45.92572" lon="4.71208">
        <ele>185</ele>
        <time>2018-09-26T09:03:09Z</time>
      </trkpt>
      <trkpt lat="45.92565" lon="4.71205">
        <ele>185</ele>
        <time>2018-09-26T09:03:11Z</time>
      </trkpt>
      <trkpt lat="45.9256" lon="4.71204">
        <ele>185</ele>
        <time>2018-09-26T09:03:12Z</time>
      </trkpt>
      <trkpt lat="45.92554" lon="4.712">
        <ele>185</ele>
        <time>2018-09-26T09:03:14Z</time>
      </trkpt>
      <trkpt lat="45.92552" lon="4.71199">
        <ele>185</ele>
        <time>2018-09-26T09:03:15Z</time>
      </trkpt>
      <trkpt lat="45.92544" lon="4.71196">
        <ele>185</ele>
        <time>2018-09-26T09:03:18Z</time>
      </trkpt>
      <trkpt lat="45.92542" lon="4.71195">
        <ele>185</ele>
        <time>2018-09-26T09:03:19Z</time>
      </trkpt>
      <trkpt lat="45.92536" lon="4.71193">
        <ele>185</ele>
        <time>2018-09-26T09:03:21Z</time>
      </trkpt>
      <trkpt lat="45.92526" lon="4.7119">
        <ele>185</ele>
        <time>2018-09-26T09:03:22Z</time>
      </trkpt>
      <trkpt lat="45.92518" lon="4.71187">
        <ele>185</ele>
        <time>2018-09-26T09:03:24Z</time>
      </trkpt>
      <trkpt lat="45.92514" lon="4.71186">
        <ele>185</ele>
        <time>2018-09-26T09:03:25Z</time>
      </trkpt>
      <trkpt lat="45.92507" lon="4.71184">
        <ele>185</ele>
        <time>2018-09-26T09:03:28Z</time>
      </trkpt>
      <trkpt lat="45.925" lon="4.7118">
        <ele>185</ele>
        <time>2018-09-26T09:03:29Z</time>
      </trkpt>
      <trkpt lat="45.92491" lon="4.71176">
        <ele>185</ele>
        <time>2018-09-26T09:03:31Z</time>
      </trkpt>
      <trkpt lat="45.92486" lon="4.71173">
        <ele>185</ele>
        <time>2018-09-26T09:03:32Z</time>
      </trkpt>
      <trkpt lat="45.92478" lon="4.7117">
        <ele>184</ele>
        <time>2018-09-26T09:03:34Z</time>
      </trkpt>
      <trkpt lat="45.92473" lon="4.71168">
        <ele>184</ele>
        <time>2018-09-26T09:03:35Z</time>
      </trkpt>
      <trkpt lat="45.92465" lon="4.71166">
        <ele>186</ele>
        <time>2018-09-26T09:03:37Z</time>
      </trkpt>
      <trkpt lat="45.92462" lon="4.71165">
        <ele>186</ele>
        <time>2018-09-26T09:03:38Z</time>
      </trkpt>
      <trkpt lat="45.92455" lon="4.71161">
        <ele>186</ele>
        <time>2018-09-26T09:03:41Z</time>
      </trkpt>
      <trkpt lat="45.92453" lon="4.7116">
        <ele>186</ele>
        <time>2018-09-26T09:03:42Z</time>
      </trkpt>
      <trkpt lat="45.92446" lon="4.71156">
        <ele>186</ele>
        <time>2018-09-26T09:03:45Z</time>
      </trkpt>
      <trkpt lat="45.92438" lon="4.71151">
        <ele>185</ele>
        <time>2018-09-26T09:03:46Z</time>
      </trkpt>
      <trkpt lat="45.92431" lon="4.71146">
        <ele>185</ele>
        <time>2018-09-26T09:03:48Z</time>
      </trkpt>
      <trkpt lat="45.92427" lon="4.71144">
        <ele>185</ele>
        <time>2018-09-26T09:03:49Z</time>
      </trkpt>
      <trkpt lat="45.92421" lon="4.71138">
        <ele>186</ele>
        <time>2018-09-26T09:03:51Z</time>
      </trkpt>
      <trkpt lat="45.92419" lon="4.71135">
        <ele>186</ele>
        <time>2018-09-26T09:03:52Z</time>
      </trkpt>
      <trkpt lat="45.92412" lon="4.71129">
        <ele>184</ele>
        <time>2018-09-26T09:03:56Z</time>
      </trkpt>
      <trkpt lat="45.9241" lon="4.71127">
        <ele>184</ele>
        <time>2018-09-26T09:03:57Z</time>
      </trkpt>
      <trkpt lat="45.92407" lon="4.71125">
        <ele>184</ele>
        <time>2018-09-26T09:03:58Z</time>
      </trkpt>
      <trkpt lat="45.92398" lon="4.7112">
        <ele>184</ele>
        <time>2018-09-26T09:03:59Z</time>
      </trkpt>
      <trkpt lat="45.9239" lon="4.71118">
        <ele>184</ele>
        <time>2018-09-26T09:04:01Z</time>
      </trkpt>
      <trkpt lat="45.92386" lon="4.71115">
        <ele>184</ele>
        <time>2018-09-26T09:04:02Z</time>
      </trkpt>
      <trkpt lat="45.92378" lon="4.71111">
        <ele>184</ele>
        <time>2018-09-26T09:04:04Z</time>
      </trkpt>
      <trkpt lat="45.92374" lon="4.7111">
        <ele>184</ele>
        <time>2018-09-26T09:04:05Z</time>
      </trkpt>
      <trkpt lat="45.92366" lon="4.71106">
        <ele>184</ele>
        <time>2018-09-26T09:04:07Z</time>
      </trkpt>
      <trkpt lat="45.92362" lon="4.71104">
        <ele>184</ele>
        <time>2018-09-26T09:04:08Z</time>
      </trkpt>
      <trkpt lat="45.92354" lon="4.711">
        <ele>184</ele>
        <time>2018-09-26T09:04:10Z</time>
      </trkpt>
      <trkpt lat="45.92352" lon="4.71099">
        <ele>184</ele>
        <time>2018-09-26T09:04:11Z</time>
      </trkpt>
      <trkpt lat="45.92345" lon="4.71095">
        <ele>184</ele>
        <time>2018-09-26T09:04:14Z</time>
      </trkpt>
      <trkpt lat="45.92337" lon="4.71092">
        <ele>184</ele>
        <time>2018-09-26T09:04:15Z</time>
      </trkpt>
      <trkpt lat="45.92328" lon="4.71087">
        <ele>183</ele>
        <time>2018-09-26T09:04:17Z</time>
      </trkpt>
      <trkpt lat="45.92324" lon="4.71086">
        <ele>183</ele>
        <time>2018-09-26T09:04:18Z</time>
      </trkpt>
      <trkpt lat="45.9232" lon="4.71084">
        <ele>183</ele>
        <time>2018-09-26T09:04:19Z</time>
      </trkpt>
      <trkpt lat="45.92315" lon="4.71082">
        <ele>184</ele>
        <time>2018-09-26T09:04:20Z</time>
      </trkpt>
      <trkpt lat="45.9231" lon="4.7108">
        <ele>184</ele>
        <time>2018-09-26T09:04:21Z</time>
      </trkpt>
      <trkpt lat="45.92305" lon="4.71077">
        <ele>184</ele>
        <time>2018-09-26T09:04:22Z</time>
      </trkpt>
      <trkpt lat="45.92301" lon="4.71075">
        <ele>183</ele>
        <time>2018-09-26T09:04:23Z</time>
      </trkpt>
      <trkpt lat="45.92294" lon="4.71073">
        <ele>183</ele>
        <time>2018-09-26T09:04:24Z</time>
      </trkpt>
      <trkpt lat="45.9229" lon="4.7107">
        <ele>183</ele>
        <time>2018-09-26T09:04:25Z</time>
      </trkpt>
      <trkpt lat="45.92285" lon="4.71068">
        <ele>183</ele>
        <time>2018-09-26T09:04:26Z</time>
      </trkpt>
      <trkpt lat="45.92277" lon="4.71064">
        <ele>183</ele>
        <time>2018-09-26T09:04:28Z</time>
      </trkpt>
      <trkpt lat="45.92274" lon="4.71061">
        <ele>183</ele>
        <time>2018-09-26T09:04:29Z</time>
      </trkpt>
      <trkpt lat="45.92266" lon="4.71056">
        <ele>183</ele>
        <time>2018-09-26T09:04:31Z</time>
      </trkpt>
      <trkpt lat="45.92262" lon="4.71053">
        <ele>183</ele>
        <time>2018-09-26T09:04:32Z</time>
      </trkpt>
      <trkpt lat="45.92255" lon="4.7105">
        <ele>183</ele>
        <time>2018-09-26T09:04:34Z</time>
      </trkpt>
      <trkpt lat="45.92251" lon="4.71048">
        <ele>183</ele>
        <time>2018-09-26T09:04:35Z</time>
      </trkpt>
      <trkpt lat="45.92243" lon="4.71044">
        <ele>182</ele>
        <time>2018-09-26T09:04:39Z</time>
      </trkpt>
      <trkpt lat="45.92236" lon="4.7104">
        <ele>182</ele>
        <time>2018-09-26T09:04:40Z</time>
      </trkpt>
      <trkpt lat="45.92228" lon="4.71035">
        <ele>182</ele>
        <time>2018-09-26T09:04:42Z</time>
      </trkpt>
      <trkpt lat="45.92223" lon="4.71032">
        <ele>182</ele>
        <time>2018-09-26T09:04:43Z</time>
      </trkpt>
      <trkpt lat="45.92216" lon="4.71028">
        <ele>182</ele>
        <time>2018-09-26T09:04:45Z</time>
      </trkpt>
      <trkpt lat="45.92213" lon="4.71025">
        <ele>182</ele>
        <time>2018-09-26T09:04:46Z</time>
      </trkpt>
      <trkpt lat="45.92206" lon="4.71021">
        <ele>182</ele>
        <time>2018-09-26T09:04:49Z</time>
      </trkpt>
      <trkpt lat="45.92204" lon="4.7102">
        <ele>182</ele>
        <time>2018-09-26T09:04:50Z</time>
      </trkpt>
      <trkpt lat="45.92197" lon="4.71017">
        <ele>181</ele>
        <time>2018-09-26T09:04:53Z</time>
      </trkpt>
      <trkpt lat="45.92188" lon="4.71014">
        <ele>181</ele>
        <time>2018-09-26T09:04:54Z</time>
      </trkpt>
      <trkpt lat="45.9218" lon="4.71013">
        <ele>181</ele>
        <time>2018-09-26T09:04:56Z</time>
      </trkpt>
      <trkpt lat="45.92179" lon="4.71012">
        <ele>181</ele>
        <time>2018-09-26T09:04:57Z</time>
      </trkpt>
      <trkpt lat="45.92172" lon="4.71009">
        <ele>181</ele>
        <time>2018-09-26T09:05:00Z</time>
      </trkpt>
      <trkpt lat="45.92166" lon="4.71005">
        <ele>181</ele>
        <time>2018-09-26T09:05:01Z</time>
      </trkpt>
      <trkpt lat="45.92161" lon="4.71003">
        <ele>181</ele>
        <time>2018-09-26T09:05:04Z</time>
      </trkpt>
      <trkpt lat="45.92155" lon="4.71006">
        <ele>181</ele>
        <time>2018-09-26T09:05:05Z</time>
      </trkpt>
      <trkpt lat="45.92152" lon="4.71014">
        <ele>181</ele>
        <time>2018-09-26T09:05:07Z</time>
      </trkpt>
      <trkpt lat="45.92152" lon="4.71019">
        <ele>181</ele>
        <time>2018-09-26T09:05:08Z</time>
      </trkpt>
      <trkpt lat="45.92151" lon="4.7103">
        <ele>181</ele>
        <time>2018-09-26T09:05:09Z</time>
      </trkpt>
      <trkpt lat="45.9215" lon="4.71037">
        <ele>181</ele>
        <time>2018-09-26T09:05:10Z</time>
      </trkpt>
      <trkpt lat="45.9215" lon="4.71043">
        <ele>181</ele>
        <time>2018-09-26T09:05:11Z</time>
      </trkpt>
      <trkpt lat="45.92149" lon="4.7105">
        <ele>181</ele>
        <time>2018-09-26T09:05:12Z</time>
      </trkpt>
      <trkpt lat="45.92147" lon="4.71057">
        <ele>181</ele>
        <time>2018-09-26T09:05:13Z</time>
      </trkpt>
      <trkpt lat="45.92146" lon="4.71063">
        <ele>181</ele>
        <time>2018-09-26T09:05:14Z</time>
      </trkpt>
      <trkpt lat="45.92146" lon="4.7107">
        <ele>181</ele>
        <time>2018-09-26T09:05:15Z</time>
      </trkpt>
      <trkpt lat="45.92146" lon="4.71081">
        <ele>181</ele>
        <time>2018-09-26T09:05:16Z</time>
      </trkpt>
      <trkpt lat="45.92145" lon="4.71087">
        <ele>179</ele>
        <time>2018-09-26T09:05:17Z</time>
      </trkpt>
      <trkpt lat="45.92144" lon="4.71095">
        <ele>179</ele>
        <time>2018-09-26T09:05:18Z</time>
      </trkpt>
      <trkpt lat="45.92143" lon="4.71103">
        <ele>179</ele>
        <time>2018-09-26T09:05:19Z</time>
      </trkpt>
      <trkpt lat="45.92141" lon="4.71112">
        <ele>179</ele>
        <time>2018-09-26T09:05:20Z</time>
      </trkpt>
      <trkpt lat="45.92139" lon="4.7112">
        <ele>179</ele>
        <time>2018-09-26T09:05:21Z</time>
      </trkpt>
      <trkpt lat="45.92139" lon="4.7113">
        <ele>178</ele>
        <time>2018-09-26T09:05:22Z</time>
      </trkpt>
      <trkpt lat="45.92139" lon="4.71137">
        <ele>178</ele>
        <time>2018-09-26T09:05:23Z</time>
      </trkpt>
      <trkpt lat="45.92139" lon="4.71145">
        <ele>178</ele>
        <time>2018-09-26T09:05:24Z</time>
      </trkpt>
      <trkpt lat="45.92138" lon="4.71155">
        <ele>178</ele>
        <time>2018-09-26T09:05:25Z</time>
      </trkpt>
      <trkpt lat="45.92137" lon="4.71164">
        <ele>178</ele>
        <time>2018-09-26T09:05:26Z</time>
      </trkpt>
      <trkpt lat="45.92138" lon="4.71172">
        <ele>176</ele>
        <time>2018-09-26T09:05:27Z</time>
      </trkpt>
      <trkpt lat="45.92137" lon="4.71182">
        <ele>176</ele>
        <time>2018-09-26T09:05:28Z</time>
      </trkpt>
      <trkpt lat="45.92136" lon="4.7119">
        <ele>176</ele>
        <time>2018-09-26T09:05:29Z</time>
      </trkpt>
      <trkpt lat="45.92135" lon="4.71198">
        <ele>175</ele>
        <time>2018-09-26T09:05:30Z</time>
      </trkpt>
      <trkpt lat="45.92136" lon="4.71209">
        <ele>175</ele>
        <time>2018-09-26T09:05:31Z</time>
      </trkpt>
      <trkpt lat="45.92136" lon="4.71216">
        <ele>175</ele>
        <time>2018-09-26T09:05:32Z</time>
      </trkpt>
      <trkpt lat="45.92135" lon="4.71225">
        <ele>175</ele>
        <time>2018-09-26T09:05:33Z</time>
      </trkpt>
      <trkpt lat="45.92134" lon="4.71232">
        <ele>175</ele>
        <time>2018-09-26T09:05:34Z</time>
      </trkpt>
      <trkpt lat="45.92132" lon="4.71238">
        <ele>175</ele>
        <time>2018-09-26T09:05:35Z</time>
      </trkpt>
      <trkpt lat="45.92131" lon="4.71247">
        <ele>175</ele>
        <time>2018-09-26T09:05:36Z</time>
      </trkpt>
      <trkpt lat="45.92129" lon="4.71254">
        <ele>173</ele>
        <time>2018-09-26T09:05:37Z</time>
      </trkpt>
      <trkpt lat="45.92128" lon="4.71264">
        <ele>173</ele>
        <time>2018-09-26T09:05:38Z</time>
      </trkpt>
      <trkpt lat="45.92127" lon="4.7127">
        <ele>173</ele>
        <time>2018-09-26T09:05:39Z</time>
      </trkpt>
      <trkpt lat="45.92125" lon="4.71279">
        <ele>174</ele>
        <time>2018-09-26T09:05:40Z</time>
      </trkpt>
      <trkpt lat="45.92125" lon="4.71287">
        <ele>173</ele>
        <time>2018-09-26T09:05:41Z</time>
      </trkpt>
      <trkpt lat="45.92123" lon="4.71295">
        <ele>174</ele>
        <time>2018-09-26T09:05:42Z</time>
      </trkpt>
      <trkpt lat="45.92122" lon="4.71303">
        <ele>174</ele>
        <time>2018-09-26T09:05:43Z</time>
      </trkpt>
      <trkpt lat="45.92121" lon="4.7131">
        <ele>174</ele>
        <time>2018-09-26T09:05:44Z</time>
      </trkpt>
      <trkpt lat="45.9212" lon="4.71317">
        <ele>174</ele>
        <time>2018-09-26T09:05:45Z</time>
      </trkpt>
      <trkpt lat="45.92121" lon="4.71323">
        <ele>174</ele>
        <time>2018-09-26T09:05:46Z</time>
      </trkpt>
      <trkpt lat="45.9212" lon="4.7133">
        <ele>174</ele>
        <time>2018-09-26T09:05:47Z</time>
      </trkpt>
      <trkpt lat="45.9212" lon="4.71337">
        <ele>173</ele>
        <time>2018-09-26T09:05:48Z</time>
      </trkpt>
      <trkpt lat="45.92119" lon="4.71345">
        <ele>173</ele>
        <time>2018-09-26T09:05:49Z</time>
      </trkpt>
      <trkpt lat="45.92118" lon="4.71352">
        <ele>173</ele>
        <time>2018-09-26T09:05:50Z</time>
      </trkpt>
      <trkpt lat="45.92117" lon="4.71359">
        <ele>173</ele>
        <time>2018-09-26T09:05:51Z</time>
      </trkpt>
      <trkpt lat="45.92117" lon="4.71366">
        <ele>173</ele>
        <time>2018-09-26T09:05:52Z</time>
      </trkpt>
      <trkpt lat="45.92116" lon="4.71374">
        <ele>173</ele>
        <time>2018-09-26T09:05:53Z</time>
      </trkpt>
      <trkpt lat="45.92115" lon="4.71379">
        <ele>173</ele>
        <time>2018-09-26T09:05:54Z</time>
      </trkpt>
      <trkpt lat="45.92115" lon="4.71388">
        <ele>173</ele>
        <time>2018-09-26T09:05:55Z</time>
      </trkpt>
      <trkpt lat="45.92113" lon="4.71396">
        <ele>173</ele>
        <time>2018-09-26T09:05:56Z</time>
      </trkpt>
      <trkpt lat="45.92113" lon="4.71405">
        <ele>173</ele>
        <time>2018-09-26T09:05:57Z</time>
      </trkpt>
      <trkpt lat="45.92111" lon="4.71412">
        <ele>173</ele>
        <time>2018-09-26T09:05:58Z</time>
      </trkpt>
      <trkpt lat="45.92109" lon="4.71419">
        <ele>174</ele>
        <time>2018-09-26T09:05:59Z</time>
      </trkpt>
      <trkpt lat="45.92108" lon="4.71428">
        <ele>174</ele>
        <time>2018-09-26T09:06:00Z</time>
      </trkpt>
      <trkpt lat="45.92108" lon="4.71435">
        <ele>174</ele>
        <time>2018-09-26T09:06:01Z</time>
      </trkpt>
      <trkpt lat="45.92107" lon="4.71443">
        <ele>174</ele>
        <time>2018-09-26T09:06:02Z</time>
      </trkpt>
      <trkpt lat="45.92103" lon="4.71454">
        <ele>174</ele>
        <time>2018-09-26T09:06:04Z</time>
      </trkpt>
      <trkpt lat="45.92101" lon="4.71461">
        <ele>174</ele>
        <time>2018-09-26T09:06:05Z</time>
      </trkpt>
      <trkpt lat="45.921" lon="4.71471">
        <ele>174</ele>
        <time>2018-09-26T09:06:06Z</time>
      </trkpt>
      <trkpt lat="45.92098" lon="4.71478">
        <ele>174</ele>
        <time>2018-09-26T09:06:07Z</time>
      </trkpt>
      <trkpt lat="45.92095" lon="4.71486">
        <ele>174</ele>
        <time>2018-09-26T09:06:08Z</time>
      </trkpt>
      <trkpt lat="45.92092" lon="4.71491">
        <ele>174</ele>
        <time>2018-09-26T09:06:09Z</time>
      </trkpt>
      <trkpt lat="45.92091" lon="4.71495">
        <ele>174</ele>
        <time>2018-09-26T09:06:10Z</time>
      </trkpt>
      <trkpt lat="45.9209" lon="4.71504">
        <ele>174</ele>
        <time>2018-09-26T09:06:11Z</time>
      </trkpt>
      <trkpt lat="45.92088" lon="4.71515">
        <ele>174</ele>
        <time>2018-09-26T09:06:12Z</time>
      </trkpt>
      <trkpt lat="45.92087" lon="4.71522">
        <ele>174</ele>
        <time>2018-09-26T09:06:13Z</time>
      </trkpt>
      <trkpt lat="45.92087" lon="4.7153">
        <ele>174</ele>
        <time>2018-09-26T09:06:14Z</time>
      </trkpt>
      <trkpt lat="45.92087" lon="4.71538">
        <ele>173</ele>
        <time>2018-09-26T09:06:15Z</time>
      </trkpt>
      <trkpt lat="45.92086" lon="4.71546">
        <ele>173</ele>
        <time>2018-09-26T09:06:16Z</time>
      </trkpt>
      <trkpt lat="45.92086" lon="4.71553">
        <ele>173</ele>
        <time>2018-09-26T09:06:17Z</time>
      </trkpt>
      <trkpt lat="45.92085" lon="4.71559">
        <ele>173</ele>
        <time>2018-09-26T09:06:18Z</time>
      </trkpt>
      <trkpt lat="45.92084" lon="4.7157">
        <ele>173</ele>
        <time>2018-09-26T09:06:19Z</time>
      </trkpt>
      <trkpt lat="45.92082" lon="4.71581">
        <ele>172</ele>
        <time>2018-09-26T09:06:21Z</time>
      </trkpt>
      <trkpt lat="45.92081" lon="4.71589">
        <ele>172</ele>
        <time>2018-09-26T09:06:22Z</time>
      </trkpt>
      <trkpt lat="45.92079" lon="4.71595">
        <ele>172</ele>
        <time>2018-09-26T09:06:23Z</time>
      </trkpt>
      <trkpt lat="45.92077" lon="4.71602">
        <ele>172</ele>
        <time>2018-09-26T09:06:24Z</time>
      </trkpt>
      <trkpt lat="45.92079" lon="4.71615">
        <ele>172</ele>
        <time>2018-09-26T09:06:25Z</time>
      </trkpt>
      <trkpt lat="45.92077" lon="4.71622">
        <ele>172</ele>
        <time>2018-09-26T09:06:26Z</time>
      </trkpt>
      <trkpt lat="45.92076" lon="4.71629">
        <ele>172</ele>
        <time>2018-09-26T09:06:27Z</time>
      </trkpt>
      <trkpt lat="45.92075" lon="4.71636">
        <ele>172</ele>
        <time>2018-09-26T09:06:28Z</time>
      </trkpt>
      <trkpt lat="45.92074" lon="4.71644">
        <ele>172</ele>
        <time>2018-09-26T09:06:29Z</time>
      </trkpt>
      <trkpt lat="45.92072" lon="4.71651">
        <ele>172</ele>
        <time>2018-09-26T09:06:30Z</time>
      </trkpt>
      <trkpt lat="45.9207" lon="4.71659">
        <ele>172</ele>
        <time>2018-09-26T09:06:31Z</time>
      </trkpt>
      <trkpt lat="45.92069" lon="4.71666">
        <ele>172</ele>
        <time>2018-09-26T09:06:32Z</time>
      </trkpt>
      <trkpt lat="45.92067" lon="4.71674">
        <ele>172</ele>
        <time>2018-09-26T09:06:33Z</time>
      </trkpt>
      <trkpt lat="45.92067" lon="4.7168">
        <ele>173</ele>
        <time>2018-09-26T09:06:34Z</time>
      </trkpt>
      <trkpt lat="45.92064" lon="4.71692">
        <ele>173</ele>
        <time>2018-09-26T09:06:36Z</time>
      </trkpt>
      <trkpt lat="45.92063" lon="4.71699">
        <ele>173</ele>
        <time>2018-09-26T09:06:37Z</time>
      </trkpt>
      <trkpt lat="45.92061" lon="4.71705">
        <ele>173</ele>
        <time>2018-09-26T09:06:38Z</time>
      </trkpt>
      <trkpt lat="45.9206" lon="4.71711">
        <ele>173</ele>
        <time>2018-09-26T09:06:39Z</time>
      </trkpt>
      <trkpt lat="45.92058" lon="4.71718">
        <ele>173</ele>
        <time>2018-09-26T09:06:40Z</time>
      </trkpt>
      <trkpt lat="45.92057" lon="4.71725">
        <ele>173</ele>
        <time>2018-09-26T09:06:41Z</time>
      </trkpt>
      <trkpt lat="45.92056" lon="4.71735">
        <ele>173</ele>
        <time>2018-09-26T09:06:42Z</time>
      </trkpt>
      <trkpt lat="45.92054" lon="4.7174">
        <ele>173</ele>
        <time>2018-09-26T09:06:43Z</time>
      </trkpt>
      <trkpt lat="45.92053" lon="4.71745">
        <ele>173</ele>
        <time>2018-09-26T09:06:44Z</time>
      </trkpt>
      <trkpt lat="45.92052" lon="4.71753">
        <ele>173</ele>
        <time>2018-09-26T09:06:45Z</time>
      </trkpt>
      <trkpt lat="45.92052" lon="4.71761">
        <ele>173</ele>
        <time>2018-09-26T09:06:46Z</time>
      </trkpt>
      <trkpt lat="45.92051" lon="4.71767">
        <ele>173</ele>
        <time>2018-09-26T09:06:47Z</time>
      </trkpt>
      <trkpt lat="45.92048" lon="4.71778">
        <ele>173</ele>
        <time>2018-09-26T09:06:49Z</time>
      </trkpt>
      <trkpt lat="45.92047" lon="4.71784">
        <ele>173</ele>
        <time>2018-09-26T09:06:50Z</time>
      </trkpt>
      <trkpt lat="45.9204" lon="4.7179">
        <ele>173</ele>
        <time>2018-09-26T09:06:52Z</time>
      </trkpt>
      <trkpt lat="45.92037" lon="4.71793">
        <ele>173</ele>
        <time>2018-09-26T09:06:53Z</time>
      </trkpt>
      <trkpt lat="45.92034" lon="4.71794">
        <ele>173</ele>
        <time>2018-09-26T09:06:54Z</time>
      </trkpt>
      <trkpt lat="45.92028" lon="4.71795">
        <ele>173</ele>
        <time>2018-09-26T09:06:55Z</time>
      </trkpt>
      <trkpt lat="45.92023" lon="4.71796">
        <ele>173</ele>
        <time>2018-09-26T09:06:57Z</time>
      </trkpt>
      <trkpt lat="45.92018" lon="4.71795">
        <ele>173</ele>
        <time>2018-09-26T09:06:58Z</time>
      </trkpt>
      <trkpt lat="45.92011" lon="4.71793">
        <ele>173</ele>
        <time>2018-09-26T09:07:00Z</time>
      </trkpt>
      <trkpt lat="45.92007" lon="4.71792">
        <ele>173</ele>
        <time>2018-09-26T09:07:01Z</time>
      </trkpt>
      <trkpt lat="45.91998" lon="4.71791">
        <ele>173</ele>
        <time>2018-09-26T09:07:03Z</time>
      </trkpt>
      <trkpt lat="45.91994" lon="4.71791">
        <ele>173</ele>
        <time>2018-09-26T09:07:04Z</time>
      </trkpt>
      <trkpt lat="45.91989" lon="4.71791">
        <ele>173</ele>
        <time>2018-09-26T09:07:05Z</time>
      </trkpt>
      <trkpt lat="45.91985" lon="4.7179">
        <ele>173</ele>
        <time>2018-09-26T09:07:06Z</time>
      </trkpt>
      <trkpt lat="45.91976" lon="4.7179">
        <ele>173</ele>
        <time>2018-09-26T09:07:08Z</time>
      </trkpt>
      <trkpt lat="45.91971" lon="4.7179">
        <ele>173</ele>
        <time>2018-09-26T09:07:09Z</time>
      </trkpt>
      <trkpt lat="45.91964" lon="4.7179">
        <ele>173</ele>
        <time>2018-09-26T09:07:12Z</time>
      </trkpt>
      <trkpt lat="45.91962" lon="4.7179">
        <ele>173</ele>
        <time>2018-09-26T09:07:13Z</time>
      </trkpt>
      <trkpt lat="45.91954" lon="4.7179">
        <ele>173</ele>
        <time>2018-09-26T09:07:16Z</time>
      </trkpt>
      <trkpt lat="45.91952" lon="4.71789">
        <ele>173</ele>
        <time>2018-09-26T09:07:17Z</time>
      </trkpt>
      <trkpt lat="45.91943" lon="4.71789">
        <ele>173</ele>
        <time>2018-09-26T09:07:18Z</time>
      </trkpt>
      <trkpt lat="45.91939" lon="4.71789">
        <ele>173</ele>
        <time>2018-09-26T09:07:19Z</time>
      </trkpt>
      <trkpt lat="45.91931" lon="4.71789">
        <ele>173</ele>
        <time>2018-09-26T09:07:21Z</time>
      </trkpt>
      <trkpt lat="45.91927" lon="4.71791">
        <ele>173</ele>
        <time>2018-09-26T09:07:22Z</time>
      </trkpt>
      <trkpt lat="45.91919" lon="4.71787">
        <ele>172</ele>
        <time>2018-09-26T09:07:24Z</time>
      </trkpt>
      <trkpt lat="45.91915" lon="4.71786">
        <ele>172</ele>
        <time>2018-09-26T09:07:25Z</time>
      </trkpt>
      <trkpt lat="45.91906" lon="4.71784">
        <ele>172</ele>
        <time>2018-09-26T09:07:28Z</time>
      </trkpt>
      <trkpt lat="45.91903" lon="4.71784">
        <ele>172</ele>
        <time>2018-09-26T09:07:29Z</time>
      </trkpt>
      <trkpt lat="45.91898" lon="4.71783">
        <ele>172</ele>
        <time>2018-09-26T09:07:31Z</time>
      </trkpt>
      <trkpt lat="45.9189" lon="4.71781">
        <ele>172</ele>
        <time>2018-09-26T09:07:32Z</time>
      </trkpt>
      <trkpt lat="45.91882" lon="4.71779">
        <ele>172</ele>
        <time>2018-09-26T09:07:34Z</time>
      </trkpt>
      <trkpt lat="45.91878" lon="4.71778">
        <ele>172</ele>
        <time>2018-09-26T09:07:35Z</time>
      </trkpt>
      <trkpt lat="45.91869" lon="4.71777">
        <ele>172</ele>
        <time>2018-09-26T09:07:37Z</time>
      </trkpt>
      <trkpt lat="45.91865" lon="4.71777">
        <ele>172</ele>
        <time>2018-09-26T09:07:38Z</time>
      </trkpt>
      <trkpt lat="45.91857" lon="4.71776">
        <ele>172</ele>
        <time>2018-09-26T09:07:41Z</time>
      </trkpt>
      <trkpt lat="45.91852" lon="4.71777">
        <ele>172</ele>
        <time>2018-09-26T09:07:42Z</time>
      </trkpt>
      <trkpt lat="45.91844" lon="4.71778">
        <ele>172</ele>
        <time>2018-09-26T09:07:44Z</time>
      </trkpt>
      <trkpt lat="45.9184" lon="4.71779">
        <ele>172</ele>
        <time>2018-09-26T09:07:45Z</time>
      </trkpt>
      <trkpt lat="45.91835" lon="4.7178">
        <ele>172</ele>
        <time>2018-09-26T09:07:46Z</time>
      </trkpt>
      <trkpt lat="45.9183" lon="4.7178">
        <ele>172</ele>
        <time>2018-09-26T09:07:47Z</time>
      </trkpt>
      <trkpt lat="45.91824" lon="4.71779">
        <ele>172</ele>
        <time>2018-09-26T09:07:49Z</time>
      </trkpt>
      <trkpt lat="45.9182" lon="4.7178">
        <ele>172</ele>
        <time>2018-09-26T09:07:50Z</time>
      </trkpt>
      <trkpt lat="45.91812" lon="4.71782">
        <ele>172</ele>
        <time>2018-09-26T09:07:52Z</time>
      </trkpt>
      <trkpt lat="45.91807" lon="4.71784">
        <ele>172</ele>
        <time>2018-09-26T09:07:53Z</time>
      </trkpt>
      <trkpt lat="45.918" lon="4.71783">
        <ele>172</ele>
        <time>2018-09-26T09:07:55Z</time>
      </trkpt>
      <trkpt lat="45.91795" lon="4.71784">
        <ele>172</ele>
        <time>2018-09-26T09:07:56Z</time>
      </trkpt>
      <trkpt lat="45.91787" lon="4.71784">
        <ele>173</ele>
        <time>2018-09-26T09:07:58Z</time>
      </trkpt>
      <trkpt lat="45.91783" lon="4.71784">
        <ele>173</ele>
        <time>2018-09-26T09:07:59Z</time>
      </trkpt>
      <trkpt lat="45.91775" lon="4.71784">
        <ele>173</ele>
        <time>2018-09-26T09:08:02Z</time>
      </trkpt>
      <trkpt lat="45.91773" lon="4.71784">
        <ele>173</ele>
        <time>2018-09-26T09:08:03Z</time>
      </trkpt>
      <trkpt lat="45.91766" lon="4.71784">
        <ele>173</ele>
        <time>2018-09-26T09:08:06Z</time>
      </trkpt>
      <trkpt lat="45.91757" lon="4.71784">
        <ele>173</ele>
        <time>2018-09-26T09:08:07Z</time>
      </trkpt>
      <trkpt lat="45.91748" lon="4.71784">
        <ele>173</ele>
        <time>2018-09-26T09:08:09Z</time>
      </trkpt>
      <trkpt lat="45.91744" lon="4.71783">
        <ele>173</ele>
        <time>2018-09-26T09:08:10Z</time>
      </trkpt>
      <trkpt lat="45.91736" lon="4.71782">
        <ele>173</ele>
        <time>2018-09-26T09:08:12Z</time>
      </trkpt>
      <trkpt lat="45.91732" lon="4.71781">
        <ele>173</ele>
        <time>2018-09-26T09:08:13Z</time>
      </trkpt>
      <trkpt lat="45.91726" lon="4.7178">
        <ele>173</ele>
        <time>2018-09-26T09:08:16Z</time>
      </trkpt>
      <trkpt lat="45.91719" lon="4.71778">
        <ele>173</ele>
        <time>2018-09-26T09:08:17Z</time>
      </trkpt>
      <trkpt lat="45.91712" lon="4.71776">
        <ele>173</ele>
        <time>2018-09-26T09:08:19Z</time>
      </trkpt>
      <trkpt lat="45.91708" lon="4.71775">
        <ele>173</ele>
        <time>2018-09-26T09:08:20Z</time>
      </trkpt>
      <trkpt lat="45.91699" lon="4.71773">
        <ele>173</ele>
        <time>2018-09-26T09:08:22Z</time>
      </trkpt>
      <trkpt lat="45.91697" lon="4.71773">
        <ele>173</ele>
        <time>2018-09-26T09:08:23Z</time>
      </trkpt>
      <trkpt lat="45.91688" lon="4.71772">
        <ele>173</ele>
        <time>2018-09-26T09:08:25Z</time>
      </trkpt>
      <trkpt lat="45.91686" lon="4.71772">
        <ele>173</ele>
        <time>2018-09-26T09:08:26Z</time>
      </trkpt>
      <trkpt lat="45.9168" lon="4.71772">
        <ele>173</ele>
        <time>2018-09-26T09:08:27Z</time>
      </trkpt>
      <trkpt lat="45.91676" lon="4.71772">
        <ele>173</ele>
        <time>2018-09-26T09:08:28Z</time>
      </trkpt>
      <trkpt lat="45.91668" lon="4.71771">
        <ele>173</ele>
        <time>2018-09-26T09:08:30Z</time>
      </trkpt>
      <trkpt lat="45.91663" lon="4.7177">
        <ele>173</ele>
        <time>2018-09-26T09:08:31Z</time>
      </trkpt>
      <trkpt lat="45.91655" lon="4.71769">
        <ele>173</ele>
        <time>2018-09-26T09:08:33Z</time>
      </trkpt>
      <trkpt lat="45.91652" lon="4.71767">
        <ele>173</ele>
        <time>2018-09-26T09:08:34Z</time>
      </trkpt>
      <trkpt lat="45.91645" lon="4.71761">
        <ele>173</ele>
        <time>2018-09-26T09:08:37Z</time>
      </trkpt>
      <trkpt lat="45.91643" lon="4.71759">
        <ele>173</ele>
        <time>2018-09-26T09:08:38Z</time>
      </trkpt>
      <trkpt lat="45.91639" lon="4.71751">
        <ele>174</ele>
        <time>2018-09-26T09:08:41Z</time>
      </trkpt>
      <trkpt lat="45.91638" lon="4.71748">
        <ele>173</ele>
        <time>2018-09-26T09:08:42Z</time>
      </trkpt>
      <trkpt lat="45.91634" lon="4.7174">
        <ele>173</ele>
        <time>2018-09-26T09:08:44Z</time>
      </trkpt>
      <trkpt lat="45.91633" lon="4.71737">
        <ele>173</ele>
        <time>2018-09-26T09:08:45Z</time>
      </trkpt>
      <trkpt lat="45.91627" lon="4.71727">
        <ele>173</ele>
        <time>2018-09-26T09:08:48Z</time>
      </trkpt>
      <trkpt lat="45.91624" lon="4.71725">
        <ele>173</ele>
        <time>2018-09-26T09:08:49Z</time>
      </trkpt>
      <trkpt lat="45.91621" lon="4.71723">
        <ele>173</ele>
        <time>2018-09-26T09:08:50Z</time>
      </trkpt>
      <trkpt lat="45.91612" lon="4.71719">
        <ele>173</ele>
        <time>2018-09-26T09:08:51Z</time>
      </trkpt>
      <trkpt lat="45.91603" lon="4.71721">
        <ele>173</ele>
        <time>2018-09-26T09:08:53Z</time>
      </trkpt>
      <trkpt lat="45.91599" lon="4.71723">
        <ele>173</ele>
        <time>2018-09-26T09:08:54Z</time>
      </trkpt>
      <trkpt lat="45.91594" lon="4.71726">
        <ele>173</ele>
        <time>2018-09-26T09:08:55Z</time>
      </trkpt>
      <trkpt lat="45.9159" lon="4.71729">
        <ele>173</ele>
        <time>2018-09-26T09:08:56Z</time>
      </trkpt>
      <trkpt lat="45.91585" lon="4.71733">
        <ele>173</ele>
        <time>2018-09-26T09:08:57Z</time>
      </trkpt>
      <trkpt lat="45.91582" lon="4.71736">
        <ele>173</ele>
        <time>2018-09-26T09:08:58Z</time>
      </trkpt>
      <trkpt lat="45.91574" lon="4.71743">
        <ele>174</ele>
        <time>2018-09-26T09:09:01Z</time>
      </trkpt>
      <trkpt lat="45.91572" lon="4.71745">
        <ele>174</ele>
        <time>2018-09-26T09:09:02Z</time>
      </trkpt>
      <trkpt lat="45.9157" lon="4.71747">
        <ele>173</ele>
        <time>2018-09-26T09:09:03Z</time>
      </trkpt>
      <trkpt lat="45.91564" lon="4.71754">
        <ele>174</ele>
        <time>2018-09-26T09:09:04Z</time>
      </trkpt>
      <trkpt lat="45.91558" lon="4.71761">
        <ele>174</ele>
        <time>2018-09-26T09:09:06Z</time>
      </trkpt>
      <trkpt lat="45.91555" lon="4.71764">
        <ele>174</ele>
        <time>2018-09-26T09:09:07Z</time>
      </trkpt>
      <trkpt lat="45.91548" lon="4.71773">
        <ele>174</ele>
        <time>2018-09-26T09:09:09Z</time>
      </trkpt>
      <trkpt lat="45.91545" lon="4.71777">
        <ele>174</ele>
        <time>2018-09-26T09:09:10Z</time>
      </trkpt>
      <trkpt lat="45.91541" lon="4.71786">
        <ele>174</ele>
        <time>2018-09-26T09:09:14Z</time>
      </trkpt>
      <trkpt lat="45.91539" lon="4.7179">
        <ele>174</ele>
        <time>2018-09-26T09:09:15Z</time>
      </trkpt>
      <trkpt lat="45.91538" lon="4.71793">
        <ele>174</ele>
        <time>2018-09-26T09:09:16Z</time>
      </trkpt>
      <trkpt lat="45.91534" lon="4.71806">
        <ele>174</ele>
        <time>2018-09-26T09:09:17Z</time>
      </trkpt>
      <trkpt lat="45.91531" lon="4.71816">
        <ele>174</ele>
        <time>2018-09-26T09:09:19Z</time>
      </trkpt>
      <trkpt lat="45.9153" lon="4.71819">
        <ele>174</ele>
        <time>2018-09-26T09:09:20Z</time>
      </trkpt>
      <trkpt lat="45.91527" lon="4.71828">
        <ele>174</ele>
        <time>2018-09-26T09:09:23Z</time>
      </trkpt>
      <trkpt lat="45.91526" lon="4.71831">
        <ele>174</ele>
        <time>2018-09-26T09:09:24Z</time>
      </trkpt>
      <trkpt lat="45.91524" lon="4.71838">
        <ele>174</ele>
        <time>2018-09-26T09:09:26Z</time>
      </trkpt>
      <trkpt lat="45.9152" lon="4.7185">
        <ele>174</ele>
        <time>2018-09-26T09:09:27Z</time>
      </trkpt>
      <trkpt lat="45.91516" lon="4.71859">
        <ele>174</ele>
        <time>2018-09-26T09:09:29Z</time>
      </trkpt>
      <trkpt lat="45.91513" lon="4.71864">
        <ele>174</ele>
        <time>2018-09-26T09:09:30Z</time>
      </trkpt>
      <trkpt lat="45.91508" lon="4.71873">
        <ele>174</ele>
        <time>2018-09-26T09:09:32Z</time>
      </trkpt>
      <trkpt lat="45.91506" lon="4.71877">
        <ele>173</ele>
        <time>2018-09-26T09:09:33Z</time>
      </trkpt>
      <trkpt lat="45.91499" lon="4.71886">
        <ele>173</ele>
        <time>2018-09-26T09:09:37Z</time>
      </trkpt>
      <trkpt lat="45.91497" lon="4.71888">
        <ele>173</ele>
        <time>2018-09-26T09:09:38Z</time>
      </trkpt>
      <trkpt lat="45.91495" lon="4.71891">
        <ele>173</ele>
        <time>2018-09-26T09:09:39Z</time>
      </trkpt>
      <trkpt lat="45.91487" lon="4.71899">
        <ele>173</ele>
        <time>2018-09-26T09:09:40Z</time>
      </trkpt>
      <trkpt lat="45.91479" lon="4.71904">
        <ele>173</ele>
        <time>2018-09-26T09:09:42Z</time>
      </trkpt>
      <trkpt lat="45.91474" lon="4.71906">
        <ele>173</ele>
        <time>2018-09-26T09:09:43Z</time>
      </trkpt>
      <trkpt lat="45.91466" lon="4.7191">
        <ele>173</ele>
        <time>2018-09-26T09:09:46Z</time>
      </trkpt>
      <trkpt lat="45.91464" lon="4.71911">
        <ele>173</ele>
        <time>2018-09-26T09:09:47Z</time>
      </trkpt>
      <trkpt lat="45.91459" lon="4.71913">
        <ele>173</ele>
        <time>2018-09-26T09:09:49Z</time>
      </trkpt>
      <trkpt lat="45.91451" lon="4.71917">
        <ele>173</ele>
        <time>2018-09-26T09:09:50Z</time>
      </trkpt>
      <trkpt lat="45.91445" lon="4.7192">
        <ele>173</ele>
        <time>2018-09-26T09:09:52Z</time>
      </trkpt>
      <trkpt lat="45.91438" lon="4.71923">
        <ele>173</ele>
        <time>2018-09-26T09:09:53Z</time>
      </trkpt>
      <trkpt lat="45.9143" lon="4.71927">
        <ele>173</ele>
        <time>2018-09-26T09:09:55Z</time>
      </trkpt>
      <trkpt lat="45.91426" lon="4.7193">
        <ele>173</ele>
        <time>2018-09-26T09:09:56Z</time>
      </trkpt>
      <trkpt lat="45.91419" lon="4.71937">
        <ele>173</ele>
        <time>2018-09-26T09:09:59Z</time>
      </trkpt>
      <trkpt lat="45.91413" lon="4.71942">
        <ele>173</ele>
        <time>2018-09-26T09:10:00Z</time>
      </trkpt>
      <trkpt lat="45.91406" lon="4.71949">
        <ele>173</ele>
        <time>2018-09-26T09:10:04Z</time>
      </trkpt>
      <trkpt lat="45.91403" lon="4.71951">
        <ele>173</ele>
        <time>2018-09-26T09:10:05Z</time>
      </trkpt>
      <trkpt lat="45.91401" lon="4.71954">
        <ele>173</ele>
        <time>2018-09-26T09:10:06Z</time>
      </trkpt>
      <trkpt lat="45.91394" lon="4.7196">
        <ele>174</ele>
        <time>2018-09-26T09:10:07Z</time>
      </trkpt>
      <trkpt lat="45.91387" lon="4.71965">
        <ele>174</ele>
        <time>2018-09-26T09:10:09Z</time>
      </trkpt>
      <trkpt lat="45.91384" lon="4.71966">
        <ele>174</ele>
        <time>2018-09-26T09:10:10Z</time>
      </trkpt>
      <trkpt lat="45.91376" lon="4.71968">
        <ele>174</ele>
        <time>2018-09-26T09:10:12Z</time>
      </trkpt>
      <trkpt lat="45.91372" lon="4.71968">
        <ele>173</ele>
        <time>2018-09-26T09:10:13Z</time>
      </trkpt>
      <trkpt lat="45.91363" lon="4.71967">
        <ele>173</ele>
        <time>2018-09-26T09:10:15Z</time>
      </trkpt>
      <trkpt lat="45.91359" lon="4.71964">
        <ele>173</ele>
        <time>2018-09-26T09:10:16Z</time>
      </trkpt>
      <trkpt lat="45.9135" lon="4.71963">
        <ele>173</ele>
        <time>2018-09-26T09:10:18Z</time>
      </trkpt>
      <trkpt lat="45.91346" lon="4.71962">
        <ele>173</ele>
        <time>2018-09-26T09:10:19Z</time>
      </trkpt>
      <trkpt lat="45.91339" lon="4.71961">
        <ele>173</ele>
        <time>2018-09-26T09:10:21Z</time>
      </trkpt>
      <trkpt lat="45.91337" lon="4.7196">
        <ele>173</ele>
        <time>2018-09-26T09:10:22Z</time>
      </trkpt>
      <trkpt lat="45.91329" lon="4.71957">
        <ele>174</ele>
        <time>2018-09-26T09:10:25Z</time>
      </trkpt>
      <trkpt lat="45.91326" lon="4.71956">
        <ele>174</ele>
        <time>2018-09-26T09:10:26Z</time>
      </trkpt>
      <trkpt lat="45.9132" lon="4.71954">
        <ele>174</ele>
        <time>2018-09-26T09:10:28Z</time>
      </trkpt>
      <trkpt lat="45.91311" lon="4.71949">
        <ele>174</ele>
        <time>2018-09-26T09:10:29Z</time>
      </trkpt>
      <trkpt lat="45.91303" lon="4.71945">
        <ele>174</ele>
        <time>2018-09-26T09:10:31Z</time>
      </trkpt>
      <trkpt lat="45.91298" lon="4.71942">
        <ele>175</ele>
        <time>2018-09-26T09:10:32Z</time>
      </trkpt>
      <trkpt lat="45.91293" lon="4.7194">
        <ele>175</ele>
        <time>2018-09-26T09:10:33Z</time>
      </trkpt>
      <trkpt lat="45.9129" lon="4.71937">
        <ele>175</ele>
        <time>2018-09-26T09:10:34Z</time>
      </trkpt>
      <trkpt lat="45.91285" lon="4.71936">
        <ele>175</ele>
        <time>2018-09-26T09:10:35Z</time>
      </trkpt>
      <trkpt lat="45.9128" lon="4.71934">
        <ele>175</ele>
        <time>2018-09-26T09:10:36Z</time>
      </trkpt>
      <trkpt lat="45.91272" lon="4.71932">
        <ele>175</ele>
        <time>2018-09-26T09:10:39Z</time>
      </trkpt>
      <trkpt lat="45.91269" lon="4.71931">
        <ele>175</ele>
        <time>2018-09-26T09:10:40Z</time>
      </trkpt>
      <trkpt lat="45.91265" lon="4.7193">
        <ele>176</ele>
        <time>2018-09-26T09:10:42Z</time>
      </trkpt>
      <trkpt lat="45.91259" lon="4.71927">
        <ele>176</ele>
        <time>2018-09-26T09:10:43Z</time>
      </trkpt>
      <trkpt lat="45.91252" lon="4.71925">
        <ele>176</ele>
        <time>2018-09-26T09:10:45Z</time>
      </trkpt>
      <trkpt lat="45.91248" lon="4.71923">
        <ele>177</ele>
        <time>2018-09-26T09:10:46Z</time>
      </trkpt>
      <trkpt lat="45.9124" lon="4.7192">
        <ele>176</ele>
        <time>2018-09-26T09:10:49Z</time>
      </trkpt>
      <trkpt lat="45.91238" lon="4.71918">
        <ele>176</ele>
        <time>2018-09-26T09:10:50Z</time>
      </trkpt>
      <trkpt lat="45.91231" lon="4.71915">
        <ele>177</ele>
        <time>2018-09-26T09:10:51Z</time>
      </trkpt>
      <trkpt lat="45.91228" lon="4.71914">
        <ele>177</ele>
        <time>2018-09-26T09:10:52Z</time>
      </trkpt>
      <trkpt lat="45.9122" lon="4.71911">
        <ele>176</ele>
        <time>2018-09-26T09:10:54Z</time>
      </trkpt>
      <trkpt lat="45.91216" lon="4.7191">
        <ele>176</ele>
        <time>2018-09-26T09:10:55Z</time>
      </trkpt>
      <trkpt lat="45.91208" lon="4.71908">
        <ele>176</ele>
        <time>2018-09-26T09:10:59Z</time>
      </trkpt>
      <trkpt lat="45.91206" lon="4.71907">
        <ele>176</ele>
        <time>2018-09-26T09:11:00Z</time>
      </trkpt>
      <trkpt lat="45.91203" lon="4.71907">
        <ele>176</ele>
        <time>2018-09-26T09:11:01Z</time>
      </trkpt>
      <trkpt lat="45.91194" lon="4.71905">
        <ele>176</ele>
        <time>2018-09-26T09:11:02Z</time>
      </trkpt>
      <trkpt lat="45.91186" lon="4.71903">
        <ele>176</ele>
        <time>2018-09-26T09:11:04Z</time>
      </trkpt>
      <trkpt lat="45.91181" lon="4.71902">
        <ele>176</ele>
        <time>2018-09-26T09:11:05Z</time>
      </trkpt>
      <trkpt lat="45.91176" lon="4.71901">
        <ele>176</ele>
        <time>2018-09-26T09:11:06Z</time>
      </trkpt>
      <trkpt lat="45.91172" lon="4.71899">
        <ele>176</ele>
        <time>2018-09-26T09:11:07Z</time>
      </trkpt>
      <trkpt lat="45.91164" lon="4.71898">
        <ele>175</ele>
        <time>2018-09-26T09:11:10Z</time>
      </trkpt>
      <trkpt lat="45.91162" lon="4.71898">
        <ele>175</ele>
        <time>2018-09-26T09:11:11Z</time>
      </trkpt>
      <trkpt lat="45.91158" lon="4.71897">
        <ele>175</ele>
        <time>2018-09-26T09:11:13Z</time>
      </trkpt>
      <trkpt lat="45.91149" lon="4.71898">
        <ele>175</ele>
        <time>2018-09-26T09:11:14Z</time>
      </trkpt>
      <trkpt lat="45.9114" lon="4.71903">
        <ele>175</ele>
        <time>2018-09-26T09:11:16Z</time>
      </trkpt>
      <trkpt lat="45.91135" lon="4.71904">
        <ele>175</ele>
        <time>2018-09-26T09:11:17Z</time>
      </trkpt>
      <trkpt lat="45.91129" lon="4.71907">
        <ele>175</ele>
        <time>2018-09-26T09:11:20Z</time>
      </trkpt>
      <trkpt lat="45.91126" lon="4.71908">
        <ele>175</ele>
        <time>2018-09-26T09:11:21Z</time>
      </trkpt>
      <trkpt lat="45.91119" lon="4.71914">
        <ele>175</ele>
        <time>2018-09-26T09:11:24Z</time>
      </trkpt>
      <trkpt lat="45.9111" lon="4.71921">
        <ele>174</ele>
        <time>2018-09-26T09:11:25Z</time>
      </trkpt>
      <trkpt lat="45.91103" lon="4.71926">
        <ele>174</ele>
        <time>2018-09-26T09:11:27Z</time>
      </trkpt>
      <trkpt lat="45.91099" lon="4.71929">
        <ele>174</ele>
        <time>2018-09-26T09:11:28Z</time>
      </trkpt>
      <trkpt lat="45.91091" lon="4.71933">
        <ele>174</ele>
        <time>2018-09-26T09:11:30Z</time>
      </trkpt>
      <trkpt lat="45.91087" lon="4.71934">
        <ele>174</ele>
        <time>2018-09-26T09:11:31Z</time>
      </trkpt>
      <trkpt lat="45.91079" lon="4.71936">
        <ele>174</ele>
        <time>2018-09-26T09:11:33Z</time>
      </trkpt>
      <trkpt lat="45.91075" lon="4.71937">
        <ele>174</ele>
        <time>2018-09-26T09:11:34Z</time>
      </trkpt>
      <trkpt lat="45.91068" lon="4.71939">
        <ele>174</ele>
        <time>2018-09-26T09:11:36Z</time>
      </trkpt>
      <trkpt lat="45.91064" lon="4.71939">
        <ele>174</ele>
        <time>2018-09-26T09:11:37Z</time>
      </trkpt>
      <trkpt lat="45.91057" lon="4.7194">
        <ele>174</ele>
        <time>2018-09-26T09:11:40Z</time>
      </trkpt>
      <trkpt lat="45.91055" lon="4.71939">
        <ele>174</ele>
        <time>2018-09-26T09:11:41Z</time>
      </trkpt>
      <trkpt lat="45.91051" lon="4.71938">
        <ele>174</ele>
        <time>2018-09-26T09:11:43Z</time>
      </trkpt>
      <trkpt lat="45.91044" lon="4.71937">
        <ele>174</ele>
        <time>2018-09-26T09:11:44Z</time>
      </trkpt>
      <trkpt lat="45.91037" lon="4.71935">
        <ele>174</ele>
        <time>2018-09-26T09:11:46Z</time>
      </trkpt>
      <trkpt lat="45.91032" lon="4.71934">
        <ele>174</ele>
        <time>2018-09-26T09:11:47Z</time>
      </trkpt>
      <trkpt lat="45.91027" lon="4.71935">
        <ele>174</ele>
        <time>2018-09-26T09:11:48Z</time>
      </trkpt>
      <trkpt lat="45.91023" lon="4.71936">
        <ele>174</ele>
        <time>2018-09-26T09:11:49Z</time>
      </trkpt>
      <trkpt lat="45.91014" lon="4.71937">
        <ele>173</ele>
        <time>2018-09-26T09:11:51Z</time>
      </trkpt>
      <trkpt lat="45.9101" lon="4.71937">
        <ele>173</ele>
        <time>2018-09-26T09:11:52Z</time>
      </trkpt>
      <trkpt lat="45.91002" lon="4.71939">
        <ele>173</ele>
        <time>2018-09-26T09:11:54Z</time>
      </trkpt>
      <trkpt lat="45.91" lon="4.7194">
        <ele>173</ele>
        <time>2018-09-26T09:11:55Z</time>
      </trkpt>
      <trkpt lat="45.90993" lon="4.71943">
        <ele>174</ele>
        <time>2018-09-26T09:11:58Z</time>
      </trkpt>
      <trkpt lat="45.90985" lon="4.71946">
        <ele>174</ele>
        <time>2018-09-26T09:11:59Z</time>
      </trkpt>
      <trkpt lat="45.90976" lon="4.7195">
        <ele>174</ele>
        <time>2018-09-26T09:12:01Z</time>
      </trkpt>
      <trkpt lat="45.90972" lon="4.71952">
        <ele>174</ele>
        <time>2018-09-26T09:12:02Z</time>
      </trkpt>
      <trkpt lat="45.90965" lon="4.71956">
        <ele>174</ele>
        <time>2018-09-26T09:12:04Z</time>
      </trkpt>
      <trkpt lat="45.90963" lon="4.71958">
        <ele>174</ele>
        <time>2018-09-26T09:12:05Z</time>
      </trkpt>
      <trkpt lat="45.90956" lon="4.71962">
        <ele>174</ele>
        <time>2018-09-26T09:12:08Z</time>
      </trkpt>
      <trkpt lat="45.90949" lon="4.71966">
        <ele>174</ele>
        <time>2018-09-26T09:12:09Z</time>
      </trkpt>
      <trkpt lat="45.90942" lon="4.71971">
        <ele>174</ele>
        <time>2018-09-26T09:12:11Z</time>
      </trkpt>
      <trkpt lat="45.9094" lon="4.71973">
        <ele>174</ele>
        <time>2018-09-26T09:12:12Z</time>
      </trkpt>
      <trkpt lat="45.90932" lon="4.71976">
        <ele>174</ele>
        <time>2018-09-26T09:12:14Z</time>
      </trkpt>
      <trkpt lat="45.90928" lon="4.71978">
        <ele>174</ele>
        <time>2018-09-26T09:12:15Z</time>
      </trkpt>
      <trkpt lat="45.90921" lon="4.71981">
        <ele>174</ele>
        <time>2018-09-26T09:12:17Z</time>
      </trkpt>
      <trkpt lat="45.90917" lon="4.71983">
        <ele>174</ele>
        <time>2018-09-26T09:12:18Z</time>
      </trkpt>
      <trkpt lat="45.90908" lon="4.71987">
        <ele>174</ele>
        <time>2018-09-26T09:12:21Z</time>
      </trkpt>
      <trkpt lat="45.90906" lon="4.71988">
        <ele>174</ele>
        <time>2018-09-26T09:12:22Z</time>
      </trkpt>
      <trkpt lat="45.909" lon="4.71992">
        <ele>174</ele>
        <time>2018-09-26T09:12:24Z</time>
      </trkpt>
      <trkpt lat="45.90897" lon="4.71994">
        <ele>174</ele>
        <time>2018-09-26T09:12:25Z</time>
      </trkpt>
      <trkpt lat="45.90891" lon="4.71997">
        <ele>174</ele>
        <time>2018-09-26T09:12:27Z</time>
      </trkpt>
      <trkpt lat="45.90888" lon="4.71998">
        <ele>174</ele>
        <time>2018-09-26T09:12:28Z</time>
      </trkpt>
      <trkpt lat="45.9088" lon="4.72002">
        <ele>174</ele>
        <time>2018-09-26T09:12:31Z</time>
      </trkpt>
      <trkpt lat="45.90877" lon="4.72003">
        <ele>174</ele>
        <time>2018-09-26T09:12:32Z</time>
      </trkpt>
      <trkpt lat="45.90871" lon="4.72006">
        <ele>174</ele>
        <time>2018-09-26T09:12:34Z</time>
      </trkpt>
      <trkpt lat="45.90869" lon="4.72008">
        <ele>174</ele>
        <time>2018-09-26T09:12:35Z</time>
      </trkpt>
      <trkpt lat="45.9086" lon="4.72014">
        <ele>174</ele>
        <time>2018-09-26T09:12:36Z</time>
      </trkpt>
      <trkpt lat="45.90853" lon="4.72019">
        <ele>174</ele>
        <time>2018-09-26T09:12:38Z</time>
      </trkpt>
      <trkpt lat="45.90849" lon="4.72021">
        <ele>174</ele>
        <time>2018-09-26T09:12:39Z</time>
      </trkpt>
      <trkpt lat="45.90841" lon="4.72025">
        <ele>174</ele>
        <time>2018-09-26T09:12:41Z</time>
      </trkpt>
      <trkpt lat="45.90838" lon="4.72027">
        <ele>174</ele>
        <time>2018-09-26T09:12:42Z</time>
      </trkpt>
      <trkpt lat="45.90829" lon="4.72031">
        <ele>175</ele>
        <time>2018-09-26T09:12:46Z</time>
      </trkpt>
      <trkpt lat="45.90822" lon="4.72035">
        <ele>175</ele>
        <time>2018-09-26T09:12:47Z</time>
      </trkpt>
      <trkpt lat="45.90814" lon="4.72039">
        <ele>175</ele>
        <time>2018-09-26T09:12:49Z</time>
      </trkpt>
      <trkpt lat="45.9081" lon="4.7204">
        <ele>175</ele>
        <time>2018-09-26T09:12:50Z</time>
      </trkpt>
      <trkpt lat="45.90803" lon="4.72043">
        <ele>175</ele>
        <time>2018-09-26T09:12:53Z</time>
      </trkpt>
      <trkpt lat="45.90796" lon="4.72046">
        <ele>175</ele>
        <time>2018-09-26T09:12:54Z</time>
      </trkpt>
      <trkpt lat="45.90789" lon="4.72048">
        <ele>175</ele>
        <time>2018-09-26T09:12:56Z</time>
      </trkpt>
      <trkpt lat="45.90785" lon="4.72049">
        <ele>175</ele>
        <time>2018-09-26T09:12:57Z</time>
      </trkpt>
      <trkpt lat="45.90778" lon="4.72051">
        <ele>175</ele>
        <time>2018-09-26T09:12:59Z</time>
      </trkpt>
      <trkpt lat="45.90773" lon="4.72054">
        <ele>175</ele>
        <time>2018-09-26T09:13:00Z</time>
      </trkpt>
      <trkpt lat="45.90766" lon="4.7206">
        <ele>175</ele>
        <time>2018-09-26T09:13:02Z</time>
      </trkpt>
      <trkpt lat="45.90762" lon="4.72062">
        <ele>175</ele>
        <time>2018-09-26T09:13:03Z</time>
      </trkpt>
      <trkpt lat="45.90757" lon="4.72065">
        <ele>174</ele>
        <time>2018-09-26T09:13:04Z</time>
      </trkpt>
      <trkpt lat="45.90754" lon="4.72068">
        <ele>174</ele>
        <time>2018-09-26T09:13:05Z</time>
      </trkpt>
      <trkpt lat="45.90746" lon="4.72071">
        <ele>175</ele>
        <time>2018-09-26T09:13:09Z</time>
      </trkpt>
      <trkpt lat="45.90738" lon="4.72077">
        <ele>174</ele>
        <time>2018-09-26T09:13:10Z</time>
      </trkpt>
      <trkpt lat="45.90731" lon="4.72084">
        <ele>174</ele>
        <time>2018-09-26T09:13:12Z</time>
      </trkpt>
      <trkpt lat="45.90726" lon="4.7209">
        <ele>174</ele>
        <time>2018-09-26T09:13:13Z</time>
      </trkpt>
      <trkpt lat="45.90718" lon="4.72096">
        <ele>174</ele>
        <time>2018-09-26T09:13:15Z</time>
      </trkpt>
      <trkpt lat="45.90714" lon="4.72099">
        <ele>174</ele>
        <time>2018-09-26T09:13:16Z</time>
      </trkpt>
      <trkpt lat="45.9071" lon="4.72102">
        <ele>174</ele>
        <time>2018-09-26T09:13:17Z</time>
      </trkpt>
      <trkpt lat="45.90705" lon="4.72105">
        <ele>174</ele>
        <time>2018-09-26T09:13:18Z</time>
      </trkpt>
      <trkpt lat="45.90696" lon="4.7211">
        <ele>174</ele>
        <time>2018-09-26T09:13:20Z</time>
      </trkpt>
      <trkpt lat="45.90692" lon="4.72111">
        <ele>174</ele>
        <time>2018-09-26T09:13:21Z</time>
      </trkpt>
      <trkpt lat="45.90685" lon="4.72113">
        <ele>174</ele>
        <time>2018-09-26T09:13:23Z</time>
      </trkpt>
      <trkpt lat="45.90682" lon="4.72114">
        <ele>174</ele>
        <time>2018-09-26T09:13:24Z</time>
      </trkpt>
      <trkpt lat="45.90675" lon="4.72118">
        <ele>174</ele>
        <time>2018-09-26T09:13:27Z</time>
      </trkpt>
      <trkpt lat="45.90671" lon="4.72119">
        <ele>174</ele>
        <time>2018-09-26T09:13:28Z</time>
      </trkpt>
      <trkpt lat="45.90666" lon="4.72121">
        <ele>175</ele>
        <time>2018-09-26T09:13:30Z</time>
      </trkpt>
      <trkpt lat="45.90656" lon="4.72123">
        <ele>175</ele>
        <time>2018-09-26T09:13:31Z</time>
      </trkpt>
      <trkpt lat="45.90648" lon="4.72126">
        <ele>175</ele>
        <time>2018-09-26T09:13:35Z</time>
      </trkpt>
      <trkpt lat="45.90646" lon="4.72127">
        <ele>175</ele>
        <time>2018-09-26T09:13:36Z</time>
      </trkpt>
      <trkpt lat="45.90637" lon="4.72129">
        <ele>175</ele>
        <time>2018-09-26T09:13:39Z</time>
      </trkpt>
      <trkpt lat="45.90628" lon="4.72133">
        <ele>175</ele>
        <time>2018-09-26T09:13:40Z</time>
      </trkpt>
      <trkpt lat="45.9062" lon="4.72135">
        <ele>176</ele>
        <time>2018-09-26T09:13:42Z</time>
      </trkpt>
      <trkpt lat="45.90617" lon="4.72138">
        <ele>176</ele>
        <time>2018-09-26T09:13:43Z</time>
      </trkpt>
      <trkpt lat="45.90609" lon="4.72143">
        <ele>176</ele>
        <time>2018-09-26T09:13:45Z</time>
      </trkpt>
      <trkpt lat="45.90607" lon="4.72144">
        <ele>176</ele>
        <time>2018-09-26T09:13:46Z</time>
      </trkpt>
      <trkpt lat="45.90601" lon="4.72147">
        <ele>176</ele>
        <time>2018-09-26T09:13:49Z</time>
      </trkpt>
      <trkpt lat="45.90598" lon="4.72149">
        <ele>176</ele>
        <time>2018-09-26T09:13:50Z</time>
      </trkpt>
      <trkpt lat="45.9059" lon="4.72153">
        <ele>176</ele>
        <time>2018-09-26T09:13:53Z</time>
      </trkpt>
      <trkpt lat="45.90587" lon="4.72155">
        <ele>176</ele>
        <time>2018-09-26T09:13:54Z</time>
      </trkpt>
      <trkpt lat="45.9058" lon="4.72158">
        <ele>177</ele>
        <time>2018-09-26T09:13:56Z</time>
      </trkpt>
      <trkpt lat="45.90577" lon="4.72159">
        <ele>177</ele>
        <time>2018-09-26T09:13:57Z</time>
      </trkpt>
      <trkpt lat="45.90574" lon="4.7216">
        <ele>177</ele>
        <time>2018-09-26T09:13:58Z</time>
      </trkpt>
      <trkpt lat="45.90564" lon="4.72163">
        <ele>177</ele>
        <time>2018-09-26T09:13:59Z</time>
      </trkpt>
      <trkpt lat="45.90557" lon="4.72167">
        <ele>177</ele>
        <time>2018-09-26T09:14:01Z</time>
      </trkpt>
      <trkpt lat="45.90553" lon="4.72169">
        <ele>177</ele>
        <time>2018-09-26T09:14:02Z</time>
      </trkpt>
      <trkpt lat="45.90545" lon="4.72173">
        <ele>177</ele>
        <time>2018-09-26T09:14:06Z</time>
      </trkpt>
      <trkpt lat="45.90543" lon="4.72174">
        <ele>177</ele>
        <time>2018-09-26T09:14:07Z</time>
      </trkpt>
      <trkpt lat="45.90536" lon="4.72177">
        <ele>177</ele>
        <time>2018-09-26T09:14:10Z</time>
      </trkpt>
      <trkpt lat="45.90533" lon="4.72178">
        <ele>177</ele>
        <time>2018-09-26T09:14:11Z</time>
      </trkpt>
      <trkpt lat="45.90525" lon="4.72181">
        <ele>177</ele>
        <time>2018-09-26T09:14:12Z</time>
      </trkpt>
      <trkpt lat="45.90521" lon="4.72183">
        <ele>177</ele>
        <time>2018-09-26T09:14:13Z</time>
      </trkpt>
      <trkpt lat="45.90513" lon="4.72186">
        <ele>177</ele>
        <time>2018-09-26T09:14:15Z</time>
      </trkpt>
      <trkpt lat="45.9051" lon="4.72188">
        <ele>177</ele>
        <time>2018-09-26T09:14:16Z</time>
      </trkpt>
      <trkpt lat="45.90502" lon="4.72192">
        <ele>177</ele>
        <time>2018-09-26T09:14:20Z</time>
      </trkpt>
      <trkpt lat="45.905" lon="4.72193">
        <ele>177</ele>
        <time>2018-09-26T09:14:21Z</time>
      </trkpt>
      <trkpt lat="45.90493" lon="4.72197">
        <ele>178</ele>
        <time>2018-09-26T09:14:25Z</time>
      </trkpt>
      <trkpt lat="45.9049" lon="4.72198">
        <ele>178</ele>
        <time>2018-09-26T09:14:26Z</time>
      </trkpt>
      <trkpt lat="45.90487" lon="4.72199">
        <ele>178</ele>
        <time>2018-09-26T09:14:27Z</time>
      </trkpt>
      <trkpt lat="45.90479" lon="4.72204">
        <ele>178</ele>
        <time>2018-09-26T09:14:28Z</time>
      </trkpt>
      <trkpt lat="45.90472" lon="4.72208">
        <ele>179</ele>
        <time>2018-09-26T09:14:31Z</time>
      </trkpt>
      <trkpt lat="45.9047" lon="4.72209">
        <ele>179</ele>
        <time>2018-09-26T09:14:32Z</time>
      </trkpt>
      <trkpt lat="45.90463" lon="4.72212">
        <ele>179</ele>
        <time>2018-09-26T09:14:35Z</time>
      </trkpt>
      <trkpt lat="45.9046" lon="4.72213">
        <ele>179</ele>
        <time>2018-09-26T09:14:36Z</time>
      </trkpt>
      <trkpt lat="45.90452" lon="4.72217">
        <ele>179</ele>
        <time>2018-09-26T09:14:39Z</time>
      </trkpt>
      <trkpt lat="45.90443" lon="4.72223">
        <ele>179</ele>
        <time>2018-09-26T09:14:40Z</time>
      </trkpt>
      <trkpt lat="45.90436" lon="4.72228">
        <ele>179</ele>
        <time>2018-09-26T09:14:42Z</time>
      </trkpt>
      <trkpt lat="45.90433" lon="4.7223">
        <ele>179</ele>
        <time>2018-09-26T09:14:43Z</time>
      </trkpt>
      <trkpt lat="45.90426" lon="4.72234">
        <ele>179</ele>
        <time>2018-09-26T09:14:45Z</time>
      </trkpt>
      <trkpt lat="45.90422" lon="4.72235">
        <ele>179</ele>
        <time>2018-09-26T09:14:46Z</time>
      </trkpt>
      <trkpt lat="45.90414" lon="4.72239">
        <ele>179</ele>
        <time>2018-09-26T09:14:50Z</time>
      </trkpt>
      <trkpt lat="45.90407" lon="4.72242">
        <ele>179</ele>
        <time>2018-09-26T09:14:51Z</time>
      </trkpt>
      <trkpt lat="45.90399" lon="4.72246">
        <ele>179</ele>
        <time>2018-09-26T09:14:53Z</time>
      </trkpt>
      <trkpt lat="45.90395" lon="4.72248">
        <ele>179</ele>
        <time>2018-09-26T09:14:54Z</time>
      </trkpt>
      <trkpt lat="45.90387" lon="4.72252">
        <ele>178</ele>
        <time>2018-09-26T09:14:56Z</time>
      </trkpt>
      <trkpt lat="45.90383" lon="4.72253">
        <ele>178</ele>
        <time>2018-09-26T09:14:57Z</time>
      </trkpt>
      <trkpt lat="45.90375" lon="4.72258">
        <ele>178</ele>
        <time>2018-09-26T09:15:01Z</time>
      </trkpt>
      <trkpt lat="45.90374" lon="4.72258">
        <ele>178</ele>
        <time>2018-09-26T09:15:02Z</time>
      </trkpt>
      <trkpt lat="45.90367" lon="4.7226">
        <ele>178</ele>
        <time>2018-09-26T09:15:05Z</time>
      </trkpt>
      <trkpt lat="45.90365" lon="4.72261">
        <ele>178</ele>
        <time>2018-09-26T09:15:06Z</time>
      </trkpt>
      <trkpt lat="45.90362" lon="4.72262">
        <ele>178</ele>
        <time>2018-09-26T09:15:07Z</time>
      </trkpt>
      <trkpt lat="45.90353" lon="4.72267">
        <ele>178</ele>
        <time>2018-09-26T09:15:08Z</time>
      </trkpt>
      <trkpt lat="45.90349" lon="4.7227">
        <ele>178</ele>
        <time>2018-09-26T09:15:09Z</time>
      </trkpt>
      <trkpt lat="45.90345" lon="4.72272">
        <ele>178</ele>
        <time>2018-09-26T09:15:10Z</time>
      </trkpt>
      <trkpt lat="45.9034" lon="4.72275">
        <ele>178</ele>
        <time>2018-09-26T09:15:11Z</time>
      </trkpt>
      <trkpt lat="45.90336" lon="4.72277">
        <ele>178</ele>
        <time>2018-09-26T09:15:12Z</time>
      </trkpt>
      <trkpt lat="45.90327" lon="4.72281">
        <ele>177</ele>
        <time>2018-09-26T09:15:14Z</time>
      </trkpt>
      <trkpt lat="45.90325" lon="4.72282">
        <ele>177</ele>
        <time>2018-09-26T09:15:15Z</time>
      </trkpt>
      <trkpt lat="45.90317" lon="4.72285">
        <ele>177</ele>
        <time>2018-09-26T09:15:19Z</time>
      </trkpt>
      <trkpt lat="45.90309" lon="4.72286">
        <ele>177</ele>
        <time>2018-09-26T09:15:20Z</time>
      </trkpt>
      <trkpt lat="45.90304" lon="4.72287">
        <ele>177</ele>
        <time>2018-09-26T09:15:21Z</time>
      </trkpt>
      <trkpt lat="45.903" lon="4.7229">
        <ele>177</ele>
        <time>2018-09-26T09:15:22Z</time>
      </trkpt>
      <trkpt lat="45.90293" lon="4.72292">
        <ele>177</ele>
        <time>2018-09-26T09:15:24Z</time>
      </trkpt>
      <trkpt lat="45.90289" lon="4.72293">
        <ele>177</ele>
        <time>2018-09-26T09:15:25Z</time>
      </trkpt>
      <trkpt lat="45.90281" lon="4.72294">
        <ele>177</ele>
        <time>2018-09-26T09:15:29Z</time>
      </trkpt>
      <trkpt lat="45.90278" lon="4.72294">
        <ele>177</ele>
        <time>2018-09-26T09:15:30Z</time>
      </trkpt>
      <trkpt lat="45.90272" lon="4.72296">
        <ele>177</ele>
        <time>2018-09-26T09:15:32Z</time>
      </trkpt>
      <trkpt lat="45.90262" lon="4.72299">
        <ele>177</ele>
        <time>2018-09-26T09:15:33Z</time>
      </trkpt>
      <trkpt lat="45.90253" lon="4.723">
        <ele>177</ele>
        <time>2018-09-26T09:15:35Z</time>
      </trkpt>
      <trkpt lat="45.90248" lon="4.72301">
        <ele>177</ele>
        <time>2018-09-26T09:15:36Z</time>
      </trkpt>
      <trkpt lat="45.90241" lon="4.72302">
        <ele>177</ele>
        <time>2018-09-26T09:15:38Z</time>
      </trkpt>
      <trkpt lat="45.90237" lon="4.72302">
        <ele>177</ele>
        <time>2018-09-26T09:15:39Z</time>
      </trkpt>
      <trkpt lat="45.9023" lon="4.72304">
        <ele>177</ele>
        <time>2018-09-26T09:15:42Z</time>
      </trkpt>
      <trkpt lat="45.90227" lon="4.72304">
        <ele>177</ele>
        <time>2018-09-26T09:15:43Z</time>
      </trkpt>
      <trkpt lat="45.90219" lon="4.72305">
        <ele>177</ele>
        <time>2018-09-26T09:15:46Z</time>
      </trkpt>
      <trkpt lat="45.90216" lon="4.72304">
        <ele>177</ele>
        <time>2018-09-26T09:15:47Z</time>
      </trkpt>
      <trkpt lat="45.90213" lon="4.72303">
        <ele>177</ele>
        <time>2018-09-26T09:15:48Z</time>
      </trkpt>
      <trkpt lat="45.90204" lon="4.72296">
        <ele>177</ele>
        <time>2018-09-26T09:15:49Z</time>
      </trkpt>
      <trkpt lat="45.90201" lon="4.72287">
        <ele>177</ele>
        <time>2018-09-26T09:15:51Z</time>
      </trkpt>
      <trkpt lat="45.902" lon="4.72281">
        <ele>177</ele>
        <time>2018-09-26T09:15:52Z</time>
      </trkpt>
      <trkpt lat="45.90199" lon="4.72269">
        <ele>177</ele>
        <time>2018-09-26T09:15:54Z</time>
      </trkpt>
      <trkpt lat="45.90199" lon="4.72263">
        <ele>177</ele>
        <time>2018-09-26T09:15:55Z</time>
      </trkpt>
      <trkpt lat="45.90198" lon="4.72254">
        <ele>177</ele>
        <time>2018-09-26T09:15:58Z</time>
      </trkpt>
      <trkpt lat="45.90197" lon="4.72244">
        <ele>177</ele>
        <time>2018-09-26T09:15:59Z</time>
      </trkpt>
      <trkpt lat="45.90195" lon="4.72234">
        <ele>177</ele>
        <time>2018-09-26T09:16:01Z</time>
      </trkpt>
      <trkpt lat="45.90194" lon="4.72227">
        <ele>177</ele>
        <time>2018-09-26T09:16:02Z</time>
      </trkpt>
      <trkpt lat="45.90193" lon="4.72219">
        <ele>177</ele>
        <time>2018-09-26T09:16:03Z</time>
      </trkpt>
      <trkpt lat="45.90192" lon="4.7221">
        <ele>177</ele>
        <time>2018-09-26T09:16:04Z</time>
      </trkpt>
      <trkpt lat="45.9019" lon="4.72198">
        <ele>177</ele>
        <time>2018-09-26T09:16:07Z</time>
      </trkpt>
      <trkpt lat="45.9019" lon="4.72195">
        <ele>177</ele>
        <time>2018-09-26T09:16:08Z</time>
      </trkpt>
      <trkpt lat="45.9019" lon="4.72183">
        <ele>177</ele>
        <time>2018-09-26T09:16:11Z</time>
      </trkpt>
      <trkpt lat="45.90188" lon="4.7217">
        <ele>177</ele>
        <time>2018-09-26T09:16:12Z</time>
      </trkpt>
      <trkpt lat="45.90187" lon="4.72164">
        <ele>178</ele>
        <time>2018-09-26T09:16:13Z</time>
      </trkpt>
      <trkpt lat="45.90186" lon="4.72157">
        <ele>178</ele>
        <time>2018-09-26T09:16:14Z</time>
      </trkpt>
      <trkpt lat="45.90186" lon="4.72148">
        <ele>178</ele>
        <time>2018-09-26T09:16:15Z</time>
      </trkpt>
      <trkpt lat="45.90186" lon="4.72141">
        <ele>178</ele>
        <time>2018-09-26T09:16:16Z</time>
      </trkpt>
      <trkpt lat="45.90188" lon="4.72129">
        <ele>178</ele>
        <time>2018-09-26T09:16:18Z</time>
      </trkpt>
      <trkpt lat="45.90189" lon="4.72125">
        <ele>178</ele>
        <time>2018-09-26T09:16:19Z</time>
      </trkpt>
      <trkpt lat="45.90188" lon="4.72118">
        <ele>178</ele>
        <time>2018-09-26T09:16:20Z</time>
      </trkpt>
      <trkpt lat="45.90187" lon="4.72111">
        <ele>178</ele>
        <time>2018-09-26T09:16:21Z</time>
      </trkpt>
      <trkpt lat="45.90187" lon="4.72099">
        <ele>178</ele>
        <time>2018-09-26T09:16:23Z</time>
      </trkpt>
      <trkpt lat="45.90186" lon="4.72094">
        <ele>178</ele>
        <time>2018-09-26T09:16:24Z</time>
      </trkpt>
      <trkpt lat="45.90186" lon="4.72085">
        <ele>178</ele>
        <time>2018-09-26T09:16:26Z</time>
      </trkpt>
      <trkpt lat="45.90185" lon="4.72078">
        <ele>179</ele>
        <time>2018-09-26T09:16:27Z</time>
      </trkpt>
      <trkpt lat="45.90185" lon="4.72066">
        <ele>179</ele>
        <time>2018-09-26T09:16:29Z</time>
      </trkpt>
      <trkpt lat="45.90184" lon="4.7206">
        <ele>179</ele>
        <time>2018-09-26T09:16:30Z</time>
      </trkpt>
      <trkpt lat="45.90181" lon="4.72051">
        <ele>179</ele>
        <time>2018-09-26T09:16:31Z</time>
      </trkpt>
      <trkpt lat="45.90181" lon="4.72045">
        <ele>179</ele>
        <time>2018-09-26T09:16:32Z</time>
      </trkpt>
      <trkpt lat="45.9018" lon="4.72032">
        <ele>179</ele>
        <time>2018-09-26T09:16:34Z</time>
      </trkpt>
      <trkpt lat="45.90179" lon="4.72026">
        <ele>179</ele>
        <time>2018-09-26T09:16:35Z</time>
      </trkpt>
      <trkpt lat="45.90179" lon="4.72013">
        <ele>179</ele>
        <time>2018-09-26T09:16:37Z</time>
      </trkpt>
      <trkpt lat="45.90179" lon="4.7201">
        <ele>179</ele>
        <time>2018-09-26T09:16:38Z</time>
      </trkpt>
      <trkpt lat="45.90178" lon="4.72003">
        <ele>179</ele>
        <time>2018-09-26T09:16:40Z</time>
      </trkpt>
      <trkpt lat="45.90178" lon="4.71993">
        <ele>179</ele>
        <time>2018-09-26T09:16:41Z</time>
      </trkpt>
      <trkpt lat="45.90179" lon="4.71982">
        <ele>179</ele>
        <time>2018-09-26T09:16:43Z</time>
      </trkpt>
      <trkpt lat="45.90179" lon="4.71976">
        <ele>179</ele>
        <time>2018-09-26T09:16:44Z</time>
      </trkpt>
      <trkpt lat="45.9018" lon="4.71967">
        <ele>179</ele>
        <time>2018-09-26T09:16:47Z</time>
      </trkpt>
      <trkpt lat="45.9018" lon="4.71963">
        <ele>179</ele>
        <time>2018-09-26T09:16:48Z</time>
      </trkpt>
      <trkpt lat="45.90181" lon="4.71951">
        <ele>179</ele>
        <time>2018-09-26T09:16:49Z</time>
      </trkpt>
      <trkpt lat="45.90181" lon="4.71946">
        <ele>179</ele>
        <time>2018-09-26T09:16:50Z</time>
      </trkpt>
      <trkpt lat="45.90183" lon="4.71934">
        <ele>178</ele>
        <time>2018-09-26T09:16:52Z</time>
      </trkpt>
      <trkpt lat="45.90186" lon="4.71927">
        <ele>178</ele>
        <time>2018-09-26T09:16:53Z</time>
      </trkpt>
      <trkpt lat="45.9019" lon="4.71915">
        <ele>179</ele>
        <time>2018-09-26T09:16:55Z</time>
      </trkpt>
      <trkpt lat="45.90192" lon="4.7191">
        <ele>179</ele>
        <time>2018-09-26T09:16:56Z</time>
      </trkpt>
      <trkpt lat="45.90195" lon="4.71901">
        <ele>179</ele>
        <time>2018-09-26T09:16:59Z</time>
      </trkpt>
      <trkpt lat="45.90197" lon="4.71898">
        <ele>180</ele>
        <time>2018-09-26T09:17:00Z</time>
      </trkpt>
      <trkpt lat="45.90198" lon="4.71895">
        <ele>180</ele>
        <time>2018-09-26T09:17:01Z</time>
      </trkpt>
      <trkpt lat="45.90204" lon="4.71886">
        <ele>180</ele>
        <time>2018-09-26T09:17:02Z</time>
      </trkpt>
      <trkpt lat="45.90209" lon="4.71877">
        <ele>180</ele>
        <time>2018-09-26T09:17:04Z</time>
      </trkpt>
      <trkpt lat="45.90211" lon="4.71872">
        <ele>180</ele>
        <time>2018-09-26T09:17:05Z</time>
      </trkpt>
      <trkpt lat="45.90217" lon="4.71864">
        <ele>181</ele>
        <time>2018-09-26T09:17:07Z</time>
      </trkpt>
      <trkpt lat="45.9022" lon="4.71859">
        <ele>181</ele>
        <time>2018-09-26T09:17:08Z</time>
      </trkpt>
      <trkpt lat="45.90223" lon="4.71853">
        <ele>181</ele>
        <time>2018-09-26T09:17:09Z</time>
      </trkpt>
      <trkpt lat="45.90226" lon="4.71847">
        <ele>181</ele>
        <time>2018-09-26T09:17:10Z</time>
      </trkpt>
      <trkpt lat="45.9023" lon="4.7184">
        <ele>181</ele>
        <time>2018-09-26T09:17:13Z</time>
      </trkpt>
      <trkpt lat="45.90232" lon="4.71837">
        <ele>182</ele>
        <time>2018-09-26T09:17:14Z</time>
      </trkpt>
      <trkpt lat="45.90236" lon="4.7183">
        <ele>183</ele>
        <time>2018-09-26T09:17:16Z</time>
      </trkpt>
      <trkpt lat="45.90242" lon="4.71818">
        <ele>183</ele>
        <time>2018-09-26T09:17:17Z</time>
      </trkpt>
      <trkpt lat="45.90246" lon="4.71809">
        <ele>183</ele>
        <time>2018-09-26T09:17:20Z</time>
      </trkpt>
      <trkpt lat="45.90247" lon="4.71805">
        <ele>184</ele>
        <time>2018-09-26T09:17:21Z</time>
      </trkpt>
      <trkpt lat="45.90249" lon="4.71796">
        <ele>184</ele>
        <time>2018-09-26T09:17:23Z</time>
      </trkpt>
      <trkpt lat="45.9025" lon="4.71791">
        <ele>184</ele>
        <time>2018-09-26T09:17:24Z</time>
      </trkpt>
      <trkpt lat="45.90251" lon="4.71782">
        <ele>183</ele>
        <time>2018-09-26T09:17:26Z</time>
      </trkpt>
      <trkpt lat="45.90251" lon="4.71777">
        <ele>183</ele>
        <time>2018-09-26T09:17:27Z</time>
      </trkpt>
      <trkpt lat="45.90252" lon="4.71767">
        <ele>183</ele>
        <time>2018-09-26T09:17:30Z</time>
      </trkpt>
      <trkpt lat="45.90252" lon="4.71764">
        <ele>184</ele>
        <time>2018-09-26T09:17:31Z</time>
      </trkpt>
      <trkpt lat="45.90253" lon="4.71751">
        <ele>185</ele>
        <time>2018-09-26T09:17:35Z</time>
      </trkpt>
      <trkpt lat="45.90253" lon="4.71748">
        <ele>185</ele>
        <time>2018-09-26T09:17:36Z</time>
      </trkpt>
      <trkpt lat="45.90253" lon="4.71736">
        <ele>186</ele>
        <time>2018-09-26T09:17:41Z</time>
      </trkpt>
      <trkpt lat="45.90254" lon="4.71733">
        <ele>186</ele>
        <time>2018-09-26T09:17:42Z</time>
      </trkpt>
      <trkpt lat="45.90256" lon="4.71722">
        <ele>186</ele>
        <time>2018-09-26T09:17:47Z</time>
      </trkpt>
      <trkpt lat="45.90256" lon="4.7172">
        <ele>187</ele>
        <time>2018-09-26T09:17:48Z</time>
      </trkpt>
      <trkpt lat="45.90257" lon="4.71709">
        <ele>187</ele>
        <time>2018-09-26T09:17:53Z</time>
      </trkpt>
      <trkpt lat="45.90257" lon="4.71707">
        <ele>187</ele>
        <time>2018-09-26T09:17:54Z</time>
      </trkpt>
      <trkpt lat="45.90258" lon="4.71695">
        <ele>188</ele>
        <time>2018-09-26T09:17:59Z</time>
      </trkpt>
      <trkpt lat="45.90259" lon="4.71692">
        <ele>188</ele>
        <time>2018-09-26T09:18:00Z</time>
      </trkpt>
      <trkpt lat="45.90261" lon="4.7168">
        <ele>189</ele>
        <time>2018-09-26T09:18:05Z</time>
      </trkpt>
      <trkpt lat="45.90261" lon="4.71677">
        <ele>190</ele>
        <time>2018-09-26T09:18:06Z</time>
      </trkpt>
      <trkpt lat="45.90262" lon="4.71666">
        <ele>192</ele>
        <time>2018-09-26T09:18:10Z</time>
      </trkpt>
      <trkpt lat="45.90262" lon="4.71663">
        <ele>192</ele>
        <time>2018-09-26T09:18:11Z</time>
      </trkpt>
      <trkpt lat="45.90263" lon="4.71652">
        <ele>192</ele>
        <time>2018-09-26T09:18:15Z</time>
      </trkpt>
      <trkpt lat="45.90264" lon="4.71649">
        <ele>192</ele>
        <time>2018-09-26T09:18:16Z</time>
      </trkpt>
      <trkpt lat="45.90265" lon="4.71637">
        <ele>192</ele>
        <time>2018-09-26T09:18:20Z</time>
      </trkpt>
      <trkpt lat="45.90266" lon="4.71634">
        <ele>192</ele>
        <time>2018-09-26T09:18:21Z</time>
      </trkpt>
      <trkpt lat="45.90267" lon="4.71623">
        <ele>193</ele>
        <time>2018-09-26T09:18:25Z</time>
      </trkpt>
      <trkpt lat="45.90267" lon="4.7162">
        <ele>193</ele>
        <time>2018-09-26T09:18:26Z</time>
      </trkpt>
      <trkpt lat="45.90266" lon="4.71607">
        <ele>193</ele>
        <time>2018-09-26T09:18:30Z</time>
      </trkpt>
      <trkpt lat="45.90266" lon="4.71605">
        <ele>194</ele>
        <time>2018-09-26T09:18:31Z</time>
      </trkpt>
      <trkpt lat="45.90265" lon="4.71595">
        <ele>194</ele>
        <time>2018-09-26T09:18:34Z</time>
      </trkpt>
      <trkpt lat="45.90265" lon="4.71591">
        <ele>194</ele>
        <time>2018-09-26T09:18:35Z</time>
      </trkpt>
      <trkpt lat="45.90265" lon="4.71581">
        <ele>196</ele>
        <time>2018-09-26T09:18:38Z</time>
      </trkpt>
      <trkpt lat="45.90265" lon="4.71577">
        <ele>196</ele>
        <time>2018-09-26T09:18:39Z</time>
      </trkpt>
      <trkpt lat="45.90265" lon="4.71566">
        <ele>195</ele>
        <time>2018-09-26T09:18:42Z</time>
      </trkpt>
      <trkpt lat="45.90266" lon="4.71562">
        <ele>195</ele>
        <time>2018-09-26T09:18:43Z</time>
      </trkpt>
      <trkpt lat="45.90267" lon="4.71551">
        <ele>196</ele>
        <time>2018-09-26T09:18:46Z</time>
      </trkpt>
      <trkpt lat="45.90267" lon="4.71548">
        <ele>196</ele>
        <time>2018-09-26T09:18:47Z</time>
      </trkpt>
      <trkpt lat="45.90262" lon="4.71539">
        <ele>196</ele>
        <time>2018-09-26T09:18:51Z</time>
      </trkpt>
      <trkpt lat="45.9026" lon="4.71538">
        <ele>196</ele>
        <time>2018-09-26T09:18:52Z</time>
      </trkpt>
      <trkpt lat="45.90252" lon="4.71539">
        <ele>196</ele>
        <time>2018-09-26T09:18:55Z</time>
      </trkpt>
      <trkpt lat="45.90249" lon="4.71539">
        <ele>199</ele>
        <time>2018-09-26T09:18:56Z</time>
      </trkpt>
      <trkpt lat="45.90241" lon="4.71543">
        <ele>199</ele>
        <time>2018-09-26T09:19:00Z</time>
      </trkpt>
      <trkpt lat="45.90239" lon="4.71544">
        <ele>199</ele>
        <time>2018-09-26T09:19:01Z</time>
      </trkpt>
      <trkpt lat="45.90231" lon="4.71546">
        <ele>199</ele>
        <time>2018-09-26T09:19:05Z</time>
      </trkpt>
      <trkpt lat="45.90229" lon="4.71546">
        <ele>199</ele>
        <time>2018-09-26T09:19:06Z</time>
      </trkpt>
      <trkpt lat="45.9022" lon="4.71546">
        <ele>199</ele>
        <time>2018-09-26T09:19:10Z</time>
      </trkpt>
      <trkpt lat="45.90218" lon="4.71545">
        <ele>199</ele>
        <time>2018-09-26T09:19:11Z</time>
      </trkpt>
      <trkpt lat="45.9021" lon="4.71543">
        <ele>199</ele>
        <time>2018-09-26T09:19:14Z</time>
      </trkpt>
      <trkpt lat="45.90208" lon="4.71543">
        <ele>199</ele>
        <time>2018-09-26T09:19:15Z</time>
      </trkpt>
      <trkpt lat="45.902" lon="4.71542">
        <ele>199</ele>
        <time>2018-09-26T09:19:18Z</time>
      </trkpt>
      <trkpt lat="45.90197" lon="4.71542">
        <ele>199</ele>
        <time>2018-09-26T09:19:19Z</time>
      </trkpt>
      <trkpt lat="45.9019" lon="4.71542">
        <ele>200</ele>
        <time>2018-09-26T09:19:22Z</time>
      </trkpt>
      <trkpt lat="45.90188" lon="4.71542">
        <ele>200</ele>
        <time>2018-09-26T09:19:23Z</time>
      </trkpt>
      <trkpt lat="45.9018" lon="4.71542">
        <ele>200</ele>
        <time>2018-09-26T09:19:26Z</time>
      </trkpt>
      <trkpt lat="45.90178" lon="4.71541">
        <ele>200</ele>
        <time>2018-09-26T09:19:27Z</time>
      </trkpt>
      <trkpt lat="45.90172" lon="4.7154">
        <ele>200</ele>
        <time>2018-09-26T09:19:29Z</time>
      </trkpt>
      <trkpt lat="45.90169" lon="4.7154">
        <ele>200</ele>
        <time>2018-09-26T09:19:30Z</time>
      </trkpt>
      <trkpt lat="45.90161" lon="4.71538">
        <ele>201</ele>
        <time>2018-09-26T09:19:33Z</time>
      </trkpt>
      <trkpt lat="45.90158" lon="4.71536">
        <ele>201</ele>
        <time>2018-09-26T09:19:34Z</time>
      </trkpt>
      <trkpt lat="45.90151" lon="4.71534">
        <ele>201</ele>
        <time>2018-09-26T09:19:37Z</time>
      </trkpt>
      <trkpt lat="45.90149" lon="4.71533">
        <ele>201</ele>
        <time>2018-09-26T09:19:38Z</time>
      </trkpt>
      <trkpt lat="45.90142" lon="4.71531">
        <ele>201</ele>
        <time>2018-09-26T09:19:41Z</time>
      </trkpt>
      <trkpt lat="45.90133" lon="4.71529">
        <ele>201</ele>
        <time>2018-09-26T09:19:42Z</time>
      </trkpt>
      <trkpt lat="45.90124" lon="4.71529">
        <ele>201</ele>
        <time>2018-09-26T09:19:46Z</time>
      </trkpt>
      <trkpt lat="45.90122" lon="4.71529">
        <ele>201</ele>
        <time>2018-09-26T09:19:47Z</time>
      </trkpt>
      <trkpt lat="45.90114" lon="4.7153">
        <ele>201</ele>
        <time>2018-09-26T09:19:50Z</time>
      </trkpt>
      <trkpt lat="45.90111" lon="4.7153">
        <ele>201</ele>
        <time>2018-09-26T09:19:51Z</time>
      </trkpt>
      <trkpt lat="45.90103" lon="4.7153">
        <ele>201</ele>
        <time>2018-09-26T09:19:54Z</time>
      </trkpt>
      <trkpt lat="45.901" lon="4.7153">
        <ele>201</ele>
        <time>2018-09-26T09:19:55Z</time>
      </trkpt>
      <trkpt lat="45.90095" lon="4.71526">
        <ele>201</ele>
        <time>2018-09-26T09:19:58Z</time>
      </trkpt>
      <trkpt lat="45.90084" lon="4.71524">
        <ele>201</ele>
        <time>2018-09-26T09:19:59Z</time>
      </trkpt>
      <trkpt lat="45.90077" lon="4.71524">
        <ele>199</ele>
        <time>2018-09-26T09:20:00Z</time>
      </trkpt>
      <trkpt lat="45.9007" lon="4.71527">
        <ele>198</ele>
        <time>2018-09-26T09:20:01Z</time>
      </trkpt>
      <trkpt lat="45.90064" lon="4.71529">
        <ele>198</ele>
        <time>2018-09-26T09:20:02Z</time>
      </trkpt>
      <trkpt lat="45.90058" lon="4.71527">
        <ele>198</ele>
        <time>2018-09-26T09:20:03Z</time>
      </trkpt>
      <trkpt lat="45.90051" lon="4.71529">
        <ele>198</ele>
        <time>2018-09-26T09:20:04Z</time>
      </trkpt>
      <trkpt lat="45.90044" lon="4.71529">
        <ele>197</ele>
        <time>2018-09-26T09:20:05Z</time>
      </trkpt>
      <trkpt lat="45.90039" lon="4.71529">
        <ele>197</ele>
        <time>2018-09-26T09:20:06Z</time>
      </trkpt>
      <trkpt lat="45.9003" lon="4.71529">
        <ele>197</ele>
        <time>2018-09-26T09:20:07Z</time>
      </trkpt>
      <trkpt lat="45.90023" lon="4.71528">
        <ele>197</ele>
        <time>2018-09-26T09:20:08Z</time>
      </trkpt>
      <trkpt lat="45.90016" lon="4.7153">
        <ele>197</ele>
        <time>2018-09-26T09:20:09Z</time>
      </trkpt>
      <trkpt lat="45.90011" lon="4.71531">
        <ele>196</ele>
        <time>2018-09-26T09:20:10Z</time>
      </trkpt>
      <trkpt lat="45.90004" lon="4.71532">
        <ele>196</ele>
        <time>2018-09-26T09:20:11Z</time>
      </trkpt>
      <trkpt lat="45.89995" lon="4.71531">
        <ele>194</ele>
        <time>2018-09-26T09:20:12Z</time>
      </trkpt>
      <trkpt lat="45.89987" lon="4.71532">
        <ele>194</ele>
        <time>2018-09-26T09:20:13Z</time>
      </trkpt>
      <trkpt lat="45.89979" lon="4.71532">
        <ele>194</ele>
        <time>2018-09-26T09:20:14Z</time>
      </trkpt>
      <trkpt lat="45.89971" lon="4.71532">
        <ele>194</ele>
        <time>2018-09-26T09:20:15Z</time>
      </trkpt>
      <trkpt lat="45.8996" lon="4.71532">
        <ele>194</ele>
        <time>2018-09-26T09:20:16Z</time>
      </trkpt>
      <trkpt lat="45.89949" lon="4.71533">
        <ele>193</ele>
        <time>2018-09-26T09:20:17Z</time>
      </trkpt>
      <trkpt lat="45.89941" lon="4.71533">
        <ele>193</ele>
        <time>2018-09-26T09:20:18Z</time>
      </trkpt>
      <trkpt lat="45.8993" lon="4.71535">
        <ele>193</ele>
        <time>2018-09-26T09:20:19Z</time>
      </trkpt>
      <trkpt lat="45.89921" lon="4.71535">
        <ele>193</ele>
        <time>2018-09-26T09:20:20Z</time>
      </trkpt>
      <trkpt lat="45.89913" lon="4.71536">
        <ele>193</ele>
        <time>2018-09-26T09:20:21Z</time>
      </trkpt>
      <trkpt lat="45.89904" lon="4.71538">
        <ele>193</ele>
        <time>2018-09-26T09:20:22Z</time>
      </trkpt>
      <trkpt lat="45.89895" lon="4.71541">
        <ele>193</ele>
        <time>2018-09-26T09:20:23Z</time>
      </trkpt>
      <trkpt lat="45.89884" lon="4.71545">
        <ele>192</ele>
        <time>2018-09-26T09:20:24Z</time>
      </trkpt>
      <trkpt lat="45.89875" lon="4.71545">
        <ele>192</ele>
        <time>2018-09-26T09:20:25Z</time>
      </trkpt>
      <trkpt lat="45.89864" lon="4.71545">
        <ele>192</ele>
        <time>2018-09-26T09:20:26Z</time>
      </trkpt>
      <trkpt lat="45.89856" lon="4.71545">
        <ele>192</ele>
        <time>2018-09-26T09:20:27Z</time>
      </trkpt>
      <trkpt lat="45.89847" lon="4.71547">
        <ele>192</ele>
        <time>2018-09-26T09:20:28Z</time>
      </trkpt>
      <trkpt lat="45.89838" lon="4.71546">
        <ele>192</ele>
        <time>2018-09-26T09:20:29Z</time>
      </trkpt>
      <trkpt lat="45.89832" lon="4.71546">
        <ele>192</ele>
        <time>2018-09-26T09:20:31Z</time>
      </trkpt>
      <trkpt lat="45.89826" lon="4.71546">
        <ele>192</ele>
        <time>2018-09-26T09:20:32Z</time>
      </trkpt>
      <trkpt lat="45.89819" lon="4.71543">
        <ele>192</ele>
        <time>2018-09-26T09:20:34Z</time>
      </trkpt>
      <trkpt lat="45.89814" lon="4.71541">
        <ele>192</ele>
        <time>2018-09-26T09:20:35Z</time>
      </trkpt>
      <trkpt lat="45.89809" lon="4.7154">
        <ele>192</ele>
        <time>2018-09-26T09:20:36Z</time>
      </trkpt>
      <trkpt lat="45.89805" lon="4.71539">
        <ele>192</ele>
        <time>2018-09-26T09:20:37Z</time>
      </trkpt>
      <trkpt lat="45.89797" lon="4.71538">
        <ele>192</ele>
        <time>2018-09-26T09:20:39Z</time>
      </trkpt>
      <trkpt lat="45.89793" lon="4.71537">
        <ele>192</ele>
        <time>2018-09-26T09:20:40Z</time>
      </trkpt>
      <trkpt lat="45.89786" lon="4.71537">
        <ele>192</ele>
        <time>2018-09-26T09:20:43Z</time>
      </trkpt>
      <trkpt lat="45.89779" lon="4.71537">
        <ele>192</ele>
        <time>2018-09-26T09:20:44Z</time>
      </trkpt>
      <trkpt lat="45.89773" lon="4.71536">
        <ele>192</ele>
        <time>2018-09-26T09:20:46Z</time>
      </trkpt>
      <trkpt lat="45.89768" lon="4.71531">
        <ele>192</ele>
        <time>2018-09-26T09:20:47Z</time>
      </trkpt>
      <trkpt lat="45.89764" lon="4.71531">
        <ele>192</ele>
        <time>2018-09-26T09:20:48Z</time>
      </trkpt>
      <trkpt lat="45.89759" lon="4.71531">
        <ele>192</ele>
        <time>2018-09-26T09:20:49Z</time>
      </trkpt>
      <trkpt lat="45.8975" lon="4.71532">
        <ele>192</ele>
        <time>2018-09-26T09:20:52Z</time>
      </trkpt>
      <trkpt lat="45.89748" lon="4.71532">
        <ele>193</ele>
        <time>2018-09-26T09:20:53Z</time>
      </trkpt>
      <trkpt lat="45.89739" lon="4.71535">
        <ele>193</ele>
        <time>2018-09-26T09:20:55Z</time>
      </trkpt>
      <trkpt lat="45.89735" lon="4.71536">
        <ele>193</ele>
        <time>2018-09-26T09:20:56Z</time>
      </trkpt>
      <trkpt lat="45.89727" lon="4.71535">
        <ele>193</ele>
        <time>2018-09-26T09:20:58Z</time>
      </trkpt>
      <trkpt lat="45.89723" lon="4.71535">
        <ele>193</ele>
        <time>2018-09-26T09:20:59Z</time>
      </trkpt>
      <trkpt lat="45.89716" lon="4.71537">
        <ele>193</ele>
        <time>2018-09-26T09:21:02Z</time>
      </trkpt>
      <trkpt lat="45.89713" lon="4.71537">
        <ele>193</ele>
        <time>2018-09-26T09:21:03Z</time>
      </trkpt>
      <trkpt lat="45.89704" lon="4.71538">
        <ele>193</ele>
        <time>2018-09-26T09:21:04Z</time>
      </trkpt>
      <trkpt lat="45.897" lon="4.71537">
        <ele>193</ele>
        <time>2018-09-26T09:21:05Z</time>
      </trkpt>
      <trkpt lat="45.89694" lon="4.71538">
        <ele>193</ele>
        <time>2018-09-26T09:21:06Z</time>
      </trkpt>
      <trkpt lat="45.8969" lon="4.71537">
        <ele>193</ele>
        <time>2018-09-26T09:21:07Z</time>
      </trkpt>
      <trkpt lat="45.89683" lon="4.71539">
        <ele>193</ele>
        <time>2018-09-26T09:21:09Z</time>
      </trkpt>
      <trkpt lat="45.89678" lon="4.71538">
        <ele>193</ele>
        <time>2018-09-26T09:21:10Z</time>
      </trkpt>
      <trkpt lat="45.89673" lon="4.71539">
        <ele>193</ele>
        <time>2018-09-26T09:21:11Z</time>
      </trkpt>
      <trkpt lat="45.89669" lon="4.7154">
        <ele>193</ele>
        <time>2018-09-26T09:21:12Z</time>
      </trkpt>
      <trkpt lat="45.89664" lon="4.71542">
        <ele>193</ele>
        <time>2018-09-26T09:21:13Z</time>
      </trkpt>
      <trkpt lat="45.8966" lon="4.71544">
        <ele>193</ele>
        <time>2018-09-26T09:21:14Z</time>
      </trkpt>
      <trkpt lat="45.89653" lon="4.71547">
        <ele>193</ele>
        <time>2018-09-26T09:21:17Z</time>
      </trkpt>
      <trkpt lat="45.89651" lon="4.71549">
        <ele>193</ele>
        <time>2018-09-26T09:21:18Z</time>
      </trkpt>
      <trkpt lat="45.89645" lon="4.71557">
        <ele>193</ele>
        <time>2018-09-26T09:21:21Z</time>
      </trkpt>
      <trkpt lat="45.89642" lon="4.71567">
        <ele>193</ele>
        <time>2018-09-26T09:21:22Z</time>
      </trkpt>
      <trkpt lat="45.89642" lon="4.71578">
        <ele>193</ele>
        <time>2018-09-26T09:21:24Z</time>
      </trkpt>
      <trkpt lat="45.89642" lon="4.71586">
        <ele>191</ele>
        <time>2018-09-26T09:21:25Z</time>
      </trkpt>
      <trkpt lat="45.89644" lon="4.71593">
        <ele>191</ele>
        <time>2018-09-26T09:21:26Z</time>
      </trkpt>
      <trkpt lat="45.89644" lon="4.716">
        <ele>191</ele>
        <time>2018-09-26T09:21:27Z</time>
      </trkpt>
      <trkpt lat="45.89645" lon="4.71608">
        <ele>190</ele>
        <time>2018-09-26T09:21:28Z</time>
      </trkpt>
      <trkpt lat="45.89646" lon="4.71616">
        <ele>190</ele>
        <time>2018-09-26T09:21:29Z</time>
      </trkpt>
      <trkpt lat="45.89647" lon="4.71624">
        <ele>190</ele>
        <time>2018-09-26T09:21:30Z</time>
      </trkpt>
      <trkpt lat="45.89648" lon="4.71632">
        <ele>190</ele>
        <time>2018-09-26T09:21:31Z</time>
      </trkpt>
      <trkpt lat="45.8965" lon="4.7164">
        <ele>189</ele>
        <time>2018-09-26T09:21:32Z</time>
      </trkpt>
      <trkpt lat="45.89651" lon="4.71649">
        <ele>189</ele>
        <time>2018-09-26T09:21:33Z</time>
      </trkpt>
      <trkpt lat="45.89652" lon="4.71659">
        <ele>188</ele>
        <time>2018-09-26T09:21:34Z</time>
      </trkpt>
      <trkpt lat="45.89655" lon="4.71669">
        <ele>186</ele>
        <time>2018-09-26T09:21:35Z</time>
      </trkpt>
      <trkpt lat="45.89657" lon="4.71678">
        <ele>186</ele>
        <time>2018-09-26T09:21:36Z</time>
      </trkpt>
      <trkpt lat="45.89658" lon="4.71689">
        <ele>186</ele>
        <time>2018-09-26T09:21:37Z</time>
      </trkpt>
      <trkpt lat="45.89659" lon="4.717">
        <ele>185</ele>
        <time>2018-09-26T09:21:38Z</time>
      </trkpt>
      <trkpt lat="45.8966" lon="4.71711">
        <ele>185</ele>
        <time>2018-09-26T09:21:39Z</time>
      </trkpt>
      <trkpt lat="45.89661" lon="4.71722">
        <ele>185</ele>
        <time>2018-09-26T09:21:40Z</time>
      </trkpt>
      <trkpt lat="45.89663" lon="4.71734">
        <ele>184</ele>
        <time>2018-09-26T09:21:41Z</time>
      </trkpt>
      <trkpt lat="45.89663" lon="4.71745">
        <ele>183</ele>
        <time>2018-09-26T09:21:42Z</time>
      </trkpt>
      <trkpt lat="45.89664" lon="4.71757">
        <ele>183</ele>
        <time>2018-09-26T09:21:43Z</time>
      </trkpt>
      <trkpt lat="45.89665" lon="4.71768">
        <ele>182</ele>
        <time>2018-09-26T09:21:44Z</time>
      </trkpt>
      <trkpt lat="45.89666" lon="4.7178">
        <ele>182</ele>
        <time>2018-09-26T09:21:45Z</time>
      </trkpt>
      <trkpt lat="45.89667" lon="4.71791">
        <ele>182</ele>
        <time>2018-09-26T09:21:46Z</time>
      </trkpt>
      <trkpt lat="45.89668" lon="4.71803">
        <ele>182</ele>
        <time>2018-09-26T09:21:47Z</time>
      </trkpt>
      <trkpt lat="45.89667" lon="4.71814">
        <ele>182</ele>
        <time>2018-09-26T09:21:48Z</time>
      </trkpt>
      <trkpt lat="45.89667" lon="4.71825">
        <ele>181</ele>
        <time>2018-09-26T09:21:49Z</time>
      </trkpt>
      <trkpt lat="45.89667" lon="4.71836">
        <ele>181</ele>
        <time>2018-09-26T09:21:50Z</time>
      </trkpt>
      <trkpt lat="45.89667" lon="4.71847">
        <ele>181</ele>
        <time>2018-09-26T09:21:51Z</time>
      </trkpt>
      <trkpt lat="45.89667" lon="4.71857">
        <ele>181</ele>
        <time>2018-09-26T09:21:52Z</time>
      </trkpt>
      <trkpt lat="45.89667" lon="4.71867">
        <ele>181</ele>
        <time>2018-09-26T09:21:53Z</time>
      </trkpt>
      <trkpt lat="45.89666" lon="4.71877">
        <ele>181</ele>
        <time>2018-09-26T09:21:54Z</time>
      </trkpt>
      <trkpt lat="45.89667" lon="4.71887">
        <ele>181</ele>
        <time>2018-09-26T09:21:55Z</time>
      </trkpt>
      <trkpt lat="45.89666" lon="4.71897">
        <ele>181</ele>
        <time>2018-09-26T09:21:56Z</time>
      </trkpt>
      <trkpt lat="45.89666" lon="4.71907">
        <ele>181</ele>
        <time>2018-09-26T09:21:57Z</time>
      </trkpt>
      <trkpt lat="45.89666" lon="4.71915">
        <ele>181</ele>
        <time>2018-09-26T09:21:58Z</time>
      </trkpt>
      <trkpt lat="45.89667" lon="4.71923">
        <ele>181</ele>
        <time>2018-09-26T09:21:59Z</time>
      </trkpt>
      <trkpt lat="45.89666" lon="4.71932">
        <ele>181</ele>
        <time>2018-09-26T09:22:00Z</time>
      </trkpt>
      <trkpt lat="45.89666" lon="4.71941">
        <ele>181</ele>
        <time>2018-09-26T09:22:01Z</time>
      </trkpt>
      <trkpt lat="45.89665" lon="4.7195">
        <ele>181</ele>
        <time>2018-09-26T09:22:02Z</time>
      </trkpt>
      <trkpt lat="45.89665" lon="4.71958">
        <ele>181</ele>
        <time>2018-09-26T09:22:03Z</time>
      </trkpt>
      <trkpt lat="45.89664" lon="4.71965">
        <ele>181</ele>
        <time>2018-09-26T09:22:04Z</time>
      </trkpt>
      <trkpt lat="45.89666" lon="4.71971">
        <ele>181</ele>
        <time>2018-09-26T09:22:05Z</time>
      </trkpt>
      <trkpt lat="45.89666" lon="4.71979">
        <ele>181</ele>
        <time>2018-09-26T09:22:06Z</time>
      </trkpt>
      <trkpt lat="45.89667" lon="4.71984">
        <ele>181</ele>
        <time>2018-09-26T09:22:07Z</time>
      </trkpt>
      <trkpt lat="45.89667" lon="4.71996">
        <ele>181</ele>
        <time>2018-09-26T09:22:09Z</time>
      </trkpt>
      <trkpt lat="45.89666" lon="4.72003">
        <ele>181</ele>
        <time>2018-09-26T09:22:10Z</time>
      </trkpt>
      <trkpt lat="45.89666" lon="4.72014">
        <ele>181</ele>
        <time>2018-09-26T09:22:12Z</time>
      </trkpt>
      <trkpt lat="45.89665" lon="4.7202">
        <ele>180</ele>
        <time>2018-09-26T09:22:13Z</time>
      </trkpt>
      <trkpt lat="45.89666" lon="4.72032">
        <ele>180</ele>
        <time>2018-09-26T09:22:15Z</time>
      </trkpt>
      <trkpt lat="45.89665" lon="4.72039">
        <ele>180</ele>
        <time>2018-09-26T09:22:16Z</time>
      </trkpt>
      <trkpt lat="45.89665" lon="4.72045">
        <ele>180</ele>
        <time>2018-09-26T09:22:17Z</time>
      </trkpt>
      <trkpt lat="45.89665" lon="4.72052">
        <ele>180</ele>
        <time>2018-09-26T09:22:18Z</time>
      </trkpt>
      <trkpt lat="45.89665" lon="4.72059">
        <ele>180</ele>
        <time>2018-09-26T09:22:19Z</time>
      </trkpt>
      <trkpt lat="45.89665" lon="4.72065">
        <ele>180</ele>
        <time>2018-09-26T09:22:20Z</time>
      </trkpt>
      <trkpt lat="45.89665" lon="4.72077">
        <ele>180</ele>
        <time>2018-09-26T09:22:22Z</time>
      </trkpt>
      <trkpt lat="45.89665" lon="4.7208">
        <ele>180</ele>
        <time>2018-09-26T09:22:23Z</time>
      </trkpt>
      <trkpt lat="45.89666" lon="4.72088">
        <ele>180</ele>
        <time>2018-09-26T09:22:24Z</time>
      </trkpt>
      <trkpt lat="45.89665" lon="4.72095">
        <ele>180</ele>
        <time>2018-09-26T09:22:25Z</time>
      </trkpt>
      <trkpt lat="45.89665" lon="4.72101">
        <ele>180</ele>
        <time>2018-09-26T09:22:26Z</time>
      </trkpt>
      <trkpt lat="45.89665" lon="4.72108">
        <ele>180</ele>
        <time>2018-09-26T09:22:27Z</time>
      </trkpt>
      <trkpt lat="45.89665" lon="4.72115">
        <ele>179</ele>
        <time>2018-09-26T09:22:28Z</time>
      </trkpt>
      <trkpt lat="45.89665" lon="4.72123">
        <ele>179</ele>
        <time>2018-09-26T09:22:29Z</time>
      </trkpt>
      <trkpt lat="45.89666" lon="4.72129">
        <ele>179</ele>
        <time>2018-09-26T09:22:30Z</time>
      </trkpt>
      <trkpt lat="45.89666" lon="4.72136">
        <ele>179</ele>
        <time>2018-09-26T09:22:31Z</time>
      </trkpt>
      <trkpt lat="45.89666" lon="4.72148">
        <ele>179</ele>
        <time>2018-09-26T09:22:33Z</time>
      </trkpt>
      <trkpt lat="45.89666" lon="4.72153">
        <ele>179</ele>
        <time>2018-09-26T09:22:34Z</time>
      </trkpt>
      <trkpt lat="45.89668" lon="4.72164">
        <ele>179</ele>
        <time>2018-09-26T09:22:36Z</time>
      </trkpt>
      <trkpt lat="45.89668" lon="4.72168">
        <ele>179</ele>
        <time>2018-09-26T09:22:37Z</time>
      </trkpt>
      <trkpt lat="45.89668" lon="4.72174">
        <ele>179</ele>
        <time>2018-09-26T09:22:39Z</time>
      </trkpt>
      <trkpt lat="45.89667" lon="4.72185">
        <ele>179</ele>
        <time>2018-09-26T09:22:40Z</time>
      </trkpt>
      <trkpt lat="45.89666" lon="4.72197">
        <ele>179</ele>
        <time>2018-09-26T09:22:42Z</time>
      </trkpt>
      <trkpt lat="45.89665" lon="4.72204">
        <ele>179</ele>
        <time>2018-09-26T09:22:43Z</time>
      </trkpt>
      <trkpt lat="45.89664" lon="4.72216">
        <ele>179</ele>
        <time>2018-09-26T09:22:45Z</time>
      </trkpt>
      <trkpt lat="45.89664" lon="4.72222">
        <ele>179</ele>
        <time>2018-09-26T09:22:46Z</time>
      </trkpt>
      <trkpt lat="45.89663" lon="4.7223">
        <ele>179</ele>
        <time>2018-09-26T09:22:48Z</time>
      </trkpt>
      <trkpt lat="45.89664" lon="4.72237">
        <ele>179</ele>
        <time>2018-09-26T09:22:49Z</time>
      </trkpt>
      <trkpt lat="45.89664" lon="4.72249">
        <ele>179</ele>
        <time>2018-09-26T09:22:51Z</time>
      </trkpt>
      <trkpt lat="45.89664" lon="4.72255">
        <ele>179</ele>
        <time>2018-09-26T09:22:52Z</time>
      </trkpt>
      <trkpt lat="45.89663" lon="4.72266">
        <ele>179</ele>
        <time>2018-09-26T09:22:56Z</time>
      </trkpt>
      <trkpt lat="45.89662" lon="4.72269">
        <ele>179</ele>
        <time>2018-09-26T09:22:57Z</time>
      </trkpt>
      <trkpt lat="45.8966" lon="4.72272">
        <ele>179</ele>
        <time>2018-09-26T09:22:58Z</time>
      </trkpt>
      <trkpt lat="45.89654" lon="4.72278">
        <ele>179</ele>
        <time>2018-09-26T09:22:59Z</time>
      </trkpt>
      <trkpt lat="45.89648" lon="4.72278">
        <ele>179</ele>
        <time>2018-09-26T09:23:00Z</time>
      </trkpt>
      <trkpt lat="45.89643" lon="4.72279">
        <ele>179</ele>
        <time>2018-09-26T09:23:01Z</time>
      </trkpt>
      <trkpt lat="45.89638" lon="4.7228">
        <ele>179</ele>
        <time>2018-09-26T09:23:02Z</time>
      </trkpt>
      <trkpt lat="45.89633" lon="4.72279">
        <ele>179</ele>
        <time>2018-09-26T09:23:03Z</time>
      </trkpt>
      <trkpt lat="45.89625" lon="4.72279">
        <ele>179</ele>
        <time>2018-09-26T09:23:05Z</time>
      </trkpt>
      <trkpt lat="45.89623" lon="4.72279">
        <ele>179</ele>
        <time>2018-09-26T09:23:06Z</time>
      </trkpt>
      <trkpt lat="45.89618" lon="4.7228">
        <ele>179</ele>
        <time>2018-09-26T09:23:08Z</time>
      </trkpt>
      <trkpt lat="45.89611" lon="4.72282">
        <ele>179</ele>
        <time>2018-09-26T09:23:09Z</time>
      </trkpt>
      <trkpt lat="45.89603" lon="4.72279">
        <ele>179</ele>
        <time>2018-09-26T09:23:11Z</time>
      </trkpt>
      <trkpt lat="45.89599" lon="4.72279">
        <ele>179</ele>
        <time>2018-09-26T09:23:12Z</time>
      </trkpt>
      <trkpt lat="45.8959" lon="4.72279">
        <ele>179</ele>
        <time>2018-09-26T09:23:14Z</time>
      </trkpt>
      <trkpt lat="45.89586" lon="4.72279">
        <ele>179</ele>
        <time>2018-09-26T09:23:15Z</time>
      </trkpt>
      <trkpt lat="45.89578" lon="4.7228">
        <ele>179</ele>
        <time>2018-09-26T09:23:17Z</time>
      </trkpt>
      <trkpt lat="45.89573" lon="4.7228">
        <ele>179</ele>
        <time>2018-09-26T09:23:18Z</time>
      </trkpt>
      <trkpt lat="45.89564" lon="4.7228">
        <ele>179</ele>
        <time>2018-09-26T09:23:20Z</time>
      </trkpt>
      <trkpt lat="45.89561" lon="4.72279">
        <ele>179</ele>
        <time>2018-09-26T09:23:21Z</time>
      </trkpt>
      <trkpt lat="45.89552" lon="4.72279">
        <ele>179</ele>
        <time>2018-09-26T09:23:23Z</time>
      </trkpt>
      <trkpt lat="45.89548" lon="4.72279">
        <ele>179</ele>
        <time>2018-09-26T09:23:24Z</time>
      </trkpt>
      <trkpt lat="45.89541" lon="4.72279">
        <ele>179</ele>
        <time>2018-09-26T09:23:27Z</time>
      </trkpt>
      <trkpt lat="45.89538" lon="4.72279">
        <ele>179</ele>
        <time>2018-09-26T09:23:28Z</time>
      </trkpt>
      <trkpt lat="45.8953" lon="4.72281">
        <ele>179</ele>
        <time>2018-09-26T09:23:29Z</time>
      </trkpt>
      <trkpt lat="45.89527" lon="4.72282">
        <ele>179</ele>
        <time>2018-09-26T09:23:30Z</time>
      </trkpt>
      <trkpt lat="45.89519" lon="4.72282">
        <ele>179</ele>
        <time>2018-09-26T09:23:32Z</time>
      </trkpt>
      <trkpt lat="45.89517" lon="4.72282">
        <ele>179</ele>
        <time>2018-09-26T09:23:33Z</time>
      </trkpt>
      <trkpt lat="45.89511" lon="4.72283">
        <ele>179</ele>
        <time>2018-09-26T09:23:34Z</time>
      </trkpt>
      <trkpt lat="45.89508" lon="4.72283">
        <ele>179</ele>
        <time>2018-09-26T09:23:35Z</time>
      </trkpt>
      <trkpt lat="45.89502" lon="4.72284">
        <ele>179</ele>
        <time>2018-09-26T09:23:36Z</time>
      </trkpt>
      <trkpt lat="45.89498" lon="4.72284">
        <ele>179</ele>
        <time>2018-09-26T09:23:37Z</time>
      </trkpt>
      <trkpt lat="45.89491" lon="4.72285">
        <ele>179</ele>
        <time>2018-09-26T09:23:39Z</time>
      </trkpt>
      <trkpt lat="45.89487" lon="4.72286">
        <ele>179</ele>
        <time>2018-09-26T09:23:40Z</time>
      </trkpt>
      <trkpt lat="45.89484" lon="4.72287">
        <ele>179</ele>
        <time>2018-09-26T09:23:41Z</time>
      </trkpt>
      <trkpt lat="45.89478" lon="4.72288">
        <ele>179</ele>
        <time>2018-09-26T09:23:42Z</time>
      </trkpt>
      <trkpt lat="45.89472" lon="4.72287">
        <ele>179</ele>
        <time>2018-09-26T09:23:45Z</time>
      </trkpt>
      <trkpt lat="45.89464" lon="4.72288">
        <ele>179</ele>
        <time>2018-09-26T09:23:46Z</time>
      </trkpt>
      <trkpt lat="45.89456" lon="4.72289">
        <ele>179</ele>
        <time>2018-09-26T09:23:48Z</time>
      </trkpt>
      <trkpt lat="45.89452" lon="4.72289">
        <ele>179</ele>
        <time>2018-09-26T09:23:49Z</time>
      </trkpt>
      <trkpt lat="45.89444" lon="4.7229">
        <ele>179</ele>
        <time>2018-09-26T09:23:51Z</time>
      </trkpt>
      <trkpt lat="45.8944" lon="4.7229">
        <ele>179</ele>
        <time>2018-09-26T09:23:52Z</time>
      </trkpt>
      <trkpt lat="45.89434" lon="4.72292">
        <ele>179</ele>
        <time>2018-09-26T09:23:55Z</time>
      </trkpt>
      <trkpt lat="45.89427" lon="4.72293">
        <ele>180</ele>
        <time>2018-09-26T09:23:56Z</time>
      </trkpt>
      <trkpt lat="45.8942" lon="4.72293">
        <ele>180</ele>
        <time>2018-09-26T09:23:58Z</time>
      </trkpt>
      <trkpt lat="45.89415" lon="4.72293">
        <ele>180</ele>
        <time>2018-09-26T09:23:59Z</time>
      </trkpt>
      <trkpt lat="45.89408" lon="4.72292">
        <ele>180</ele>
        <time>2018-09-26T09:24:01Z</time>
      </trkpt>
      <trkpt lat="45.89406" lon="4.72291">
        <ele>180</ele>
        <time>2018-09-26T09:24:02Z</time>
      </trkpt>
      <trkpt lat="45.894" lon="4.72291">
        <ele>180</ele>
        <time>2018-09-26T09:24:05Z</time>
      </trkpt>
      <trkpt lat="45.89397" lon="4.72291">
        <ele>180</ele>
        <time>2018-09-26T09:24:06Z</time>
      </trkpt>
      <trkpt lat="45.89388" lon="4.72293">
        <ele>180</ele>
        <time>2018-09-26T09:24:07Z</time>
      </trkpt>
      <trkpt lat="45.89384" lon="4.72295">
        <ele>180</ele>
        <time>2018-09-26T09:24:08Z</time>
      </trkpt>
      <trkpt lat="45.89376" lon="4.72299">
        <ele>181</ele>
        <time>2018-09-26T09:24:10Z</time>
      </trkpt>
      <trkpt lat="45.89372" lon="4.72301">
        <ele>181</ele>
        <time>2018-09-26T09:24:11Z</time>
      </trkpt>
      <trkpt lat="45.89367" lon="4.72302">
        <ele>181</ele>
        <time>2018-09-26T09:24:13Z</time>
      </trkpt>
      <trkpt lat="45.8936" lon="4.72303">
        <ele>181</ele>
        <time>2018-09-26T09:24:14Z</time>
      </trkpt>
      <trkpt lat="45.89352" lon="4.72304">
        <ele>181</ele>
        <time>2018-09-26T09:24:16Z</time>
      </trkpt>
      <trkpt lat="45.89348" lon="4.72304">
        <ele>181</ele>
        <time>2018-09-26T09:24:17Z</time>
      </trkpt>
      <trkpt lat="45.89339" lon="4.72305">
        <ele>181</ele>
        <time>2018-09-26T09:24:19Z</time>
      </trkpt>
      <trkpt lat="45.89337" lon="4.72305">
        <ele>181</ele>
        <time>2018-09-26T09:24:20Z</time>
      </trkpt>
      <trkpt lat="45.89329" lon="4.72304">
        <ele>181</ele>
        <time>2018-09-26T09:24:23Z</time>
      </trkpt>
      <trkpt lat="45.89321" lon="4.72304">
        <ele>181</ele>
        <time>2018-09-26T09:24:24Z</time>
      </trkpt>
      <trkpt lat="45.89317" lon="4.72304">
        <ele>181</ele>
        <time>2018-09-26T09:24:25Z</time>
      </trkpt>
      <trkpt lat="45.89311" lon="4.72303">
        <ele>181</ele>
        <time>2018-09-26T09:24:26Z</time>
      </trkpt>
      <trkpt lat="45.89303" lon="4.72301">
        <ele>181</ele>
        <time>2018-09-26T09:24:28Z</time>
      </trkpt>
      <trkpt lat="45.89299" lon="4.723">
        <ele>181</ele>
        <time>2018-09-26T09:24:29Z</time>
      </trkpt>
      <trkpt lat="45.89292" lon="4.72296">
        <ele>181</ele>
        <time>2018-09-26T09:24:31Z</time>
      </trkpt>
      <trkpt lat="45.89288" lon="4.72294">
        <ele>181</ele>
        <time>2018-09-26T09:24:32Z</time>
      </trkpt>
      <trkpt lat="45.89279" lon="4.72291">
        <ele>181</ele>
        <time>2018-09-26T09:24:34Z</time>
      </trkpt>
      <trkpt lat="45.89275" lon="4.72289">
        <ele>181</ele>
        <time>2018-09-26T09:24:35Z</time>
      </trkpt>
      <trkpt lat="45.89267" lon="4.72285">
        <ele>181</ele>
        <time>2018-09-26T09:24:37Z</time>
      </trkpt>
      <trkpt lat="45.89262" lon="4.72282">
        <ele>181</ele>
        <time>2018-09-26T09:24:38Z</time>
      </trkpt>
      <trkpt lat="45.89254" lon="4.7228">
        <ele>181</ele>
        <time>2018-09-26T09:24:40Z</time>
      </trkpt>
      <trkpt lat="45.8925" lon="4.72279">
        <ele>181</ele>
        <time>2018-09-26T09:24:41Z</time>
      </trkpt>
      <trkpt lat="45.89242" lon="4.72279">
        <ele>181</ele>
        <time>2018-09-26T09:24:43Z</time>
      </trkpt>
      <trkpt lat="45.89238" lon="4.72277">
        <ele>181</ele>
        <time>2018-09-26T09:24:44Z</time>
      </trkpt>
      <trkpt lat="45.89229" lon="4.72277">
        <ele>181</ele>
        <time>2018-09-26T09:24:46Z</time>
      </trkpt>
      <trkpt lat="45.89227" lon="4.72276">
        <ele>181</ele>
        <time>2018-09-26T09:24:47Z</time>
      </trkpt>
      <trkpt lat="45.89223" lon="4.72272">
        <ele>181</ele>
        <time>2018-09-26T09:24:49Z</time>
      </trkpt>
      <trkpt lat="45.89216" lon="4.72267">
        <ele>181</ele>
        <time>2018-09-26T09:24:50Z</time>
      </trkpt>
      <trkpt lat="45.89209" lon="4.72264">
        <ele>181</ele>
        <time>2018-09-26T09:24:52Z</time>
      </trkpt>
      <trkpt lat="45.89205" lon="4.72262">
        <ele>181</ele>
        <time>2018-09-26T09:24:53Z</time>
      </trkpt>
      <trkpt lat="45.89197" lon="4.72259">
        <ele>181</ele>
        <time>2018-09-26T09:24:55Z</time>
      </trkpt>
      <trkpt lat="45.89192" lon="4.72257">
        <ele>181</ele>
        <time>2018-09-26T09:24:56Z</time>
      </trkpt>
      <trkpt lat="45.89185" lon="4.72255">
        <ele>180</ele>
        <time>2018-09-26T09:24:58Z</time>
      </trkpt>
      <trkpt lat="45.89183" lon="4.72254">
        <ele>180</ele>
        <time>2018-09-26T09:24:59Z</time>
      </trkpt>
      <trkpt lat="45.89179" lon="4.72251">
        <ele>180</ele>
        <time>2018-09-26T09:25:01Z</time>
      </trkpt>
      <trkpt lat="45.89172" lon="4.72247">
        <ele>180</ele>
        <time>2018-09-26T09:25:02Z</time>
      </trkpt>
      <trkpt lat="45.89164" lon="4.72243">
        <ele>180</ele>
        <time>2018-09-26T09:25:04Z</time>
      </trkpt>
      <trkpt lat="45.89161" lon="4.7224">
        <ele>180</ele>
        <time>2018-09-26T09:25:05Z</time>
      </trkpt>
      <trkpt lat="45.89153" lon="4.72236">
        <ele>180</ele>
        <time>2018-09-26T09:25:08Z</time>
      </trkpt>
      <trkpt lat="45.89147" lon="4.72233">
        <ele>180</ele>
        <time>2018-09-26T09:25:09Z</time>
      </trkpt>
      <trkpt lat="45.89139" lon="4.72229">
        <ele>180</ele>
        <time>2018-09-26T09:25:11Z</time>
      </trkpt>
      <trkpt lat="45.89136" lon="4.72228">
        <ele>180</ele>
        <time>2018-09-26T09:25:12Z</time>
      </trkpt>
      <trkpt lat="45.89128" lon="4.72224">
        <ele>180</ele>
        <time>2018-09-26T09:25:14Z</time>
      </trkpt>
      <trkpt lat="45.89127" lon="4.72223">
        <ele>180</ele>
        <time>2018-09-26T09:25:15Z</time>
      </trkpt>
      <trkpt lat="45.89118" lon="4.72218">
        <ele>180</ele>
        <time>2018-09-26T09:25:19Z</time>
      </trkpt>
      <trkpt lat="45.89116" lon="4.72216">
        <ele>180</ele>
        <time>2018-09-26T09:25:20Z</time>
      </trkpt>
      <trkpt lat="45.89112" lon="4.72211">
        <ele>180</ele>
        <time>2018-09-26T09:25:22Z</time>
      </trkpt>
      <trkpt lat="45.89109" lon="4.72208">
        <ele>180</ele>
        <time>2018-09-26T09:25:23Z</time>
      </trkpt>
      <trkpt lat="45.89103" lon="4.72203">
        <ele>180</ele>
        <time>2018-09-26T09:25:25Z</time>
      </trkpt>
      <trkpt lat="45.89094" lon="4.72196">
        <ele>180</ele>
        <time>2018-09-26T09:25:26Z</time>
      </trkpt>
      <trkpt lat="45.89086" lon="4.72193">
        <ele>180</ele>
        <time>2018-09-26T09:25:28Z</time>
      </trkpt>
      <trkpt lat="45.89081" lon="4.7219">
        <ele>180</ele>
        <time>2018-09-26T09:25:29Z</time>
      </trkpt>
      <trkpt lat="45.89074" lon="4.72185">
        <ele>180</ele>
        <time>2018-09-26T09:25:31Z</time>
      </trkpt>
      <trkpt lat="45.89069" lon="4.72183">
        <ele>180</ele>
        <time>2018-09-26T09:25:32Z</time>
      </trkpt>
      <trkpt lat="45.89064" lon="4.72179">
        <ele>180</ele>
        <time>2018-09-26T09:25:34Z</time>
      </trkpt>
      <trkpt lat="45.89058" lon="4.72175">
        <ele>180</ele>
        <time>2018-09-26T09:25:35Z</time>
      </trkpt>
      <trkpt lat="45.8905" lon="4.72169">
        <ele>180</ele>
        <time>2018-09-26T09:25:39Z</time>
      </trkpt>
      <trkpt lat="45.89047" lon="4.72168">
        <ele>180</ele>
        <time>2018-09-26T09:25:40Z</time>
      </trkpt>
      <trkpt lat="45.89041" lon="4.72166">
        <ele>180</ele>
        <time>2018-09-26T09:25:42Z</time>
      </trkpt>
      <trkpt lat="45.89038" lon="4.72165">
        <ele>180</ele>
        <time>2018-09-26T09:25:43Z</time>
      </trkpt>
      <trkpt lat="45.89024" lon="4.72162">
        <ele>180</ele>
        <time>2018-09-26T09:25:44Z</time>
      </trkpt>
      <trkpt lat="45.89019" lon="4.7216">
        <ele>180</ele>
        <time>2018-09-26T09:25:45Z</time>
      </trkpt>
      <trkpt lat="45.89015" lon="4.72158">
        <ele>180</ele>
        <time>2018-09-26T09:25:46Z</time>
      </trkpt>
      <trkpt lat="45.89008" lon="4.72153">
        <ele>180</ele>
        <time>2018-09-26T09:25:48Z</time>
      </trkpt>
      <trkpt lat="45.89004" lon="4.72151">
        <ele>180</ele>
        <time>2018-09-26T09:25:49Z</time>
      </trkpt>
      <trkpt lat="45.88998" lon="4.72148">
        <ele>180</ele>
        <time>2018-09-26T09:25:52Z</time>
      </trkpt>
      <trkpt lat="45.8899" lon="4.72145">
        <ele>180</ele>
        <time>2018-09-26T09:25:53Z</time>
      </trkpt>
      <trkpt lat="45.88982" lon="4.72142">
        <ele>180</ele>
        <time>2018-09-26T09:25:55Z</time>
      </trkpt>
      <trkpt lat="45.88978" lon="4.7214">
        <ele>180</ele>
        <time>2018-09-26T09:25:56Z</time>
      </trkpt>
      <trkpt lat="45.88973" lon="4.72138">
        <ele>180</ele>
        <time>2018-09-26T09:25:57Z</time>
      </trkpt>
      <trkpt lat="45.88968" lon="4.72137">
        <ele>180</ele>
        <time>2018-09-26T09:25:58Z</time>
      </trkpt>
      <trkpt lat="45.8896" lon="4.72133">
        <ele>180</ele>
        <time>2018-09-26T09:26:00Z</time>
      </trkpt>
      <trkpt lat="45.88957" lon="4.72132">
        <ele>181</ele>
        <time>2018-09-26T09:26:01Z</time>
      </trkpt>
      <trkpt lat="45.8895" lon="4.7213">
        <ele>181</ele>
        <time>2018-09-26T09:26:04Z</time>
      </trkpt>
      <trkpt lat="45.88943" lon="4.72128">
        <ele>181</ele>
        <time>2018-09-26T09:26:05Z</time>
      </trkpt>
      <trkpt lat="45.88935" lon="4.72126">
        <ele>181</ele>
        <time>2018-09-26T09:26:07Z</time>
      </trkpt>
      <trkpt lat="45.88931" lon="4.72125">
        <ele>181</ele>
        <time>2018-09-26T09:26:08Z</time>
      </trkpt>
      <trkpt lat="45.88924" lon="4.72123">
        <ele>181</ele>
        <time>2018-09-26T09:26:11Z</time>
      </trkpt>
      <trkpt lat="45.88922" lon="4.72122">
        <ele>181</ele>
        <time>2018-09-26T09:26:12Z</time>
      </trkpt>
      <trkpt lat="45.88915" lon="4.72119">
        <ele>181</ele>
        <time>2018-09-26T09:26:13Z</time>
      </trkpt>
      <trkpt lat="45.88912" lon="4.72117">
        <ele>181</ele>
        <time>2018-09-26T09:26:14Z</time>
      </trkpt>
      <trkpt lat="45.88905" lon="4.72114">
        <ele>181</ele>
        <time>2018-09-26T09:26:16Z</time>
      </trkpt>
      <trkpt lat="45.88903" lon="4.72114">
        <ele>181</ele>
        <time>2018-09-26T09:26:17Z</time>
      </trkpt>
      <trkpt lat="45.88896" lon="4.72111">
        <ele>181</ele>
        <time>2018-09-26T09:26:19Z</time>
      </trkpt>
      <trkpt lat="45.88894" lon="4.7211">
        <ele>181</ele>
        <time>2018-09-26T09:26:20Z</time>
      </trkpt>
      <trkpt lat="45.88886" lon="4.72108">
        <ele>181</ele>
        <time>2018-09-26T09:26:22Z</time>
      </trkpt>
      <trkpt lat="45.88884" lon="4.72107">
        <ele>181</ele>
        <time>2018-09-26T09:26:23Z</time>
      </trkpt>
      <trkpt lat="45.88877" lon="4.72105">
        <ele>181</ele>
        <time>2018-09-26T09:26:26Z</time>
      </trkpt>
      <trkpt lat="45.88874" lon="4.72104">
        <ele>181</ele>
        <time>2018-09-26T09:26:27Z</time>
      </trkpt>
      <trkpt lat="45.88866" lon="4.72102">
        <ele>181</ele>
        <time>2018-09-26T09:26:28Z</time>
      </trkpt>
      <trkpt lat="45.88865" lon="4.72101">
        <ele>181</ele>
        <time>2018-09-26T09:26:29Z</time>
      </trkpt>
      <trkpt lat="45.88856" lon="4.72097">
        <ele>181</ele>
        <time>2018-09-26T09:26:32Z</time>
      </trkpt>
      <trkpt lat="45.88854" lon="4.72095">
        <ele>181</ele>
        <time>2018-09-26T09:26:33Z</time>
      </trkpt>
      <trkpt lat="45.88846" lon="4.72091">
        <ele>181</ele>
        <time>2018-09-26T09:26:37Z</time>
      </trkpt>
      <trkpt lat="45.88845" lon="4.72091">
        <ele>181</ele>
        <time>2018-09-26T09:26:38Z</time>
      </trkpt>
      <trkpt lat="45.88842" lon="4.72092">
        <ele>181</ele>
        <time>2018-09-26T09:26:39Z</time>
      </trkpt>
      <trkpt lat="45.88835" lon="4.72097">
        <ele>181</ele>
        <time>2018-09-26T09:26:40Z</time>
      </trkpt>
      <trkpt lat="45.88833" lon="4.72103">
        <ele>181</ele>
        <time>2018-09-26T09:26:41Z</time>
      </trkpt>
      <trkpt lat="45.88833" lon="4.72114">
        <ele>181</ele>
        <time>2018-09-26T09:26:42Z</time>
      </trkpt>
      <trkpt lat="45.88831" lon="4.72126">
        <ele>182</ele>
        <time>2018-09-26T09:26:44Z</time>
      </trkpt>
      <trkpt lat="45.88831" lon="4.72132">
        <ele>182</ele>
        <time>2018-09-26T09:26:45Z</time>
      </trkpt>
      <trkpt lat="45.8883" lon="4.72144">
        <ele>182</ele>
        <time>2018-09-26T09:26:47Z</time>
      </trkpt>
      <trkpt lat="45.88829" lon="4.7215">
        <ele>182</ele>
        <time>2018-09-26T09:26:48Z</time>
      </trkpt>
      <trkpt lat="45.88829" lon="4.72159">
        <ele>182</ele>
        <time>2018-09-26T09:26:50Z</time>
      </trkpt>
      <trkpt lat="45.88827" lon="4.72164">
        <ele>182</ele>
        <time>2018-09-26T09:26:51Z</time>
      </trkpt>
      <trkpt lat="45.88826" lon="4.7217">
        <ele>182</ele>
        <time>2018-09-26T09:26:52Z</time>
      </trkpt>
      <trkpt lat="45.88825" lon="4.72177">
        <ele>182</ele>
        <time>2018-09-26T09:26:53Z</time>
      </trkpt>
      <trkpt lat="45.88824" lon="4.72185">
        <ele>182</ele>
        <time>2018-09-26T09:26:54Z</time>
      </trkpt>
      <trkpt lat="45.88823" lon="4.72191">
        <ele>182</ele>
        <time>2018-09-26T09:26:55Z</time>
      </trkpt>
      <trkpt lat="45.8882" lon="4.72202">
        <ele>182</ele>
        <time>2018-09-26T09:26:57Z</time>
      </trkpt>
      <trkpt lat="45.88818" lon="4.72207">
        <ele>182</ele>
        <time>2018-09-26T09:26:58Z</time>
      </trkpt>
      <trkpt lat="45.88816" lon="4.72218">
        <ele>182</ele>
        <time>2018-09-26T09:27:00Z</time>
      </trkpt>
      <trkpt lat="45.88815" lon="4.72225">
        <ele>182</ele>
        <time>2018-09-26T09:27:01Z</time>
      </trkpt>
      <trkpt lat="45.88813" lon="4.7223">
        <ele>182</ele>
        <time>2018-09-26T09:27:02Z</time>
      </trkpt>
      <trkpt lat="45.88814" lon="4.72241">
        <ele>182</ele>
        <time>2018-09-26T09:27:03Z</time>
      </trkpt>
      <trkpt lat="45.88814" lon="4.72253">
        <ele>182</ele>
        <time>2018-09-26T09:27:05Z</time>
      </trkpt>
      <trkpt lat="45.88812" lon="4.72259">
        <ele>182</ele>
        <time>2018-09-26T09:27:06Z</time>
      </trkpt>
      <trkpt lat="45.88811" lon="4.72267">
        <ele>182</ele>
        <time>2018-09-26T09:27:07Z</time>
      </trkpt>
      <trkpt lat="45.88811" lon="4.72274">
        <ele>182</ele>
        <time>2018-09-26T09:27:08Z</time>
      </trkpt>
      <trkpt lat="45.8881" lon="4.7228">
        <ele>182</ele>
        <time>2018-09-26T09:27:09Z</time>
      </trkpt>
      <trkpt lat="45.88808" lon="4.7229">
        <ele>182</ele>
        <time>2018-09-26T09:27:10Z</time>
      </trkpt>
      <trkpt lat="45.88806" lon="4.72296">
        <ele>182</ele>
        <time>2018-09-26T09:27:11Z</time>
      </trkpt>
      <trkpt lat="45.88805" lon="4.72304">
        <ele>182</ele>
        <time>2018-09-26T09:27:12Z</time>
      </trkpt>
      <trkpt lat="45.88802" lon="4.72311">
        <ele>182</ele>
        <time>2018-09-26T09:27:13Z</time>
      </trkpt>
      <trkpt lat="45.888" lon="4.72317">
        <ele>182</ele>
        <time>2018-09-26T09:27:14Z</time>
      </trkpt>
      <trkpt lat="45.88797" lon="4.72323">
        <ele>182</ele>
        <time>2018-09-26T09:27:15Z</time>
      </trkpt>
      <trkpt lat="45.88794" lon="4.72326">
        <ele>182</ele>
        <time>2018-09-26T09:27:16Z</time>
      </trkpt>
      <trkpt lat="45.88791" lon="4.72332">
        <ele>182</ele>
        <time>2018-09-26T09:27:17Z</time>
      </trkpt>
      <trkpt lat="45.88789" lon="4.72337">
        <ele>182</ele>
        <time>2018-09-26T09:27:18Z</time>
      </trkpt>
      <trkpt lat="45.88784" lon="4.72347">
        <ele>182</ele>
        <time>2018-09-26T09:27:20Z</time>
      </trkpt>
      <trkpt lat="45.88781" lon="4.72352">
        <ele>182</ele>
        <time>2018-09-26T09:27:21Z</time>
      </trkpt>
      <trkpt lat="45.88779" lon="4.7236">
        <ele>182</ele>
        <time>2018-09-26T09:27:22Z</time>
      </trkpt>
      <trkpt lat="45.88777" lon="4.72365">
        <ele>182</ele>
        <time>2018-09-26T09:27:23Z</time>
      </trkpt>
      <trkpt lat="45.88774" lon="4.7237">
        <ele>182</ele>
        <time>2018-09-26T09:27:24Z</time>
      </trkpt>
      <trkpt lat="45.88771" lon="4.72376">
        <ele>182</ele>
        <time>2018-09-26T09:27:25Z</time>
      </trkpt>
      <trkpt lat="45.88765" lon="4.72385">
        <ele>182</ele>
        <time>2018-09-26T09:27:27Z</time>
      </trkpt>
      <trkpt lat="45.88763" lon="4.72391">
        <ele>182</ele>
        <time>2018-09-26T09:27:28Z</time>
      </trkpt>
      <trkpt lat="45.88758" lon="4.72401">
        <ele>182</ele>
        <time>2018-09-26T09:27:30Z</time>
      </trkpt>
      <trkpt lat="45.88755" lon="4.72406">
        <ele>182</ele>
        <time>2018-09-26T09:27:31Z</time>
      </trkpt>
      <trkpt lat="45.88753" lon="4.72412">
        <ele>182</ele>
        <time>2018-09-26T09:27:32Z</time>
      </trkpt>
      <trkpt lat="45.88749" lon="4.72418">
        <ele>182</ele>
        <time>2018-09-26T09:27:33Z</time>
      </trkpt>
      <trkpt lat="45.88746" lon="4.72424">
        <ele>182</ele>
        <time>2018-09-26T09:27:34Z</time>
      </trkpt>
      <trkpt lat="45.88744" lon="4.7243">
        <ele>182</ele>
        <time>2018-09-26T09:27:35Z</time>
      </trkpt>
      <trkpt lat="45.88741" lon="4.72435">
        <ele>182</ele>
        <time>2018-09-26T09:27:36Z</time>
      </trkpt>
      <trkpt lat="45.88739" lon="4.72442">
        <ele>182</ele>
        <time>2018-09-26T09:27:37Z</time>
      </trkpt>
      <trkpt lat="45.88736" lon="4.72447">
        <ele>182</ele>
        <time>2018-09-26T09:27:38Z</time>
      </trkpt>
      <trkpt lat="45.88733" lon="4.72453">
        <ele>182</ele>
        <time>2018-09-26T09:27:39Z</time>
      </trkpt>
      <trkpt lat="45.88729" lon="4.72463">
        <ele>182</ele>
        <time>2018-09-26T09:27:41Z</time>
      </trkpt>
      <trkpt lat="45.88729" lon="4.72468">
        <ele>182</ele>
        <time>2018-09-26T09:27:42Z</time>
      </trkpt>
      <trkpt lat="45.88729" lon="4.72477">
        <ele>182</ele>
        <time>2018-09-26T09:27:43Z</time>
      </trkpt>
      <trkpt lat="45.88728" lon="4.72481">
        <ele>182</ele>
        <time>2018-09-26T09:27:44Z</time>
      </trkpt>
      <trkpt lat="45.88728" lon="4.72488">
        <ele>182</ele>
        <time>2018-09-26T09:27:45Z</time>
      </trkpt>
      <trkpt lat="45.88728" lon="4.72495">
        <ele>182</ele>
        <time>2018-09-26T09:27:46Z</time>
      </trkpt>
      <trkpt lat="45.88729" lon="4.72502">
        <ele>183</ele>
        <time>2018-09-26T09:27:47Z</time>
      </trkpt>
      <trkpt lat="45.8873" lon="4.72508">
        <ele>183</ele>
        <time>2018-09-26T09:27:48Z</time>
      </trkpt>
      <trkpt lat="45.88731" lon="4.72514">
        <ele>183</ele>
        <time>2018-09-26T09:27:49Z</time>
      </trkpt>
      <trkpt lat="45.88733" lon="4.7252">
        <ele>183</ele>
        <time>2018-09-26T09:27:50Z</time>
      </trkpt>
      <trkpt lat="45.88734" lon="4.72527">
        <ele>183</ele>
        <time>2018-09-26T09:27:51Z</time>
      </trkpt>
      <trkpt lat="45.88736" lon="4.72535">
        <ele>183</ele>
        <time>2018-09-26T09:27:52Z</time>
      </trkpt>
      <trkpt lat="45.88738" lon="4.72542">
        <ele>183</ele>
        <time>2018-09-26T09:27:53Z</time>
      </trkpt>
      <trkpt lat="45.88739" lon="4.7255">
        <ele>183</ele>
        <time>2018-09-26T09:27:54Z</time>
      </trkpt>
      <trkpt lat="45.88741" lon="4.72557">
        <ele>183</ele>
        <time>2018-09-26T09:27:55Z</time>
      </trkpt>
      <trkpt lat="45.88741" lon="4.72563">
        <ele>183</ele>
        <time>2018-09-26T09:27:56Z</time>
      </trkpt>
      <trkpt lat="45.88743" lon="4.72575">
        <ele>184</ele>
        <time>2018-09-26T09:27:58Z</time>
      </trkpt>
      <trkpt lat="45.88743" lon="4.72581">
        <ele>184</ele>
        <time>2018-09-26T09:27:59Z</time>
      </trkpt>
      <trkpt lat="45.88744" lon="4.72592">
        <ele>184</ele>
        <time>2018-09-26T09:28:01Z</time>
      </trkpt>
      <trkpt lat="45.88746" lon="4.72598">
        <ele>184</ele>
        <time>2018-09-26T09:28:02Z</time>
      </trkpt>
      <trkpt lat="45.88747" lon="4.7261">
        <ele>183</ele>
        <time>2018-09-26T09:28:04Z</time>
      </trkpt>
      <trkpt lat="45.88747" lon="4.72618">
        <ele>183</ele>
        <time>2018-09-26T09:28:05Z</time>
      </trkpt>
      <trkpt lat="45.88749" lon="4.72626">
        <ele>183</ele>
        <time>2018-09-26T09:28:06Z</time>
      </trkpt>
      <trkpt lat="45.88751" lon="4.72636">
        <ele>183</ele>
        <time>2018-09-26T09:28:07Z</time>
      </trkpt>
      <trkpt lat="45.88752" lon="4.72644">
        <ele>183</ele>
        <time>2018-09-26T09:28:08Z</time>
      </trkpt>
      <trkpt lat="45.88754" lon="4.72652">
        <ele>182</ele>
        <time>2018-09-26T09:28:09Z</time>
      </trkpt>
      <trkpt lat="45.88754" lon="4.7266">
        <ele>182</ele>
        <time>2018-09-26T09:28:10Z</time>
      </trkpt>
      <trkpt lat="45.88756" lon="4.72669">
        <ele>182</ele>
        <time>2018-09-26T09:28:11Z</time>
      </trkpt>
      <trkpt lat="45.88756" lon="4.72678">
        <ele>182</ele>
        <time>2018-09-26T09:28:12Z</time>
      </trkpt>
      <trkpt lat="45.88758" lon="4.72687">
        <ele>182</ele>
        <time>2018-09-26T09:28:13Z</time>
      </trkpt>
      <trkpt lat="45.8876" lon="4.72695">
        <ele>182</ele>
        <time>2018-09-26T09:28:14Z</time>
      </trkpt>
      <trkpt lat="45.88761" lon="4.72702">
        <ele>182</ele>
        <time>2018-09-26T09:28:15Z</time>
      </trkpt>
      <trkpt lat="45.88762" lon="4.72709">
        <ele>183</ele>
        <time>2018-09-26T09:28:16Z</time>
      </trkpt>
      <trkpt lat="45.88762" lon="4.72715">
        <ele>183</ele>
        <time>2018-09-26T09:28:17Z</time>
      </trkpt>
      <trkpt lat="45.88762" lon="4.72728">
        <ele>183</ele>
        <time>2018-09-26T09:28:19Z</time>
      </trkpt>
      <trkpt lat="45.88761" lon="4.72733">
        <ele>183</ele>
        <time>2018-09-26T09:28:20Z</time>
      </trkpt>
      <trkpt lat="45.88763" lon="4.72739">
        <ele>183</ele>
        <time>2018-09-26T09:28:21Z</time>
      </trkpt>
      <trkpt lat="45.88764" lon="4.72746">
        <ele>183</ele>
        <time>2018-09-26T09:28:22Z</time>
      </trkpt>
      <trkpt lat="45.88765" lon="4.72754">
        <ele>183</ele>
        <time>2018-09-26T09:28:23Z</time>
      </trkpt>
      <trkpt lat="45.88765" lon="4.7276">
        <ele>183</ele>
        <time>2018-09-26T09:28:24Z</time>
      </trkpt>
      <trkpt lat="45.88765" lon="4.72771">
        <ele>184</ele>
        <time>2018-09-26T09:28:26Z</time>
      </trkpt>
      <trkpt lat="45.88764" lon="4.72778">
        <ele>184</ele>
        <time>2018-09-26T09:28:27Z</time>
      </trkpt>
      <trkpt lat="45.88764" lon="4.72785">
        <ele>184</ele>
        <time>2018-09-26T09:28:28Z</time>
      </trkpt>
      <trkpt lat="45.88764" lon="4.72795">
        <ele>184</ele>
        <time>2018-09-26T09:28:29Z</time>
      </trkpt>
      <trkpt lat="45.88763" lon="4.72804">
        <ele>184</ele>
        <time>2018-09-26T09:28:30Z</time>
      </trkpt>
      <trkpt lat="45.88762" lon="4.7281">
        <ele>184</ele>
        <time>2018-09-26T09:28:31Z</time>
      </trkpt>
      <trkpt lat="45.88764" lon="4.72818">
        <ele>185</ele>
        <time>2018-09-26T09:28:32Z</time>
      </trkpt>
      <trkpt lat="45.88764" lon="4.72825">
        <ele>185</ele>
        <time>2018-09-26T09:28:33Z</time>
      </trkpt>
      <trkpt lat="45.88766" lon="4.7283">
        <ele>185</ele>
        <time>2018-09-26T09:28:34Z</time>
      </trkpt>
      <trkpt lat="45.88767" lon="4.72837">
        <ele>185</ele>
        <time>2018-09-26T09:28:35Z</time>
      </trkpt>
      <trkpt lat="45.88767" lon="4.72849">
        <ele>185</ele>
        <time>2018-09-26T09:28:37Z</time>
      </trkpt>
      <trkpt lat="45.88768" lon="4.72855">
        <ele>185</ele>
        <time>2018-09-26T09:28:38Z</time>
      </trkpt>
      <trkpt lat="45.88769" lon="4.72865">
        <ele>185</ele>
        <time>2018-09-26T09:28:40Z</time>
      </trkpt>
      <trkpt lat="45.88769" lon="4.72872">
        <ele>185</ele>
        <time>2018-09-26T09:28:41Z</time>
      </trkpt>
      <trkpt lat="45.88769" lon="4.72878">
        <ele>185</ele>
        <time>2018-09-26T09:28:42Z</time>
      </trkpt>
      <trkpt lat="45.88769" lon="4.72885">
        <ele>185</ele>
        <time>2018-09-26T09:28:43Z</time>
      </trkpt>
      <trkpt lat="45.8877" lon="4.72892">
        <ele>185</ele>
        <time>2018-09-26T09:28:44Z</time>
      </trkpt>
      <trkpt lat="45.88771" lon="4.72899">
        <ele>185</ele>
        <time>2018-09-26T09:28:45Z</time>
      </trkpt>
      <trkpt lat="45.88771" lon="4.72906">
        <ele>185</ele>
        <time>2018-09-26T09:28:46Z</time>
      </trkpt>
      <trkpt lat="45.88771" lon="4.72913">
        <ele>185</ele>
        <time>2018-09-26T09:28:47Z</time>
      </trkpt>
      <trkpt lat="45.88773" lon="4.72925">
        <ele>185</ele>
        <time>2018-09-26T09:28:49Z</time>
      </trkpt>
      <trkpt lat="45.88774" lon="4.72931">
        <ele>185</ele>
        <time>2018-09-26T09:28:50Z</time>
      </trkpt>
      <trkpt lat="45.88775" lon="4.72941">
        <ele>185</ele>
        <time>2018-09-26T09:28:52Z</time>
      </trkpt>
      <trkpt lat="45.88774" lon="4.72945">
        <ele>185</ele>
        <time>2018-09-26T09:28:53Z</time>
      </trkpt>
      <trkpt lat="45.88774" lon="4.72958">
        <ele>185</ele>
        <time>2018-09-26T09:28:55Z</time>
      </trkpt>
      <trkpt lat="45.88774" lon="4.72965">
        <ele>185</ele>
        <time>2018-09-26T09:28:56Z</time>
      </trkpt>
      <trkpt lat="45.88774" lon="4.72971">
        <ele>185</ele>
        <time>2018-09-26T09:28:57Z</time>
      </trkpt>
      <trkpt lat="45.88774" lon="4.72978">
        <ele>185</ele>
        <time>2018-09-26T09:28:58Z</time>
      </trkpt>
      <trkpt lat="45.88774" lon="4.72984">
        <ele>185</ele>
        <time>2018-09-26T09:28:59Z</time>
      </trkpt>
      <trkpt lat="45.88774" lon="4.72992">
        <ele>185</ele>
        <time>2018-09-26T09:29:00Z</time>
      </trkpt>
      <trkpt lat="45.88775" lon="4.73004">
        <ele>184</ele>
        <time>2018-09-26T09:29:02Z</time>
      </trkpt>
      <trkpt lat="45.88776" lon="4.73009">
        <ele>184</ele>
        <time>2018-09-26T09:29:03Z</time>
      </trkpt>
      <trkpt lat="45.88776" lon="4.73018">
        <ele>184</ele>
        <time>2018-09-26T09:29:04Z</time>
      </trkpt>
      <trkpt lat="45.88777" lon="4.73025">
        <ele>184</ele>
        <time>2018-09-26T09:29:05Z</time>
      </trkpt>
      <trkpt lat="45.88778" lon="4.73038">
        <ele>184</ele>
        <time>2018-09-26T09:29:07Z</time>
      </trkpt>
      <trkpt lat="45.88778" lon="4.73044">
        <ele>184</ele>
        <time>2018-09-26T09:29:08Z</time>
      </trkpt>
      <trkpt lat="45.88781" lon="4.73056">
        <ele>184</ele>
        <time>2018-09-26T09:29:10Z</time>
      </trkpt>
      <trkpt lat="45.88783" lon="4.73063">
        <ele>184</ele>
        <time>2018-09-26T09:29:11Z</time>
      </trkpt>
      <trkpt lat="45.88781" lon="4.73074">
        <ele>184</ele>
        <time>2018-09-26T09:29:13Z</time>
      </trkpt>
      <trkpt lat="45.88781" lon="4.7308">
        <ele>184</ele>
        <time>2018-09-26T09:29:14Z</time>
      </trkpt>
      <trkpt lat="45.8878" lon="4.73086">
        <ele>183</ele>
        <time>2018-09-26T09:29:15Z</time>
      </trkpt>
      <trkpt lat="45.88782" lon="4.73095">
        <ele>182</ele>
        <time>2018-09-26T09:29:16Z</time>
      </trkpt>
      <trkpt lat="45.88783" lon="4.73102">
        <ele>182</ele>
        <time>2018-09-26T09:29:17Z</time>
      </trkpt>
      <trkpt lat="45.88784" lon="4.73108">
        <ele>182</ele>
        <time>2018-09-26T09:29:18Z</time>
      </trkpt>
      <trkpt lat="45.88786" lon="4.73118">
        <ele>182</ele>
        <time>2018-09-26T09:29:20Z</time>
      </trkpt>
      <trkpt lat="45.8879" lon="4.73122">
        <ele>182</ele>
        <time>2018-09-26T09:29:21Z</time>
      </trkpt>
      <trkpt lat="45.88796" lon="4.73125">
        <ele>182</ele>
        <time>2018-09-26T09:29:23Z</time>
      </trkpt>
      <trkpt lat="45.888" lon="4.73123">
        <ele>182</ele>
        <time>2018-09-26T09:29:24Z</time>
      </trkpt>
      <trkpt lat="45.88808" lon="4.7312">
        <ele>182</ele>
        <time>2018-09-26T09:29:26Z</time>
      </trkpt>
      <trkpt lat="45.8881" lon="4.73119">
        <ele>182</ele>
        <time>2018-09-26T09:29:27Z</time>
      </trkpt>
      <trkpt lat="45.88818" lon="4.73116">
        <ele>182</ele>
        <time>2018-09-26T09:29:29Z</time>
      </trkpt>
      <trkpt lat="45.88822" lon="4.73113">
        <ele>182</ele>
        <time>2018-09-26T09:29:30Z</time>
      </trkpt>
      <trkpt lat="45.8883" lon="4.73111">
        <ele>182</ele>
        <time>2018-09-26T09:29:32Z</time>
      </trkpt>
      <trkpt lat="45.88834" lon="4.7311">
        <ele>182</ele>
        <time>2018-09-26T09:29:33Z</time>
      </trkpt>
      <trkpt lat="45.88843" lon="4.73109">
        <ele>182</ele>
        <time>2018-09-26T09:29:35Z</time>
      </trkpt>
      <trkpt lat="45.88848" lon="4.73105">
        <ele>182</ele>
        <time>2018-09-26T09:29:36Z</time>
      </trkpt>
      <trkpt lat="45.88854" lon="4.73104">
        <ele>182</ele>
        <time>2018-09-26T09:29:37Z</time>
      </trkpt>
      <trkpt lat="45.8886" lon="4.73104">
        <ele>182</ele>
        <time>2018-09-26T09:29:38Z</time>
      </trkpt>
      <trkpt lat="45.88865" lon="4.73103">
        <ele>182</ele>
        <time>2018-09-26T09:29:39Z</time>
      </trkpt>
      <trkpt lat="45.88871" lon="4.731">
        <ele>182</ele>
        <time>2018-09-26T09:29:40Z</time>
      </trkpt>
      <trkpt lat="45.88879" lon="4.73099">
        <ele>182</ele>
        <time>2018-09-26T09:29:42Z</time>
      </trkpt>
      <trkpt lat="45.88885" lon="4.73098">
        <ele>182</ele>
        <time>2018-09-26T09:29:43Z</time>
      </trkpt>
      <trkpt lat="45.88889" lon="4.73098">
        <ele>182</ele>
        <time>2018-09-26T09:29:44Z</time>
      </trkpt>
      <trkpt lat="45.88894" lon="4.73097">
        <ele>182</ele>
        <time>2018-09-26T09:29:45Z</time>
      </trkpt>
      <trkpt lat="45.88899" lon="4.73095">
        <ele>182</ele>
        <time>2018-09-26T09:29:46Z</time>
      </trkpt>
      <trkpt lat="45.88904" lon="4.73093">
        <ele>182</ele>
        <time>2018-09-26T09:29:47Z</time>
      </trkpt>
      <trkpt lat="45.88909" lon="4.73093">
        <ele>183</ele>
        <time>2018-09-26T09:29:48Z</time>
      </trkpt>
      <trkpt lat="45.88913" lon="4.73091">
        <ele>183</ele>
        <time>2018-09-26T09:29:49Z</time>
      </trkpt>
      <trkpt lat="45.88922" lon="4.73089">
        <ele>183</ele>
        <time>2018-09-26T09:29:51Z</time>
      </trkpt>
      <trkpt lat="45.88926" lon="4.73086">
        <ele>183</ele>
        <time>2018-09-26T09:29:52Z</time>
      </trkpt>
      <trkpt lat="45.88931" lon="4.73084">
        <ele>183</ele>
        <time>2018-09-26T09:29:53Z</time>
      </trkpt>
      <trkpt lat="45.88936" lon="4.73082">
        <ele>183</ele>
        <time>2018-09-26T09:29:54Z</time>
      </trkpt>
      <trkpt lat="45.88941" lon="4.73081">
        <ele>183</ele>
        <time>2018-09-26T09:29:55Z</time>
      </trkpt>
      <trkpt lat="45.88945" lon="4.73078">
        <ele>183</ele>
        <time>2018-09-26T09:29:56Z</time>
      </trkpt>
      <trkpt lat="45.8895" lon="4.73072">
        <ele>183</ele>
        <time>2018-09-26T09:29:57Z</time>
      </trkpt>
      <trkpt lat="45.88956" lon="4.73071">
        <ele>183</ele>
        <time>2018-09-26T09:29:58Z</time>
      </trkpt>
      <trkpt lat="45.88961" lon="4.73069">
        <ele>183</ele>
        <time>2018-09-26T09:29:59Z</time>
      </trkpt>
      <trkpt lat="45.88966" lon="4.73068">
        <ele>183</ele>
        <time>2018-09-26T09:30:00Z</time>
      </trkpt>
      <trkpt lat="45.88971" lon="4.73067">
        <ele>183</ele>
        <time>2018-09-26T09:30:01Z</time>
      </trkpt>
      <trkpt lat="45.88976" lon="4.73067">
        <ele>183</ele>
        <time>2018-09-26T09:30:02Z</time>
      </trkpt>
      <trkpt lat="45.88983" lon="4.73065">
        <ele>183</ele>
        <time>2018-09-26T09:30:04Z</time>
      </trkpt>
      <trkpt lat="45.8899" lon="4.73062">
        <ele>183</ele>
        <time>2018-09-26T09:30:05Z</time>
      </trkpt>
      <trkpt lat="45.88995" lon="4.73061">
        <ele>183</ele>
        <time>2018-09-26T09:30:06Z</time>
      </trkpt>
      <trkpt lat="45.88999" lon="4.7306">
        <ele>183</ele>
        <time>2018-09-26T09:30:07Z</time>
      </trkpt>
      <trkpt lat="45.89004" lon="4.73059">
        <ele>182</ele>
        <time>2018-09-26T09:30:08Z</time>
      </trkpt>
      <trkpt lat="45.89008" lon="4.73059">
        <ele>182</ele>
        <time>2018-09-26T09:30:09Z</time>
      </trkpt>
      <trkpt lat="45.89017" lon="4.73057">
        <ele>182</ele>
        <time>2018-09-26T09:30:11Z</time>
      </trkpt>
      <trkpt lat="45.89019" lon="4.73059">
        <ele>182</ele>
        <time>2018-09-26T09:30:12Z</time>
      </trkpt>
      <trkpt lat="45.89023" lon="4.7306">
        <ele>182</ele>
        <time>2018-09-26T09:30:13Z</time>
      </trkpt>
      <trkpt lat="45.89028" lon="4.73059">
        <ele>182</ele>
        <time>2018-09-26T09:30:14Z</time>
      </trkpt>
      <trkpt lat="45.89035" lon="4.73056">
        <ele>182</ele>
        <time>2018-09-26T09:30:16Z</time>
      </trkpt>
      <trkpt lat="45.89039" lon="4.73055">
        <ele>182</ele>
        <time>2018-09-26T09:30:17Z</time>
      </trkpt>
      <trkpt lat="45.89047" lon="4.73058">
        <ele>182</ele>
        <time>2018-09-26T09:30:20Z</time>
      </trkpt>
      <trkpt lat="45.89049" lon="4.73059">
        <ele>182</ele>
        <time>2018-09-26T09:30:21Z</time>
      </trkpt>
      <trkpt lat="45.89056" lon="4.73065">
        <ele>182</ele>
        <time>2018-09-26T09:30:25Z</time>
      </trkpt>
      <trkpt lat="45.89057" lon="4.73068">
        <ele>182</ele>
        <time>2018-09-26T09:30:26Z</time>
      </trkpt>
      <trkpt lat="45.89058" lon="4.73077">
        <ele>182</ele>
        <time>2018-09-26T09:30:29Z</time>
      </trkpt>
      <trkpt lat="45.89058" lon="4.73081">
        <ele>182</ele>
        <time>2018-09-26T09:30:30Z</time>
      </trkpt>
      <trkpt lat="45.89056" lon="4.73093">
        <ele>182</ele>
        <time>2018-09-26T09:30:33Z</time>
      </trkpt>
      <trkpt lat="45.89056" lon="4.73096">
        <ele>182</ele>
        <time>2018-09-26T09:30:34Z</time>
      </trkpt>
      <trkpt lat="45.89055" lon="4.73107">
        <ele>182</ele>
        <time>2018-09-26T09:30:37Z</time>
      </trkpt>
      <trkpt lat="45.89055" lon="4.7311">
        <ele>182</ele>
        <time>2018-09-26T09:30:38Z</time>
      </trkpt>
      <trkpt lat="45.89056" lon="4.73119">
        <ele>182</ele>
        <time>2018-09-26T09:30:40Z</time>
      </trkpt>
      <trkpt lat="45.89057" lon="4.73123">
        <ele>182</ele>
        <time>2018-09-26T09:30:41Z</time>
      </trkpt>
      <trkpt lat="45.89059" lon="4.73132">
        <ele>182</ele>
        <time>2018-09-26T09:30:43Z</time>
      </trkpt>
      <trkpt lat="45.8906" lon="4.73137">
        <ele>181</ele>
        <time>2018-09-26T09:30:44Z</time>
      </trkpt>
      <trkpt lat="45.89062" lon="4.73148">
        <ele>181</ele>
        <time>2018-09-26T09:30:46Z</time>
      </trkpt>
      <trkpt lat="45.89063" lon="4.73163">
        <ele>181</ele>
        <time>2018-09-26T09:30:47Z</time>
      </trkpt>
      <trkpt lat="45.89064" lon="4.73174">
        <ele>180</ele>
        <time>2018-09-26T09:30:49Z</time>
      </trkpt>
      <trkpt lat="45.89064" lon="4.7318">
        <ele>180</ele>
        <time>2018-09-26T09:30:50Z</time>
      </trkpt>
      <trkpt lat="45.89064" lon="4.7319">
        <ele>180</ele>
        <time>2018-09-26T09:30:53Z</time>
      </trkpt>
      <trkpt lat="45.89064" lon="4.73193">
        <ele>180</ele>
        <time>2018-09-26T09:30:54Z</time>
      </trkpt>
      <trkpt lat="45.89064" lon="4.73206">
        <ele>180</ele>
        <time>2018-09-26T09:30:57Z</time>
      </trkpt>
      <trkpt lat="45.89064" lon="4.73211">
        <ele>180</ele>
        <time>2018-09-26T09:30:58Z</time>
      </trkpt>
      <trkpt lat="45.89064" lon="4.73225">
        <ele>180</ele>
        <time>2018-09-26T09:30:59Z</time>
      </trkpt>
      <trkpt lat="45.89065" lon="4.73236">
        <ele>180</ele>
        <time>2018-09-26T09:31:01Z</time>
      </trkpt>
      <trkpt lat="45.89066" lon="4.73241">
        <ele>180</ele>
        <time>2018-09-26T09:31:02Z</time>
      </trkpt>
      <trkpt lat="45.89067" lon="4.73253">
        <ele>179</ele>
        <time>2018-09-26T09:31:04Z</time>
      </trkpt>
      <trkpt lat="45.89068" lon="4.73258">
        <ele>179</ele>
        <time>2018-09-26T09:31:05Z</time>
      </trkpt>
      <trkpt lat="45.8907" lon="4.73268">
        <ele>179</ele>
        <time>2018-09-26T09:31:08Z</time>
      </trkpt>
      <trkpt lat="45.8907" lon="4.73272">
        <ele>179</ele>
        <time>2018-09-26T09:31:09Z</time>
      </trkpt>
      <trkpt lat="45.89073" lon="4.73283">
        <ele>179</ele>
        <time>2018-09-26T09:31:10Z</time>
      </trkpt>
      <trkpt lat="45.89074" lon="4.73288">
        <ele>179</ele>
        <time>2018-09-26T09:31:11Z</time>
      </trkpt>
      <trkpt lat="45.89078" lon="4.73299">
        <ele>179</ele>
        <time>2018-09-26T09:31:13Z</time>
      </trkpt>
      <trkpt lat="45.89079" lon="4.73305">
        <ele>179</ele>
        <time>2018-09-26T09:31:14Z</time>
      </trkpt>
      <trkpt lat="45.89081" lon="4.73316">
        <ele>179</ele>
        <time>2018-09-26T09:31:16Z</time>
      </trkpt>
      <trkpt lat="45.89081" lon="4.73319">
        <ele>179</ele>
        <time>2018-09-26T09:31:17Z</time>
      </trkpt>
      <trkpt lat="45.89082" lon="4.73327">
        <ele>179</ele>
        <time>2018-09-26T09:31:18Z</time>
      </trkpt>
      <trkpt lat="45.89082" lon="4.73334">
        <ele>179</ele>
        <time>2018-09-26T09:31:19Z</time>
      </trkpt>
      <trkpt lat="45.89082" lon="4.7334">
        <ele>179</ele>
        <time>2018-09-26T09:31:20Z</time>
      </trkpt>
      <trkpt lat="45.89083" lon="4.73347">
        <ele>179</ele>
        <time>2018-09-26T09:31:21Z</time>
      </trkpt>
      <trkpt lat="45.89083" lon="4.73359">
        <ele>180</ele>
        <time>2018-09-26T09:31:23Z</time>
      </trkpt>
      <trkpt lat="45.89085" lon="4.73365">
        <ele>179</ele>
        <time>2018-09-26T09:31:24Z</time>
      </trkpt>
      <trkpt lat="45.89087" lon="4.73375">
        <ele>179</ele>
        <time>2018-09-26T09:31:26Z</time>
      </trkpt>
      <trkpt lat="45.89087" lon="4.73381">
        <ele>179</ele>
        <time>2018-09-26T09:31:27Z</time>
      </trkpt>
      <trkpt lat="45.89087" lon="4.7339">
        <ele>179</ele>
        <time>2018-09-26T09:31:30Z</time>
      </trkpt>
      <trkpt lat="45.89087" lon="4.73394">
        <ele>179</ele>
        <time>2018-09-26T09:31:31Z</time>
      </trkpt>
      <trkpt lat="45.89088" lon="4.73402">
        <ele>180</ele>
        <time>2018-09-26T09:31:33Z</time>
      </trkpt>
      <trkpt lat="45.89088" lon="4.73406">
        <ele>180</ele>
        <time>2018-09-26T09:31:34Z</time>
      </trkpt>
      <trkpt lat="45.89089" lon="4.7342">
        <ele>180</ele>
        <time>2018-09-26T09:31:35Z</time>
      </trkpt>
      <trkpt lat="45.89089" lon="4.73425">
        <ele>180</ele>
        <time>2018-09-26T09:31:38Z</time>
      </trkpt>
      <trkpt lat="45.89092" lon="4.73448">
        <ele>180</ele>
        <time>2018-09-26T09:31:49Z</time>
      </trkpt>
      <trkpt lat="45.89095" lon="4.73468">
        <ele>180</ele>
        <time>2018-09-26T09:31:50Z</time>
      </trkpt>
      <trkpt lat="45.89097" lon="4.73478">
        <ele>180</ele>
        <time>2018-09-26T09:31:51Z</time>
      </trkpt>
      <trkpt lat="45.89098" lon="4.73485">
        <ele>180</ele>
        <time>2018-09-26T09:31:52Z</time>
      </trkpt>
      <trkpt lat="45.89099" lon="4.73494">
        <ele>180</ele>
        <time>2018-09-26T09:31:52.672Z</time>
      </trkpt>
      <trkpt lat="45.891" lon="4.73506">
        <ele>181</ele>
        <time>2018-09-26T09:31:54Z</time>
      </trkpt>
      <trkpt lat="45.89101" lon="4.73519">
        <ele>181</ele>
        <time>2018-09-26T09:31:56Z</time>
      </trkpt>
      <trkpt lat="45.89102" lon="4.73524">
        <ele>181</ele>
        <time>2018-09-26T09:31:57Z</time>
      </trkpt>
      <trkpt lat="45.89102" lon="4.73536">
        <ele>181</ele>
        <time>2018-09-26T09:32:00Z</time>
      </trkpt>
      <trkpt lat="45.89101" lon="4.73539">
        <ele>181</ele>
        <time>2018-09-26T09:32:01Z</time>
      </trkpt>
      <trkpt lat="45.891" lon="4.73549">
        <ele>181</ele>
        <time>2018-09-26T09:32:02Z</time>
      </trkpt>
      <trkpt lat="45.891" lon="4.73555">
        <ele>181</ele>
        <time>2018-09-26T09:32:03Z</time>
      </trkpt>
      <trkpt lat="45.89103" lon="4.73565">
        <ele>181</ele>
        <time>2018-09-26T09:32:04Z</time>
      </trkpt>
      <trkpt lat="45.89104" lon="4.73572">
        <ele>181</ele>
        <time>2018-09-26T09:32:05Z</time>
      </trkpt>
      <trkpt lat="45.89106" lon="4.73582">
        <ele>181</ele>
        <time>2018-09-26T09:32:07Z</time>
      </trkpt>
      <trkpt lat="45.89107" lon="4.73585">
        <ele>181</ele>
        <time>2018-09-26T09:32:08Z</time>
      </trkpt>
      <trkpt lat="45.89111" lon="4.73596">
        <ele>181</ele>
        <time>2018-09-26T09:32:11Z</time>
      </trkpt>
      <trkpt lat="45.89113" lon="4.73601">
        <ele>181</ele>
        <time>2018-09-26T09:32:12Z</time>
      </trkpt>
      <trkpt lat="45.89115" lon="4.7361">
        <ele>181</ele>
        <time>2018-09-26T09:32:14Z</time>
      </trkpt>
      <trkpt lat="45.89116" lon="4.73617">
        <ele>181</ele>
        <time>2018-09-26T09:32:15Z</time>
      </trkpt>
      <trkpt lat="45.89118" lon="4.73624">
        <ele>181</ele>
        <time>2018-09-26T09:32:17Z</time>
      </trkpt>
      <trkpt lat="45.89121" lon="4.73631">
        <ele>181</ele>
        <time>2018-09-26T09:32:18Z</time>
      </trkpt>
      <trkpt lat="45.89123" lon="4.73643">
        <ele>181</ele>
        <time>2018-09-26T09:32:20Z</time>
      </trkpt>
      <trkpt lat="45.89123" lon="4.73649">
        <ele>181</ele>
        <time>2018-09-26T09:32:21Z</time>
      </trkpt>
      <trkpt lat="45.89118" lon="4.73659">
        <ele>182</ele>
        <time>2018-09-26T09:32:23Z</time>
      </trkpt>
      <trkpt lat="45.89118" lon="4.73661">
        <ele>182</ele>
        <time>2018-09-26T09:32:24Z</time>
      </trkpt>
      <trkpt lat="45.89116" lon="4.73667">
        <ele>182</ele>
        <time>2018-09-26T09:32:27Z</time>
      </trkpt>
      <trkpt lat="45.89114" lon="4.73679">
        <ele>182</ele>
        <time>2018-09-26T09:32:28Z</time>
      </trkpt>
      <trkpt lat="45.89113" lon="4.73686">
        <ele>182</ele>
        <time>2018-09-26T09:32:29Z</time>
      </trkpt>
      <trkpt lat="45.89113" lon="4.73696">
        <ele>182</ele>
        <time>2018-09-26T09:32:30Z</time>
      </trkpt>
      <trkpt lat="45.89114" lon="4.73705">
        <ele>182</ele>
        <time>2018-09-26T09:32:31Z</time>
      </trkpt>
      <trkpt lat="45.89114" lon="4.73711">
        <ele>182</ele>
        <time>2018-09-26T09:32:32Z</time>
      </trkpt>
      <trkpt lat="45.89114" lon="4.73716">
        <ele>182</ele>
        <time>2018-09-26T09:32:33Z</time>
      </trkpt>
      <trkpt lat="45.89115" lon="4.73724">
        <ele>181</ele>
        <time>2018-09-26T09:32:34Z</time>
      </trkpt>
      <trkpt lat="45.89115" lon="4.73733">
        <ele>181</ele>
        <time>2018-09-26T09:32:37Z</time>
      </trkpt>
      <trkpt lat="45.89115" lon="4.73738">
        <ele>181</ele>
        <time>2018-09-26T09:32:38Z</time>
      </trkpt>
      <trkpt lat="45.89115" lon="4.73742">
        <ele>181</ele>
        <time>2018-09-26T09:32:39Z</time>
      </trkpt>
      <trkpt lat="45.89114" lon="4.73754">
        <ele>181</ele>
        <time>2018-09-26T09:32:40Z</time>
      </trkpt>
      <trkpt lat="45.89115" lon="4.73766">
        <ele>181</ele>
        <time>2018-09-26T09:32:42Z</time>
      </trkpt>
      <trkpt lat="45.89115" lon="4.73769">
        <ele>181</ele>
        <time>2018-09-26T09:32:43Z</time>
      </trkpt>
      <trkpt lat="45.89114" lon="4.73777">
        <ele>181</ele>
        <time>2018-09-26T09:32:44Z</time>
      </trkpt>
      <trkpt lat="45.89114" lon="4.73784">
        <ele>181</ele>
        <time>2018-09-26T09:32:45Z</time>
      </trkpt>
      <trkpt lat="45.89114" lon="4.73791">
        <ele>181</ele>
        <time>2018-09-26T09:32:46Z</time>
      </trkpt>
      <trkpt lat="45.89115" lon="4.73797">
        <ele>181</ele>
        <time>2018-09-26T09:32:47Z</time>
      </trkpt>
      <trkpt lat="45.89116" lon="4.7381">
        <ele>181</ele>
        <time>2018-09-26T09:32:49Z</time>
      </trkpt>
      <trkpt lat="45.89117" lon="4.73815">
        <ele>181</ele>
        <time>2018-09-26T09:32:50Z</time>
      </trkpt>
      <trkpt lat="45.89118" lon="4.73827">
        <ele>181</ele>
        <time>2018-09-26T09:32:52Z</time>
      </trkpt>
      <trkpt lat="45.89119" lon="4.7383">
        <ele>181</ele>
        <time>2018-09-26T09:32:53Z</time>
      </trkpt>
      <trkpt lat="45.8912" lon="4.73838">
        <ele>182</ele>
        <time>2018-09-26T09:32:54Z</time>
      </trkpt>
      <trkpt lat="45.8912" lon="4.73845">
        <ele>182</ele>
        <time>2018-09-26T09:32:55Z</time>
      </trkpt>
      <trkpt lat="45.89121" lon="4.73851">
        <ele>182</ele>
        <time>2018-09-26T09:32:56Z</time>
      </trkpt>
      <trkpt lat="45.89122" lon="4.73858">
        <ele>182</ele>
        <time>2018-09-26T09:32:57Z</time>
      </trkpt>
      <trkpt lat="45.89122" lon="4.73864">
        <ele>182</ele>
        <time>2018-09-26T09:32:58Z</time>
      </trkpt>
      <trkpt lat="45.89123" lon="4.73871">
        <ele>182</ele>
        <time>2018-09-26T09:32:59Z</time>
      </trkpt>
      <trkpt lat="45.89124" lon="4.73882">
        <ele>182</ele>
        <time>2018-09-26T09:33:01Z</time>
      </trkpt>
      <trkpt lat="45.89123" lon="4.73888">
        <ele>182</ele>
        <time>2018-09-26T09:33:02Z</time>
      </trkpt>
      <trkpt lat="45.89123" lon="4.73899">
        <ele>182</ele>
        <time>2018-09-26T09:33:04Z</time>
      </trkpt>
      <trkpt lat="45.89122" lon="4.73905">
        <ele>182</ele>
        <time>2018-09-26T09:33:05Z</time>
      </trkpt>
      <trkpt lat="45.89122" lon="4.73911">
        <ele>182</ele>
        <time>2018-09-26T09:33:06Z</time>
      </trkpt>
      <trkpt lat="45.89122" lon="4.7392">
        <ele>183</ele>
        <time>2018-09-26T09:33:07Z</time>
      </trkpt>
      <trkpt lat="45.89122" lon="4.73928">
        <ele>183</ele>
        <time>2018-09-26T09:33:08Z</time>
      </trkpt>
      <trkpt lat="45.89123" lon="4.73936">
        <ele>183</ele>
        <time>2018-09-26T09:33:09Z</time>
      </trkpt>
      <trkpt lat="45.89124" lon="4.73946">
        <ele>183</ele>
        <time>2018-09-26T09:33:10Z</time>
      </trkpt>
      <trkpt lat="45.89124" lon="4.73952">
        <ele>183</ele>
        <time>2018-09-26T09:33:11Z</time>
      </trkpt>
      <trkpt lat="45.89125" lon="4.73964">
        <ele>183</ele>
        <time>2018-09-26T09:33:13Z</time>
      </trkpt>
      <trkpt lat="45.89124" lon="4.73971">
        <ele>183</ele>
        <time>2018-09-26T09:33:14Z</time>
      </trkpt>
      <trkpt lat="45.89123" lon="4.73983">
        <ele>183</ele>
        <time>2018-09-26T09:33:17Z</time>
      </trkpt>
      <trkpt lat="45.8912" lon="4.73989">
        <ele>183</ele>
        <time>2018-09-26T09:33:18Z</time>
      </trkpt>
      <trkpt lat="45.89115" lon="4.73992">
        <ele>183</ele>
        <time>2018-09-26T09:33:19Z</time>
      </trkpt>
      <trkpt lat="45.8911" lon="4.73993">
        <ele>183</ele>
        <time>2018-09-26T09:33:20Z</time>
      </trkpt>
      <trkpt lat="45.89102" lon="4.73994">
        <ele>183</ele>
        <time>2018-09-26T09:33:22Z</time>
      </trkpt>
      <trkpt lat="45.89098" lon="4.73994">
        <ele>183</ele>
        <time>2018-09-26T09:33:23Z</time>
      </trkpt>
      <trkpt lat="45.8909" lon="4.73995">
        <ele>183</ele>
        <time>2018-09-26T09:33:25Z</time>
      </trkpt>
      <trkpt lat="45.89088" lon="4.73995">
        <ele>183</ele>
        <time>2018-09-26T09:33:26Z</time>
      </trkpt>
      <trkpt lat="45.89083" lon="4.73997">
        <ele>183</ele>
        <time>2018-09-26T09:33:28Z</time>
      </trkpt>
      <trkpt lat="45.89076" lon="4.74">
        <ele>183</ele>
        <time>2018-09-26T09:33:29Z</time>
      </trkpt>
      <trkpt lat="45.89067" lon="4.74">
        <ele>184</ele>
        <time>2018-09-26T09:33:32Z</time>
      </trkpt>
      <trkpt lat="45.89064" lon="4.74001">
        <ele>184</ele>
        <time>2018-09-26T09:33:33Z</time>
      </trkpt>
      <trkpt lat="45.89058" lon="4.74002">
        <ele>184</ele>
        <time>2018-09-26T09:33:34Z</time>
      </trkpt>
      <trkpt lat="45.89054" lon="4.74003">
        <ele>184</ele>
        <time>2018-09-26T09:33:35Z</time>
      </trkpt>
      <trkpt lat="45.89047" lon="4.74006">
        <ele>184</ele>
        <time>2018-09-26T09:33:37Z</time>
      </trkpt>
      <trkpt lat="45.89045" lon="4.74008">
        <ele>184</ele>
        <time>2018-09-26T09:33:38Z</time>
      </trkpt>
      <trkpt lat="45.89039" lon="4.74015">
        <ele>184</ele>
        <time>2018-09-26T09:33:41Z</time>
      </trkpt>
      <trkpt lat="45.89038" lon="4.74018">
        <ele>184</ele>
        <time>2018-09-26T09:33:42Z</time>
      </trkpt>
      <trkpt lat="45.89037" lon="4.74022">
        <ele>184</ele>
        <time>2018-09-26T09:33:43Z</time>
      </trkpt>
      <trkpt lat="45.89036" lon="4.74036">
        <ele>184</ele>
        <time>2018-09-26T09:33:44Z</time>
      </trkpt>
      <trkpt lat="45.89037" lon="4.74048">
        <ele>184</ele>
        <time>2018-09-26T09:33:46Z</time>
      </trkpt>
      <trkpt lat="45.8904" lon="4.74056">
        <ele>184</ele>
        <time>2018-09-26T09:33:47Z</time>
      </trkpt>
      <trkpt lat="45.89039" lon="4.74063">
        <ele>184</ele>
        <time>2018-09-26T09:33:48Z</time>
      </trkpt>
      <trkpt lat="45.89039" lon="4.74069">
        <ele>184</ele>
        <time>2018-09-26T09:33:49Z</time>
      </trkpt>
      <trkpt lat="45.89038" lon="4.74082">
        <ele>184</ele>
        <time>2018-09-26T09:33:51Z</time>
      </trkpt>
      <trkpt lat="45.89037" lon="4.74089">
        <ele>185</ele>
        <time>2018-09-26T09:33:52Z</time>
      </trkpt>
      <trkpt lat="45.89037" lon="4.74101">
        <ele>185</ele>
        <time>2018-09-26T09:33:55Z</time>
      </trkpt>
      <trkpt lat="45.89038" lon="4.74104">
        <ele>185</ele>
        <time>2018-09-26T09:33:56Z</time>
      </trkpt>
      <trkpt lat="45.89038" lon="4.74115">
        <ele>185</ele>
        <time>2018-09-26T09:33:59Z</time>
      </trkpt>
      <trkpt lat="45.89037" lon="4.74119">
        <ele>185</ele>
        <time>2018-09-26T09:34:00Z</time>
      </trkpt>
      <trkpt lat="45.89037" lon="4.74132">
        <ele>185</ele>
        <time>2018-09-26T09:34:01Z</time>
      </trkpt>
      <trkpt lat="45.89035" lon="4.74142">
        <ele>185</ele>
        <time>2018-09-26T09:34:03Z</time>
      </trkpt>
      <trkpt lat="45.89034" lon="4.74145">
        <ele>185</ele>
        <time>2018-09-26T09:34:04Z</time>
      </trkpt>
      <trkpt lat="45.89029" lon="4.74152">
        <ele>185</ele>
        <time>2018-09-26T09:34:05Z</time>
      </trkpt>
      <trkpt lat="45.89028" lon="4.74159">
        <ele>185</ele>
        <time>2018-09-26T09:34:06Z</time>
      </trkpt>
      <trkpt lat="45.89025" lon="4.74166">
        <ele>185</ele>
        <time>2018-09-26T09:34:09Z</time>
      </trkpt>
      <trkpt lat="45.89021" lon="4.74176">
        <ele>185</ele>
        <time>2018-09-26T09:34:10Z</time>
      </trkpt>
      <trkpt lat="45.89018" lon="4.74186">
        <ele>186</ele>
        <time>2018-09-26T09:34:12Z</time>
      </trkpt>
      <trkpt lat="45.89015" lon="4.7419">
        <ele>186</ele>
        <time>2018-09-26T09:34:13Z</time>
      </trkpt>
      <trkpt lat="45.89013" lon="4.74195">
        <ele>186</ele>
        <time>2018-09-26T09:34:14Z</time>
      </trkpt>
      <trkpt lat="45.89015" lon="4.74203">
        <ele>186</ele>
        <time>2018-09-26T09:34:15Z</time>
      </trkpt>
      <trkpt lat="45.89012" lon="4.74216">
        <ele>186</ele>
        <time>2018-09-26T09:34:18Z</time>
      </trkpt>
      <trkpt lat="45.89012" lon="4.7422">
        <ele>186</ele>
        <time>2018-09-26T09:34:19Z</time>
      </trkpt>
      <trkpt lat="45.89013" lon="4.7423">
        <ele>186</ele>
        <time>2018-09-26T09:34:22Z</time>
      </trkpt>
      <trkpt lat="45.89014" lon="4.74232">
        <ele>186</ele>
        <time>2018-09-26T09:34:23Z</time>
      </trkpt>
      <trkpt lat="45.89021" lon="4.74241">
        <ele>186</ele>
        <time>2018-09-26T09:34:26Z</time>
      </trkpt>
      <trkpt lat="45.89022" lon="4.74244">
        <ele>186</ele>
        <time>2018-09-26T09:34:27Z</time>
      </trkpt>
      <trkpt lat="45.89025" lon="4.74256">
        <ele>187</ele>
        <time>2018-09-26T09:34:30Z</time>
      </trkpt>
      <trkpt lat="45.89025" lon="4.74259">
        <ele>187</ele>
        <time>2018-09-26T09:34:31Z</time>
      </trkpt>
      <trkpt lat="45.89024" lon="4.74272">
        <ele>187</ele>
        <time>2018-09-26T09:34:49Z</time>
      </trkpt>
      <trkpt lat="45.89024" lon="4.74273">
        <ele>187</ele>
        <time>2018-09-26T09:34:50Z</time>
      </trkpt>
      <trkpt lat="45.89019" lon="4.74281">
        <ele>187</ele>
        <time>2018-09-26T09:34:56Z</time>
      </trkpt>
      <trkpt lat="45.89016" lon="4.74284">
        <ele>187</ele>
        <time>2018-09-26T09:35:01Z</time>
      </trkpt>
      <trkpt lat="45.8901" lon="4.74288">
        <ele>187</ele>
        <time>2018-09-26T09:35:03Z</time>
      </trkpt>
      <trkpt lat="45.89007" lon="4.74288">
        <ele>187</ele>
        <time>2018-09-26T09:35:04Z</time>
      </trkpt>
      <trkpt lat="45.88999" lon="4.74288">
        <ele>187</ele>
        <time>2018-09-26T09:35:06Z</time>
      </trkpt>
      <trkpt lat="45.88996" lon="4.74288">
        <ele>187</ele>
        <time>2018-09-26T09:35:07Z</time>
      </trkpt>
      <trkpt lat="45.88988" lon="4.74293">
        <ele>187</ele>
        <time>2018-09-26T09:35:10Z</time>
      </trkpt>
      <trkpt lat="45.88986" lon="4.74295">
        <ele>187</ele>
        <time>2018-09-26T09:35:11Z</time>
      </trkpt>
      <trkpt lat="45.88981" lon="4.74303">
        <ele>187</ele>
        <time>2018-09-26T09:35:14Z</time>
      </trkpt>
      <trkpt lat="45.8898" lon="4.74306">
        <ele>187</ele>
        <time>2018-09-26T09:35:15Z</time>
      </trkpt>
      <trkpt lat="45.88977" lon="4.74309">
        <ele>187</ele>
        <time>2018-09-26T09:35:17Z</time>
      </trkpt>
      <trkpt lat="45.88973" lon="4.74317">
        <ele>187</ele>
        <time>2018-09-26T09:35:18Z</time>
      </trkpt>
      <trkpt lat="45.88971" lon="4.74328">
        <ele>187</ele>
        <time>2018-09-26T09:35:23Z</time>
      </trkpt>
      <trkpt lat="45.88971" lon="4.74332">
        <ele>187</ele>
        <time>2018-09-26T09:35:24Z</time>
      </trkpt>
      <trkpt lat="45.88968" lon="4.74342">
        <ele>188</ele>
        <time>2018-09-26T09:35:27Z</time>
      </trkpt>
      <trkpt lat="45.88967" lon="4.74345">
        <ele>188</ele>
        <time>2018-09-26T09:35:28Z</time>
      </trkpt>
      <trkpt lat="45.88964" lon="4.74356">
        <ele>188</ele>
        <time>2018-09-26T09:35:31Z</time>
      </trkpt>
      <trkpt lat="45.88963" lon="4.7436">
        <ele>188</ele>
        <time>2018-09-26T09:35:32Z</time>
      </trkpt>
      <trkpt lat="45.88959" lon="4.7437">
        <ele>188</ele>
        <time>2018-09-26T09:35:35Z</time>
      </trkpt>
      <trkpt lat="45.88957" lon="4.74373">
        <ele>188</ele>
        <time>2018-09-26T09:35:36Z</time>
      </trkpt>
      <trkpt lat="45.88954" lon="4.74381">
        <ele>188</ele>
        <time>2018-09-26T09:35:40Z</time>
      </trkpt>
      <trkpt lat="45.88949" lon="4.74393">
        <ele>188</ele>
        <time>2018-09-26T09:35:41Z</time>
      </trkpt>
      <trkpt lat="45.88942" lon="4.744">
        <ele>188</ele>
        <time>2018-09-26T09:35:45Z</time>
      </trkpt>
      <trkpt lat="45.88941" lon="4.74402">
        <ele>188</ele>
        <time>2018-09-26T09:35:46Z</time>
      </trkpt>
      <trkpt lat="45.88937" lon="4.74412">
        <ele>188</ele>
        <time>2018-09-26T09:35:50Z</time>
      </trkpt>
      <trkpt lat="45.88937" lon="4.74415">
        <ele>188</ele>
        <time>2018-09-26T09:35:51Z</time>
      </trkpt>
      <trkpt lat="45.88942" lon="4.74424">
        <ele>188</ele>
        <time>2018-09-26T09:35:54Z</time>
      </trkpt>
      <trkpt lat="45.88944" lon="4.74426">
        <ele>188</ele>
        <time>2018-09-26T09:35:55Z</time>
      </trkpt>
      <trkpt lat="45.88949" lon="4.7443">
        <ele>188</ele>
        <time>2018-09-26T09:35:57Z</time>
      </trkpt>
      <trkpt lat="45.88952" lon="4.74432">
        <ele>188</ele>
        <time>2018-09-26T09:35:58Z</time>
      </trkpt>
      <trkpt lat="45.88959" lon="4.74435">
        <ele>188</ele>
        <time>2018-09-26T09:36:00Z</time>
      </trkpt>
      <trkpt lat="45.88963" lon="4.74437">
        <ele>188</ele>
        <time>2018-09-26T09:36:01Z</time>
      </trkpt>
      <trkpt lat="45.8897" lon="4.74438">
        <ele>188</ele>
        <time>2018-09-26T09:36:03Z</time>
      </trkpt>
      <trkpt lat="45.88973" lon="4.74439">
        <ele>188</ele>
        <time>2018-09-26T09:36:04Z</time>
      </trkpt>
      <trkpt lat="45.8898" lon="4.74444">
        <ele>188</ele>
        <time>2018-09-26T09:36:06Z</time>
      </trkpt>
      <trkpt lat="45.88982" lon="4.74446">
        <ele>188</ele>
        <time>2018-09-26T09:36:07Z</time>
      </trkpt>
      <trkpt lat="45.88987" lon="4.74452">
        <ele>188</ele>
        <time>2018-09-26T09:36:09Z</time>
      </trkpt>
      <trkpt lat="45.8899" lon="4.74455">
        <ele>188</ele>
        <time>2018-09-26T09:36:10Z</time>
      </trkpt>
      <trkpt lat="45.88995" lon="4.74461">
        <ele>189</ele>
        <time>2018-09-26T09:36:12Z</time>
      </trkpt>
      <trkpt lat="45.88998" lon="4.74464">
        <ele>189</ele>
        <time>2018-09-26T09:36:13Z</time>
      </trkpt>
      <trkpt lat="45.89003" lon="4.74469">
        <ele>188</ele>
        <time>2018-09-26T09:36:15Z</time>
      </trkpt>
      <trkpt lat="45.89004" lon="4.74472">
        <ele>188</ele>
        <time>2018-09-26T09:36:16Z</time>
      </trkpt>
      <trkpt lat="45.89005" lon="4.74484">
        <ele>189</ele>
        <time>2018-09-26T09:36:19Z</time>
      </trkpt>
      <trkpt lat="45.89005" lon="4.74488">
        <ele>189</ele>
        <time>2018-09-26T09:36:20Z</time>
      </trkpt>
      <trkpt lat="45.89005" lon="4.74499">
        <ele>189</ele>
        <time>2018-09-26T09:36:24Z</time>
      </trkpt>
      <trkpt lat="45.8901" lon="4.74504">
        <ele>189</ele>
        <time>2018-09-26T09:36:25Z</time>
      </trkpt>
      <trkpt lat="45.89018" lon="4.74506">
        <ele>189</ele>
        <time>2018-09-26T09:36:29Z</time>
      </trkpt>
      <trkpt lat="45.8902" lon="4.74507">
        <ele>189</ele>
        <time>2018-09-26T09:36:30Z</time>
      </trkpt>
      <trkpt lat="45.89026" lon="4.74515">
        <ele>189</ele>
        <time>2018-09-26T09:36:40Z</time>
      </trkpt>
      <trkpt lat="45.89026" lon="4.74517">
        <ele>189</ele>
        <time>2018-09-26T09:36:41Z</time>
      </trkpt>
      <trkpt lat="45.89022" lon="4.74529">
        <ele>189</ele>
        <time>2018-09-26T09:36:45Z</time>
      </trkpt>
      <trkpt lat="45.89021" lon="4.74532">
        <ele>189</ele>
        <time>2018-09-26T09:36:46Z</time>
      </trkpt>
      <trkpt lat="45.89019" lon="4.74543">
        <ele>189</ele>
        <time>2018-09-26T09:36:49Z</time>
      </trkpt>
      <trkpt lat="45.89018" lon="4.74546">
        <ele>190</ele>
        <time>2018-09-26T09:36:50Z</time>
      </trkpt>
      <trkpt lat="45.89018" lon="4.74557">
        <ele>190</ele>
        <time>2018-09-26T09:36:53Z</time>
      </trkpt>
      <trkpt lat="45.89018" lon="4.74561">
        <ele>190</ele>
        <time>2018-09-26T09:36:54Z</time>
      </trkpt>
      <trkpt lat="45.89018" lon="4.74573">
        <ele>190</ele>
        <time>2018-09-26T09:36:58Z</time>
      </trkpt>
      <trkpt lat="45.89018" lon="4.74577">
        <ele>190</ele>
        <time>2018-09-26T09:36:59Z</time>
      </trkpt>
      <trkpt lat="45.89019" lon="4.74588">
        <ele>191</ele>
        <time>2018-09-26T09:37:03Z</time>
      </trkpt>
      <trkpt lat="45.89019" lon="4.74591">
        <ele>191</ele>
        <time>2018-09-26T09:37:04Z</time>
      </trkpt>
      <trkpt lat="45.89019" lon="4.74603">
        <ele>191</ele>
        <time>2018-09-26T09:37:09Z</time>
      </trkpt>
      <trkpt lat="45.89019" lon="4.74606">
        <ele>191</ele>
        <time>2018-09-26T09:37:10Z</time>
      </trkpt>
      <trkpt lat="45.89018" lon="4.74617">
        <ele>191</ele>
        <time>2018-09-26T09:37:14Z</time>
      </trkpt>
      <trkpt lat="45.89018" lon="4.7462">
        <ele>191</ele>
        <time>2018-09-26T09:37:15Z</time>
      </trkpt>
      <trkpt lat="45.89019" lon="4.7463">
        <ele>192</ele>
        <time>2018-09-26T09:37:19Z</time>
      </trkpt>
      <trkpt lat="45.8902" lon="4.74633">
        <ele>192</ele>
        <time>2018-09-26T09:37:20Z</time>
      </trkpt>
      <trkpt lat="45.89022" lon="4.74644">
        <ele>192</ele>
        <time>2018-09-26T09:37:24Z</time>
      </trkpt>
      <trkpt lat="45.89022" lon="4.74646">
        <ele>192</ele>
        <time>2018-09-26T09:37:25Z</time>
      </trkpt>
      <trkpt lat="45.89017" lon="4.74656">
        <ele>192</ele>
        <time>2018-09-26T09:38:19Z</time>
      </trkpt>
      <trkpt lat="45.89017" lon="4.74656">
        <ele>192</ele>
        <time>2018-09-26T09:38:20Z</time>
      </trkpt>
      <trkpt lat="45.89009" lon="4.74663">
        <ele>193</ele>
        <time>2018-09-26T09:42:56Z</time>
      </trkpt>
      <trkpt lat="45.89009" lon="4.74663">
        <ele>193</ele>
        <time>2018-09-26T09:42:57Z</time>
      </trkpt>
      <trkpt lat="45.89007" lon="4.74663">
        <ele>193</ele>
        <time>2018-09-26T09:43:02Z</time>
      </trkpt>
      <trkpt lat="45.89007" lon="4.74663">
        <ele>193</ele>
        <time>2018-09-26T09:43:03Z</time>
      </trkpt>
      <trkpt lat="45.89007" lon="4.74663">
        <ele>193</ele>
        <time>2018-09-26T09:43:04Z</time>
      </trkpt>
      <trkpt lat="45.89007" lon="4.74662">
        <ele>193</ele>
        <time>2018-09-26T09:43:05Z</time>
      </trkpt>
      <trkpt lat="45.89007" lon="4.74662">
        <ele>193</ele>
        <time>2018-09-26T09:50:43Z</time>
      </trkpt>
      <trkpt lat="45.89008" lon="4.74662">
        <ele>193</ele>
        <time>2018-09-26T09:50:44Z</time>
      </trkpt>
      <trkpt lat="45.89008" lon="4.74662">
        <ele>193</ele>
        <time>2018-09-26T09:50:45Z</time>
      </trkpt>
      <trkpt lat="45.89009" lon="4.74663">
        <ele>193</ele>
        <time>2018-09-26T09:51:23.942Z</time>
      </trkpt>
      <trkpt lat="45.89009" lon="4.74663">
        <ele>193</ele>
        <time>2018-09-26T09:51:25Z</time>
      </trkpt>
      <trkpt lat="45.89009" lon="4.74661">
        <ele>193</ele>
        <time>2018-09-26T09:51:35Z</time>
      </trkpt>
      <trkpt lat="45.89009" lon="4.74661">
        <ele>193</ele>
        <time>2018-09-26T09:51:36Z</time>
      </trkpt>
      <trkpt lat="45.89005" lon="4.74672">
        <ele>194</ele>
        <time>2018-09-26T09:52:00Z</time>
      </trkpt>
      <trkpt lat="45.89005" lon="4.74674">
        <ele>194</ele>
        <time>2018-09-26T09:52:01Z</time>
      </trkpt>
      <trkpt lat="45.89005" lon="4.74687">
        <ele>194</ele>
        <time>2018-09-26T09:52:06Z</time>
      </trkpt>
      <trkpt lat="45.89006" lon="4.74689">
        <ele>195</ele>
        <time>2018-09-26T09:52:07Z</time>
      </trkpt>
      <trkpt lat="45.89008" lon="4.747">
        <ele>195</ele>
        <time>2018-09-26T09:52:11Z</time>
      </trkpt>
      <trkpt lat="45.89009" lon="4.74703">
        <ele>195</ele>
        <time>2018-09-26T09:52:12Z</time>
      </trkpt>
      <trkpt lat="45.89011" lon="4.74713">
        <ele>195</ele>
        <time>2018-09-26T09:52:16Z</time>
      </trkpt>
      <trkpt lat="45.89011" lon="4.74715">
        <ele>195</ele>
        <time>2018-09-26T09:52:17Z</time>
      </trkpt>
      <trkpt lat="45.89016" lon="4.74724">
        <ele>195</ele>
        <time>2018-09-26T09:52:22Z</time>
      </trkpt>
      <trkpt lat="45.89018" lon="4.74726">
        <ele>195</ele>
        <time>2018-09-26T09:52:23Z</time>
      </trkpt>
      <trkpt lat="45.89024" lon="4.74731">
        <ele>195</ele>
        <time>2018-09-26T09:52:27Z</time>
      </trkpt>
      <trkpt lat="45.89026" lon="4.74733">
        <ele>196</ele>
        <time>2018-09-26T09:52:28Z</time>
      </trkpt>
      <trkpt lat="45.89029" lon="4.74743">
        <ele>196</ele>
        <time>2018-09-26T09:52:31Z</time>
      </trkpt>
      <trkpt lat="45.89029" lon="4.74746">
        <ele>196</ele>
        <time>2018-09-26T09:52:32Z</time>
      </trkpt>
      <trkpt lat="45.8903" lon="4.74759">
        <ele>198</ele>
        <time>2018-09-26T09:52:36Z</time>
      </trkpt>
      <trkpt lat="45.89031" lon="4.74762">
        <ele>198</ele>
        <time>2018-09-26T09:52:37Z</time>
      </trkpt>
      <trkpt lat="45.89032" lon="4.74774">
        <ele>198</ele>
        <time>2018-09-26T09:52:41Z</time>
      </trkpt>
      <trkpt lat="45.89033" lon="4.74778">
        <ele>198</ele>
        <time>2018-09-26T09:52:42Z</time>
      </trkpt>
      <trkpt lat="45.89034" lon="4.74788">
        <ele>198</ele>
        <time>2018-09-26T09:52:45Z</time>
      </trkpt>
      <trkpt lat="45.89034" lon="4.74792">
        <ele>198</ele>
        <time>2018-09-26T09:52:46Z</time>
      </trkpt>
      <trkpt lat="45.89035" lon="4.74802">
        <ele>198</ele>
        <time>2018-09-26T09:52:49Z</time>
      </trkpt>
      <trkpt lat="45.89035" lon="4.74806">
        <ele>198</ele>
        <time>2018-09-26T09:52:50Z</time>
      </trkpt>
      <trkpt lat="45.89036" lon="4.74818">
        <ele>199</ele>
        <time>2018-09-26T09:52:53Z</time>
      </trkpt>
      <trkpt lat="45.89036" lon="4.74821">
        <ele>199</ele>
        <time>2018-09-26T09:52:54Z</time>
      </trkpt>
      <trkpt lat="45.89037" lon="4.74832">
        <ele>199</ele>
        <time>2018-09-26T09:52:57Z</time>
      </trkpt>
      <trkpt lat="45.89037" lon="4.74836">
        <ele>199</ele>
        <time>2018-09-26T09:52:58Z</time>
      </trkpt>
      <trkpt lat="45.89038" lon="4.74847">
        <ele>199</ele>
        <time>2018-09-26T09:53:01Z</time>
      </trkpt>
      <trkpt lat="45.89038" lon="4.74851">
        <ele>199</ele>
        <time>2018-09-26T09:53:02Z</time>
      </trkpt>
      <trkpt lat="45.89039" lon="4.74861">
        <ele>199</ele>
        <time>2018-09-26T09:53:05Z</time>
      </trkpt>
      <trkpt lat="45.8904" lon="4.74865">
        <ele>199</ele>
        <time>2018-09-26T09:53:06Z</time>
      </trkpt>
      <trkpt lat="45.89043" lon="4.74876">
        <ele>199</ele>
        <time>2018-09-26T09:53:09Z</time>
      </trkpt>
      <trkpt lat="45.89038" lon="4.74886">
        <ele>199</ele>
        <time>2018-09-26T09:53:10Z</time>
      </trkpt>
      <trkpt lat="45.89032" lon="4.74892">
        <ele>199</ele>
        <time>2018-09-26T09:53:14Z</time>
      </trkpt>
      <trkpt lat="45.8903" lon="4.74894">
        <ele>199</ele>
        <time>2018-09-26T09:53:15Z</time>
      </trkpt>
      <trkpt lat="45.89025" lon="4.74902">
        <ele>199</ele>
        <time>2018-09-26T09:53:18Z</time>
      </trkpt>
      <trkpt lat="45.89024" lon="4.74906">
        <ele>199</ele>
        <time>2018-09-26T09:53:19Z</time>
      </trkpt>
      <trkpt lat="45.8902" lon="4.74917">
        <ele>199</ele>
        <time>2018-09-26T09:53:22Z</time>
      </trkpt>
      <trkpt lat="45.89019" lon="4.74921">
        <ele>199</ele>
        <time>2018-09-26T09:53:23Z</time>
      </trkpt>
      <trkpt lat="45.89016" lon="4.74933">
        <ele>199</ele>
        <time>2018-09-26T09:53:24Z</time>
      </trkpt>
      <trkpt lat="45.89014" lon="4.74942">
        <ele>199</ele>
        <time>2018-09-26T09:53:27Z</time>
      </trkpt>
      <trkpt lat="45.89013" lon="4.74952">
        <ele>199</ele>
        <time>2018-09-26T09:53:28Z</time>
      </trkpt>
      <trkpt lat="45.89012" lon="4.74964">
        <ele>199</ele>
        <time>2018-09-26T09:53:32Z</time>
      </trkpt>
      <trkpt lat="45.89012" lon="4.74967">
        <ele>199</ele>
        <time>2018-09-26T09:53:33Z</time>
      </trkpt>
      <trkpt lat="45.89012" lon="4.74979">
        <ele>199</ele>
        <time>2018-09-26T09:53:36Z</time>
      </trkpt>
      <trkpt lat="45.89013" lon="4.74984">
        <ele>199</ele>
        <time>2018-09-26T09:53:37Z</time>
      </trkpt>
      <trkpt lat="45.89015" lon="4.74997">
        <ele>199</ele>
        <time>2018-09-26T09:53:38Z</time>
      </trkpt>
      <trkpt lat="45.89017" lon="4.75008">
        <ele>199</ele>
        <time>2018-09-26T09:53:40Z</time>
      </trkpt>
      <trkpt lat="45.89017" lon="4.75011">
        <ele>199</ele>
        <time>2018-09-26T09:53:41Z</time>
      </trkpt>
      <trkpt lat="45.89019" lon="4.75021">
        <ele>199</ele>
        <time>2018-09-26T09:53:44Z</time>
      </trkpt>
      <trkpt lat="45.8902" lon="4.75025">
        <ele>199</ele>
        <time>2018-09-26T09:53:45Z</time>
      </trkpt>
      <trkpt lat="45.89021" lon="4.75036">
        <ele>199</ele>
        <time>2018-09-26T09:53:48Z</time>
      </trkpt>
      <trkpt lat="45.89022" lon="4.75041">
        <ele>199</ele>
        <time>2018-09-26T09:53:49Z</time>
      </trkpt>
      <trkpt lat="45.89023" lon="4.75049">
        <ele>199</ele>
        <time>2018-09-26T09:53:51Z</time>
      </trkpt>
      <trkpt lat="45.89025" lon="4.75062">
        <ele>199</ele>
        <time>2018-09-26T09:53:52Z</time>
      </trkpt>
      <trkpt lat="45.8903" lon="4.75071">
        <ele>199</ele>
        <time>2018-09-26T09:53:55Z</time>
      </trkpt>
      <trkpt lat="45.89031" lon="4.75074">
        <ele>199</ele>
        <time>2018-09-26T09:53:56Z</time>
      </trkpt>
      <trkpt lat="45.89036" lon="4.75082">
        <ele>199</ele>
        <time>2018-09-26T09:53:59Z</time>
      </trkpt>
      <trkpt lat="45.89038" lon="4.75085">
        <ele>199</ele>
        <time>2018-09-26T09:54:00Z</time>
      </trkpt>
      <trkpt lat="45.89044" lon="4.75095">
        <ele>199</ele>
        <time>2018-09-26T09:54:03Z</time>
      </trkpt>
      <trkpt lat="45.89046" lon="4.75099">
        <ele>199</ele>
        <time>2018-09-26T09:54:04Z</time>
      </trkpt>
      <trkpt lat="45.8905" lon="4.75106">
        <ele>199</ele>
        <time>2018-09-26T09:54:06Z</time>
      </trkpt>
      <trkpt lat="45.89056" lon="4.75116">
        <ele>199</ele>
        <time>2018-09-26T09:54:07Z</time>
      </trkpt>
      <trkpt lat="45.8906" lon="4.75126">
        <ele>199</ele>
        <time>2018-09-26T09:54:09Z</time>
      </trkpt>
      <trkpt lat="45.89062" lon="4.7513">
        <ele>199</ele>
        <time>2018-09-26T09:54:10Z</time>
      </trkpt>
      <trkpt lat="45.89064" lon="4.75139">
        <ele>199</ele>
        <time>2018-09-26T09:54:13Z</time>
      </trkpt>
      <trkpt lat="45.89065" lon="4.75143">
        <ele>199</ele>
        <time>2018-09-26T09:54:14Z</time>
      </trkpt>
      <trkpt lat="45.89066" lon="4.75154">
        <ele>199</ele>
        <time>2018-09-26T09:54:17Z</time>
      </trkpt>
      <trkpt lat="45.89067" lon="4.75159">
        <ele>199</ele>
        <time>2018-09-26T09:54:18Z</time>
      </trkpt>
      <trkpt lat="45.89068" lon="4.75172">
        <ele>199</ele>
        <time>2018-09-26T09:54:19Z</time>
      </trkpt>
      <trkpt lat="45.89069" lon="4.75183">
        <ele>199</ele>
        <time>2018-09-26T09:54:21Z</time>
      </trkpt>
      <trkpt lat="45.8907" lon="4.75188">
        <ele>199</ele>
        <time>2018-09-26T09:54:22Z</time>
      </trkpt>
      <trkpt lat="45.89071" lon="4.75201">
        <ele>199</ele>
        <time>2018-09-26T09:54:26Z</time>
      </trkpt>
      <trkpt lat="45.89071" lon="4.75205">
        <ele>199</ele>
        <time>2018-09-26T09:54:27Z</time>
      </trkpt>
      <trkpt lat="45.89071" lon="4.75213">
        <ele>199</ele>
        <time>2018-09-26T09:54:29Z</time>
      </trkpt>
      <trkpt lat="45.89069" lon="4.75225">
        <ele>199</ele>
        <time>2018-09-26T09:54:30Z</time>
      </trkpt>
      <trkpt lat="45.89066" lon="4.75236">
        <ele>199</ele>
        <time>2018-09-26T09:54:32Z</time>
      </trkpt>
      <trkpt lat="45.89065" lon="4.75241">
        <ele>199</ele>
        <time>2018-09-26T09:54:33Z</time>
      </trkpt>
      <trkpt lat="45.89064" lon="4.75251">
        <ele>199</ele>
        <time>2018-09-26T09:54:36Z</time>
      </trkpt>
      <trkpt lat="45.89063" lon="4.75255">
        <ele>199</ele>
        <time>2018-09-26T09:54:37Z</time>
      </trkpt>
      <trkpt lat="45.89062" lon="4.75267">
        <ele>199</ele>
        <time>2018-09-26T09:54:40Z</time>
      </trkpt>
      <trkpt lat="45.8906" lon="4.7528">
        <ele>199</ele>
        <time>2018-09-26T09:54:41Z</time>
      </trkpt>
      <trkpt lat="45.89059" lon="4.75292">
        <ele>199</ele>
        <time>2018-09-26T09:54:43Z</time>
      </trkpt>
      <trkpt lat="45.89057" lon="4.75297">
        <ele>199</ele>
        <time>2018-09-26T09:54:44Z</time>
      </trkpt>
      <trkpt lat="45.89056" lon="4.75306">
        <ele>199</ele>
        <time>2018-09-26T09:54:47Z</time>
      </trkpt>
      <trkpt lat="45.89055" lon="4.7531">
        <ele>199</ele>
        <time>2018-09-26T09:54:48Z</time>
      </trkpt>
      <trkpt lat="45.89054" lon="4.75321">
        <ele>199</ele>
        <time>2018-09-26T09:54:49Z</time>
      </trkpt>
      <trkpt lat="45.89053" lon="4.75327">
        <ele>199</ele>
        <time>2018-09-26T09:54:50Z</time>
      </trkpt>
      <trkpt lat="45.89052" lon="4.75338">
        <ele>199</ele>
        <time>2018-09-26T09:54:52Z</time>
      </trkpt>
      <trkpt lat="45.89052" lon="4.75344">
        <ele>199</ele>
        <time>2018-09-26T09:54:53Z</time>
      </trkpt>
      <trkpt lat="45.89051" lon="4.75353">
        <ele>199</ele>
        <time>2018-09-26T09:54:56Z</time>
      </trkpt>
      <trkpt lat="45.89051" lon="4.75357">
        <ele>199</ele>
        <time>2018-09-26T09:54:57Z</time>
      </trkpt>
      <trkpt lat="45.89051" lon="4.75369">
        <ele>199</ele>
        <time>2018-09-26T09:55:00Z</time>
      </trkpt>
      <trkpt lat="45.8905" lon="4.75374">
        <ele>199</ele>
        <time>2018-09-26T09:55:01Z</time>
      </trkpt>
      <trkpt lat="45.89051" lon="4.75386">
        <ele>199</ele>
        <time>2018-09-26T09:55:04Z</time>
      </trkpt>
      <trkpt lat="45.8905" lon="4.7539">
        <ele>199</ele>
        <time>2018-09-26T09:55:05Z</time>
      </trkpt>
      <trkpt lat="45.89049" lon="4.75401">
        <ele>199</ele>
        <time>2018-09-26T09:55:08Z</time>
      </trkpt>
      <trkpt lat="45.89043" lon="4.75412">
        <ele>199</ele>
        <time>2018-09-26T09:55:09Z</time>
      </trkpt>
      <trkpt lat="45.89035" lon="4.75413">
        <ele>199</ele>
        <time>2018-09-26T09:55:11Z</time>
      </trkpt>
      <trkpt lat="45.89031" lon="4.75414">
        <ele>199</ele>
        <time>2018-09-26T09:55:12Z</time>
      </trkpt>
      <trkpt lat="45.89026" lon="4.75417">
        <ele>199</ele>
        <time>2018-09-26T09:55:13Z</time>
      </trkpt>
      <trkpt lat="45.89021" lon="4.75419">
        <ele>199</ele>
        <time>2018-09-26T09:55:14Z</time>
      </trkpt>
      <trkpt lat="45.89013" lon="4.75423">
        <ele>199</ele>
        <time>2018-09-26T09:55:16Z</time>
      </trkpt>
      <trkpt lat="45.89011" lon="4.75423">
        <ele>199</ele>
        <time>2018-09-26T09:55:17Z</time>
      </trkpt>
      <trkpt lat="45.89005" lon="4.75424">
        <ele>199</ele>
        <time>2018-09-26T09:55:18Z</time>
      </trkpt>
      <trkpt lat="45.89" lon="4.75426">
        <ele>199</ele>
        <time>2018-09-26T09:55:19Z</time>
      </trkpt>
      <trkpt lat="45.88995" lon="4.75426">
        <ele>199</ele>
        <time>2018-09-26T09:55:20Z</time>
      </trkpt>
      <trkpt lat="45.8899" lon="4.75426">
        <ele>199</ele>
        <time>2018-09-26T09:55:21Z</time>
      </trkpt>
      <trkpt lat="45.88985" lon="4.75427">
        <ele>199</ele>
        <time>2018-09-26T09:55:22Z</time>
      </trkpt>
      <trkpt lat="45.8898" lon="4.75427">
        <ele>199</ele>
        <time>2018-09-26T09:55:23Z</time>
      </trkpt>
      <trkpt lat="45.88975" lon="4.75426">
        <ele>199</ele>
        <time>2018-09-26T09:55:24Z</time>
      </trkpt>
      <trkpt lat="45.88971" lon="4.75425">
        <ele>199</ele>
        <time>2018-09-26T09:55:25Z</time>
      </trkpt>
      <trkpt lat="45.88962" lon="4.75429">
        <ele>199</ele>
        <time>2018-09-26T09:55:27Z</time>
      </trkpt>
      <trkpt lat="45.88962" lon="4.75432">
        <ele>199</ele>
        <time>2018-09-26T09:55:28Z</time>
      </trkpt>
      <trkpt lat="45.88958" lon="4.75443">
        <ele>199</ele>
        <time>2018-09-26T09:55:30Z</time>
      </trkpt>
      <trkpt lat="45.88958" lon="4.7545">
        <ele>199</ele>
        <time>2018-09-26T09:55:31Z</time>
      </trkpt>
      <trkpt lat="45.88958" lon="4.75457">
        <ele>199</ele>
        <time>2018-09-26T09:55:32Z</time>
      </trkpt>
      <trkpt lat="45.88959" lon="4.75464">
        <ele>199</ele>
        <time>2018-09-26T09:55:33Z</time>
      </trkpt>
      <trkpt lat="45.88961" lon="4.75472">
        <ele>199</ele>
        <time>2018-09-26T09:55:34Z</time>
      </trkpt>
      <trkpt lat="45.88962" lon="4.75478">
        <ele>199</ele>
        <time>2018-09-26T09:55:35Z</time>
      </trkpt>
      <trkpt lat="45.88962" lon="4.75485">
        <ele>199</ele>
        <time>2018-09-26T09:55:36Z</time>
      </trkpt>
      <trkpt lat="45.88962" lon="4.75491">
        <ele>198</ele>
        <time>2018-09-26T09:55:37Z</time>
      </trkpt>
      <trkpt lat="45.88963" lon="4.75503">
        <ele>198</ele>
        <time>2018-09-26T09:55:39Z</time>
      </trkpt>
      <trkpt lat="45.88963" lon="4.75509">
        <ele>198</ele>
        <time>2018-09-26T09:55:40Z</time>
      </trkpt>
      <trkpt lat="45.88962" lon="4.7552">
        <ele>198</ele>
        <time>2018-09-26T09:55:42Z</time>
      </trkpt>
      <trkpt lat="45.88962" lon="4.75526">
        <ele>198</ele>
        <time>2018-09-26T09:55:43Z</time>
      </trkpt>
      <trkpt lat="45.88963" lon="4.75533">
        <ele>198</ele>
        <time>2018-09-26T09:55:44Z</time>
      </trkpt>
      <trkpt lat="45.88963" lon="4.7554">
        <ele>198</ele>
        <time>2018-09-26T09:55:45Z</time>
      </trkpt>
      <trkpt lat="45.88964" lon="4.75547">
        <ele>198</ele>
        <time>2018-09-26T09:55:46Z</time>
      </trkpt>
      <trkpt lat="45.88964" lon="4.75554">
        <ele>198</ele>
        <time>2018-09-26T09:55:47Z</time>
      </trkpt>
      <trkpt lat="45.88965" lon="4.75561">
        <ele>198</ele>
        <time>2018-09-26T09:55:48Z</time>
      </trkpt>
      <trkpt lat="45.88966" lon="4.75567">
        <ele>198</ele>
        <time>2018-09-26T09:55:49Z</time>
      </trkpt>
      <trkpt lat="45.88966" lon="4.75574">
        <ele>198</ele>
        <time>2018-09-26T09:55:50Z</time>
      </trkpt>
      <trkpt lat="45.88967" lon="4.7558">
        <ele>198</ele>
        <time>2018-09-26T09:55:51Z</time>
      </trkpt>
      <trkpt lat="45.88967" lon="4.75591">
        <ele>198</ele>
        <time>2018-09-26T09:55:53Z</time>
      </trkpt>
      <trkpt lat="45.88968" lon="4.75597">
        <ele>198</ele>
        <time>2018-09-26T09:55:54Z</time>
      </trkpt>
      <trkpt lat="45.8897" lon="4.75607">
        <ele>198</ele>
        <time>2018-09-26T09:55:56Z</time>
      </trkpt>
      <trkpt lat="45.88971" lon="4.75612">
        <ele>198</ele>
        <time>2018-09-26T09:55:57Z</time>
      </trkpt>
      <trkpt lat="45.88972" lon="4.75624">
        <ele>198</ele>
        <time>2018-09-26T09:55:59Z</time>
      </trkpt>
      <trkpt lat="45.88974" lon="4.7563">
        <ele>198</ele>
        <time>2018-09-26T09:56:00Z</time>
      </trkpt>
      <trkpt lat="45.88976" lon="4.75636">
        <ele>198</ele>
        <time>2018-09-26T09:56:01Z</time>
      </trkpt>
      <trkpt lat="45.88979" lon="4.75642">
        <ele>198</ele>
        <time>2018-09-26T09:56:02Z</time>
      </trkpt>
      <trkpt lat="45.88981" lon="4.75653">
        <ele>198</ele>
        <time>2018-09-26T09:56:05Z</time>
      </trkpt>
      <trkpt lat="45.88981" lon="4.75656">
        <ele>198</ele>
        <time>2018-09-26T09:56:06Z</time>
      </trkpt>
      <trkpt lat="45.88983" lon="4.75661">
        <ele>198</ele>
        <time>2018-09-26T09:56:07Z</time>
      </trkpt>
      <trkpt lat="45.88985" lon="4.75671">
        <ele>198</ele>
        <time>2018-09-26T09:56:08Z</time>
      </trkpt>
      <trkpt lat="45.88988" lon="4.75683">
        <ele>198</ele>
        <time>2018-09-26T09:56:10Z</time>
      </trkpt>
      <trkpt lat="45.88989" lon="4.75689">
        <ele>198</ele>
        <time>2018-09-26T09:56:11Z</time>
      </trkpt>
      <trkpt lat="45.88991" lon="4.75695">
        <ele>198</ele>
        <time>2018-09-26T09:56:12Z</time>
      </trkpt>
      <trkpt lat="45.88991" lon="4.75702">
        <ele>198</ele>
        <time>2018-09-26T09:56:13Z</time>
      </trkpt>
      <trkpt lat="45.88992" lon="4.75713">
        <ele>198</ele>
        <time>2018-09-26T09:56:15Z</time>
      </trkpt>
      <trkpt lat="45.88992" lon="4.75718">
        <ele>198</ele>
        <time>2018-09-26T09:56:16Z</time>
      </trkpt>
      <trkpt lat="45.88994" lon="4.75727">
        <ele>198</ele>
        <time>2018-09-26T09:56:18Z</time>
      </trkpt>
      <trkpt lat="45.88995" lon="4.75733">
        <ele>198</ele>
        <time>2018-09-26T09:56:19Z</time>
      </trkpt>
      <trkpt lat="45.88997" lon="4.75739">
        <ele>198</ele>
        <time>2018-09-26T09:56:20Z</time>
      </trkpt>
      <trkpt lat="45.88998" lon="4.75745">
        <ele>198</ele>
        <time>2018-09-26T09:56:21Z</time>
      </trkpt>
      <trkpt lat="45.88999" lon="4.75752">
        <ele>198</ele>
        <time>2018-09-26T09:56:22Z</time>
      </trkpt>
      <trkpt lat="45.89" lon="4.75759">
        <ele>198</ele>
        <time>2018-09-26T09:56:23Z</time>
      </trkpt>
      <trkpt lat="45.89001" lon="4.75764">
        <ele>198</ele>
        <time>2018-09-26T09:56:24Z</time>
      </trkpt>
      <trkpt lat="45.89003" lon="4.7577">
        <ele>198</ele>
        <time>2018-09-26T09:56:25Z</time>
      </trkpt>
      <trkpt lat="45.89007" lon="4.75781">
        <ele>199</ele>
        <time>2018-09-26T09:56:27Z</time>
      </trkpt>
      <trkpt lat="45.89008" lon="4.75786">
        <ele>199</ele>
        <time>2018-09-26T09:56:28Z</time>
      </trkpt>
      <trkpt lat="45.89011" lon="4.75793">
        <ele>199</ele>
        <time>2018-09-26T09:56:30Z</time>
      </trkpt>
      <trkpt lat="45.89014" lon="4.758">
        <ele>199</ele>
        <time>2018-09-26T09:56:31Z</time>
      </trkpt>
      <trkpt lat="45.89015" lon="4.75812">
        <ele>199</ele>
        <time>2018-09-26T09:56:33Z</time>
      </trkpt>
      <trkpt lat="45.89017" lon="4.75819">
        <ele>199</ele>
        <time>2018-09-26T09:56:34Z</time>
      </trkpt>
      <trkpt lat="45.89019" lon="4.75831">
        <ele>199</ele>
        <time>2018-09-26T09:56:36Z</time>
      </trkpt>
      <trkpt lat="45.8902" lon="4.75838">
        <ele>200</ele>
        <time>2018-09-26T09:56:37Z</time>
      </trkpt>
      <trkpt lat="45.89019" lon="4.7585">
        <ele>200</ele>
        <time>2018-09-26T09:56:39Z</time>
      </trkpt>
      <trkpt lat="45.89018" lon="4.75856">
        <ele>200</ele>
        <time>2018-09-26T09:56:40Z</time>
      </trkpt>
      <trkpt lat="45.89013" lon="4.75867">
        <ele>200</ele>
        <time>2018-09-26T09:56:42Z</time>
      </trkpt>
      <trkpt lat="45.89011" lon="4.75873">
        <ele>200</ele>
        <time>2018-09-26T09:56:43Z</time>
      </trkpt>
      <trkpt lat="45.89007" lon="4.75884">
        <ele>200</ele>
        <time>2018-09-26T09:56:45Z</time>
      </trkpt>
      <trkpt lat="45.89005" lon="4.75889">
        <ele>200</ele>
        <time>2018-09-26T09:56:46Z</time>
      </trkpt>
      <trkpt lat="45.89001" lon="4.75899">
        <ele>200</ele>
        <time>2018-09-26T09:56:48Z</time>
      </trkpt>
      <trkpt lat="45.89" lon="4.75904">
        <ele>200</ele>
        <time>2018-09-26T09:56:49Z</time>
      </trkpt>
      <trkpt lat="45.88997" lon="4.75915">
        <ele>200</ele>
        <time>2018-09-26T09:56:52Z</time>
      </trkpt>
      <trkpt lat="45.88995" lon="4.75918">
        <ele>200</ele>
        <time>2018-09-26T09:56:53Z</time>
      </trkpt>
      <trkpt lat="45.88991" lon="4.75929">
        <ele>200</ele>
        <time>2018-09-26T09:56:56Z</time>
      </trkpt>
      <trkpt lat="45.8899" lon="4.75933">
        <ele>199</ele>
        <time>2018-09-26T09:56:57Z</time>
      </trkpt>
      <trkpt lat="45.88988" lon="4.75945">
        <ele>199</ele>
        <time>2018-09-26T09:57:00Z</time>
      </trkpt>
      <trkpt lat="45.88989" lon="4.75949">
        <ele>199</ele>
        <time>2018-09-26T09:57:01Z</time>
      </trkpt>
      <trkpt lat="45.88991" lon="4.75963">
        <ele>199</ele>
        <time>2018-09-26T09:57:02Z</time>
      </trkpt>
      <trkpt lat="45.88993" lon="4.75969">
        <ele>199</ele>
        <time>2018-09-26T09:57:03Z</time>
      </trkpt>
      <trkpt lat="45.88996" lon="4.75975">
        <ele>199</ele>
        <time>2018-09-26T09:57:04Z</time>
      </trkpt>
      <trkpt lat="45.88998" lon="4.7598">
        <ele>200</ele>
        <time>2018-09-26T09:57:05Z</time>
      </trkpt>
      <trkpt lat="45.89001" lon="4.75986">
        <ele>200</ele>
        <time>2018-09-26T09:57:06Z</time>
      </trkpt>
      <trkpt lat="45.89003" lon="4.75991">
        <ele>200</ele>
        <time>2018-09-26T09:57:07Z</time>
      </trkpt>
      <trkpt lat="45.89006" lon="4.75996">
        <ele>200</ele>
        <time>2018-09-26T09:57:08Z</time>
      </trkpt>
      <trkpt lat="45.89011" lon="4.76006">
        <ele>200</ele>
        <time>2018-09-26T09:57:10Z</time>
      </trkpt>
      <trkpt lat="45.89012" lon="4.76008">
        <ele>200</ele>
        <time>2018-09-26T09:57:11Z</time>
      </trkpt>
      <trkpt lat="45.89016" lon="4.76013">
        <ele>200</ele>
        <time>2018-09-26T09:57:12Z</time>
      </trkpt>
      <trkpt lat="45.89018" lon="4.76018">
        <ele>199</ele>
        <time>2018-09-26T09:57:13Z</time>
      </trkpt>
      <trkpt lat="45.89023" lon="4.76028">
        <ele>199</ele>
        <time>2018-09-26T09:57:15Z</time>
      </trkpt>
      <trkpt lat="45.89025" lon="4.76033">
        <ele>199</ele>
        <time>2018-09-26T09:57:16Z</time>
      </trkpt>
      <trkpt lat="45.89031" lon="4.76041">
        <ele>199</ele>
        <time>2018-09-26T09:57:18Z</time>
      </trkpt>
      <trkpt lat="45.89033" lon="4.76046">
        <ele>199</ele>
        <time>2018-09-26T09:57:19Z</time>
      </trkpt>
      <trkpt lat="45.89037" lon="4.76055">
        <ele>199</ele>
        <time>2018-09-26T09:57:22Z</time>
      </trkpt>
      <trkpt lat="45.89039" lon="4.76058">
        <ele>199</ele>
        <time>2018-09-26T09:57:23Z</time>
      </trkpt>
      <trkpt lat="45.89043" lon="4.76068">
        <ele>199</ele>
        <time>2018-09-26T09:57:26Z</time>
      </trkpt>
      <trkpt lat="45.89048" lon="4.7608">
        <ele>198</ele>
        <time>2018-09-26T09:57:27Z</time>
      </trkpt>
      <trkpt lat="45.89053" lon="4.76089">
        <ele>197</ele>
        <time>2018-09-26T09:57:29Z</time>
      </trkpt>
      <trkpt lat="45.89056" lon="4.76093">
        <ele>197</ele>
        <time>2018-09-26T09:57:30Z</time>
      </trkpt>
      <trkpt lat="45.89061" lon="4.76101">
        <ele>197</ele>
        <time>2018-09-26T09:57:32Z</time>
      </trkpt>
      <trkpt lat="45.89062" lon="4.76103">
        <ele>197</ele>
        <time>2018-09-26T09:57:33Z</time>
      </trkpt>
      <trkpt lat="45.89066" lon="4.76113">
        <ele>197</ele>
        <time>2018-09-26T09:57:35Z</time>
      </trkpt>
      <trkpt lat="45.89068" lon="4.76118">
        <ele>197</ele>
        <time>2018-09-26T09:57:36Z</time>
      </trkpt>
      <trkpt lat="45.8907" lon="4.76129">
        <ele>197</ele>
        <time>2018-09-26T09:57:38Z</time>
      </trkpt>
      <trkpt lat="45.89073" lon="4.76134">
        <ele>197</ele>
        <time>2018-09-26T09:57:39Z</time>
      </trkpt>
      <trkpt lat="45.89075" lon="4.76139">
        <ele>197</ele>
        <time>2018-09-26T09:57:40Z</time>
      </trkpt>
      <trkpt lat="45.89079" lon="4.76144">
        <ele>196</ele>
        <time>2018-09-26T09:57:41Z</time>
      </trkpt>
      <trkpt lat="45.89083" lon="4.76155">
        <ele>195</ele>
        <time>2018-09-26T09:57:44Z</time>
      </trkpt>
      <trkpt lat="45.89085" lon="4.76158">
        <ele>195</ele>
        <time>2018-09-26T09:57:45Z</time>
      </trkpt>
      <trkpt lat="45.89086" lon="4.76161">
        <ele>195</ele>
        <time>2018-09-26T09:57:46Z</time>
      </trkpt>
      <trkpt lat="45.8909" lon="4.7617">
        <ele>195</ele>
        <time>2018-09-26T09:57:47Z</time>
      </trkpt>
      <trkpt lat="45.89095" lon="4.7618">
        <ele>196</ele>
        <time>2018-09-26T09:57:49Z</time>
      </trkpt>
      <trkpt lat="45.89097" lon="4.76185">
        <ele>196</ele>
        <time>2018-09-26T09:57:50Z</time>
      </trkpt>
      <trkpt lat="45.89101" lon="4.76196">
        <ele>196</ele>
        <time>2018-09-26T09:57:52Z</time>
      </trkpt>
      <trkpt lat="45.89103" lon="4.762">
        <ele>196</ele>
        <time>2018-09-26T09:57:53Z</time>
      </trkpt>
      <trkpt lat="45.89107" lon="4.76209">
        <ele>196</ele>
        <time>2018-09-26T09:57:56Z</time>
      </trkpt>
      <trkpt lat="45.89109" lon="4.76212">
        <ele>196</ele>
        <time>2018-09-26T09:57:57Z</time>
      </trkpt>
      <trkpt lat="45.89115" lon="4.76222">
        <ele>196</ele>
        <time>2018-09-26T09:58:00Z</time>
      </trkpt>
      <trkpt lat="45.89122" lon="4.76233">
        <ele>196</ele>
        <time>2018-09-26T09:58:01Z</time>
      </trkpt>
      <trkpt lat="45.89125" lon="4.76238">
        <ele>196</ele>
        <time>2018-09-26T09:58:03Z</time>
      </trkpt>
      <trkpt lat="45.89128" lon="4.76246">
        <ele>196</ele>
        <time>2018-09-26T09:58:04Z</time>
      </trkpt>
      <trkpt lat="45.89133" lon="4.76256">
        <ele>197</ele>
        <time>2018-09-26T09:58:06Z</time>
      </trkpt>
      <trkpt lat="45.89135" lon="4.76261">
        <ele>197</ele>
        <time>2018-09-26T09:58:07Z</time>
      </trkpt>
      <trkpt lat="45.89138" lon="4.7627">
        <ele>196</ele>
        <time>2018-09-26T09:58:10Z</time>
      </trkpt>
      <trkpt lat="45.8914" lon="4.76273">
        <ele>196</ele>
        <time>2018-09-26T09:58:11Z</time>
      </trkpt>
      <trkpt lat="45.89141" lon="4.76276">
        <ele>196</ele>
        <time>2018-09-26T09:58:12Z</time>
      </trkpt>
      <trkpt lat="45.89146" lon="4.76286">
        <ele>196</ele>
        <time>2018-09-26T09:58:13Z</time>
      </trkpt>
      <trkpt lat="45.89152" lon="4.76295">
        <ele>196</ele>
        <time>2018-09-26T09:58:15Z</time>
      </trkpt>
      <trkpt lat="45.89155" lon="4.763">
        <ele>196</ele>
        <time>2018-09-26T09:58:16Z</time>
      </trkpt>
      <trkpt lat="45.89161" lon="4.76306">
        <ele>196</ele>
        <time>2018-09-26T09:58:17Z</time>
      </trkpt>
      <trkpt lat="45.89165" lon="4.76311">
        <ele>196</ele>
        <time>2018-09-26T09:58:18Z</time>
      </trkpt>
      <trkpt lat="45.8917" lon="4.76321">
        <ele>195</ele>
        <time>2018-09-26T09:58:21Z</time>
      </trkpt>
      <trkpt lat="45.89174" lon="4.76329">
        <ele>195</ele>
        <time>2018-09-26T09:58:22Z</time>
      </trkpt>
      <trkpt lat="45.89176" lon="4.76338">
        <ele>195</ele>
        <time>2018-09-26T09:58:24Z</time>
      </trkpt>
      <trkpt lat="45.89179" lon="4.76342">
        <ele>195</ele>
        <time>2018-09-26T09:58:25Z</time>
      </trkpt>
      <trkpt lat="45.89183" lon="4.76352">
        <ele>195</ele>
        <time>2018-09-26T09:58:27Z</time>
      </trkpt>
      <trkpt lat="45.89185" lon="4.76356">
        <ele>194</ele>
        <time>2018-09-26T09:58:28Z</time>
      </trkpt>
      <trkpt lat="45.89188" lon="4.76363">
        <ele>194</ele>
        <time>2018-09-26T09:58:30Z</time>
      </trkpt>
      <trkpt lat="45.89191" lon="4.76369">
        <ele>194</ele>
        <time>2018-09-26T09:58:31Z</time>
      </trkpt>
      <trkpt lat="45.89195" lon="4.76379">
        <ele>194</ele>
        <time>2018-09-26T09:58:33Z</time>
      </trkpt>
      <trkpt lat="45.89197" lon="4.76381">
        <ele>194</ele>
        <time>2018-09-26T09:58:34Z</time>
      </trkpt>
      <trkpt lat="45.89201" lon="4.76388">
        <ele>194</ele>
        <time>2018-09-26T09:58:37Z</time>
      </trkpt>
      <trkpt lat="45.89202" lon="4.76391">
        <ele>194</ele>
        <time>2018-09-26T09:58:38Z</time>
      </trkpt>
      <trkpt lat="45.89207" lon="4.764">
        <ele>194</ele>
        <time>2018-09-26T09:58:41Z</time>
      </trkpt>
      <trkpt lat="45.89208" lon="4.76403">
        <ele>194</ele>
        <time>2018-09-26T09:58:42Z</time>
      </trkpt>
      <trkpt lat="45.89212" lon="4.76414">
        <ele>194</ele>
        <time>2018-09-26T09:58:45Z</time>
      </trkpt>
      <trkpt lat="45.89214" lon="4.76418">
        <ele>194</ele>
        <time>2018-09-26T09:58:46Z</time>
      </trkpt>
      <trkpt lat="45.89215" lon="4.76422">
        <ele>194</ele>
        <time>2018-09-26T09:58:47Z</time>
      </trkpt>
      <trkpt lat="45.8922" lon="4.76433">
        <ele>194</ele>
        <time>2018-09-26T09:58:48Z</time>
      </trkpt>
      <trkpt lat="45.89224" lon="4.76442">
        <ele>194</ele>
        <time>2018-09-26T09:58:50Z</time>
      </trkpt>
      <trkpt lat="45.89227" lon="4.76447">
        <ele>194</ele>
        <time>2018-09-26T09:58:51Z</time>
      </trkpt>
      <trkpt lat="45.89232" lon="4.76455">
        <ele>194</ele>
        <time>2018-09-26T09:58:53Z</time>
      </trkpt>
      <trkpt lat="45.89234" lon="4.76457">
        <ele>194</ele>
        <time>2018-09-26T09:58:54Z</time>
      </trkpt>
      <trkpt lat="45.89239" lon="4.76463">
        <ele>193</ele>
        <time>2018-09-26T09:58:57Z</time>
      </trkpt>
      <trkpt lat="45.89241" lon="4.76465">
        <ele>193</ele>
        <time>2018-09-26T09:58:58Z</time>
      </trkpt>
      <trkpt lat="45.89247" lon="4.76472">
        <ele>193</ele>
        <time>2018-09-26T09:59:01Z</time>
      </trkpt>
      <trkpt lat="45.89249" lon="4.76474">
        <ele>193</ele>
        <time>2018-09-26T09:59:02Z</time>
      </trkpt>
      <trkpt lat="45.89256" lon="4.7648">
        <ele>193</ele>
        <time>2018-09-26T09:59:05Z</time>
      </trkpt>
      <trkpt lat="45.89259" lon="4.76482">
        <ele>193</ele>
        <time>2018-09-26T09:59:06Z</time>
      </trkpt>
      <trkpt lat="45.89266" lon="4.76486">
        <ele>193</ele>
        <time>2018-09-26T09:59:09Z</time>
      </trkpt>
      <trkpt lat="45.89269" lon="4.76487">
        <ele>193</ele>
        <time>2018-09-26T09:59:10Z</time>
      </trkpt>
      <trkpt lat="45.89278" lon="4.76491">
        <ele>193</ele>
        <time>2018-09-26T09:59:11Z</time>
      </trkpt>
      <trkpt lat="45.89286" lon="4.76493">
        <ele>193</ele>
        <time>2018-09-26T09:59:13Z</time>
      </trkpt>
      <trkpt lat="45.8929" lon="4.76494">
        <ele>193</ele>
        <time>2018-09-26T09:59:14Z</time>
      </trkpt>
      <trkpt lat="45.89296" lon="4.76496">
        <ele>194</ele>
        <time>2018-09-26T09:59:17Z</time>
      </trkpt>
      <trkpt lat="45.89299" lon="4.76497">
        <ele>194</ele>
        <time>2018-09-26T09:59:18Z</time>
      </trkpt>
      <trkpt lat="45.89304" lon="4.76499">
        <ele>194</ele>
        <time>2018-09-26T09:59:20Z</time>
      </trkpt>
      <trkpt lat="45.89313" lon="4.76502">
        <ele>194</ele>
        <time>2018-09-26T09:59:21Z</time>
      </trkpt>
      <trkpt lat="45.89321" lon="4.76504">
        <ele>194</ele>
        <time>2018-09-26T09:59:23Z</time>
      </trkpt>
      <trkpt lat="45.89325" lon="4.76505">
        <ele>194</ele>
        <time>2018-09-26T09:59:24Z</time>
      </trkpt>
      <trkpt lat="45.89332" lon="4.76508">
        <ele>194</ele>
        <time>2018-09-26T09:59:26Z</time>
      </trkpt>
      <trkpt lat="45.89334" lon="4.76509">
        <ele>194</ele>
        <time>2018-09-26T09:59:27Z</time>
      </trkpt>
      <trkpt lat="45.89342" lon="4.76512">
        <ele>194</ele>
        <time>2018-09-26T09:59:31Z</time>
      </trkpt>
      <trkpt lat="45.89344" lon="4.76513">
        <ele>194</ele>
        <time>2018-09-26T09:59:32Z</time>
      </trkpt>
      <trkpt lat="45.89351" lon="4.76516">
        <ele>194</ele>
        <time>2018-09-26T09:59:35Z</time>
      </trkpt>
      <trkpt lat="45.89353" lon="4.76518">
        <ele>194</ele>
        <time>2018-09-26T09:59:36Z</time>
      </trkpt>
      <trkpt lat="45.8936" lon="4.76522">
        <ele>194</ele>
        <time>2018-09-26T09:59:39Z</time>
      </trkpt>
      <trkpt lat="45.89362" lon="4.76523">
        <ele>194</ele>
        <time>2018-09-26T09:59:40Z</time>
      </trkpt>
      <trkpt lat="45.89369" lon="4.76525">
        <ele>194</ele>
        <time>2018-09-26T09:59:43Z</time>
      </trkpt>
      <trkpt lat="45.89371" lon="4.76526">
        <ele>194</ele>
        <time>2018-09-26T09:59:44Z</time>
      </trkpt>
      <trkpt lat="45.89379" lon="4.76528">
        <ele>194</ele>
        <time>2018-09-26T09:59:47Z</time>
      </trkpt>
      <trkpt lat="45.89381" lon="4.76528">
        <ele>194</ele>
        <time>2018-09-26T09:59:48Z</time>
      </trkpt>
      <trkpt lat="45.89388" lon="4.76531">
        <ele>194</ele>
        <time>2018-09-26T09:59:51Z</time>
      </trkpt>
      <trkpt lat="45.8939" lon="4.76532">
        <ele>194</ele>
        <time>2018-09-26T09:59:52Z</time>
      </trkpt>
      <trkpt lat="45.89397" lon="4.76535">
        <ele>194</ele>
        <time>2018-09-26T09:59:55Z</time>
      </trkpt>
      <trkpt lat="45.894" lon="4.76536">
        <ele>194</ele>
        <time>2018-09-26T09:59:56Z</time>
      </trkpt>
      <trkpt lat="45.89407" lon="4.76539">
        <ele>194</ele>
        <time>2018-09-26T09:59:59Z</time>
      </trkpt>
      <trkpt lat="45.89409" lon="4.7654">
        <ele>194</ele>
        <time>2018-09-26T10:00:00Z</time>
      </trkpt>
      <trkpt lat="45.89417" lon="4.76544">
        <ele>194</ele>
        <time>2018-09-26T10:00:04Z</time>
      </trkpt>
      <trkpt lat="45.89419" lon="4.76546">
        <ele>194</ele>
        <time>2018-09-26T10:00:05Z</time>
      </trkpt>
      <trkpt lat="45.89424" lon="4.76552">
        <ele>194</ele>
        <time>2018-09-26T10:00:08Z</time>
      </trkpt>
      <trkpt lat="45.89426" lon="4.76554">
        <ele>194</ele>
        <time>2018-09-26T10:00:09Z</time>
      </trkpt>
      <trkpt lat="45.89433" lon="4.7656">
        <ele>194</ele>
        <time>2018-09-26T10:00:13Z</time>
      </trkpt>
      <trkpt lat="45.89435" lon="4.76562">
        <ele>194</ele>
        <time>2018-09-26T10:00:14Z</time>
      </trkpt>
      <trkpt lat="45.89442" lon="4.76565">
        <ele>194</ele>
        <time>2018-09-26T10:00:18Z</time>
      </trkpt>
      <trkpt lat="45.89443" lon="4.76565">
        <ele>194</ele>
        <time>2018-09-26T10:00:19Z</time>
      </trkpt>
      <trkpt lat="45.89451" lon="4.76565">
        <ele>194</ele>
        <time>2018-09-26T10:00:23Z</time>
      </trkpt>
      <trkpt lat="45.89454" lon="4.76564">
        <ele>194</ele>
        <time>2018-09-26T10:00:24Z</time>
      </trkpt>
      <trkpt lat="45.8946" lon="4.76562">
        <ele>194</ele>
        <time>2018-09-26T10:00:27Z</time>
      </trkpt>
      <trkpt lat="45.89463" lon="4.76561">
        <ele>194</ele>
        <time>2018-09-26T10:00:28Z</time>
      </trkpt>
      <trkpt lat="45.8947" lon="4.76558">
        <ele>194</ele>
        <time>2018-09-26T10:00:31Z</time>
      </trkpt>
      <trkpt lat="45.89473" lon="4.76557">
        <ele>194</ele>
        <time>2018-09-26T10:00:32Z</time>
      </trkpt>
      <trkpt lat="45.8948" lon="4.76554">
        <ele>194</ele>
        <time>2018-09-26T10:00:35Z</time>
      </trkpt>
      <trkpt lat="45.89483" lon="4.76553">
        <ele>194</ele>
        <time>2018-09-26T10:00:36Z</time>
      </trkpt>
      <trkpt lat="45.8949" lon="4.76551">
        <ele>194</ele>
        <time>2018-09-26T10:00:39Z</time>
      </trkpt>
      <trkpt lat="45.89493" lon="4.76551">
        <ele>194</ele>
        <time>2018-09-26T10:00:40Z</time>
      </trkpt>
      <trkpt lat="45.89502" lon="4.76549">
        <ele>194</ele>
        <time>2018-09-26T10:00:43Z</time>
      </trkpt>
      <trkpt lat="45.89505" lon="4.76549">
        <ele>194</ele>
        <time>2018-09-26T10:00:44Z</time>
      </trkpt>
      <trkpt lat="45.89513" lon="4.76546">
        <ele>194</ele>
        <time>2018-09-26T10:00:47Z</time>
      </trkpt>
      <trkpt lat="45.89516" lon="4.76544">
        <ele>194</ele>
        <time>2018-09-26T10:00:48Z</time>
      </trkpt>
      <trkpt lat="45.89522" lon="4.76541">
        <ele>194</ele>
        <time>2018-09-26T10:00:50Z</time>
      </trkpt>
      <trkpt lat="45.89526" lon="4.7654">
        <ele>194</ele>
        <time>2018-09-26T10:00:51Z</time>
      </trkpt>
      <trkpt lat="45.89532" lon="4.76538">
        <ele>194</ele>
        <time>2018-09-26T10:00:53Z</time>
      </trkpt>
      <trkpt lat="45.89535" lon="4.76537">
        <ele>194</ele>
        <time>2018-09-26T10:00:54Z</time>
      </trkpt>
      <trkpt lat="45.89543" lon="4.76537">
        <ele>194</ele>
        <time>2018-09-26T10:00:57Z</time>
      </trkpt>
      <trkpt lat="45.89546" lon="4.76537">
        <ele>194</ele>
        <time>2018-09-26T10:00:58Z</time>
      </trkpt>
      <trkpt lat="45.89552" lon="4.76538">
        <ele>194</ele>
        <time>2018-09-26T10:01:00Z</time>
      </trkpt>
      <trkpt lat="45.89555" lon="4.76539">
        <ele>194</ele>
        <time>2018-09-26T10:01:01Z</time>
      </trkpt>
      <trkpt lat="45.89561" lon="4.76539">
        <ele>194</ele>
        <time>2018-09-26T10:01:03Z</time>
      </trkpt>
      <trkpt lat="45.89564" lon="4.7654">
        <ele>194</ele>
        <time>2018-09-26T10:01:04Z</time>
      </trkpt>
      <trkpt lat="45.89572" lon="4.76541">
        <ele>194</ele>
        <time>2018-09-26T10:01:07Z</time>
      </trkpt>
      <trkpt lat="45.89575" lon="4.76541">
        <ele>194</ele>
        <time>2018-09-26T10:01:08Z</time>
      </trkpt>
      <trkpt lat="45.89583" lon="4.7654">
        <ele>194</ele>
        <time>2018-09-26T10:01:11Z</time>
      </trkpt>
      <trkpt lat="45.89586" lon="4.76538">
        <ele>194</ele>
        <time>2018-09-26T10:01:12Z</time>
      </trkpt>
      <trkpt lat="45.89592" lon="4.76531">
        <ele>194</ele>
        <time>2018-09-26T10:01:15Z</time>
      </trkpt>
      <trkpt lat="45.89594" lon="4.76528">
        <ele>194</ele>
        <time>2018-09-26T10:01:16Z</time>
      </trkpt>
      <trkpt lat="45.89598" lon="4.7652">
        <ele>194</ele>
        <time>2018-09-26T10:01:18Z</time>
      </trkpt>
      <trkpt lat="45.896" lon="4.76516">
        <ele>194</ele>
        <time>2018-09-26T10:01:19Z</time>
      </trkpt>
      <trkpt lat="45.89603" lon="4.76508">
        <ele>194</ele>
        <time>2018-09-26T10:01:21Z</time>
      </trkpt>
      <trkpt lat="45.89605" lon="4.76504">
        <ele>194</ele>
        <time>2018-09-26T10:01:22Z</time>
      </trkpt>
      <trkpt lat="45.89606" lon="4.765">
        <ele>194</ele>
        <time>2018-09-26T10:01:23Z</time>
      </trkpt>
      <trkpt lat="45.8961" lon="4.76485">
        <ele>194</ele>
        <time>2018-09-26T10:01:24Z</time>
      </trkpt>
      <trkpt lat="45.89614" lon="4.76475">
        <ele>194</ele>
        <time>2018-09-26T10:01:28Z</time>
      </trkpt>
      <trkpt lat="45.89615" lon="4.76473">
        <ele>194</ele>
        <time>2018-09-26T10:01:29Z</time>
      </trkpt>
      <trkpt lat="45.89618" lon="4.76463">
        <ele>194</ele>
        <time>2018-09-26T10:01:32Z</time>
      </trkpt>
      <trkpt lat="45.89619" lon="4.7646">
        <ele>194</ele>
        <time>2018-09-26T10:01:33Z</time>
      </trkpt>
      <trkpt lat="45.89621" lon="4.7645">
        <ele>195</ele>
        <time>2018-09-26T10:01:36Z</time>
      </trkpt>
      <trkpt lat="45.89621" lon="4.76447">
        <ele>195</ele>
        <time>2018-09-26T10:01:37Z</time>
      </trkpt>
      <trkpt lat="45.89624" lon="4.76435">
        <ele>195</ele>
        <time>2018-09-26T10:01:42Z</time>
      </trkpt>
      <trkpt lat="45.89625" lon="4.76433">
        <ele>195</ele>
        <time>2018-09-26T10:01:43Z</time>
      </trkpt>
      <trkpt lat="45.89628" lon="4.76421">
        <ele>195</ele>
        <time>2018-09-26T10:02:07Z</time>
      </trkpt>
      <trkpt lat="45.89629" lon="4.7642">
        <ele>195</ele>
        <time>2018-09-26T10:02:08Z</time>
      </trkpt>
      <trkpt lat="45.89632" lon="4.76409">
        <ele>195</ele>
        <time>2018-09-26T10:02:16Z</time>
      </trkpt>
      <trkpt lat="45.89632" lon="4.76408">
        <ele>195</ele>
        <time>2018-09-26T10:02:17Z</time>
      </trkpt>
      <trkpt lat="45.89635" lon="4.76399">
        <ele>195</ele>
        <time>2018-09-26T10:02:21Z</time>
      </trkpt>
      <trkpt lat="45.89636" lon="4.76396">
        <ele>195</ele>
        <time>2018-09-26T10:02:22Z</time>
      </trkpt>
      <trkpt lat="45.8964" lon="4.76384">
        <ele>195</ele>
        <time>2018-09-26T10:02:25Z</time>
      </trkpt>
      <trkpt lat="45.89641" lon="4.7638">
        <ele>195</ele>
        <time>2018-09-26T10:02:26Z</time>
      </trkpt>
      <trkpt lat="45.89645" lon="4.7637">
        <ele>195</ele>
        <time>2018-09-26T10:02:29Z</time>
      </trkpt>
      <trkpt lat="45.89647" lon="4.76366">
        <ele>195</ele>
        <time>2018-09-26T10:02:30Z</time>
      </trkpt>
      <trkpt lat="45.89649" lon="4.76359">
        <ele>195</ele>
        <time>2018-09-26T10:02:32Z</time>
      </trkpt>
      <trkpt lat="45.89651" lon="4.76355">
        <ele>195</ele>
        <time>2018-09-26T10:02:33Z</time>
      </trkpt>
      <trkpt lat="45.89654" lon="4.76345">
        <ele>195</ele>
        <time>2018-09-26T10:02:36Z</time>
      </trkpt>
      <trkpt lat="45.89655" lon="4.76342">
        <ele>195</ele>
        <time>2018-09-26T10:02:37Z</time>
      </trkpt>
      <trkpt lat="45.89658" lon="4.76334">
        <ele>195</ele>
        <time>2018-09-26T10:02:40Z</time>
      </trkpt>
      <trkpt lat="45.8966" lon="4.7633">
        <ele>195</ele>
        <time>2018-09-26T10:02:41Z</time>
      </trkpt>
      <trkpt lat="45.89664" lon="4.76319">
        <ele>195</ele>
        <time>2018-09-26T10:02:44Z</time>
      </trkpt>
      <trkpt lat="45.89669" lon="4.76306">
        <ele>195</ele>
        <time>2018-09-26T10:02:45Z</time>
      </trkpt>
      <trkpt lat="45.89672" lon="4.76296">
        <ele>195</ele>
        <time>2018-09-26T10:02:47Z</time>
      </trkpt>
      <trkpt lat="45.89673" lon="4.76293">
        <ele>195</ele>
        <time>2018-09-26T10:02:48Z</time>
      </trkpt>
      <trkpt lat="45.89677" lon="4.76284">
        <ele>195</ele>
        <time>2018-09-26T10:02:51Z</time>
      </trkpt>
      <trkpt lat="45.89678" lon="4.76281">
        <ele>195</ele>
        <time>2018-09-26T10:02:52Z</time>
      </trkpt>
      <trkpt lat="45.89681" lon="4.76271">
        <ele>195</ele>
        <time>2018-09-26T10:02:55Z</time>
      </trkpt>
      <trkpt lat="45.89682" lon="4.76267">
        <ele>195</ele>
        <time>2018-09-26T10:02:56Z</time>
      </trkpt>
      <trkpt lat="45.89683" lon="4.76262">
        <ele>195</ele>
        <time>2018-09-26T10:02:57Z</time>
      </trkpt>
      <trkpt lat="45.89687" lon="4.7625">
        <ele>195</ele>
        <time>2018-09-26T10:02:58Z</time>
      </trkpt>
      <trkpt lat="45.89691" lon="4.76239">
        <ele>195</ele>
        <time>2018-09-26T10:03:00Z</time>
      </trkpt>
      <trkpt lat="45.89693" lon="4.76234">
        <ele>195</ele>
        <time>2018-09-26T10:03:01Z</time>
      </trkpt>
      <trkpt lat="45.89696" lon="4.76229">
        <ele>195</ele>
        <time>2018-09-26T10:03:02Z</time>
      </trkpt>
      <trkpt lat="45.89699" lon="4.76224">
        <ele>195</ele>
        <time>2018-09-26T10:03:03Z</time>
      </trkpt>
      <trkpt lat="45.89702" lon="4.76213">
        <ele>195</ele>
        <time>2018-09-26T10:03:05Z</time>
      </trkpt>
      <trkpt lat="45.89704" lon="4.76208">
        <ele>195</ele>
        <time>2018-09-26T10:03:06Z</time>
      </trkpt>
      <trkpt lat="45.89707" lon="4.76197">
        <ele>195</ele>
        <time>2018-09-26T10:03:10Z</time>
      </trkpt>
      <trkpt lat="45.89709" lon="4.76194">
        <ele>195</ele>
        <time>2018-09-26T10:03:11Z</time>
      </trkpt>
      <trkpt lat="45.89712" lon="4.76181">
        <ele>195</ele>
        <time>2018-09-26T10:03:12Z</time>
      </trkpt>
      <trkpt lat="45.89715" lon="4.7617">
        <ele>195</ele>
        <time>2018-09-26T10:03:14Z</time>
      </trkpt>
      <trkpt lat="45.89717" lon="4.76165">
        <ele>195</ele>
        <time>2018-09-26T10:03:15Z</time>
      </trkpt>
      <trkpt lat="45.89719" lon="4.7616">
        <ele>195</ele>
        <time>2018-09-26T10:03:17Z</time>
      </trkpt>
      <trkpt lat="45.89721" lon="4.76151">
        <ele>195</ele>
        <time>2018-09-26T10:03:18Z</time>
      </trkpt>
      <trkpt lat="45.89724" lon="4.76141">
        <ele>195</ele>
        <time>2018-09-26T10:03:20Z</time>
      </trkpt>
      <trkpt lat="45.89726" lon="4.76136">
        <ele>195</ele>
        <time>2018-09-26T10:03:21Z</time>
      </trkpt>
      <trkpt lat="45.8973" lon="4.76126">
        <ele>195</ele>
        <time>2018-09-26T10:03:23Z</time>
      </trkpt>
      <trkpt lat="45.8973" lon="4.76123">
        <ele>195</ele>
        <time>2018-09-26T10:03:24Z</time>
      </trkpt>
      <trkpt lat="45.89735" lon="4.76112">
        <ele>195</ele>
        <time>2018-09-26T10:03:26Z</time>
      </trkpt>
      <trkpt lat="45.89737" lon="4.76107">
        <ele>195</ele>
        <time>2018-09-26T10:03:27Z</time>
      </trkpt>
      <trkpt lat="45.89741" lon="4.76096">
        <ele>195</ele>
        <time>2018-09-26T10:03:29Z</time>
      </trkpt>
      <trkpt lat="45.89743" lon="4.76091">
        <ele>195</ele>
        <time>2018-09-26T10:03:30Z</time>
      </trkpt>
      <trkpt lat="45.89747" lon="4.76081">
        <ele>195</ele>
        <time>2018-09-26T10:03:32Z</time>
      </trkpt>
      <trkpt lat="45.89749" lon="4.76076">
        <ele>195</ele>
        <time>2018-09-26T10:03:33Z</time>
      </trkpt>
      <trkpt lat="45.89753" lon="4.76066">
        <ele>195</ele>
        <time>2018-09-26T10:03:35Z</time>
      </trkpt>
      <trkpt lat="45.89754" lon="4.76064">
        <ele>195</ele>
        <time>2018-09-26T10:03:36Z</time>
      </trkpt>
      <trkpt lat="45.89758" lon="4.76055">
        <ele>195</ele>
        <time>2018-09-26T10:03:39Z</time>
      </trkpt>
      <trkpt lat="45.8976" lon="4.76052">
        <ele>195</ele>
        <time>2018-09-26T10:03:40Z</time>
      </trkpt>
      <trkpt lat="45.89764" lon="4.76041">
        <ele>195</ele>
        <time>2018-09-26T10:03:41Z</time>
      </trkpt>
      <trkpt lat="45.89766" lon="4.76036">
        <ele>195</ele>
        <time>2018-09-26T10:03:42Z</time>
      </trkpt>
      <trkpt lat="45.89771" lon="4.76026">
        <ele>195</ele>
        <time>2018-09-26T10:03:44Z</time>
      </trkpt>
      <trkpt lat="45.89773" lon="4.76021">
        <ele>195</ele>
        <time>2018-09-26T10:03:45Z</time>
      </trkpt>
      <trkpt lat="45.89777" lon="4.76011">
        <ele>195</ele>
        <time>2018-09-26T10:03:48Z</time>
      </trkpt>
      <trkpt lat="45.89779" lon="4.76007">
        <ele>195</ele>
        <time>2018-09-26T10:03:49Z</time>
      </trkpt>
      <trkpt lat="45.89782" lon="4.75996">
        <ele>195</ele>
        <time>2018-09-26T10:03:52Z</time>
      </trkpt>
      <trkpt lat="45.89783" lon="4.75993">
        <ele>195</ele>
        <time>2018-09-26T10:03:53Z</time>
      </trkpt>
      <trkpt lat="45.89787" lon="4.75982">
        <ele>195</ele>
        <time>2018-09-26T10:03:54Z</time>
      </trkpt>
      <trkpt lat="45.89788" lon="4.75976">
        <ele>195</ele>
        <time>2018-09-26T10:03:55Z</time>
      </trkpt>
      <trkpt lat="45.89789" lon="4.75968">
        <ele>195</ele>
        <time>2018-09-26T10:03:56Z</time>
      </trkpt>
      <trkpt lat="45.8979" lon="4.75963">
        <ele>195</ele>
        <time>2018-09-26T10:03:57Z</time>
      </trkpt>
      <trkpt lat="45.89791" lon="4.75957">
        <ele>195</ele>
        <time>2018-09-26T10:03:58Z</time>
      </trkpt>
      <trkpt lat="45.89793" lon="4.7595">
        <ele>195</ele>
        <time>2018-09-26T10:03:59Z</time>
      </trkpt>
      <trkpt lat="45.89796" lon="4.7594">
        <ele>195</ele>
        <time>2018-09-26T10:04:01Z</time>
      </trkpt>
      <trkpt lat="45.89797" lon="4.75935">
        <ele>195</ele>
        <time>2018-09-26T10:04:02Z</time>
      </trkpt>
      <trkpt lat="45.898" lon="4.75926">
        <ele>195</ele>
        <time>2018-09-26T10:04:05Z</time>
      </trkpt>
      <trkpt lat="45.89802" lon="4.75914">
        <ele>194</ele>
        <time>2018-09-26T10:04:06Z</time>
      </trkpt>
      <trkpt lat="45.89804" lon="4.75904">
        <ele>194</ele>
        <time>2018-09-26T10:04:08Z</time>
      </trkpt>
      <trkpt lat="45.89805" lon="4.75899">
        <ele>194</ele>
        <time>2018-09-26T10:04:09Z</time>
      </trkpt>
      <trkpt lat="45.89808" lon="4.7589">
        <ele>194</ele>
        <time>2018-09-26T10:04:12Z</time>
      </trkpt>
      <trkpt lat="45.89811" lon="4.75881">
        <ele>194</ele>
        <time>2018-09-26T10:04:13Z</time>
      </trkpt>
      <trkpt lat="45.89815" lon="4.75875">
        <ele>194</ele>
        <time>2018-09-26T10:04:14Z</time>
      </trkpt>
      <trkpt lat="45.89818" lon="4.7587">
        <ele>194</ele>
        <time>2018-09-26T10:04:15Z</time>
      </trkpt>
      <trkpt lat="45.89822" lon="4.75864">
        <ele>194</ele>
        <time>2018-09-26T10:04:16Z</time>
      </trkpt>
      <trkpt lat="45.89825" lon="4.7586">
        <ele>193</ele>
        <time>2018-09-26T10:04:17Z</time>
      </trkpt>
      <trkpt lat="45.89828" lon="4.75854">
        <ele>193</ele>
        <time>2018-09-26T10:04:18Z</time>
      </trkpt>
      <trkpt lat="45.89832" lon="4.7585">
        <ele>193</ele>
        <time>2018-09-26T10:04:19Z</time>
      </trkpt>
      <trkpt lat="45.89836" lon="4.75845">
        <ele>192</ele>
        <time>2018-09-26T10:04:20Z</time>
      </trkpt>
      <trkpt lat="45.89839" lon="4.7584">
        <ele>192</ele>
        <time>2018-09-26T10:04:21Z</time>
      </trkpt>
      <trkpt lat="45.89842" lon="4.75835">
        <ele>192</ele>
        <time>2018-09-26T10:04:22Z</time>
      </trkpt>
      <trkpt lat="45.89846" lon="4.7583">
        <ele>192</ele>
        <time>2018-09-26T10:04:23Z</time>
      </trkpt>
      <trkpt lat="45.89849" lon="4.75825">
        <ele>192</ele>
        <time>2018-09-26T10:04:24Z</time>
      </trkpt>
      <trkpt lat="45.89852" lon="4.75821">
        <ele>192</ele>
        <time>2018-09-26T10:04:25Z</time>
      </trkpt>
      <trkpt lat="45.89856" lon="4.75817">
        <ele>192</ele>
        <time>2018-09-26T10:04:26Z</time>
      </trkpt>
      <trkpt lat="45.8986" lon="4.75812">
        <ele>192</ele>
        <time>2018-09-26T10:04:27Z</time>
      </trkpt>
      <trkpt lat="45.89867" lon="4.75806">
        <ele>192</ele>
        <time>2018-09-26T10:04:29Z</time>
      </trkpt>
      <trkpt lat="45.89871" lon="4.75805">
        <ele>192</ele>
        <time>2018-09-26T10:04:30Z</time>
      </trkpt>
      <trkpt lat="45.89875" lon="4.75802">
        <ele>192</ele>
        <time>2018-09-26T10:04:31Z</time>
      </trkpt>
      <trkpt lat="45.8988" lon="4.75799">
        <ele>192</ele>
        <time>2018-09-26T10:04:32Z</time>
      </trkpt>
      <trkpt lat="45.89885" lon="4.75796">
        <ele>192</ele>
        <time>2018-09-26T10:04:33Z</time>
      </trkpt>
      <trkpt lat="45.89889" lon="4.75793">
        <ele>192</ele>
        <time>2018-09-26T10:04:34Z</time>
      </trkpt>
      <trkpt lat="45.89895" lon="4.7579">
        <ele>192</ele>
        <time>2018-09-26T10:04:35Z</time>
      </trkpt>
      <trkpt lat="45.899" lon="4.75787">
        <ele>192</ele>
        <time>2018-09-26T10:04:36Z</time>
      </trkpt>
      <trkpt lat="45.89905" lon="4.75783">
        <ele>192</ele>
        <time>2018-09-26T10:04:37Z</time>
      </trkpt>
      <trkpt lat="45.8991" lon="4.75781">
        <ele>192</ele>
        <time>2018-09-26T10:04:38Z</time>
      </trkpt>
      <trkpt lat="45.89915" lon="4.75778">
        <ele>192</ele>
        <time>2018-09-26T10:04:39Z</time>
      </trkpt>
      <trkpt lat="45.8992" lon="4.75775">
        <ele>192</ele>
        <time>2018-09-26T10:04:40Z</time>
      </trkpt>
      <trkpt lat="45.89928" lon="4.75771">
        <ele>192</ele>
        <time>2018-09-26T10:04:42Z</time>
      </trkpt>
      <trkpt lat="45.89933" lon="4.75769">
        <ele>192</ele>
        <time>2018-09-26T10:04:43Z</time>
      </trkpt>
      <trkpt lat="45.89941" lon="4.75766">
        <ele>192</ele>
        <time>2018-09-26T10:04:45Z</time>
      </trkpt>
      <trkpt lat="45.89945" lon="4.75764">
        <ele>192</ele>
        <time>2018-09-26T10:04:46Z</time>
      </trkpt>
      <trkpt lat="45.89951" lon="4.75761">
        <ele>192</ele>
        <time>2018-09-26T10:04:47Z</time>
      </trkpt>
      <trkpt lat="45.89957" lon="4.75757">
        <ele>192</ele>
        <time>2018-09-26T10:04:48Z</time>
      </trkpt>
      <trkpt lat="45.89961" lon="4.75754">
        <ele>192</ele>
        <time>2018-09-26T10:04:49Z</time>
      </trkpt>
      <trkpt lat="45.89966" lon="4.75753">
        <ele>192</ele>
        <time>2018-09-26T10:04:50Z</time>
      </trkpt>
      <trkpt lat="45.89972" lon="4.75748">
        <ele>192</ele>
        <time>2018-09-26T10:04:51Z</time>
      </trkpt>
      <trkpt lat="45.89975" lon="4.75746">
        <ele>192</ele>
        <time>2018-09-26T10:04:52Z</time>
      </trkpt>
      <trkpt lat="45.89983" lon="4.7574">
        <ele>192</ele>
        <time>2018-09-26T10:04:54Z</time>
      </trkpt>
      <trkpt lat="45.89986" lon="4.75739">
        <ele>192</ele>
        <time>2018-09-26T10:04:55Z</time>
      </trkpt>
      <trkpt lat="45.89994" lon="4.75736">
        <ele>193</ele>
        <time>2018-09-26T10:04:57Z</time>
      </trkpt>
      <trkpt lat="45.89999" lon="4.75732">
        <ele>192</ele>
        <time>2018-09-26T10:04:58Z</time>
      </trkpt>
      <trkpt lat="45.90004" lon="4.75731">
        <ele>193</ele>
        <time>2018-09-26T10:04:59Z</time>
      </trkpt>
      <trkpt lat="45.90009" lon="4.75732">
        <ele>193</ele>
        <time>2018-09-26T10:05:00Z</time>
      </trkpt>
      <trkpt lat="45.90015" lon="4.75731">
        <ele>193</ele>
        <time>2018-09-26T10:05:01Z</time>
      </trkpt>
      <trkpt lat="45.9002" lon="4.75732">
        <ele>193</ele>
        <time>2018-09-26T10:05:02Z</time>
      </trkpt>
      <trkpt lat="45.90025" lon="4.75732">
        <ele>193</ele>
        <time>2018-09-26T10:05:03Z</time>
      </trkpt>
      <trkpt lat="45.9003" lon="4.75735">
        <ele>193</ele>
        <time>2018-09-26T10:05:04Z</time>
      </trkpt>
      <trkpt lat="45.90035" lon="4.75736">
        <ele>193</ele>
        <time>2018-09-26T10:05:05Z</time>
      </trkpt>
      <trkpt lat="45.90039" lon="4.75738">
        <ele>193</ele>
        <time>2018-09-26T10:05:06Z</time>
      </trkpt>
      <trkpt lat="45.90047" lon="4.75742">
        <ele>192</ele>
        <time>2018-09-26T10:05:08Z</time>
      </trkpt>
      <trkpt lat="45.90051" lon="4.75744">
        <ele>192</ele>
        <time>2018-09-26T10:05:09Z</time>
      </trkpt>
      <trkpt lat="45.90059" lon="4.75748">
        <ele>192</ele>
        <time>2018-09-26T10:05:11Z</time>
      </trkpt>
      <trkpt lat="45.90063" lon="4.75751">
        <ele>192</ele>
        <time>2018-09-26T10:05:12Z</time>
      </trkpt>
      <trkpt lat="45.90068" lon="4.75754">
        <ele>192</ele>
        <time>2018-09-26T10:05:13Z</time>
      </trkpt>
      <trkpt lat="45.90072" lon="4.75755">
        <ele>192</ele>
        <time>2018-09-26T10:05:14Z</time>
      </trkpt>
      <trkpt lat="45.90078" lon="4.75759">
        <ele>192</ele>
        <time>2018-09-26T10:05:15Z</time>
      </trkpt>
      <trkpt lat="45.90082" lon="4.75762">
        <ele>192</ele>
        <time>2018-09-26T10:05:16Z</time>
      </trkpt>
      <trkpt lat="45.90087" lon="4.75763">
        <ele>192</ele>
        <time>2018-09-26T10:05:17Z</time>
      </trkpt>
      <trkpt lat="45.90092" lon="4.75767">
        <ele>191</ele>
        <time>2018-09-26T10:05:18Z</time>
      </trkpt>
      <trkpt lat="45.90099" lon="4.75772">
        <ele>191</ele>
        <time>2018-09-26T10:05:20Z</time>
      </trkpt>
      <trkpt lat="45.90103" lon="4.75775">
        <ele>191</ele>
        <time>2018-09-26T10:05:21Z</time>
      </trkpt>
      <trkpt lat="45.90111" lon="4.7578">
        <ele>191</ele>
        <time>2018-09-26T10:05:23Z</time>
      </trkpt>
      <trkpt lat="45.90115" lon="4.75783">
        <ele>191</ele>
        <time>2018-09-26T10:05:24Z</time>
      </trkpt>
      <trkpt lat="45.90119" lon="4.75785">
        <ele>191</ele>
        <time>2018-09-26T10:05:25Z</time>
      </trkpt>
      <trkpt lat="45.90125" lon="4.75789">
        <ele>191</ele>
        <time>2018-09-26T10:05:26Z</time>
      </trkpt>
      <trkpt lat="45.9013" lon="4.75791">
        <ele>191</ele>
        <time>2018-09-26T10:05:27Z</time>
      </trkpt>
      <trkpt lat="45.90134" lon="4.75793">
        <ele>191</ele>
        <time>2018-09-26T10:05:28Z</time>
      </trkpt>
      <trkpt lat="45.90139" lon="4.75795">
        <ele>191</ele>
        <time>2018-09-26T10:05:29Z</time>
      </trkpt>
      <trkpt lat="45.90143" lon="4.75797">
        <ele>191</ele>
        <time>2018-09-26T10:05:30Z</time>
      </trkpt>
      <trkpt lat="45.90148" lon="4.75799">
        <ele>191</ele>
        <time>2018-09-26T10:05:31Z</time>
      </trkpt>
      <trkpt lat="45.90153" lon="4.75801">
        <ele>191</ele>
        <time>2018-09-26T10:05:32Z</time>
      </trkpt>
      <trkpt lat="45.9016" lon="4.75803">
        <ele>191</ele>
        <time>2018-09-26T10:05:33Z</time>
      </trkpt>
      <trkpt lat="45.90167" lon="4.75802">
        <ele>190</ele>
        <time>2018-09-26T10:05:34Z</time>
      </trkpt>
      <trkpt lat="45.90174" lon="4.75802">
        <ele>190</ele>
        <time>2018-09-26T10:05:35Z</time>
      </trkpt>
      <trkpt lat="45.90179" lon="4.75802">
        <ele>190</ele>
        <time>2018-09-26T10:05:36Z</time>
      </trkpt>
      <trkpt lat="45.90184" lon="4.75803">
        <ele>190</ele>
        <time>2018-09-26T10:05:37Z</time>
      </trkpt>
      <trkpt lat="45.90189" lon="4.75803">
        <ele>190</ele>
        <time>2018-09-26T10:05:38Z</time>
      </trkpt>
      <trkpt lat="45.90194" lon="4.75804">
        <ele>190</ele>
        <time>2018-09-26T10:05:39Z</time>
      </trkpt>
      <trkpt lat="45.90199" lon="4.75806">
        <ele>190</ele>
        <time>2018-09-26T10:05:40Z</time>
      </trkpt>
      <trkpt lat="45.90204" lon="4.75806">
        <ele>190</ele>
        <time>2018-09-26T10:05:41Z</time>
      </trkpt>
      <trkpt lat="45.90209" lon="4.75806">
        <ele>190</ele>
        <time>2018-09-26T10:05:42Z</time>
      </trkpt>
      <trkpt lat="45.90215" lon="4.75807">
        <ele>190</ele>
        <time>2018-09-26T10:05:43Z</time>
      </trkpt>
      <trkpt lat="45.9022" lon="4.75809">
        <ele>190</ele>
        <time>2018-09-26T10:05:44Z</time>
      </trkpt>
      <trkpt lat="45.90226" lon="4.7581">
        <ele>190</ele>
        <time>2018-09-26T10:05:45Z</time>
      </trkpt>
      <trkpt lat="45.90232" lon="4.75812">
        <ele>190</ele>
        <time>2018-09-26T10:05:46Z</time>
      </trkpt>
      <trkpt lat="45.90237" lon="4.75814">
        <ele>190</ele>
        <time>2018-09-26T10:05:47Z</time>
      </trkpt>
      <trkpt lat="45.90243" lon="4.75818">
        <ele>190</ele>
        <time>2018-09-26T10:05:48Z</time>
      </trkpt>
      <trkpt lat="45.90247" lon="4.7582">
        <ele>190</ele>
        <time>2018-09-26T10:05:49Z</time>
      </trkpt>
      <trkpt lat="45.90252" lon="4.75822">
        <ele>190</ele>
        <time>2018-09-26T10:05:50Z</time>
      </trkpt>
      <trkpt lat="45.90257" lon="4.75823">
        <ele>190</ele>
        <time>2018-09-26T10:05:51Z</time>
      </trkpt>
      <trkpt lat="45.90263" lon="4.75822">
        <ele>190</ele>
        <time>2018-09-26T10:05:52Z</time>
      </trkpt>
      <trkpt lat="45.90267" lon="4.75824">
        <ele>190</ele>
        <time>2018-09-26T10:05:53Z</time>
      </trkpt>
      <trkpt lat="45.90272" lon="4.75826">
        <ele>189</ele>
        <time>2018-09-26T10:05:54Z</time>
      </trkpt>
      <trkpt lat="45.90278" lon="4.75826">
        <ele>189</ele>
        <time>2018-09-26T10:05:55Z</time>
      </trkpt>
      <trkpt lat="45.90285" lon="4.75827">
        <ele>189</ele>
        <time>2018-09-26T10:05:56Z</time>
      </trkpt>
      <trkpt lat="45.9029" lon="4.75827">
        <ele>189</ele>
        <time>2018-09-26T10:05:57Z</time>
      </trkpt>
      <trkpt lat="45.90296" lon="4.75828">
        <ele>189</ele>
        <time>2018-09-26T10:05:58Z</time>
      </trkpt>
      <trkpt lat="45.90301" lon="4.7583">
        <ele>189</ele>
        <time>2018-09-26T10:05:59Z</time>
      </trkpt>
      <trkpt lat="45.90305" lon="4.75832">
        <ele>189</ele>
        <time>2018-09-26T10:06:00Z</time>
      </trkpt>
      <trkpt lat="45.90309" lon="4.75835">
        <ele>189</ele>
        <time>2018-09-26T10:06:01Z</time>
      </trkpt>
      <trkpt lat="45.90314" lon="4.75839">
        <ele>189</ele>
        <time>2018-09-26T10:06:02Z</time>
      </trkpt>
      <trkpt lat="45.90318" lon="4.75845">
        <ele>189</ele>
        <time>2018-09-26T10:06:03Z</time>
      </trkpt>
      <trkpt lat="45.9032" lon="4.75852">
        <ele>189</ele>
        <time>2018-09-26T10:06:04Z</time>
      </trkpt>
      <trkpt lat="45.90323" lon="4.75858">
        <ele>189</ele>
        <time>2018-09-26T10:06:05Z</time>
      </trkpt>
      <trkpt lat="45.90327" lon="4.75861">
        <ele>189</ele>
        <time>2018-09-26T10:06:06Z</time>
      </trkpt>
      <trkpt lat="45.90329" lon="4.75868">
        <ele>189</ele>
        <time>2018-09-26T10:06:07Z</time>
      </trkpt>
      <trkpt lat="45.90332" lon="4.75874">
        <ele>189</ele>
        <time>2018-09-26T10:06:08Z</time>
      </trkpt>
      <trkpt lat="45.90335" lon="4.75882">
        <ele>188</ele>
        <time>2018-09-26T10:06:09Z</time>
      </trkpt>
      <trkpt lat="45.90339" lon="4.75888">
        <ele>188</ele>
        <time>2018-09-26T10:06:10Z</time>
      </trkpt>
      <trkpt lat="45.90341" lon="4.75896">
        <ele>188</ele>
        <time>2018-09-26T10:06:11Z</time>
      </trkpt>
      <trkpt lat="45.90345" lon="4.75902">
        <ele>188</ele>
        <time>2018-09-26T10:06:12Z</time>
      </trkpt>
      <trkpt lat="45.90348" lon="4.75909">
        <ele>188</ele>
        <time>2018-09-26T10:06:13Z</time>
      </trkpt>
      <trkpt lat="45.90351" lon="4.75916">
        <ele>188</ele>
        <time>2018-09-26T10:06:14Z</time>
      </trkpt>
      <trkpt lat="45.90354" lon="4.75922">
        <ele>187</ele>
        <time>2018-09-26T10:06:15Z</time>
      </trkpt>
      <trkpt lat="45.90356" lon="4.75927">
        <ele>187</ele>
        <time>2018-09-26T10:06:16Z</time>
      </trkpt>
      <trkpt lat="45.9036" lon="4.75933">
        <ele>187</ele>
        <time>2018-09-26T10:06:17Z</time>
      </trkpt>
      <trkpt lat="45.90363" lon="4.75938">
        <ele>187</ele>
        <time>2018-09-26T10:06:18Z</time>
      </trkpt>
      <trkpt lat="45.90367" lon="4.75941">
        <ele>187</ele>
        <time>2018-09-26T10:06:19Z</time>
      </trkpt>
      <trkpt lat="45.90372" lon="4.75944">
        <ele>187</ele>
        <time>2018-09-26T10:06:20Z</time>
      </trkpt>
      <trkpt lat="45.90377" lon="4.75946">
        <ele>187</ele>
        <time>2018-09-26T10:06:21Z</time>
      </trkpt>
      <trkpt lat="45.90381" lon="4.75946">
        <ele>187</ele>
        <time>2018-09-26T10:06:22Z</time>
      </trkpt>
      <trkpt lat="45.90386" lon="4.75945">
        <ele>187</ele>
        <time>2018-09-26T10:06:23Z</time>
      </trkpt>
      <trkpt lat="45.90391" lon="4.75943">
        <ele>187</ele>
        <time>2018-09-26T10:06:24Z</time>
      </trkpt>
      <trkpt lat="45.90397" lon="4.75942">
        <ele>187</ele>
        <time>2018-09-26T10:06:25Z</time>
      </trkpt>
      <trkpt lat="45.90402" lon="4.75941">
        <ele>187</ele>
        <time>2018-09-26T10:06:26Z</time>
      </trkpt>
      <trkpt lat="45.90408" lon="4.7594">
        <ele>187</ele>
        <time>2018-09-26T10:06:27Z</time>
      </trkpt>
      <trkpt lat="45.90414" lon="4.75939">
        <ele>187</ele>
        <time>2018-09-26T10:06:28Z</time>
      </trkpt>
      <trkpt lat="45.90419" lon="4.75939">
        <ele>187</ele>
        <time>2018-09-26T10:06:29Z</time>
      </trkpt>
      <trkpt lat="45.90424" lon="4.75938">
        <ele>187</ele>
        <time>2018-09-26T10:06:30Z</time>
      </trkpt>
      <trkpt lat="45.90429" lon="4.75937">
        <ele>187</ele>
        <time>2018-09-26T10:06:31Z</time>
      </trkpt>
      <trkpt lat="45.90433" lon="4.75937">
        <ele>187</ele>
        <time>2018-09-26T10:06:32Z</time>
      </trkpt>
      <trkpt lat="45.90441" lon="4.75936">
        <ele>187</ele>
        <time>2018-09-26T10:06:34Z</time>
      </trkpt>
      <trkpt lat="45.90446" lon="4.75936">
        <ele>187</ele>
        <time>2018-09-26T10:06:35Z</time>
      </trkpt>
      <trkpt lat="45.90452" lon="4.75935">
        <ele>187</ele>
        <time>2018-09-26T10:06:36Z</time>
      </trkpt>
      <trkpt lat="45.90457" lon="4.75934">
        <ele>187</ele>
        <time>2018-09-26T10:06:37Z</time>
      </trkpt>
      <trkpt lat="45.90464" lon="4.75931">
        <ele>187</ele>
        <time>2018-09-26T10:06:38Z</time>
      </trkpt>
      <trkpt lat="45.90469" lon="4.7593">
        <ele>187</ele>
        <time>2018-09-26T10:06:39Z</time>
      </trkpt>
      <trkpt lat="45.90475" lon="4.7593">
        <ele>187</ele>
        <time>2018-09-26T10:06:40Z</time>
      </trkpt>
      <trkpt lat="45.90481" lon="4.7593">
        <ele>187</ele>
        <time>2018-09-26T10:06:41Z</time>
      </trkpt>
      <trkpt lat="45.90486" lon="4.75928">
        <ele>187</ele>
        <time>2018-09-26T10:06:42Z</time>
      </trkpt>
      <trkpt lat="45.9049" lon="4.75928">
        <ele>187</ele>
        <time>2018-09-26T10:06:43Z</time>
      </trkpt>
      <trkpt lat="45.90495" lon="4.75927">
        <ele>187</ele>
        <time>2018-09-26T10:06:44Z</time>
      </trkpt>
      <trkpt lat="45.905" lon="4.75927">
        <ele>187</ele>
        <time>2018-09-26T10:06:45Z</time>
      </trkpt>
      <trkpt lat="45.90505" lon="4.75925">
        <ele>187</ele>
        <time>2018-09-26T10:06:46Z</time>
      </trkpt>
      <trkpt lat="45.90509" lon="4.75926">
        <ele>187</ele>
        <time>2018-09-26T10:06:47Z</time>
      </trkpt>
      <trkpt lat="45.90518" lon="4.7593">
        <ele>187</ele>
        <time>2018-09-26T10:06:49Z</time>
      </trkpt>
      <trkpt lat="45.90522" lon="4.75931">
        <ele>186</ele>
        <time>2018-09-26T10:06:50Z</time>
      </trkpt>
      <trkpt lat="45.90527" lon="4.75933">
        <ele>186</ele>
        <time>2018-09-26T10:06:51Z</time>
      </trkpt>
      <trkpt lat="45.90532" lon="4.75937">
        <ele>186</ele>
        <time>2018-09-26T10:06:52Z</time>
      </trkpt>
      <trkpt lat="45.90536" lon="4.7594">
        <ele>186</ele>
        <time>2018-09-26T10:06:53Z</time>
      </trkpt>
      <trkpt lat="45.9054" lon="4.75944">
        <ele>186</ele>
        <time>2018-09-26T10:06:54Z</time>
      </trkpt>
      <trkpt lat="45.90544" lon="4.75949">
        <ele>186</ele>
        <time>2018-09-26T10:06:55Z</time>
      </trkpt>
      <trkpt lat="45.9055" lon="4.75953">
        <ele>186</ele>
        <time>2018-09-26T10:06:56Z</time>
      </trkpt>
      <trkpt lat="45.90555" lon="4.75958">
        <ele>186</ele>
        <time>2018-09-26T10:06:57Z</time>
      </trkpt>
      <trkpt lat="45.9056" lon="4.75961">
        <ele>186</ele>
        <time>2018-09-26T10:06:58Z</time>
      </trkpt>
      <trkpt lat="45.90566" lon="4.75963">
        <ele>186</ele>
        <time>2018-09-26T10:06:59Z</time>
      </trkpt>
      <trkpt lat="45.9057" lon="4.75966">
        <ele>186</ele>
        <time>2018-09-26T10:07:00Z</time>
      </trkpt>
      <trkpt lat="45.90578" lon="4.75972">
        <ele>186</ele>
        <time>2018-09-26T10:07:02Z</time>
      </trkpt>
      <trkpt lat="45.90582" lon="4.75976">
        <ele>186</ele>
        <time>2018-09-26T10:07:03Z</time>
      </trkpt>
      <trkpt lat="45.90587" lon="4.7598">
        <ele>186</ele>
        <time>2018-09-26T10:07:05Z</time>
      </trkpt>
      <trkpt lat="45.90592" lon="4.75984">
        <ele>186</ele>
        <time>2018-09-26T10:07:06Z</time>
      </trkpt>
      <trkpt lat="45.906" lon="4.75986">
        <ele>186</ele>
        <time>2018-09-26T10:07:08Z</time>
      </trkpt>
      <trkpt lat="45.90604" lon="4.75984">
        <ele>186</ele>
        <time>2018-09-26T10:07:09Z</time>
      </trkpt>
      <trkpt lat="45.9061" lon="4.75975">
        <ele>186</ele>
        <time>2018-09-26T10:07:11Z</time>
      </trkpt>
      <trkpt lat="45.90614" lon="4.75968">
        <ele>186</ele>
        <time>2018-09-26T10:07:12Z</time>
      </trkpt>
      <trkpt lat="45.90616" lon="4.75963">
        <ele>186</ele>
        <time>2018-09-26T10:07:13Z</time>
      </trkpt>
      <trkpt lat="45.9062" lon="4.75958">
        <ele>186</ele>
        <time>2018-09-26T10:07:14Z</time>
      </trkpt>
      <trkpt lat="45.90623" lon="4.75953">
        <ele>186</ele>
        <time>2018-09-26T10:07:15Z</time>
      </trkpt>
      <trkpt lat="45.90626" lon="4.75947">
        <ele>186</ele>
        <time>2018-09-26T10:07:16Z</time>
      </trkpt>
      <trkpt lat="45.9063" lon="4.75941">
        <ele>186</ele>
        <time>2018-09-26T10:07:17Z</time>
      </trkpt>
      <trkpt lat="45.90632" lon="4.75938">
        <ele>186</ele>
        <time>2018-09-26T10:07:18Z</time>
      </trkpt>
      <trkpt lat="45.90635" lon="4.75933">
        <ele>186</ele>
        <time>2018-09-26T10:07:19Z</time>
      </trkpt>
      <trkpt lat="45.90639" lon="4.75928">
        <ele>186</ele>
        <time>2018-09-26T10:07:20Z</time>
      </trkpt>
      <trkpt lat="45.90642" lon="4.75923">
        <ele>186</ele>
        <time>2018-09-26T10:07:21Z</time>
      </trkpt>
      <trkpt lat="45.90647" lon="4.75915">
        <ele>187</ele>
        <time>2018-09-26T10:07:22Z</time>
      </trkpt>
      <trkpt lat="45.90651" lon="4.75907">
        <ele>187</ele>
        <time>2018-09-26T10:07:24Z</time>
      </trkpt>
      <trkpt lat="45.90654" lon="4.75903">
        <ele>187</ele>
        <time>2018-09-26T10:07:25Z</time>
      </trkpt>
      <trkpt lat="45.90659" lon="4.75894">
        <ele>187</ele>
        <time>2018-09-26T10:07:27Z</time>
      </trkpt>
      <trkpt lat="45.90661" lon="4.7589">
        <ele>187</ele>
        <time>2018-09-26T10:07:28Z</time>
      </trkpt>
      <trkpt lat="45.90666" lon="4.75883">
        <ele>187</ele>
        <time>2018-09-26T10:07:30Z</time>
      </trkpt>
      <trkpt lat="45.90669" lon="4.75879">
        <ele>187</ele>
        <time>2018-09-26T10:07:31Z</time>
      </trkpt>
      <trkpt lat="45.90676" lon="4.75872">
        <ele>187</ele>
        <time>2018-09-26T10:07:33Z</time>
      </trkpt>
      <trkpt lat="45.9068" lon="4.75868">
        <ele>187</ele>
        <time>2018-09-26T10:07:34Z</time>
      </trkpt>
      <trkpt lat="45.90684" lon="4.75865">
        <ele>187</ele>
        <time>2018-09-26T10:07:35Z</time>
      </trkpt>
      <trkpt lat="45.90689" lon="4.75863">
        <ele>187</ele>
        <time>2018-09-26T10:07:36Z</time>
      </trkpt>
      <trkpt lat="45.90693" lon="4.75862">
        <ele>187</ele>
        <time>2018-09-26T10:07:37Z</time>
      </trkpt>
      <trkpt lat="45.90698" lon="4.7586">
        <ele>187</ele>
        <time>2018-09-26T10:07:38Z</time>
      </trkpt>
      <trkpt lat="45.90707" lon="4.75859">
        <ele>187</ele>
        <time>2018-09-26T10:07:40Z</time>
      </trkpt>
      <trkpt lat="45.90711" lon="4.75859">
        <ele>187</ele>
        <time>2018-09-26T10:07:41Z</time>
      </trkpt>
      <trkpt lat="45.90718" lon="4.7586">
        <ele>186</ele>
        <time>2018-09-26T10:07:42Z</time>
      </trkpt>
      <trkpt lat="45.90723" lon="4.75859">
        <ele>186</ele>
        <time>2018-09-26T10:07:43Z</time>
      </trkpt>
      <trkpt lat="45.90729" lon="4.75861">
        <ele>186</ele>
        <time>2018-09-26T10:07:44Z</time>
      </trkpt>
      <trkpt lat="45.90734" lon="4.75861">
        <ele>186</ele>
        <time>2018-09-26T10:07:45Z</time>
      </trkpt>
      <trkpt lat="45.90738" lon="4.75863">
        <ele>186</ele>
        <time>2018-09-26T10:07:46Z</time>
      </trkpt>
      <trkpt lat="45.90743" lon="4.75863">
        <ele>186</ele>
        <time>2018-09-26T10:07:47Z</time>
      </trkpt>
      <trkpt lat="45.90748" lon="4.75864">
        <ele>186</ele>
        <time>2018-09-26T10:07:48Z</time>
      </trkpt>
      <trkpt lat="45.90753" lon="4.75865">
        <ele>185</ele>
        <time>2018-09-26T10:07:49Z</time>
      </trkpt>
      <trkpt lat="45.90757" lon="4.75866">
        <ele>185</ele>
        <time>2018-09-26T10:07:50Z</time>
      </trkpt>
      <trkpt lat="45.90762" lon="4.75867">
        <ele>185</ele>
        <time>2018-09-26T10:07:51Z</time>
      </trkpt>
      <trkpt lat="45.9077" lon="4.75869">
        <ele>185</ele>
        <time>2018-09-26T10:07:53Z</time>
      </trkpt>
      <trkpt lat="45.90773" lon="4.75868">
        <ele>185</ele>
        <time>2018-09-26T10:07:54Z</time>
      </trkpt>
      <trkpt lat="45.90781" lon="4.7587">
        <ele>185</ele>
        <time>2018-09-26T10:07:56Z</time>
      </trkpt>
      <trkpt lat="45.90783" lon="4.75869">
        <ele>185</ele>
        <time>2018-09-26T10:07:57Z</time>
      </trkpt>
      <trkpt lat="45.9079" lon="4.75869">
        <ele>185</ele>
        <time>2018-09-26T10:07:59Z</time>
      </trkpt>
      <trkpt lat="45.90795" lon="4.7587">
        <ele>185</ele>
        <time>2018-09-26T10:08:00Z</time>
      </trkpt>
      <trkpt lat="45.90803" lon="4.7587">
        <ele>185</ele>
        <time>2018-09-26T10:08:02Z</time>
      </trkpt>
      <trkpt lat="45.90809" lon="4.7587">
        <ele>185</ele>
        <time>2018-09-26T10:08:03Z</time>
      </trkpt>
      <trkpt lat="45.90813" lon="4.7587">
        <ele>185</ele>
        <time>2018-09-26T10:08:04Z</time>
      </trkpt>
      <trkpt lat="45.90819" lon="4.7587">
        <ele>185</ele>
        <time>2018-09-26T10:08:05Z</time>
      </trkpt>
      <trkpt lat="45.90827" lon="4.75871">
        <ele>185</ele>
        <time>2018-09-26T10:08:07Z</time>
      </trkpt>
      <trkpt lat="45.90832" lon="4.75872">
        <ele>185</ele>
        <time>2018-09-26T10:08:08Z</time>
      </trkpt>
      <trkpt lat="45.90837" lon="4.75872">
        <ele>184</ele>
        <time>2018-09-26T10:08:09Z</time>
      </trkpt>
      <trkpt lat="45.90842" lon="4.75872">
        <ele>184</ele>
        <time>2018-09-26T10:08:10Z</time>
      </trkpt>
      <trkpt lat="45.90849" lon="4.75872">
        <ele>184</ele>
        <time>2018-09-26T10:08:12Z</time>
      </trkpt>
      <trkpt lat="45.90853" lon="4.75872">
        <ele>184</ele>
        <time>2018-09-26T10:08:13Z</time>
      </trkpt>
      <trkpt lat="45.90861" lon="4.75876">
        <ele>184</ele>
        <time>2018-09-26T10:08:15Z</time>
      </trkpt>
      <trkpt lat="45.90865" lon="4.75875">
        <ele>184</ele>
        <time>2018-09-26T10:08:16Z</time>
      </trkpt>
      <trkpt lat="45.90873" lon="4.75877">
        <ele>184</ele>
        <time>2018-09-26T10:08:18Z</time>
      </trkpt>
      <trkpt lat="45.90877" lon="4.75877">
        <ele>184</ele>
        <time>2018-09-26T10:08:19Z</time>
      </trkpt>
      <trkpt lat="45.90885" lon="4.75876">
        <ele>184</ele>
        <time>2018-09-26T10:08:21Z</time>
      </trkpt>
      <trkpt lat="45.90887" lon="4.75876">
        <ele>184</ele>
        <time>2018-09-26T10:08:22Z</time>
      </trkpt>
      <trkpt lat="45.90893" lon="4.75869">
        <ele>184</ele>
        <time>2018-09-26T10:08:27Z</time>
      </trkpt>
      <trkpt lat="45.90893" lon="4.75866">
        <ele>184</ele>
        <time>2018-09-26T10:08:28Z</time>
      </trkpt>
      <trkpt lat="45.90892" lon="4.75856">
        <ele>184</ele>
        <time>2018-09-26T10:08:31Z</time>
      </trkpt>
      <trkpt lat="45.90892" lon="4.75852">
        <ele>184</ele>
        <time>2018-09-26T10:08:32Z</time>
      </trkpt>
      <trkpt lat="45.90891" lon="4.75843">
        <ele>184</ele>
        <time>2018-09-26T10:08:34Z</time>
      </trkpt>
      <trkpt lat="45.90891" lon="4.75839">
        <ele>184</ele>
        <time>2018-09-26T10:08:35Z</time>
      </trkpt>
      <trkpt lat="45.90891" lon="4.75829">
        <ele>184</ele>
        <time>2018-09-26T10:08:37Z</time>
      </trkpt>
      <trkpt lat="45.90892" lon="4.75823">
        <ele>184</ele>
        <time>2018-09-26T10:08:38Z</time>
      </trkpt>
      <trkpt lat="45.90893" lon="4.75809">
        <ele>184</ele>
        <time>2018-09-26T10:08:39Z</time>
      </trkpt>
      <trkpt lat="45.90895" lon="4.75798">
        <ele>184</ele>
        <time>2018-09-26T10:08:41Z</time>
      </trkpt>
      <trkpt lat="45.90895" lon="4.75792">
        <ele>184</ele>
        <time>2018-09-26T10:08:42Z</time>
      </trkpt>
      <trkpt lat="45.90896" lon="4.75782">
        <ele>185</ele>
        <time>2018-09-26T10:08:45Z</time>
      </trkpt>
      <trkpt lat="45.90896" lon="4.75771">
        <ele>184</ele>
        <time>2018-09-26T10:08:46Z</time>
      </trkpt>
      <trkpt lat="45.90896" lon="4.75765">
        <ele>184</ele>
        <time>2018-09-26T10:08:48Z</time>
      </trkpt>
      <trkpt lat="45.90897" lon="4.75756">
        <ele>184</ele>
        <time>2018-09-26T10:08:49Z</time>
      </trkpt>
      <trkpt lat="45.90898" lon="4.75744">
        <ele>184</ele>
        <time>2018-09-26T10:08:51Z</time>
      </trkpt>
      <trkpt lat="45.90899" lon="4.75738">
        <ele>184</ele>
        <time>2018-09-26T10:08:52Z</time>
      </trkpt>
      <trkpt lat="45.90899" lon="4.75727">
        <ele>184</ele>
        <time>2018-09-26T10:08:54Z</time>
      </trkpt>
      <trkpt lat="45.909" lon="4.75724">
        <ele>184</ele>
        <time>2018-09-26T10:08:55Z</time>
      </trkpt>
      <trkpt lat="45.90901" lon="4.75712">
        <ele>184</ele>
        <time>2018-09-26T10:08:59Z</time>
      </trkpt>
      <trkpt lat="45.90901" lon="4.75709">
        <ele>184</ele>
        <time>2018-09-26T10:09:00Z</time>
      </trkpt>
      <trkpt lat="45.90902" lon="4.75701">
        <ele>184</ele>
        <time>2018-09-26T10:09:02Z</time>
      </trkpt>
      <trkpt lat="45.90903" lon="4.7569">
        <ele>184</ele>
        <time>2018-09-26T10:09:03Z</time>
      </trkpt>
      <trkpt lat="45.90903" lon="4.7568">
        <ele>184</ele>
        <time>2018-09-26T10:09:06Z</time>
      </trkpt>
      <trkpt lat="45.90904" lon="4.75677">
        <ele>184</ele>
        <time>2018-09-26T10:09:07Z</time>
      </trkpt>
      <trkpt lat="45.90904" lon="4.75666">
        <ele>184</ele>
        <time>2018-09-26T10:09:10Z</time>
      </trkpt>
      <trkpt lat="45.90904" lon="4.75662">
        <ele>184</ele>
        <time>2018-09-26T10:09:11Z</time>
      </trkpt>
      <trkpt lat="45.90903" lon="4.75651">
        <ele>184</ele>
        <time>2018-09-26T10:09:14Z</time>
      </trkpt>
      <trkpt lat="45.90903" lon="4.75647">
        <ele>184</ele>
        <time>2018-09-26T10:09:15Z</time>
      </trkpt>
      <trkpt lat="45.90903" lon="4.75643">
        <ele>185</ele>
        <time>2018-09-26T10:09:16Z</time>
      </trkpt>
      <trkpt lat="45.90902" lon="4.7563">
        <ele>185</ele>
        <time>2018-09-26T10:09:17Z</time>
      </trkpt>
      <trkpt lat="45.90903" lon="4.75617">
        <ele>185</ele>
        <time>2018-09-26T10:09:21Z</time>
      </trkpt>
      <trkpt lat="45.90903" lon="4.75614">
        <ele>185</ele>
        <time>2018-09-26T10:09:22Z</time>
      </trkpt>
      <trkpt lat="45.90905" lon="4.75605">
        <ele>185</ele>
        <time>2018-09-26T10:09:25Z</time>
      </trkpt>
      <trkpt lat="45.90905" lon="4.75601">
        <ele>185</ele>
        <time>2018-09-26T10:09:26Z</time>
      </trkpt>
      <trkpt lat="45.90906" lon="4.75589">
        <ele>185</ele>
        <time>2018-09-26T10:09:29Z</time>
      </trkpt>
      <trkpt lat="45.90907" lon="4.75585">
        <ele>185</ele>
        <time>2018-09-26T10:09:30Z</time>
      </trkpt>
      <trkpt lat="45.90908" lon="4.75576">
        <ele>185</ele>
        <time>2018-09-26T10:09:32Z</time>
      </trkpt>
      <trkpt lat="45.90908" lon="4.75571">
        <ele>185</ele>
        <time>2018-09-26T10:09:33Z</time>
      </trkpt>
      <trkpt lat="45.9091" lon="4.75561">
        <ele>186</ele>
        <time>2018-09-26T10:09:35Z</time>
      </trkpt>
      <trkpt lat="45.9091" lon="4.75557">
        <ele>186</ele>
        <time>2018-09-26T10:09:36Z</time>
      </trkpt>
      <trkpt lat="45.90911" lon="4.75547">
        <ele>186</ele>
        <time>2018-09-26T10:09:39Z</time>
      </trkpt>
      <trkpt lat="45.90911" lon="4.75543">
        <ele>186</ele>
        <time>2018-09-26T10:09:40Z</time>
      </trkpt>
      <trkpt lat="45.90911" lon="4.75533">
        <ele>186</ele>
        <time>2018-09-26T10:09:43Z</time>
      </trkpt>
      <trkpt lat="45.90911" lon="4.75529">
        <ele>186</ele>
        <time>2018-09-26T10:09:44Z</time>
      </trkpt>
      <trkpt lat="45.90913" lon="4.75518">
        <ele>186</ele>
        <time>2018-09-26T10:09:47Z</time>
      </trkpt>
      <trkpt lat="45.90913" lon="4.75514">
        <ele>186</ele>
        <time>2018-09-26T10:09:48Z</time>
      </trkpt>
      <trkpt lat="45.90915" lon="4.75502">
        <ele>186</ele>
        <time>2018-09-26T10:09:51Z</time>
      </trkpt>
      <trkpt lat="45.90915" lon="4.75498">
        <ele>186</ele>
        <time>2018-09-26T10:09:52Z</time>
      </trkpt>
      <trkpt lat="45.90917" lon="4.75488">
        <ele>186</ele>
        <time>2018-09-26T10:09:55Z</time>
      </trkpt>
      <trkpt lat="45.90917" lon="4.75485">
        <ele>186</ele>
        <time>2018-09-26T10:09:56Z</time>
      </trkpt>
      <trkpt lat="45.90919" lon="4.75472">
        <ele>185</ele>
        <time>2018-09-26T10:10:01Z</time>
      </trkpt>
      <trkpt lat="45.90919" lon="4.75471">
        <ele>185</ele>
        <time>2018-09-26T10:10:02Z</time>
      </trkpt>
      <trkpt lat="45.90916" lon="4.75459">
        <ele>186</ele>
        <time>2018-09-26T10:16:12Z</time>
      </trkpt>
      <trkpt lat="45.90916" lon="4.75458">
        <ele>186</ele>
        <time>2018-09-26T10:16:13Z</time>
      </trkpt>
      <trkpt lat="45.90917" lon="4.75448">
        <ele>185</ele>
        <time>2018-09-26T10:16:19Z</time>
      </trkpt>
      <trkpt lat="45.90917" lon="4.75445">
        <ele>185</ele>
        <time>2018-09-26T10:16:20Z</time>
      </trkpt>
      <trkpt lat="45.90918" lon="4.75434">
        <ele>185</ele>
        <time>2018-09-26T10:16:23Z</time>
      </trkpt>
      <trkpt lat="45.90919" lon="4.7543">
        <ele>185</ele>
        <time>2018-09-26T10:16:24Z</time>
      </trkpt>
      <trkpt lat="45.9092" lon="4.75425">
        <ele>185</ele>
        <time>2018-09-26T10:16:25Z</time>
      </trkpt>
      <trkpt lat="45.90921" lon="4.7541">
        <ele>185</ele>
        <time>2018-09-26T10:16:26Z</time>
      </trkpt>
      <trkpt lat="45.90922" lon="4.75398">
        <ele>185</ele>
        <time>2018-09-26T10:16:29Z</time>
      </trkpt>
      <trkpt lat="45.90923" lon="4.75394">
        <ele>185</ele>
        <time>2018-09-26T10:16:30Z</time>
      </trkpt>
      <trkpt lat="45.90924" lon="4.75382">
        <ele>185</ele>
        <time>2018-09-26T10:16:33Z</time>
      </trkpt>
      <trkpt lat="45.90924" lon="4.75378">
        <ele>185</ele>
        <time>2018-09-26T10:16:34Z</time>
      </trkpt>
      <trkpt lat="45.90925" lon="4.7537">
        <ele>185</ele>
        <time>2018-09-26T10:16:36Z</time>
      </trkpt>
      <trkpt lat="45.90926" lon="4.75356">
        <ele>185</ele>
        <time>2018-09-26T10:16:37Z</time>
      </trkpt>
      <trkpt lat="45.90927" lon="4.75344">
        <ele>186</ele>
        <time>2018-09-26T10:16:39Z</time>
      </trkpt>
      <trkpt lat="45.90927" lon="4.75341">
        <ele>186</ele>
        <time>2018-09-26T10:16:40Z</time>
      </trkpt>
      <trkpt lat="45.90928" lon="4.75331">
        <ele>186</ele>
        <time>2018-09-26T10:16:43Z</time>
      </trkpt>
      <trkpt lat="45.90928" lon="4.75327">
        <ele>185</ele>
        <time>2018-09-26T10:16:44Z</time>
      </trkpt>
      <trkpt lat="45.90929" lon="4.75315">
        <ele>185</ele>
        <time>2018-09-26T10:16:47Z</time>
      </trkpt>
      <trkpt lat="45.90929" lon="4.75311">
        <ele>185</ele>
        <time>2018-09-26T10:16:48Z</time>
      </trkpt>
      <trkpt lat="45.90931" lon="4.75298">
        <ele>185</ele>
        <time>2018-09-26T10:16:51Z</time>
      </trkpt>
      <trkpt lat="45.90933" lon="4.75284">
        <ele>185</ele>
        <time>2018-09-26T10:16:52Z</time>
      </trkpt>
      <trkpt lat="45.90934" lon="4.75273">
        <ele>185</ele>
        <time>2018-09-26T10:16:54Z</time>
      </trkpt>
      <trkpt lat="45.90934" lon="4.75268">
        <ele>185</ele>
        <time>2018-09-26T10:16:55Z</time>
      </trkpt>
      <trkpt lat="45.90936" lon="4.75256">
        <ele>185</ele>
        <time>2018-09-26T10:16:58Z</time>
      </trkpt>
      <trkpt lat="45.90936" lon="4.75253">
        <ele>185</ele>
        <time>2018-09-26T10:16:59Z</time>
      </trkpt>
      <trkpt lat="45.90937" lon="4.75243">
        <ele>184</ele>
        <time>2018-09-26T10:17:02Z</time>
      </trkpt>
      <trkpt lat="45.90937" lon="4.75239">
        <ele>184</ele>
        <time>2018-09-26T10:17:03Z</time>
      </trkpt>
      <trkpt lat="45.90938" lon="4.7523">
        <ele>184</ele>
        <time>2018-09-26T10:17:05Z</time>
      </trkpt>
      <trkpt lat="45.90939" lon="4.75225">
        <ele>184</ele>
        <time>2018-09-26T10:17:06Z</time>
      </trkpt>
      <trkpt lat="45.9094" lon="4.75216">
        <ele>184</ele>
        <time>2018-09-26T10:17:08Z</time>
      </trkpt>
      <trkpt lat="45.9094" lon="4.75212">
        <ele>184</ele>
        <time>2018-09-26T10:17:09Z</time>
      </trkpt>
      <trkpt lat="45.90941" lon="4.75202">
        <ele>184</ele>
        <time>2018-09-26T10:17:11Z</time>
      </trkpt>
      <trkpt lat="45.90942" lon="4.75198">
        <ele>183</ele>
        <time>2018-09-26T10:17:12Z</time>
      </trkpt>
      <trkpt lat="45.90943" lon="4.75189">
        <ele>183</ele>
        <time>2018-09-26T10:17:14Z</time>
      </trkpt>
      <trkpt lat="45.90943" lon="4.75184">
        <ele>183</ele>
        <time>2018-09-26T10:17:15Z</time>
      </trkpt>
      <trkpt lat="45.90944" lon="4.7518">
        <ele>183</ele>
        <time>2018-09-26T10:17:16Z</time>
      </trkpt>
      <trkpt lat="45.90946" lon="4.75164">
        <ele>182</ele>
        <time>2018-09-26T10:17:17Z</time>
      </trkpt>
      <trkpt lat="45.90948" lon="4.75153">
        <ele>182</ele>
        <time>2018-09-26T10:17:19Z</time>
      </trkpt>
      <trkpt lat="45.90949" lon="4.75147">
        <ele>182</ele>
        <time>2018-09-26T10:17:20Z</time>
      </trkpt>
      <trkpt lat="45.9095" lon="4.75141">
        <ele>182</ele>
        <time>2018-09-26T10:17:22Z</time>
      </trkpt>
      <trkpt lat="45.90951" lon="4.75131">
        <ele>181</ele>
        <time>2018-09-26T10:17:23Z</time>
      </trkpt>
      <trkpt lat="45.90951" lon="4.7512">
        <ele>181</ele>
        <time>2018-09-26T10:17:26Z</time>
      </trkpt>
      <trkpt lat="45.90952" lon="4.75116">
        <ele>181</ele>
        <time>2018-09-26T10:17:27Z</time>
      </trkpt>
      <trkpt lat="45.90953" lon="4.75104">
        <ele>181</ele>
        <time>2018-09-26T10:17:30Z</time>
      </trkpt>
      <trkpt lat="45.90953" lon="4.751">
        <ele>181</ele>
        <time>2018-09-26T10:17:31Z</time>
      </trkpt>
      <trkpt lat="45.90955" lon="4.75088">
        <ele>181</ele>
        <time>2018-09-26T10:17:34Z</time>
      </trkpt>
      <trkpt lat="45.90955" lon="4.75084">
        <ele>181</ele>
        <time>2018-09-26T10:17:35Z</time>
      </trkpt>
      <trkpt lat="45.90956" lon="4.75076">
        <ele>179</ele>
        <time>2018-09-26T10:17:37Z</time>
      </trkpt>
      <trkpt lat="45.90956" lon="4.7507">
        <ele>179</ele>
        <time>2018-09-26T10:17:38Z</time>
      </trkpt>
      <trkpt lat="45.90957" lon="4.75058">
        <ele>179</ele>
        <time>2018-09-26T10:17:41Z</time>
      </trkpt>
      <trkpt lat="45.90958" lon="4.75055">
        <ele>179</ele>
        <time>2018-09-26T10:17:42Z</time>
      </trkpt>
      <trkpt lat="45.90959" lon="4.75043">
        <ele>179</ele>
        <time>2018-09-26T10:17:45Z</time>
      </trkpt>
      <trkpt lat="45.90959" lon="4.7504">
        <ele>179</ele>
        <time>2018-09-26T10:17:46Z</time>
      </trkpt>
      <trkpt lat="45.90963" lon="4.75029">
        <ele>179</ele>
        <time>2018-09-26T10:17:49Z</time>
      </trkpt>
      <trkpt lat="45.90969" lon="4.75022">
        <ele>178</ele>
        <time>2018-09-26T10:17:50Z</time>
      </trkpt>
      <trkpt lat="45.90977" lon="4.75026">
        <ele>178</ele>
        <time>2018-09-26T10:17:52Z</time>
      </trkpt>
      <trkpt lat="45.90981" lon="4.75029">
        <ele>178</ele>
        <time>2018-09-26T10:17:53Z</time>
      </trkpt>
      <trkpt lat="45.90989" lon="4.75034">
        <ele>178</ele>
        <time>2018-09-26T10:17:56Z</time>
      </trkpt>
      <trkpt lat="45.90996" lon="4.75038">
        <ele>178</ele>
        <time>2018-09-26T10:17:57Z</time>
      </trkpt>
      <trkpt lat="45.91001" lon="4.75042">
        <ele>178</ele>
        <time>2018-09-26T10:17:58Z</time>
      </trkpt>
      <trkpt lat="45.91006" lon="4.75044">
        <ele>178</ele>
        <time>2018-09-26T10:17:59Z</time>
      </trkpt>
      <trkpt lat="45.91014" lon="4.75048">
        <ele>178</ele>
        <time>2018-09-26T10:18:01Z</time>
      </trkpt>
      <trkpt lat="45.91018" lon="4.7505">
        <ele>178</ele>
        <time>2018-09-26T10:18:02Z</time>
      </trkpt>
      <trkpt lat="45.91022" lon="4.75052">
        <ele>179</ele>
        <time>2018-09-26T10:18:03Z</time>
      </trkpt>
      <trkpt lat="45.91027" lon="4.75054">
        <ele>179</ele>
        <time>2018-09-26T10:18:04Z</time>
      </trkpt>
      <trkpt lat="45.91034" lon="4.75056">
        <ele>179</ele>
        <time>2018-09-26T10:18:06Z</time>
      </trkpt>
      <trkpt lat="45.91039" lon="4.75058">
        <ele>179</ele>
        <time>2018-09-26T10:18:07Z</time>
      </trkpt>
      <trkpt lat="45.91045" lon="4.75059">
        <ele>179</ele>
        <time>2018-09-26T10:18:08Z</time>
      </trkpt>
      <trkpt lat="45.9105" lon="4.75061">
        <ele>179</ele>
        <time>2018-09-26T10:18:09Z</time>
      </trkpt>
      <trkpt lat="45.91056" lon="4.75064">
        <ele>179</ele>
        <time>2018-09-26T10:18:10Z</time>
      </trkpt>
      <trkpt lat="45.91062" lon="4.75066">
        <ele>179</ele>
        <time>2018-09-26T10:18:11Z</time>
      </trkpt>
      <trkpt lat="45.91068" lon="4.75068">
        <ele>179</ele>
        <time>2018-09-26T10:18:12Z</time>
      </trkpt>
      <trkpt lat="45.91074" lon="4.7507">
        <ele>179</ele>
        <time>2018-09-26T10:18:13Z</time>
      </trkpt>
      <trkpt lat="45.9108" lon="4.75073">
        <ele>179</ele>
        <time>2018-09-26T10:18:14Z</time>
      </trkpt>
      <trkpt lat="45.91086" lon="4.75075">
        <ele>180</ele>
        <time>2018-09-26T10:18:15Z</time>
      </trkpt>
      <trkpt lat="45.91092" lon="4.75077">
        <ele>179</ele>
        <time>2018-09-26T10:18:16Z</time>
      </trkpt>
      <trkpt lat="45.91097" lon="4.7508">
        <ele>179</ele>
        <time>2018-09-26T10:18:17Z</time>
      </trkpt>
      <trkpt lat="45.91103" lon="4.75082">
        <ele>179</ele>
        <time>2018-09-26T10:18:18Z</time>
      </trkpt>
      <trkpt lat="45.91108" lon="4.75084">
        <ele>180</ele>
        <time>2018-09-26T10:18:19Z</time>
      </trkpt>
      <trkpt lat="45.91113" lon="4.75087">
        <ele>179</ele>
        <time>2018-09-26T10:18:20Z</time>
      </trkpt>
      <trkpt lat="45.91118" lon="4.75088">
        <ele>179</ele>
        <time>2018-09-26T10:18:21Z</time>
      </trkpt>
      <trkpt lat="45.91123" lon="4.75091">
        <ele>179</ele>
        <time>2018-09-26T10:18:22Z</time>
      </trkpt>
      <trkpt lat="45.91128" lon="4.75094">
        <ele>179</ele>
        <time>2018-09-26T10:18:23Z</time>
      </trkpt>
      <trkpt lat="45.91133" lon="4.75096">
        <ele>179</ele>
        <time>2018-09-26T10:18:24Z</time>
      </trkpt>
      <trkpt lat="45.91138" lon="4.75098">
        <ele>179</ele>
        <time>2018-09-26T10:18:25Z</time>
      </trkpt>
      <trkpt lat="45.91143" lon="4.75099">
        <ele>179</ele>
        <time>2018-09-26T10:18:26Z</time>
      </trkpt>
      <trkpt lat="45.91147" lon="4.75099">
        <ele>179</ele>
        <time>2018-09-26T10:18:27Z</time>
      </trkpt>
      <trkpt lat="45.91152" lon="4.751">
        <ele>179</ele>
        <time>2018-09-26T10:18:28Z</time>
      </trkpt>
      <trkpt lat="45.91157" lon="4.75099">
        <ele>179</ele>
        <time>2018-09-26T10:18:29Z</time>
      </trkpt>
      <trkpt lat="45.91161" lon="4.75101">
        <ele>179</ele>
        <time>2018-09-26T10:18:30Z</time>
      </trkpt>
      <trkpt lat="45.91168" lon="4.75102">
        <ele>178</ele>
        <time>2018-09-26T10:18:31Z</time>
      </trkpt>
      <trkpt lat="45.91173" lon="4.75103">
        <ele>178</ele>
        <time>2018-09-26T10:18:32Z</time>
      </trkpt>
      <trkpt lat="45.91178" lon="4.75104">
        <ele>178</ele>
        <time>2018-09-26T10:18:33Z</time>
      </trkpt>
      <trkpt lat="45.91183" lon="4.75105">
        <ele>178</ele>
        <time>2018-09-26T10:18:34Z</time>
      </trkpt>
      <trkpt lat="45.91189" lon="4.75107">
        <ele>178</ele>
        <time>2018-09-26T10:18:35Z</time>
      </trkpt>
      <trkpt lat="45.91194" lon="4.75111">
        <ele>178</ele>
        <time>2018-09-26T10:18:36Z</time>
      </trkpt>
      <trkpt lat="45.91199" lon="4.75113">
        <ele>178</ele>
        <time>2018-09-26T10:18:37Z</time>
      </trkpt>
      <trkpt lat="45.91203" lon="4.75114">
        <ele>178</ele>
        <time>2018-09-26T10:18:38Z</time>
      </trkpt>
      <trkpt lat="45.91208" lon="4.75115">
        <ele>178</ele>
        <time>2018-09-26T10:18:39Z</time>
      </trkpt>
      <trkpt lat="45.91213" lon="4.75117">
        <ele>177</ele>
        <time>2018-09-26T10:18:40Z</time>
      </trkpt>
      <trkpt lat="45.91218" lon="4.75118">
        <ele>177</ele>
        <time>2018-09-26T10:18:41Z</time>
      </trkpt>
      <trkpt lat="45.91222" lon="4.75119">
        <ele>177</ele>
        <time>2018-09-26T10:18:42Z</time>
      </trkpt>
      <trkpt lat="45.91228" lon="4.75121">
        <ele>177</ele>
        <time>2018-09-26T10:18:43Z</time>
      </trkpt>
      <trkpt lat="45.91233" lon="4.75125">
        <ele>177</ele>
        <time>2018-09-26T10:18:44Z</time>
      </trkpt>
      <trkpt lat="45.91238" lon="4.75127">
        <ele>177</ele>
        <time>2018-09-26T10:18:45Z</time>
      </trkpt>
      <trkpt lat="45.91243" lon="4.7513">
        <ele>177</ele>
        <time>2018-09-26T10:18:46Z</time>
      </trkpt>
      <trkpt lat="45.91248" lon="4.75133">
        <ele>177</ele>
        <time>2018-09-26T10:18:47Z</time>
      </trkpt>
      <trkpt lat="45.91253" lon="4.75135">
        <ele>177</ele>
        <time>2018-09-26T10:18:48Z</time>
      </trkpt>
      <trkpt lat="45.91257" lon="4.75138">
        <ele>177</ele>
        <time>2018-09-26T10:18:49Z</time>
      </trkpt>
      <trkpt lat="45.91262" lon="4.75141">
        <ele>177</ele>
        <time>2018-09-26T10:18:50Z</time>
      </trkpt>
      <trkpt lat="45.91266" lon="4.75144">
        <ele>177</ele>
        <time>2018-09-26T10:18:51Z</time>
      </trkpt>
      <trkpt lat="45.9127" lon="4.75146">
        <ele>177</ele>
        <time>2018-09-26T10:18:52Z</time>
      </trkpt>
      <trkpt lat="45.91275" lon="4.75149">
        <ele>177</ele>
        <time>2018-09-26T10:18:53Z</time>
      </trkpt>
      <trkpt lat="45.91282" lon="4.75153">
        <ele>177</ele>
        <time>2018-09-26T10:18:55Z</time>
      </trkpt>
      <trkpt lat="45.91286" lon="4.75155">
        <ele>177</ele>
        <time>2018-09-26T10:18:56Z</time>
      </trkpt>
      <trkpt lat="45.91294" lon="4.75157">
        <ele>177</ele>
        <time>2018-09-26T10:18:58Z</time>
      </trkpt>
      <trkpt lat="45.91295" lon="4.75157">
        <ele>177</ele>
        <time>2018-09-26T10:18:59Z</time>
      </trkpt>
      <trkpt lat="45.91304" lon="4.75158">
        <ele>177</ele>
        <time>2018-09-26T10:19:04Z</time>
      </trkpt>
      <trkpt lat="45.91306" lon="4.75157">
        <ele>177</ele>
        <time>2018-09-26T10:19:05Z</time>
      </trkpt>
      <trkpt lat="45.91307" lon="4.75148">
        <ele>177</ele>
        <time>2018-09-26T10:19:07Z</time>
      </trkpt>
      <trkpt lat="45.91307" lon="4.75142">
        <ele>177</ele>
        <time>2018-09-26T10:19:08Z</time>
      </trkpt>
      <trkpt lat="45.91306" lon="4.75136">
        <ele>177</ele>
        <time>2018-09-26T10:19:09Z</time>
      </trkpt>
      <trkpt lat="45.91308" lon="4.75129">
        <ele>177</ele>
        <time>2018-09-26T10:19:10Z</time>
      </trkpt>
      <trkpt lat="45.91308" lon="4.75122">
        <ele>177</ele>
        <time>2018-09-26T10:19:11Z</time>
      </trkpt>
      <trkpt lat="45.91307" lon="4.75115">
        <ele>177</ele>
        <time>2018-09-26T10:19:12Z</time>
      </trkpt>
      <trkpt lat="45.91306" lon="4.75107">
        <ele>177</ele>
        <time>2018-09-26T10:19:13Z</time>
      </trkpt>
      <trkpt lat="45.91305" lon="4.751">
        <ele>177</ele>
        <time>2018-09-26T10:19:14Z</time>
      </trkpt>
      <trkpt lat="45.91305" lon="4.75088">
        <ele>177</ele>
        <time>2018-09-26T10:19:16Z</time>
      </trkpt>
      <trkpt lat="45.91304" lon="4.75082">
        <ele>177</ele>
        <time>2018-09-26T10:19:17Z</time>
      </trkpt>
      <trkpt lat="45.91303" lon="4.75074">
        <ele>177</ele>
        <time>2018-09-26T10:19:18Z</time>
      </trkpt>
      <trkpt lat="45.91304" lon="4.75068">
        <ele>177</ele>
        <time>2018-09-26T10:19:19Z</time>
      </trkpt>
      <trkpt lat="45.91304" lon="4.75061">
        <ele>177</ele>
        <time>2018-09-26T10:19:20Z</time>
      </trkpt>
      <trkpt lat="45.91303" lon="4.75054">
        <ele>177</ele>
        <time>2018-09-26T10:19:21Z</time>
      </trkpt>
      <trkpt lat="45.91303" lon="4.75047">
        <ele>177</ele>
        <time>2018-09-26T10:19:22Z</time>
      </trkpt>
      <trkpt lat="45.91303" lon="4.7504">
        <ele>177</ele>
        <time>2018-09-26T10:19:23Z</time>
      </trkpt>
      <trkpt lat="45.91303" lon="4.75033">
        <ele>177</ele>
        <time>2018-09-26T10:19:24Z</time>
      </trkpt>
      <trkpt lat="45.91304" lon="4.75026">
        <ele>177</ele>
        <time>2018-09-26T10:19:25Z</time>
      </trkpt>
      <trkpt lat="45.91304" lon="4.7502">
        <ele>177</ele>
        <time>2018-09-26T10:19:26Z</time>
      </trkpt>
      <trkpt lat="45.91305" lon="4.75011">
        <ele>177</ele>
        <time>2018-09-26T10:19:27Z</time>
      </trkpt>
      <trkpt lat="45.91306" lon="4.75004">
        <ele>177</ele>
        <time>2018-09-26T10:19:28Z</time>
      </trkpt>
      <trkpt lat="45.91307" lon="4.74994">
        <ele>177</ele>
        <time>2018-09-26T10:19:29Z</time>
      </trkpt>
      <trkpt lat="45.91307" lon="4.74986">
        <ele>177</ele>
        <time>2018-09-26T10:19:30Z</time>
      </trkpt>
      <trkpt lat="45.91307" lon="4.7498">
        <ele>177</ele>
        <time>2018-09-26T10:19:31Z</time>
      </trkpt>
      <trkpt lat="45.91308" lon="4.74972">
        <ele>177</ele>
        <time>2018-09-26T10:19:32Z</time>
      </trkpt>
      <trkpt lat="45.91309" lon="4.74964">
        <ele>177</ele>
        <time>2018-09-26T10:19:33Z</time>
      </trkpt>
      <trkpt lat="45.9131" lon="4.74957">
        <ele>177</ele>
        <time>2018-09-26T10:19:34Z</time>
      </trkpt>
      <trkpt lat="45.9131" lon="4.7495">
        <ele>177</ele>
        <time>2018-09-26T10:19:35Z</time>
      </trkpt>
      <trkpt lat="45.9131" lon="4.74944">
        <ele>177</ele>
        <time>2018-09-26T10:19:36Z</time>
      </trkpt>
      <trkpt lat="45.91311" lon="4.74937">
        <ele>177</ele>
        <time>2018-09-26T10:19:37Z</time>
      </trkpt>
      <trkpt lat="45.91313" lon="4.74929">
        <ele>177</ele>
        <time>2018-09-26T10:19:38Z</time>
      </trkpt>
      <trkpt lat="45.91313" lon="4.74922">
        <ele>177</ele>
        <time>2018-09-26T10:19:39Z</time>
      </trkpt>
      <trkpt lat="45.91314" lon="4.7491">
        <ele>176</ele>
        <time>2018-09-26T10:19:41Z</time>
      </trkpt>
      <trkpt lat="45.91314" lon="4.74904">
        <ele>176</ele>
        <time>2018-09-26T10:19:42Z</time>
      </trkpt>
      <trkpt lat="45.91317" lon="4.74892">
        <ele>176</ele>
        <time>2018-09-26T10:19:44Z</time>
      </trkpt>
      <trkpt lat="45.91317" lon="4.7489">
        <ele>176</ele>
        <time>2018-09-26T10:19:45Z</time>
      </trkpt>
      <trkpt lat="45.91321" lon="4.74881">
        <ele>176</ele>
        <time>2018-09-26T10:19:48Z</time>
      </trkpt>
      <trkpt lat="45.91328" lon="4.74878">
        <ele>176</ele>
        <time>2018-09-26T10:19:49Z</time>
      </trkpt>
      <trkpt lat="45.91337" lon="4.7488">
        <ele>176</ele>
        <time>2018-09-26T10:19:51Z</time>
      </trkpt>
      <trkpt lat="45.91342" lon="4.74884">
        <ele>176</ele>
        <time>2018-09-26T10:19:52Z</time>
      </trkpt>
      <trkpt lat="45.9135" lon="4.74889">
        <ele>176</ele>
        <time>2018-09-26T10:19:54Z</time>
      </trkpt>
      <trkpt lat="45.91355" lon="4.74891">
        <ele>176</ele>
        <time>2018-09-26T10:19:55Z</time>
      </trkpt>
      <trkpt lat="45.91363" lon="4.74895">
        <ele>176</ele>
        <time>2018-09-26T10:19:57Z</time>
      </trkpt>
      <trkpt lat="45.91367" lon="4.74896">
        <ele>177</ele>
        <time>2018-09-26T10:19:58Z</time>
      </trkpt>
      <trkpt lat="45.91374" lon="4.74899">
        <ele>177</ele>
        <time>2018-09-26T10:20:00Z</time>
      </trkpt>
      <trkpt lat="45.91378" lon="4.74899">
        <ele>177</ele>
        <time>2018-09-26T10:20:01Z</time>
      </trkpt>
      <trkpt lat="45.91383" lon="4.74901">
        <ele>177</ele>
        <time>2018-09-26T10:20:02Z</time>
      </trkpt>
      <trkpt lat="45.91387" lon="4.74902">
        <ele>177</ele>
        <time>2018-09-26T10:20:03Z</time>
      </trkpt>
      <trkpt lat="45.91396" lon="4.74904">
        <ele>177</ele>
        <time>2018-09-26T10:20:05Z</time>
      </trkpt>
      <trkpt lat="45.914" lon="4.74904">
        <ele>177</ele>
        <time>2018-09-26T10:20:06Z</time>
      </trkpt>
      <trkpt lat="45.91407" lon="4.74907">
        <ele>177</ele>
        <time>2018-09-26T10:20:08Z</time>
      </trkpt>
      <trkpt lat="45.91411" lon="4.74909">
        <ele>177</ele>
        <time>2018-09-26T10:20:09Z</time>
      </trkpt>
      <trkpt lat="45.91415" lon="4.7491">
        <ele>178</ele>
        <time>2018-09-26T10:20:10Z</time>
      </trkpt>
      <trkpt lat="45.9142" lon="4.74909">
        <ele>177</ele>
        <time>2018-09-26T10:20:11Z</time>
      </trkpt>
      <trkpt lat="45.91429" lon="4.74911">
        <ele>177</ele>
        <time>2018-09-26T10:20:13Z</time>
      </trkpt>
      <trkpt lat="45.91433" lon="4.74911">
        <ele>177</ele>
        <time>2018-09-26T10:20:14Z</time>
      </trkpt>
      <trkpt lat="45.91441" lon="4.74913">
        <ele>177</ele>
        <time>2018-09-26T10:20:16Z</time>
      </trkpt>
      <trkpt lat="45.91445" lon="4.74916">
        <ele>177</ele>
        <time>2018-09-26T10:20:17Z</time>
      </trkpt>
      <trkpt lat="45.91453" lon="4.74918">
        <ele>178</ele>
        <time>2018-09-26T10:20:19Z</time>
      </trkpt>
      <trkpt lat="45.91456" lon="4.74919">
        <ele>178</ele>
        <time>2018-09-26T10:20:20Z</time>
      </trkpt>
      <trkpt lat="45.91462" lon="4.74921">
        <ele>178</ele>
        <time>2018-09-26T10:20:22Z</time>
      </trkpt>
      <trkpt lat="45.91465" lon="4.7492">
        <ele>178</ele>
        <time>2018-09-26T10:20:23Z</time>
      </trkpt>
      <trkpt lat="45.91473" lon="4.74922">
        <ele>178</ele>
        <time>2018-09-26T10:20:25Z</time>
      </trkpt>
      <trkpt lat="45.91477" lon="4.74922">
        <ele>178</ele>
        <time>2018-09-26T10:20:26Z</time>
      </trkpt>
      <trkpt lat="45.91485" lon="4.74924">
        <ele>178</ele>
        <time>2018-09-26T10:20:28Z</time>
      </trkpt>
      <trkpt lat="45.91486" lon="4.74924">
        <ele>178</ele>
        <time>2018-09-26T10:20:29Z</time>
      </trkpt>
      <trkpt lat="45.91495" lon="4.74926">
        <ele>177</ele>
        <time>2018-09-26T10:20:31Z</time>
      </trkpt>
      <trkpt lat="45.91499" lon="4.74926">
        <ele>177</ele>
        <time>2018-09-26T10:20:32Z</time>
      </trkpt>
      <trkpt lat="45.91507" lon="4.74926">
        <ele>177</ele>
        <time>2018-09-26T10:20:34Z</time>
      </trkpt>
      <trkpt lat="45.91508" lon="4.74927">
        <ele>177</ele>
        <time>2018-09-26T10:20:35Z</time>
      </trkpt>
      <trkpt lat="45.91516" lon="4.74931">
        <ele>177</ele>
        <time>2018-09-26T10:20:38Z</time>
      </trkpt>
      <trkpt lat="45.91519" lon="4.74932">
        <ele>177</ele>
        <time>2018-09-26T10:20:39Z</time>
      </trkpt>
      <trkpt lat="45.91522" lon="4.74934">
        <ele>177</ele>
        <time>2018-09-26T10:20:40Z</time>
      </trkpt>
      <trkpt lat="45.91531" lon="4.74936">
        <ele>178</ele>
        <time>2018-09-26T10:20:41Z</time>
      </trkpt>
      <trkpt lat="45.91536" lon="4.74936">
        <ele>178</ele>
        <time>2018-09-26T10:20:42Z</time>
      </trkpt>
      <trkpt lat="45.91541" lon="4.74936">
        <ele>178</ele>
        <time>2018-09-26T10:20:43Z</time>
      </trkpt>
      <trkpt lat="45.91545" lon="4.74936">
        <ele>178</ele>
        <time>2018-09-26T10:20:44Z</time>
      </trkpt>
      <trkpt lat="45.9155" lon="4.74937">
        <ele>178</ele>
        <time>2018-09-26T10:20:45Z</time>
      </trkpt>
      <trkpt lat="45.91558" lon="4.74936">
        <ele>178</ele>
        <time>2018-09-26T10:20:48Z</time>
      </trkpt>
      <trkpt lat="45.91561" lon="4.74936">
        <ele>178</ele>
        <time>2018-09-26T10:20:49Z</time>
      </trkpt>
      <trkpt lat="45.91566" lon="4.74937">
        <ele>178</ele>
        <time>2018-09-26T10:20:51Z</time>
      </trkpt>
      <trkpt lat="45.91575" lon="4.74939">
        <ele>178</ele>
        <time>2018-09-26T10:20:52Z</time>
      </trkpt>
      <trkpt lat="45.91579" lon="4.7494">
        <ele>178</ele>
        <time>2018-09-26T10:20:53Z</time>
      </trkpt>
      <trkpt lat="45.91583" lon="4.74942">
        <ele>178</ele>
        <time>2018-09-26T10:20:54Z</time>
      </trkpt>
      <trkpt lat="45.91588" lon="4.74943">
        <ele>177</ele>
        <time>2018-09-26T10:20:55Z</time>
      </trkpt>
      <trkpt lat="45.91593" lon="4.74943">
        <ele>177</ele>
        <time>2018-09-26T10:20:56Z</time>
      </trkpt>
      <trkpt lat="45.91598" lon="4.74946">
        <ele>177</ele>
        <time>2018-09-26T10:20:57Z</time>
      </trkpt>
      <trkpt lat="45.91603" lon="4.74947">
        <ele>177</ele>
        <time>2018-09-26T10:20:58Z</time>
      </trkpt>
      <trkpt lat="45.91609" lon="4.74947">
        <ele>177</ele>
        <time>2018-09-26T10:20:59Z</time>
      </trkpt>
      <trkpt lat="45.91613" lon="4.7495">
        <ele>177</ele>
        <time>2018-09-26T10:21:00Z</time>
      </trkpt>
      <trkpt lat="45.91622" lon="4.74954">
        <ele>177</ele>
        <time>2018-09-26T10:21:02Z</time>
      </trkpt>
      <trkpt lat="45.91626" lon="4.74955">
        <ele>176</ele>
        <time>2018-09-26T10:21:03Z</time>
      </trkpt>
      <trkpt lat="45.91634" lon="4.74958">
        <ele>176</ele>
        <time>2018-09-26T10:21:05Z</time>
      </trkpt>
      <trkpt lat="45.91638" lon="4.7496">
        <ele>176</ele>
        <time>2018-09-26T10:21:06Z</time>
      </trkpt>
      <trkpt lat="45.91646" lon="4.74964">
        <ele>176</ele>
        <time>2018-09-26T10:21:08Z</time>
      </trkpt>
      <trkpt lat="45.91649" lon="4.74966">
        <ele>176</ele>
        <time>2018-09-26T10:21:09Z</time>
      </trkpt>
      <trkpt lat="45.91655" lon="4.74968">
        <ele>176</ele>
        <time>2018-09-26T10:21:11Z</time>
      </trkpt>
      <trkpt lat="45.91659" lon="4.74971">
        <ele>176</ele>
        <time>2018-09-26T10:21:12Z</time>
      </trkpt>
      <trkpt lat="45.91663" lon="4.74973">
        <ele>176</ele>
        <time>2018-09-26T10:21:13Z</time>
      </trkpt>
      <trkpt lat="45.91668" lon="4.74974">
        <ele>175</ele>
        <time>2018-09-26T10:21:14Z</time>
      </trkpt>
      <trkpt lat="45.91673" lon="4.74976">
        <ele>175</ele>
        <time>2018-09-26T10:21:15Z</time>
      </trkpt>
      <trkpt lat="45.91677" lon="4.74978">
        <ele>175</ele>
        <time>2018-09-26T10:21:16Z</time>
      </trkpt>
      <trkpt lat="45.91685" lon="4.74981">
        <ele>175</ele>
        <time>2018-09-26T10:21:18Z</time>
      </trkpt>
      <trkpt lat="45.91689" lon="4.74982">
        <ele>175</ele>
        <time>2018-09-26T10:21:19Z</time>
      </trkpt>
      <trkpt lat="45.91697" lon="4.74985">
        <ele>175</ele>
        <time>2018-09-26T10:21:21Z</time>
      </trkpt>
      <trkpt lat="45.91702" lon="4.74984">
        <ele>175</ele>
        <time>2018-09-26T10:21:22Z</time>
      </trkpt>
      <trkpt lat="45.91707" lon="4.74982">
        <ele>175</ele>
        <time>2018-09-26T10:21:23Z</time>
      </trkpt>
      <trkpt lat="45.91711" lon="4.74979">
        <ele>175</ele>
        <time>2018-09-26T10:21:24Z</time>
      </trkpt>
      <trkpt lat="45.91719" lon="4.74972">
        <ele>175</ele>
        <time>2018-09-26T10:21:26Z</time>
      </trkpt>
      <trkpt lat="45.91723" lon="4.74969">
        <ele>175</ele>
        <time>2018-09-26T10:21:27Z</time>
      </trkpt>
      <trkpt lat="45.91726" lon="4.74966">
        <ele>175</ele>
        <time>2018-09-26T10:21:28Z</time>
      </trkpt>
      <trkpt lat="45.91731" lon="4.74962">
        <ele>175</ele>
        <time>2018-09-26T10:21:29Z</time>
      </trkpt>
      <trkpt lat="45.91735" lon="4.7496">
        <ele>175</ele>
        <time>2018-09-26T10:21:30Z</time>
      </trkpt>
      <trkpt lat="45.91739" lon="4.74955">
        <ele>175</ele>
        <time>2018-09-26T10:21:31Z</time>
      </trkpt>
      <trkpt lat="45.91746" lon="4.7495">
        <ele>174</ele>
        <time>2018-09-26T10:21:33Z</time>
      </trkpt>
      <trkpt lat="45.9175" lon="4.74946">
        <ele>174</ele>
        <time>2018-09-26T10:21:34Z</time>
      </trkpt>
      <trkpt lat="45.91755" lon="4.74938">
        <ele>174</ele>
        <time>2018-09-26T10:21:35Z</time>
      </trkpt>
      <trkpt lat="45.91759" lon="4.74934">
        <ele>174</ele>
        <time>2018-09-26T10:21:36Z</time>
      </trkpt>
      <trkpt lat="45.91763" lon="4.74929">
        <ele>174</ele>
        <time>2018-09-26T10:21:37Z</time>
      </trkpt>
      <trkpt lat="45.91768" lon="4.74922">
        <ele>174</ele>
        <time>2018-09-26T10:21:38Z</time>
      </trkpt>
      <trkpt lat="45.91772" lon="4.74916">
        <ele>173</ele>
        <time>2018-09-26T10:21:39Z</time>
      </trkpt>
      <trkpt lat="45.91776" lon="4.74907">
        <ele>173</ele>
        <time>2018-09-26T10:21:40Z</time>
      </trkpt>
      <trkpt lat="45.9178" lon="4.749">
        <ele>173</ele>
        <time>2018-09-26T10:21:41Z</time>
      </trkpt>
      <trkpt lat="45.91784" lon="4.74893">
        <ele>173</ele>
        <time>2018-09-26T10:21:42Z</time>
      </trkpt>
      <trkpt lat="45.91788" lon="4.74886">
        <ele>173</ele>
        <time>2018-09-26T10:21:43Z</time>
      </trkpt>
      <trkpt lat="45.91791" lon="4.74879">
        <ele>173</ele>
        <time>2018-09-26T10:21:44Z</time>
      </trkpt>
      <trkpt lat="45.91795" lon="4.7487">
        <ele>173</ele>
        <time>2018-09-26T10:21:45Z</time>
      </trkpt>
      <trkpt lat="45.91799" lon="4.74863">
        <ele>173</ele>
        <time>2018-09-26T10:21:46Z</time>
      </trkpt>
      <trkpt lat="45.91802" lon="4.74855">
        <ele>173</ele>
        <time>2018-09-26T10:21:47Z</time>
      </trkpt>
      <trkpt lat="45.91806" lon="4.74848">
        <ele>173</ele>
        <time>2018-09-26T10:21:48Z</time>
      </trkpt>
      <trkpt lat="45.91812" lon="4.74836">
        <ele>172</ele>
        <time>2018-09-26T10:21:49Z</time>
      </trkpt>
      <trkpt lat="45.91816" lon="4.74827">
        <ele>172</ele>
        <time>2018-09-26T10:21:50Z</time>
      </trkpt>
      <trkpt lat="45.9182" lon="4.7482">
        <ele>172</ele>
        <time>2018-09-26T10:21:51Z</time>
      </trkpt>
      <trkpt lat="45.91824" lon="4.74813">
        <ele>172</ele>
        <time>2018-09-26T10:21:52Z</time>
      </trkpt>
      <trkpt lat="45.91828" lon="4.74807">
        <ele>172</ele>
        <time>2018-09-26T10:21:53Z</time>
      </trkpt>
      <trkpt lat="45.91832" lon="4.74801">
        <ele>172</ele>
        <time>2018-09-26T10:21:54Z</time>
      </trkpt>
      <trkpt lat="45.91837" lon="4.74794">
        <ele>172</ele>
        <time>2018-09-26T10:21:55Z</time>
      </trkpt>
      <trkpt lat="45.9184" lon="4.74789">
        <ele>171</ele>
        <time>2018-09-26T10:21:56Z</time>
      </trkpt>
      <trkpt lat="45.91843" lon="4.74784">
        <ele>171</ele>
        <time>2018-09-26T10:21:57Z</time>
      </trkpt>
      <trkpt lat="45.91849" lon="4.74776">
        <ele>171</ele>
        <time>2018-09-26T10:21:59Z</time>
      </trkpt>
      <trkpt lat="45.9185" lon="4.74774">
        <ele>171</ele>
        <time>2018-09-26T10:22:00Z</time>
      </trkpt>
      <trkpt lat="45.91854" lon="4.7477">
        <ele>171</ele>
        <time>2018-09-26T10:22:01Z</time>
      </trkpt>
      <trkpt lat="45.9186" lon="4.74763">
        <ele>171</ele>
        <time>2018-09-26T10:22:02Z</time>
      </trkpt>
      <trkpt lat="45.91863" lon="4.74762">
        <ele>171</ele>
        <time>2018-09-26T10:22:03Z</time>
      </trkpt>
      <trkpt lat="45.91869" lon="4.74764">
        <ele>171</ele>
        <time>2018-09-26T10:22:04Z</time>
      </trkpt>
      <trkpt lat="45.91872" lon="4.74764">
        <ele>171</ele>
        <time>2018-09-26T10:22:05Z</time>
      </trkpt>
      <trkpt lat="45.91878" lon="4.74766">
        <ele>172</ele>
        <time>2018-09-26T10:22:06Z</time>
      </trkpt>
      <trkpt lat="45.91884" lon="4.74769">
        <ele>172</ele>
        <time>2018-09-26T10:22:07Z</time>
      </trkpt>
      <trkpt lat="45.91889" lon="4.7477">
        <ele>172</ele>
        <time>2018-09-26T10:22:08Z</time>
      </trkpt>
      <trkpt lat="45.91893" lon="4.74772">
        <ele>172</ele>
        <time>2018-09-26T10:22:09Z</time>
      </trkpt>
      <trkpt lat="45.91897" lon="4.74775">
        <ele>172</ele>
        <time>2018-09-26T10:22:10Z</time>
      </trkpt>
      <trkpt lat="45.91902" lon="4.74778">
        <ele>172</ele>
        <time>2018-09-26T10:22:11Z</time>
      </trkpt>
      <trkpt lat="45.9191" lon="4.74778">
        <ele>172</ele>
        <time>2018-09-26T10:22:12Z</time>
      </trkpt>
      <trkpt lat="45.91916" lon="4.74781">
        <ele>172</ele>
        <time>2018-09-26T10:22:13Z</time>
      </trkpt>
      <trkpt lat="45.91921" lon="4.74785">
        <ele>171</ele>
        <time>2018-09-26T10:22:14Z</time>
      </trkpt>
      <trkpt lat="45.91926" lon="4.74787">
        <ele>171</ele>
        <time>2018-09-26T10:22:15Z</time>
      </trkpt>
      <trkpt lat="45.91931" lon="4.7479">
        <ele>170</ele>
        <time>2018-09-26T10:22:16Z</time>
      </trkpt>
      <trkpt lat="45.91936" lon="4.74792">
        <ele>170</ele>
        <time>2018-09-26T10:22:17Z</time>
      </trkpt>
      <trkpt lat="45.9194" lon="4.74795">
        <ele>170</ele>
        <time>2018-09-26T10:22:18Z</time>
      </trkpt>
      <trkpt lat="45.91945" lon="4.74798">
        <ele>170</ele>
        <time>2018-09-26T10:22:19Z</time>
      </trkpt>
      <trkpt lat="45.91949" lon="4.748">
        <ele>170</ele>
        <time>2018-09-26T10:22:20Z</time>
      </trkpt>
      <trkpt lat="45.91953" lon="4.74802">
        <ele>170</ele>
        <time>2018-09-26T10:22:21Z</time>
      </trkpt>
      <trkpt lat="45.91957" lon="4.74805">
        <ele>170</ele>
        <time>2018-09-26T10:22:22Z</time>
      </trkpt>
      <trkpt lat="45.91962" lon="4.74809">
        <ele>170</ele>
        <time>2018-09-26T10:22:23Z</time>
      </trkpt>
      <trkpt lat="45.91967" lon="4.74811">
        <ele>170</ele>
        <time>2018-09-26T10:22:24Z</time>
      </trkpt>
      <trkpt lat="45.91972" lon="4.74815">
        <ele>170</ele>
        <time>2018-09-26T10:22:25Z</time>
      </trkpt>
      <trkpt lat="45.91977" lon="4.74818">
        <ele>169</ele>
        <time>2018-09-26T10:22:26Z</time>
      </trkpt>
      <trkpt lat="45.91982" lon="4.74822">
        <ele>169</ele>
        <time>2018-09-26T10:22:27Z</time>
      </trkpt>
      <trkpt lat="45.91987" lon="4.74825">
        <ele>169</ele>
        <time>2018-09-26T10:22:28Z</time>
      </trkpt>
      <trkpt lat="45.91992" lon="4.74828">
        <ele>169</ele>
        <time>2018-09-26T10:22:29Z</time>
      </trkpt>
      <trkpt lat="45.91997" lon="4.74832">
        <ele>168</ele>
        <time>2018-09-26T10:22:30Z</time>
      </trkpt>
      <trkpt lat="45.92002" lon="4.74835">
        <ele>168</ele>
        <time>2018-09-26T10:22:31Z</time>
      </trkpt>
      <trkpt lat="45.92006" lon="4.74838">
        <ele>168</ele>
        <time>2018-09-26T10:22:32Z</time>
      </trkpt>
      <trkpt lat="45.92012" lon="4.7484">
        <ele>168</ele>
        <time>2018-09-26T10:22:33Z</time>
      </trkpt>
      <trkpt lat="45.92017" lon="4.74843">
        <ele>169</ele>
        <time>2018-09-26T10:22:34Z</time>
      </trkpt>
      <trkpt lat="45.92023" lon="4.74846">
        <ele>169</ele>
        <time>2018-09-26T10:22:35Z</time>
      </trkpt>
      <trkpt lat="45.92028" lon="4.7485">
        <ele>169</ele>
        <time>2018-09-26T10:22:36Z</time>
      </trkpt>
      <trkpt lat="45.92034" lon="4.74853">
        <ele>169</ele>
        <time>2018-09-26T10:22:37Z</time>
      </trkpt>
      <trkpt lat="45.92039" lon="4.74857">
        <ele>169</ele>
        <time>2018-09-26T10:22:38Z</time>
      </trkpt>
      <trkpt lat="45.92045" lon="4.7486">
        <ele>169</ele>
        <time>2018-09-26T10:22:39Z</time>
      </trkpt>
      <trkpt lat="45.9205" lon="4.74864">
        <ele>169</ele>
        <time>2018-09-26T10:22:40Z</time>
      </trkpt>
      <trkpt lat="45.92055" lon="4.74866">
        <ele>169</ele>
        <time>2018-09-26T10:22:41Z</time>
      </trkpt>
      <trkpt lat="45.9206" lon="4.74868">
        <ele>169</ele>
        <time>2018-09-26T10:22:42Z</time>
      </trkpt>
      <trkpt lat="45.92065" lon="4.74871">
        <ele>169</ele>
        <time>2018-09-26T10:22:43Z</time>
      </trkpt>
      <trkpt lat="45.92071" lon="4.74874">
        <ele>169</ele>
        <time>2018-09-26T10:22:44Z</time>
      </trkpt>
      <trkpt lat="45.92075" lon="4.74877">
        <ele>169</ele>
        <time>2018-09-26T10:22:45Z</time>
      </trkpt>
      <trkpt lat="45.9208" lon="4.7488">
        <ele>169</ele>
        <time>2018-09-26T10:22:46Z</time>
      </trkpt>
      <trkpt lat="45.92084" lon="4.74882">
        <ele>170</ele>
        <time>2018-09-26T10:22:47Z</time>
      </trkpt>
      <trkpt lat="45.92088" lon="4.74885">
        <ele>170</ele>
        <time>2018-09-26T10:22:48Z</time>
      </trkpt>
      <trkpt lat="45.92093" lon="4.74888">
        <ele>170</ele>
        <time>2018-09-26T10:22:49Z</time>
      </trkpt>
      <trkpt lat="45.92098" lon="4.74892">
        <ele>170</ele>
        <time>2018-09-26T10:22:50Z</time>
      </trkpt>
      <trkpt lat="45.92104" lon="4.74895">
        <ele>170</ele>
        <time>2018-09-26T10:22:51Z</time>
      </trkpt>
      <trkpt lat="45.9211" lon="4.74898">
        <ele>170</ele>
        <time>2018-09-26T10:22:52Z</time>
      </trkpt>
      <trkpt lat="45.92115" lon="4.749">
        <ele>170</ele>
        <time>2018-09-26T10:22:53Z</time>
      </trkpt>
      <trkpt lat="45.92119" lon="4.74903">
        <ele>170</ele>
        <time>2018-09-26T10:22:54Z</time>
      </trkpt>
      <trkpt lat="45.92124" lon="4.74905">
        <ele>170</ele>
        <time>2018-09-26T10:22:55Z</time>
      </trkpt>
      <trkpt lat="45.92129" lon="4.74907">
        <ele>170</ele>
        <time>2018-09-26T10:22:56Z</time>
      </trkpt>
      <trkpt lat="45.92134" lon="4.74908">
        <ele>170</ele>
        <time>2018-09-26T10:22:57Z</time>
      </trkpt>
      <trkpt lat="45.92138" lon="4.7491">
        <ele>170</ele>
        <time>2018-09-26T10:22:58Z</time>
      </trkpt>
      <trkpt lat="45.92143" lon="4.74912">
        <ele>170</ele>
        <time>2018-09-26T10:22:59Z</time>
      </trkpt>
      <trkpt lat="45.92148" lon="4.74915">
        <ele>170</ele>
        <time>2018-09-26T10:23:00Z</time>
      </trkpt>
      <trkpt lat="45.92154" lon="4.74918">
        <ele>170</ele>
        <time>2018-09-26T10:23:01Z</time>
      </trkpt>
      <trkpt lat="45.92159" lon="4.74922">
        <ele>170</ele>
        <time>2018-09-26T10:23:02Z</time>
      </trkpt>
      <trkpt lat="45.92164" lon="4.74924">
        <ele>170</ele>
        <time>2018-09-26T10:23:03Z</time>
      </trkpt>
      <trkpt lat="45.92169" lon="4.74927">
        <ele>170</ele>
        <time>2018-09-26T10:23:04Z</time>
      </trkpt>
      <trkpt lat="45.92173" lon="4.7493">
        <ele>171</ele>
        <time>2018-09-26T10:23:05Z</time>
      </trkpt>
      <trkpt lat="45.92178" lon="4.74933">
        <ele>171</ele>
        <time>2018-09-26T10:23:06Z</time>
      </trkpt>
      <trkpt lat="45.92183" lon="4.74935">
        <ele>171</ele>
        <time>2018-09-26T10:23:07Z</time>
      </trkpt>
      <trkpt lat="45.92188" lon="4.74938">
        <ele>171</ele>
        <time>2018-09-26T10:23:08Z</time>
      </trkpt>
      <trkpt lat="45.92193" lon="4.7494">
        <ele>171</ele>
        <time>2018-09-26T10:23:09Z</time>
      </trkpt>
      <trkpt lat="45.92197" lon="4.74943">
        <ele>171</ele>
        <time>2018-09-26T10:23:10Z</time>
      </trkpt>
      <trkpt lat="45.92202" lon="4.74945">
        <ele>171</ele>
        <time>2018-09-26T10:23:11Z</time>
      </trkpt>
      <trkpt lat="45.92208" lon="4.74948">
        <ele>171</ele>
        <time>2018-09-26T10:23:12Z</time>
      </trkpt>
      <trkpt lat="45.92213" lon="4.74951">
        <ele>171</ele>
        <time>2018-09-26T10:23:13Z</time>
      </trkpt>
      <trkpt lat="45.92217" lon="4.74954">
        <ele>171</ele>
        <time>2018-09-26T10:23:14Z</time>
      </trkpt>
      <trkpt lat="45.92222" lon="4.74956">
        <ele>171</ele>
        <time>2018-09-26T10:23:15Z</time>
      </trkpt>
      <trkpt lat="45.92226" lon="4.74958">
        <ele>171</ele>
        <time>2018-09-26T10:23:16Z</time>
      </trkpt>
      <trkpt lat="45.92234" lon="4.74961">
        <ele>171</ele>
        <time>2018-09-26T10:23:18Z</time>
      </trkpt>
      <trkpt lat="45.92236" lon="4.74961">
        <ele>171</ele>
        <time>2018-09-26T10:23:19Z</time>
      </trkpt>
      <trkpt lat="45.92243" lon="4.74961">
        <ele>172</ele>
        <time>2018-09-26T10:23:22Z</time>
      </trkpt>
      <trkpt lat="45.92245" lon="4.74959">
        <ele>172</ele>
        <time>2018-09-26T10:23:23Z</time>
      </trkpt>
      <trkpt lat="45.92249" lon="4.74951">
        <ele>172</ele>
        <time>2018-09-26T10:23:25Z</time>
      </trkpt>
      <trkpt lat="45.92251" lon="4.74947">
        <ele>172</ele>
        <time>2018-09-26T10:23:26Z</time>
      </trkpt>
      <trkpt lat="45.92252" lon="4.74943">
        <ele>172</ele>
        <time>2018-09-26T10:23:27Z</time>
      </trkpt>
      <trkpt lat="45.92254" lon="4.7493">
        <ele>172</ele>
        <time>2018-09-26T10:23:28Z</time>
      </trkpt>
      <trkpt lat="45.92256" lon="4.7492">
        <ele>172</ele>
        <time>2018-09-26T10:23:31Z</time>
      </trkpt>
      <trkpt lat="45.92257" lon="4.74916">
        <ele>172</ele>
        <time>2018-09-26T10:23:32Z</time>
      </trkpt>
      <trkpt lat="45.92261" lon="4.74908">
        <ele>172</ele>
        <time>2018-09-26T10:23:34Z</time>
      </trkpt>
      <trkpt lat="45.92267" lon="4.74899">
        <ele>172</ele>
        <time>2018-09-26T10:23:35Z</time>
      </trkpt>
      <trkpt lat="45.92274" lon="4.74892">
        <ele>172</ele>
        <time>2018-09-26T10:23:39Z</time>
      </trkpt>
      <trkpt lat="45.92276" lon="4.7489">
        <ele>172</ele>
        <time>2018-09-26T10:23:40Z</time>
      </trkpt>
      <trkpt lat="45.92282" lon="4.74882">
        <ele>172</ele>
        <time>2018-09-26T10:23:41Z</time>
      </trkpt>
      <trkpt lat="45.92285" lon="4.74879">
        <ele>172</ele>
        <time>2018-09-26T10:23:42Z</time>
      </trkpt>
      <trkpt lat="45.92291" lon="4.74873">
        <ele>171</ele>
        <time>2018-09-26T10:23:44Z</time>
      </trkpt>
      <trkpt lat="45.92292" lon="4.74871">
        <ele>172</ele>
        <time>2018-09-26T10:23:45Z</time>
      </trkpt>
      <trkpt lat="45.92296" lon="4.74863">
        <ele>172</ele>
        <time>2018-09-26T10:23:48Z</time>
      </trkpt>
      <trkpt lat="45.92298" lon="4.7486">
        <ele>172</ele>
        <time>2018-09-26T10:23:49Z</time>
      </trkpt>
      <trkpt lat="45.92303" lon="4.74852">
        <ele>172</ele>
        <time>2018-09-26T10:23:52Z</time>
      </trkpt>
      <trkpt lat="45.92305" lon="4.74849">
        <ele>172</ele>
        <time>2018-09-26T10:23:53Z</time>
      </trkpt>
      <trkpt lat="45.9231" lon="4.74839">
        <ele>172</ele>
        <time>2018-09-26T10:23:56Z</time>
      </trkpt>
      <trkpt lat="45.92311" lon="4.74835">
        <ele>172</ele>
        <time>2018-09-26T10:23:57Z</time>
      </trkpt>
      <trkpt lat="45.92315" lon="4.74828">
        <ele>171</ele>
        <time>2018-09-26T10:23:59Z</time>
      </trkpt>
      <trkpt lat="45.92317" lon="4.74825">
        <ele>171</ele>
        <time>2018-09-26T10:24:00Z</time>
      </trkpt>
      <trkpt lat="45.92323" lon="4.74815">
        <ele>171</ele>
        <time>2018-09-26T10:24:01Z</time>
      </trkpt>
      <trkpt lat="45.92329" lon="4.74807">
        <ele>171</ele>
        <time>2018-09-26T10:24:03Z</time>
      </trkpt>
      <trkpt lat="45.9233" lon="4.74805">
        <ele>171</ele>
        <time>2018-09-26T10:24:04Z</time>
      </trkpt>
      <trkpt lat="45.92335" lon="4.74797">
        <ele>171</ele>
        <time>2018-09-26T10:24:07Z</time>
      </trkpt>
      <trkpt lat="45.92337" lon="4.74794">
        <ele>171</ele>
        <time>2018-09-26T10:24:08Z</time>
      </trkpt>
      <trkpt lat="45.92343" lon="4.74783">
        <ele>171</ele>
        <time>2018-09-26T10:24:09Z</time>
      </trkpt>
      <trkpt lat="45.92345" lon="4.74777">
        <ele>171</ele>
        <time>2018-09-26T10:24:10Z</time>
      </trkpt>
      <trkpt lat="45.92347" lon="4.7477">
        <ele>171</ele>
        <time>2018-09-26T10:24:11Z</time>
      </trkpt>
      <trkpt lat="45.92353" lon="4.74761">
        <ele>171</ele>
        <time>2018-09-26T10:24:13Z</time>
      </trkpt>
      <trkpt lat="45.92355" lon="4.74756">
        <ele>171</ele>
        <time>2018-09-26T10:24:14Z</time>
      </trkpt>
      <trkpt lat="45.9236" lon="4.74745">
        <ele>171</ele>
        <time>2018-09-26T10:24:18Z</time>
      </trkpt>
      <trkpt lat="45.92361" lon="4.74743">
        <ele>171</ele>
        <time>2018-09-26T10:24:19Z</time>
      </trkpt>
      <trkpt lat="45.92364" lon="4.74735">
        <ele>171</ele>
        <time>2018-09-26T10:24:22Z</time>
      </trkpt>
      <trkpt lat="45.92369" lon="4.74726">
        <ele>171</ele>
        <time>2018-09-26T10:24:23Z</time>
      </trkpt>
      <trkpt lat="45.92372" lon="4.7472">
        <ele>171</ele>
        <time>2018-09-26T10:24:24Z</time>
      </trkpt>
      <trkpt lat="45.92374" lon="4.74715">
        <ele>171</ele>
        <time>2018-09-26T10:24:25Z</time>
      </trkpt>
      <trkpt lat="45.9238" lon="4.74705">
        <ele>171</ele>
        <time>2018-09-26T10:24:27Z</time>
      </trkpt>
      <trkpt lat="45.92382" lon="4.747">
        <ele>171</ele>
        <time>2018-09-26T10:24:28Z</time>
      </trkpt>
      <trkpt lat="45.92386" lon="4.74692">
        <ele>171</ele>
        <time>2018-09-26T10:24:31Z</time>
      </trkpt>
      <trkpt lat="45.92391" lon="4.74681">
        <ele>171</ele>
        <time>2018-09-26T10:24:32Z</time>
      </trkpt>
      <trkpt lat="45.92394" lon="4.74676">
        <ele>171</ele>
        <time>2018-09-26T10:24:33Z</time>
      </trkpt>
      <trkpt lat="45.92397" lon="4.74668">
        <ele>171</ele>
        <time>2018-09-26T10:24:34Z</time>
      </trkpt>
      <trkpt lat="45.92402" lon="4.74659">
        <ele>171</ele>
        <time>2018-09-26T10:24:36Z</time>
      </trkpt>
      <trkpt lat="45.92404" lon="4.74654">
        <ele>171</ele>
        <time>2018-09-26T10:24:37Z</time>
      </trkpt>
      <trkpt lat="45.92408" lon="4.74646">
        <ele>171</ele>
        <time>2018-09-26T10:24:40Z</time>
      </trkpt>
      <trkpt lat="45.9241" lon="4.74643">
        <ele>171</ele>
        <time>2018-09-26T10:24:41Z</time>
      </trkpt>
      <trkpt lat="45.92413" lon="4.74636">
        <ele>171</ele>
        <time>2018-09-26T10:24:43Z</time>
      </trkpt>
      <trkpt lat="45.92419" lon="4.74626">
        <ele>171</ele>
        <time>2018-09-26T10:24:44Z</time>
      </trkpt>
      <trkpt lat="45.92423" lon="4.74616">
        <ele>171</ele>
        <time>2018-09-26T10:24:48Z</time>
      </trkpt>
      <trkpt lat="45.92425" lon="4.74613">
        <ele>171</ele>
        <time>2018-09-26T10:24:49Z</time>
      </trkpt>
      <trkpt lat="45.92428" lon="4.74604">
        <ele>171</ele>
        <time>2018-09-26T10:24:51Z</time>
      </trkpt>
      <trkpt lat="45.92429" lon="4.74601">
        <ele>171</ele>
        <time>2018-09-26T10:24:52Z</time>
      </trkpt>
      <trkpt lat="45.9243" lon="4.74598">
        <ele>171</ele>
        <time>2018-09-26T10:24:53Z</time>
      </trkpt>
      <trkpt lat="45.92432" lon="4.74588">
        <ele>171</ele>
        <time>2018-09-26T10:24:54Z</time>
      </trkpt>
      <trkpt lat="45.92429" lon="4.74581">
        <ele>171</ele>
        <time>2018-09-26T10:24:57Z</time>
      </trkpt>
      <trkpt lat="45.92424" lon="4.74574">
        <ele>171</ele>
        <time>2018-09-26T10:24:58Z</time>
      </trkpt>
      <trkpt lat="45.92417" lon="4.74569">
        <ele>171</ele>
        <time>2018-09-26T10:25:02Z</time>
      </trkpt>
      <trkpt lat="45.92415" lon="4.74568">
        <ele>171</ele>
        <time>2018-09-26T10:25:03Z</time>
      </trkpt>
      <trkpt lat="45.92408" lon="4.74565">
        <ele>171</ele>
        <time>2018-09-26T10:25:06Z</time>
      </trkpt>
      <trkpt lat="45.924" lon="4.74561">
        <ele>171</ele>
        <time>2018-09-26T10:25:07Z</time>
      </trkpt>
      <trkpt lat="45.92393" lon="4.74558">
        <ele>171</ele>
        <time>2018-09-26T10:25:09Z</time>
      </trkpt>
      <trkpt lat="45.9239" lon="4.74556">
        <ele>171</ele>
        <time>2018-09-26T10:25:10Z</time>
      </trkpt>
      <trkpt lat="45.92383" lon="4.74553">
        <ele>171</ele>
        <time>2018-09-26T10:25:13Z</time>
      </trkpt>
      <trkpt lat="45.92381" lon="4.74551">
        <ele>171</ele>
        <time>2018-09-26T10:25:14Z</time>
      </trkpt>
      <trkpt lat="45.92374" lon="4.74547">
        <ele>170</ele>
        <time>2018-09-26T10:25:17Z</time>
      </trkpt>
      <trkpt lat="45.92371" lon="4.74546">
        <ele>170</ele>
        <time>2018-09-26T10:25:18Z</time>
      </trkpt>
      <trkpt lat="45.92368" lon="4.74544">
        <ele>170</ele>
        <time>2018-09-26T10:25:19Z</time>
      </trkpt>
      <trkpt lat="45.92359" lon="4.74539">
        <ele>171</ele>
        <time>2018-09-26T10:25:20Z</time>
      </trkpt>
      <trkpt lat="45.92352" lon="4.74534">
        <ele>171</ele>
        <time>2018-09-26T10:25:23Z</time>
      </trkpt>
      <trkpt lat="45.92349" lon="4.74533">
        <ele>171</ele>
        <time>2018-09-26T10:25:24Z</time>
      </trkpt>
      <trkpt lat="45.92342" lon="4.74528">
        <ele>171</ele>
        <time>2018-09-26T10:25:27Z</time>
      </trkpt>
      <trkpt lat="45.92334" lon="4.74523">
        <ele>171</ele>
        <time>2018-09-26T10:25:28Z</time>
      </trkpt>
      <trkpt lat="45.92326" lon="4.74519">
        <ele>171</ele>
        <time>2018-09-26T10:25:30Z</time>
      </trkpt>
      <trkpt lat="45.92322" lon="4.74516">
        <ele>171</ele>
        <time>2018-09-26T10:25:31Z</time>
      </trkpt>
      <trkpt lat="45.92315" lon="4.74511">
        <ele>171</ele>
        <time>2018-09-26T10:25:33Z</time>
      </trkpt>
      <trkpt lat="45.92311" lon="4.74508">
        <ele>171</ele>
        <time>2018-09-26T10:25:34Z</time>
      </trkpt>
      <trkpt lat="45.92304" lon="4.74504">
        <ele>171</ele>
        <time>2018-09-26T10:25:37Z</time>
      </trkpt>
      <trkpt lat="45.92302" lon="4.74502">
        <ele>171</ele>
        <time>2018-09-26T10:25:38Z</time>
      </trkpt>
      <trkpt lat="45.92295" lon="4.74498">
        <ele>171</ele>
        <time>2018-09-26T10:25:41Z</time>
      </trkpt>
      <trkpt lat="45.92293" lon="4.74497">
        <ele>171</ele>
        <time>2018-09-26T10:25:42Z</time>
      </trkpt>
      <trkpt lat="45.92285" lon="4.74492">
        <ele>171</ele>
        <time>2018-09-26T10:25:43Z</time>
      </trkpt>
      <trkpt lat="45.92281" lon="4.74489">
        <ele>171</ele>
        <time>2018-09-26T10:25:44Z</time>
      </trkpt>
      <trkpt lat="45.92273" lon="4.74485">
        <ele>171</ele>
        <time>2018-09-26T10:25:46Z</time>
      </trkpt>
      <trkpt lat="45.92269" lon="4.74483">
        <ele>171</ele>
        <time>2018-09-26T10:25:47Z</time>
      </trkpt>
      <trkpt lat="45.92261" lon="4.74478">
        <ele>171</ele>
        <time>2018-09-26T10:25:50Z</time>
      </trkpt>
      <trkpt lat="45.92258" lon="4.74476">
        <ele>171</ele>
        <time>2018-09-26T10:25:51Z</time>
      </trkpt>
      <trkpt lat="45.92251" lon="4.74471">
        <ele>171</ele>
        <time>2018-09-26T10:25:54Z</time>
      </trkpt>
      <trkpt lat="45.92249" lon="4.74469">
        <ele>171</ele>
        <time>2018-09-26T10:25:55Z</time>
      </trkpt>
      <trkpt lat="45.92243" lon="4.74462">
        <ele>171</ele>
        <time>2018-09-26T10:25:58Z</time>
      </trkpt>
      <trkpt lat="45.92239" lon="4.74451">
        <ele>171</ele>
        <time>2018-09-26T10:25:59Z</time>
      </trkpt>
      <trkpt lat="45.9224" lon="4.74438">
        <ele>171</ele>
        <time>2018-09-26T10:26:03Z</time>
      </trkpt>
      <trkpt lat="45.92241" lon="4.74435">
        <ele>171</ele>
        <time>2018-09-26T10:26:04Z</time>
      </trkpt>
      <trkpt lat="45.92244" lon="4.74423">
        <ele>171</ele>
        <time>2018-09-26T10:26:05Z</time>
      </trkpt>
      <trkpt lat="45.92247" lon="4.74416">
        <ele>171</ele>
        <time>2018-09-26T10:26:06Z</time>
      </trkpt>
      <trkpt lat="45.92248" lon="4.7441">
        <ele>171</ele>
        <time>2018-09-26T10:26:07Z</time>
      </trkpt>
      <trkpt lat="45.9225" lon="4.74404">
        <ele>171</ele>
        <time>2018-09-26T10:26:08Z</time>
      </trkpt>
      <trkpt lat="45.92252" lon="4.74398">
        <ele>171</ele>
        <time>2018-09-26T10:26:09Z</time>
      </trkpt>
      <trkpt lat="45.92254" lon="4.74392">
        <ele>171</ele>
        <time>2018-09-26T10:26:10Z</time>
      </trkpt>
      <trkpt lat="45.92258" lon="4.74382">
        <ele>171</ele>
        <time>2018-09-26T10:26:12Z</time>
      </trkpt>
      <trkpt lat="45.92259" lon="4.74379">
        <ele>171</ele>
        <time>2018-09-26T10:26:13Z</time>
      </trkpt>
      <trkpt lat="45.92262" lon="4.74371">
        <ele>171</ele>
        <time>2018-09-26T10:26:16Z</time>
      </trkpt>
      <trkpt lat="45.92264" lon="4.74368">
        <ele>171</ele>
        <time>2018-09-26T10:26:17Z</time>
      </trkpt>
      <trkpt lat="45.92268" lon="4.74361">
        <ele>171</ele>
        <time>2018-09-26T10:26:19Z</time>
      </trkpt>
      <trkpt lat="45.9227" lon="4.74358">
        <ele>171</ele>
        <time>2018-09-26T10:26:20Z</time>
      </trkpt>
      <trkpt lat="45.92272" lon="4.74355">
        <ele>171</ele>
        <time>2018-09-26T10:26:21Z</time>
      </trkpt>
      <trkpt lat="45.9228" lon="4.74345">
        <ele>171</ele>
        <time>2018-09-26T10:26:22Z</time>
      </trkpt>
      <trkpt lat="45.92286" lon="4.74338">
        <ele>171</ele>
        <time>2018-09-26T10:26:24Z</time>
      </trkpt>
      <trkpt lat="45.9229" lon="4.74334">
        <ele>171</ele>
        <time>2018-09-26T10:26:25Z</time>
      </trkpt>
      <trkpt lat="45.92296" lon="4.74327">
        <ele>170</ele>
        <time>2018-09-26T10:26:27Z</time>
      </trkpt>
      <trkpt lat="45.92299" lon="4.74324">
        <ele>170</ele>
        <time>2018-09-26T10:26:28Z</time>
      </trkpt>
      <trkpt lat="45.92306" lon="4.74317">
        <ele>170</ele>
        <time>2018-09-26T10:26:32Z</time>
      </trkpt>
      <trkpt lat="45.92308" lon="4.74315">
        <ele>170</ele>
        <time>2018-09-26T10:26:33Z</time>
      </trkpt>
      <trkpt lat="45.92316" lon="4.74308">
        <ele>170</ele>
        <time>2018-09-26T10:26:34Z</time>
      </trkpt>
      <trkpt lat="45.92318" lon="4.74307">
        <ele>170</ele>
        <time>2018-09-26T10:26:35Z</time>
      </trkpt>
      <trkpt lat="45.92325" lon="4.743">
        <ele>170</ele>
        <time>2018-09-26T10:26:38Z</time>
      </trkpt>
      <trkpt lat="45.92328" lon="4.74298">
        <ele>170</ele>
        <time>2018-09-26T10:26:39Z</time>
      </trkpt>
      <trkpt lat="45.92335" lon="4.74295">
        <ele>170</ele>
        <time>2018-09-26T10:26:41Z</time>
      </trkpt>
      <trkpt lat="45.92338" lon="4.74294">
        <ele>170</ele>
        <time>2018-09-26T10:26:42Z</time>
      </trkpt>
      <trkpt lat="45.92347" lon="4.74291">
        <ele>170</ele>
        <time>2018-09-26T10:26:43Z</time>
      </trkpt>
      <trkpt lat="45.92355" lon="4.74293">
        <ele>170</ele>
        <time>2018-09-26T10:26:45Z</time>
      </trkpt>
      <trkpt lat="45.92359" lon="4.74295">
        <ele>170</ele>
        <time>2018-09-26T10:26:46Z</time>
      </trkpt>
      <trkpt lat="45.92366" lon="4.743">
        <ele>170</ele>
        <time>2018-09-26T10:26:48Z</time>
      </trkpt>
      <trkpt lat="45.9237" lon="4.74303">
        <ele>170</ele>
        <time>2018-09-26T10:26:49Z</time>
      </trkpt>
      <trkpt lat="45.92374" lon="4.74306">
        <ele>170</ele>
        <time>2018-09-26T10:26:50Z</time>
      </trkpt>
      <trkpt lat="45.92378" lon="4.74309">
        <ele>170</ele>
        <time>2018-09-26T10:26:51Z</time>
      </trkpt>
      <trkpt lat="45.92386" lon="4.74313">
        <ele>170</ele>
        <time>2018-09-26T10:26:53Z</time>
      </trkpt>
      <trkpt lat="45.9239" lon="4.74315">
        <ele>170</ele>
        <time>2018-09-26T10:26:54Z</time>
      </trkpt>
      <trkpt lat="45.92398" lon="4.74316">
        <ele>170</ele>
        <time>2018-09-26T10:26:57Z</time>
      </trkpt>
      <trkpt lat="45.92401" lon="4.74315">
        <ele>170</ele>
        <time>2018-09-26T10:26:58Z</time>
      </trkpt>
      <trkpt lat="45.92403" lon="4.74313">
        <ele>170</ele>
        <time>2018-09-26T10:26:59Z</time>
      </trkpt>
      <trkpt lat="45.9241" lon="4.74308">
        <ele>170</ele>
        <time>2018-09-26T10:27:00Z</time>
      </trkpt>
      <trkpt lat="45.92415" lon="4.74298">
        <ele>170</ele>
        <time>2018-09-26T10:27:02Z</time>
      </trkpt>
      <trkpt lat="45.92417" lon="4.74293">
        <ele>170</ele>
        <time>2018-09-26T10:27:03Z</time>
      </trkpt>
      <trkpt lat="45.92419" lon="4.74288">
        <ele>170</ele>
        <time>2018-09-26T10:27:05Z</time>
      </trkpt>
      <trkpt lat="45.92423" lon="4.7428">
        <ele>170</ele>
        <time>2018-09-26T10:27:06Z</time>
      </trkpt>
      <trkpt lat="45.92426" lon="4.74275">
        <ele>170</ele>
        <time>2018-09-26T10:27:07Z</time>
      </trkpt>
      <trkpt lat="45.92429" lon="4.74264">
        <ele>170</ele>
        <time>2018-09-26T10:27:08Z</time>
      </trkpt>
      <trkpt lat="45.92431" lon="4.74259">
        <ele>171</ele>
        <time>2018-09-26T10:27:09Z</time>
      </trkpt>
      <trkpt lat="45.92434" lon="4.74252">
        <ele>171</ele>
        <time>2018-09-26T10:27:10Z</time>
      </trkpt>
      <trkpt lat="45.92436" lon="4.74247">
        <ele>171</ele>
        <time>2018-09-26T10:27:11Z</time>
      </trkpt>
      <trkpt lat="45.92439" lon="4.74241">
        <ele>171</ele>
        <time>2018-09-26T10:27:12Z</time>
      </trkpt>
      <trkpt lat="45.92444" lon="4.74233">
        <ele>171</ele>
        <time>2018-09-26T10:27:14Z</time>
      </trkpt>
      <trkpt lat="45.92445" lon="4.7423">
        <ele>171</ele>
        <time>2018-09-26T10:27:15Z</time>
      </trkpt>
      <trkpt lat="45.92449" lon="4.74222">
        <ele>171</ele>
        <time>2018-09-26T10:27:18Z</time>
      </trkpt>
      <trkpt lat="45.92454" lon="4.74214">
        <ele>171</ele>
        <time>2018-09-26T10:27:19Z</time>
      </trkpt>
      <trkpt lat="45.92458" lon="4.74204">
        <ele>171</ele>
        <time>2018-09-26T10:27:22Z</time>
      </trkpt>
      <trkpt lat="45.92462" lon="4.74197">
        <ele>171</ele>
        <time>2018-09-26T10:27:23Z</time>
      </trkpt>
      <trkpt lat="45.92466" lon="4.74186">
        <ele>171</ele>
        <time>2018-09-26T10:27:25Z</time>
      </trkpt>
      <trkpt lat="45.92467" lon="4.74182">
        <ele>171</ele>
        <time>2018-09-26T10:27:26Z</time>
      </trkpt>
      <trkpt lat="45.92468" lon="4.74175">
        <ele>171</ele>
        <time>2018-09-26T10:27:27Z</time>
      </trkpt>
      <trkpt lat="45.9247" lon="4.74169">
        <ele>171</ele>
        <time>2018-09-26T10:27:28Z</time>
      </trkpt>
      <trkpt lat="45.92473" lon="4.74159">
        <ele>171</ele>
        <time>2018-09-26T10:27:31Z</time>
      </trkpt>
      <trkpt lat="45.92475" lon="4.7415">
        <ele>171</ele>
        <time>2018-09-26T10:27:32Z</time>
      </trkpt>
      <trkpt lat="45.92477" lon="4.7414">
        <ele>171</ele>
        <time>2018-09-26T10:27:34Z</time>
      </trkpt>
      <trkpt lat="45.92479" lon="4.74134">
        <ele>171</ele>
        <time>2018-09-26T10:27:35Z</time>
      </trkpt>
      <trkpt lat="45.92482" lon="4.74124">
        <ele>172</ele>
        <time>2018-09-26T10:27:37Z</time>
      </trkpt>
      <trkpt lat="45.92485" lon="4.74118">
        <ele>172</ele>
        <time>2018-09-26T10:27:38Z</time>
      </trkpt>
      <trkpt lat="45.9249" lon="4.74109">
        <ele>172</ele>
        <time>2018-09-26T10:27:40Z</time>
      </trkpt>
      <trkpt lat="45.92492" lon="4.74105">
        <ele>172</ele>
        <time>2018-09-26T10:27:41Z</time>
      </trkpt>
      <trkpt lat="45.92496" lon="4.74099">
        <ele>172</ele>
        <time>2018-09-26T10:27:42Z</time>
      </trkpt>
      <trkpt lat="45.925" lon="4.74094">
        <ele>172</ele>
        <time>2018-09-26T10:27:43Z</time>
      </trkpt>
      <trkpt lat="45.92503" lon="4.74089">
        <ele>172</ele>
        <time>2018-09-26T10:27:44Z</time>
      </trkpt>
      <trkpt lat="45.92506" lon="4.74085">
        <ele>172</ele>
        <time>2018-09-26T10:27:45Z</time>
      </trkpt>
      <trkpt lat="45.92512" lon="4.74077">
        <ele>172</ele>
        <time>2018-09-26T10:27:47Z</time>
      </trkpt>
      <trkpt lat="45.92515" lon="4.74074">
        <ele>172</ele>
        <time>2018-09-26T10:27:48Z</time>
      </trkpt>
      <trkpt lat="45.92521" lon="4.74069">
        <ele>172</ele>
        <time>2018-09-26T10:27:50Z</time>
      </trkpt>
      <trkpt lat="45.92523" lon="4.74066">
        <ele>172</ele>
        <time>2018-09-26T10:27:51Z</time>
      </trkpt>
      <trkpt lat="45.92529" lon="4.74059">
        <ele>172</ele>
        <time>2018-09-26T10:27:53Z</time>
      </trkpt>
      <trkpt lat="45.92533" lon="4.74054">
        <ele>172</ele>
        <time>2018-09-26T10:27:54Z</time>
      </trkpt>
      <trkpt lat="45.92539" lon="4.74045">
        <ele>172</ele>
        <time>2018-09-26T10:27:56Z</time>
      </trkpt>
      <trkpt lat="45.92542" lon="4.7404">
        <ele>172</ele>
        <time>2018-09-26T10:27:57Z</time>
      </trkpt>
      <trkpt lat="45.92547" lon="4.74032">
        <ele>172</ele>
        <time>2018-09-26T10:27:59Z</time>
      </trkpt>
      <trkpt lat="45.92551" lon="4.74026">
        <ele>172</ele>
        <time>2018-09-26T10:28:00Z</time>
      </trkpt>
      <trkpt lat="45.92556" lon="4.74017">
        <ele>172</ele>
        <time>2018-09-26T10:28:02Z</time>
      </trkpt>
      <trkpt lat="45.92556" lon="4.74015">
        <ele>172</ele>
        <time>2018-09-26T10:28:03Z</time>
      </trkpt>
      <trkpt lat="45.92556" lon="4.74006">
        <ele>172</ele>
        <time>2018-09-26T10:28:06Z</time>
      </trkpt>
      <trkpt lat="45.92553" lon="4.73996">
        <ele>172</ele>
        <time>2018-09-26T10:28:07Z</time>
      </trkpt>
      <trkpt lat="45.92546" lon="4.7399">
        <ele>172</ele>
        <time>2018-09-26T10:28:09Z</time>
      </trkpt>
      <trkpt lat="45.92542" lon="4.73988">
        <ele>172</ele>
        <time>2018-09-26T10:28:10Z</time>
      </trkpt>
      <trkpt lat="45.92534" lon="4.73984">
        <ele>172</ele>
        <time>2018-09-26T10:28:12Z</time>
      </trkpt>
      <trkpt lat="45.92531" lon="4.73983">
        <ele>172</ele>
        <time>2018-09-26T10:28:13Z</time>
      </trkpt>
      <trkpt lat="45.92523" lon="4.7398">
        <ele>172</ele>
        <time>2018-09-26T10:28:15Z</time>
      </trkpt>
      <trkpt lat="45.9252" lon="4.73979">
        <ele>172</ele>
        <time>2018-09-26T10:28:16Z</time>
      </trkpt>
      <trkpt lat="45.92514" lon="4.73978">
        <ele>172</ele>
        <time>2018-09-26T10:28:17Z</time>
      </trkpt>
      <trkpt lat="45.92511" lon="4.73975">
        <ele>172</ele>
        <time>2018-09-26T10:28:18Z</time>
      </trkpt>
      <trkpt lat="45.92503" lon="4.73971">
        <ele>172</ele>
        <time>2018-09-26T10:28:20Z</time>
      </trkpt>
      <trkpt lat="45.92498" lon="4.7397">
        <ele>172</ele>
        <time>2018-09-26T10:28:21Z</time>
      </trkpt>
      <trkpt lat="45.92494" lon="4.73968">
        <ele>172</ele>
        <time>2018-09-26T10:28:22Z</time>
      </trkpt>
      <trkpt lat="45.92488" lon="4.73967">
        <ele>172</ele>
        <time>2018-09-26T10:28:23Z</time>
      </trkpt>
      <trkpt lat="45.92481" lon="4.73964">
        <ele>172</ele>
        <time>2018-09-26T10:28:25Z</time>
      </trkpt>
      <trkpt lat="45.92477" lon="4.73962">
        <ele>172</ele>
        <time>2018-09-26T10:28:26Z</time>
      </trkpt>
      <trkpt lat="45.9247" lon="4.73956">
        <ele>172</ele>
        <time>2018-09-26T10:28:28Z</time>
      </trkpt>
      <trkpt lat="45.92466" lon="4.73953">
        <ele>172</ele>
        <time>2018-09-26T10:28:29Z</time>
      </trkpt>
      <trkpt lat="45.92462" lon="4.73943">
        <ele>172</ele>
        <time>2018-09-26T10:28:32Z</time>
      </trkpt>
      <trkpt lat="45.9246" lon="4.73935">
        <ele>172</ele>
        <time>2018-09-26T10:28:33Z</time>
      </trkpt>
      <trkpt lat="45.92461" lon="4.73923">
        <ele>172</ele>
        <time>2018-09-26T10:28:35Z</time>
      </trkpt>
      <trkpt lat="45.92465" lon="4.73916">
        <ele>171</ele>
        <time>2018-09-26T10:28:36Z</time>
      </trkpt>
      <trkpt lat="45.92463" lon="4.73909">
        <ele>171</ele>
        <time>2018-09-26T10:28:37Z</time>
      </trkpt>
      <trkpt lat="45.92463" lon="4.73902">
        <ele>171</ele>
        <time>2018-09-26T10:28:38Z</time>
      </trkpt>
      <trkpt lat="45.92464" lon="4.73895">
        <ele>171</ele>
        <time>2018-09-26T10:28:39Z</time>
      </trkpt>
      <trkpt lat="45.92464" lon="4.73888">
        <ele>171</ele>
        <time>2018-09-26T10:28:40Z</time>
      </trkpt>
      <trkpt lat="45.92465" lon="4.73876">
        <ele>171</ele>
        <time>2018-09-26T10:28:42Z</time>
      </trkpt>
      <trkpt lat="45.92466" lon="4.7387">
        <ele>171</ele>
        <time>2018-09-26T10:28:43Z</time>
      </trkpt>
      <trkpt lat="45.92468" lon="4.73863">
        <ele>171</ele>
        <time>2018-09-26T10:28:45Z</time>
      </trkpt>
      <trkpt lat="45.92468" lon="4.73854">
        <ele>171</ele>
        <time>2018-09-26T10:28:46Z</time>
      </trkpt>
      <trkpt lat="45.92468" lon="4.73843">
        <ele>171</ele>
        <time>2018-09-26T10:28:48Z</time>
      </trkpt>
      <trkpt lat="45.9247" lon="4.73837">
        <ele>171</ele>
        <time>2018-09-26T10:28:49Z</time>
      </trkpt>
      <trkpt lat="45.92471" lon="4.7383">
        <ele>171</ele>
        <time>2018-09-26T10:28:50Z</time>
      </trkpt>
      <trkpt lat="45.92471" lon="4.73823">
        <ele>171</ele>
        <time>2018-09-26T10:28:51Z</time>
      </trkpt>
      <trkpt lat="45.9247" lon="4.7381">
        <ele>172</ele>
        <time>2018-09-26T10:28:53Z</time>
      </trkpt>
      <trkpt lat="45.92471" lon="4.73805">
        <ele>172</ele>
        <time>2018-09-26T10:28:54Z</time>
      </trkpt>
      <trkpt lat="45.92471" lon="4.73793">
        <ele>172</ele>
        <time>2018-09-26T10:28:56Z</time>
      </trkpt>
      <trkpt lat="45.92471" lon="4.73787">
        <ele>172</ele>
        <time>2018-09-26T10:28:57Z</time>
      </trkpt>
      <trkpt lat="45.9247" lon="4.73775">
        <ele>173</ele>
        <time>2018-09-26T10:28:59Z</time>
      </trkpt>
      <trkpt lat="45.9247" lon="4.73768">
        <ele>173</ele>
        <time>2018-09-26T10:29:00Z</time>
      </trkpt>
      <trkpt lat="45.92471" lon="4.73758">
        <ele>173</ele>
        <time>2018-09-26T10:29:03Z</time>
      </trkpt>
      <trkpt lat="45.92471" lon="4.73754">
        <ele>173</ele>
        <time>2018-09-26T10:29:04Z</time>
      </trkpt>
      <trkpt lat="45.92471" lon="4.73741">
        <ele>174</ele>
        <time>2018-09-26T10:29:07Z</time>
      </trkpt>
      <trkpt lat="45.92471" lon="4.73737">
        <ele>174</ele>
        <time>2018-09-26T10:29:08Z</time>
      </trkpt>
      <trkpt lat="45.9247" lon="4.73726">
        <ele>174</ele>
        <time>2018-09-26T10:29:11Z</time>
      </trkpt>
      <trkpt lat="45.92469" lon="4.73723">
        <ele>174</ele>
        <time>2018-09-26T10:29:12Z</time>
      </trkpt>
      <trkpt lat="45.92465" lon="4.73712">
        <ele>174</ele>
        <time>2018-09-26T10:29:29Z</time>
      </trkpt>
      <trkpt lat="45.92465" lon="4.73712">
        <ele>174</ele>
        <time>2018-09-26T10:29:30Z</time>
      </trkpt>
      <trkpt lat="45.92463" lon="4.73711">
        <ele>174</ele>
        <time>2018-09-26T10:29:52.012Z</time>
      </trkpt>
    </trkseg>
  </trk>
</gpx>